<?xml version='1.0' encoding='UTF-8'?><gpx version="1.1" creator="JPX - https://github.com/jenetics/jpx" xmlns="http://www.topografix.com/GPX/1/1"><trk><trkseg><trkpt lat="43.5817334" lon="11.8728897"><ele>273.0</ele><time>2026-05-03T12:44:15.157Z</time></trkpt><trkpt lat="43.5817449" lon="11.872976"><ele>273.0</ele><time>2026-05-03T12:44:17.126Z</time></trkpt><trkpt lat="43.5819141" lon="11.872981"><ele>273.0</ele><time>2026-05-03T12:44:25.104Z</time></trkpt><trkpt lat="43.5818854" lon="11.8728987"><ele>273.0</ele><time>2026-05-03T12:44:40.091Z</time></trkpt><trkpt lat="43.5818405" lon="11.8728372"><ele>273.0</ele><time>2026-05-03T12:44:51.071Z</time></trkpt><trkpt lat="43.5817783" lon="11.8728764"><ele>273.0</ele><time>2026-05-03T12:45:02.201Z</time></trkpt><trkpt lat="43.5817016" lon="11.8728202"><ele>273.0</ele><time>2026-05-03T12:45:06.07Z</time></trkpt><trkpt lat="43.581827" lon="11.8731561"><ele>273.0</ele><time>2026-05-03T12:45:07.113Z</time></trkpt><trkpt lat="43.5817632" lon="11.8731843"><ele>273.0</ele><time>2026-05-03T12:45:09.114Z</time></trkpt><trkpt lat="43.5816937" lon="11.8731715"><ele>273.0</ele><time>2026-05-03T12:45:10.107Z</time></trkpt><trkpt lat="43.5816172" lon="11.8731409"><ele>273.0</ele><time>2026-05-03T12:45:11.135Z</time></trkpt><trkpt lat="43.5815413" lon="11.8731086"><ele>273.0</ele><time>2026-05-03T12:45:12.117Z</time></trkpt><trkpt lat="43.5814526" lon="11.8730786"><ele>273.0</ele><time>2026-05-03T12:45:13.112Z</time></trkpt><trkpt lat="43.5813677" lon="11.8730498"><ele>273.0</ele><time>2026-05-03T12:45:14.113Z</time></trkpt><trkpt lat="43.5813024" lon="11.8730236"><ele>273.0</ele><time>2026-05-03T12:45:15.098Z</time></trkpt><trkpt lat="43.5811872" lon="11.8729817"><ele>273.0</ele><time>2026-05-03T12:45:17.116Z</time></trkpt><trkpt lat="43.5810822" lon="11.872962"><ele>273.0</ele><time>2026-05-03T12:45:19.11Z</time></trkpt><trkpt lat="43.5810051" lon="11.8730626"><ele>273.0</ele><time>2026-05-03T12:45:21.096Z</time></trkpt><trkpt lat="43.5809634" lon="11.8732227"><ele>273.0</ele><time>2026-05-03T12:45:23.123Z</time></trkpt><trkpt lat="43.5809429" lon="11.8733128"><ele>273.0</ele><time>2026-05-03T12:45:24.122Z</time></trkpt><trkpt lat="43.5809247" lon="11.8733988"><ele>273.0</ele><time>2026-05-03T12:45:25.103Z</time></trkpt><trkpt lat="43.5809009" lon="11.8735481"><ele>274.8</ele><time>2026-05-03T12:45:27.132Z</time></trkpt><trkpt lat="43.5808802" lon="11.8736888"><ele>276.6</ele><time>2026-05-03T12:45:29.112Z</time></trkpt><trkpt lat="43.5808621" lon="11.8737864"><ele>278.4</ele><time>2026-05-03T12:45:31.093Z</time></trkpt><trkpt lat="43.5809282" lon="11.8738989"><ele>280.2</ele><time>2026-05-03T12:45:35.125Z</time></trkpt><trkpt lat="43.5810085" lon="11.8739329"><ele>282.0</ele><time>2026-05-03T12:45:36.113Z</time></trkpt><trkpt lat="43.5811063" lon="11.8739722"><ele>280.75</ele><time>2026-05-03T12:45:37.117Z</time></trkpt><trkpt lat="43.5811948" lon="11.8740061"><ele>279.5</ele><time>2026-05-03T12:45:38.108Z</time></trkpt><trkpt lat="43.5812959" lon="11.8740469"><ele>278.25</ele><time>2026-05-03T12:45:39.122Z</time></trkpt><trkpt lat="43.5814081" lon="11.8740898"><ele>277.0</ele><time>2026-05-03T12:45:40.12Z</time></trkpt><trkpt lat="43.5815446" lon="11.87414"><ele>277.0</ele><time>2026-05-03T12:45:41.116Z</time></trkpt><trkpt lat="43.5817049" lon="11.8741937"><ele>277.0</ele><time>2026-05-03T12:45:42.116Z</time></trkpt><trkpt lat="43.5818892" lon="11.874252"><ele>277.0</ele><time>2026-05-03T12:45:43.095Z</time></trkpt><trkpt lat="43.582091" lon="11.8743183"><ele>277.66666666666663</ele><time>2026-05-03T12:45:44.119Z</time></trkpt><trkpt lat="43.5822763" lon="11.8743893"><ele>278.3333333333333</ele><time>2026-05-03T12:45:45.12Z</time></trkpt><trkpt lat="43.5824377" lon="11.8744483"><ele>279.0</ele><time>2026-05-03T12:45:46.117Z</time></trkpt><trkpt lat="43.5825829" lon="11.8745028"><ele>279.0</ele><time>2026-05-03T12:45:47.09Z</time></trkpt><trkpt lat="43.5827072" lon="11.8745551"><ele>279.0</ele><time>2026-05-03T12:45:48.113Z</time></trkpt><trkpt lat="43.5828116" lon="11.8745896"><ele>279.0</ele><time>2026-05-03T12:45:49.112Z</time></trkpt><trkpt lat="43.5828844" lon="11.8746239"><ele>279.0</ele><time>2026-05-03T12:45:50.099Z</time></trkpt><trkpt lat="43.5829843" lon="11.8747277"><ele>279.0</ele><time>2026-05-03T12:45:52.116Z</time></trkpt><trkpt lat="43.5830282" lon="11.8747969"><ele>278.5</ele><time>2026-05-03T12:45:53.124Z</time></trkpt><trkpt lat="43.5830231" lon="11.8749224"><ele>278.0</ele><time>2026-05-03T12:45:54.122Z</time></trkpt><trkpt lat="43.5829935" lon="11.875072"><ele>277.5</ele><time>2026-05-03T12:45:55.11Z</time></trkpt><trkpt lat="43.582956" lon="11.8752526"><ele>277.0</ele><time>2026-05-03T12:45:56.112Z</time></trkpt><trkpt lat="43.5829133" lon="11.8754504"><ele>278.3333333333333</ele><time>2026-05-03T12:45:57.117Z</time></trkpt><trkpt lat="43.5828771" lon="11.8756581"><ele>279.6666666666667</ele><time>2026-05-03T12:45:58.11Z</time></trkpt><trkpt lat="43.5828413" lon="11.8758668"><ele>281.0</ele><time>2026-05-03T12:45:59.101Z</time></trkpt><trkpt lat="43.5828178" lon="11.8760632"><ele>283.75</ele><time>2026-05-03T12:46:00.106Z</time></trkpt><trkpt lat="43.5828096" lon="11.876242"><ele>286.5</ele><time>2026-05-03T12:46:01.106Z</time></trkpt><trkpt lat="43.5827878" lon="11.8764097"><ele>289.25</ele><time>2026-05-03T12:46:02.106Z</time></trkpt><trkpt lat="43.582724" lon="11.8765625"><ele>292.0</ele><time>2026-05-03T12:46:03.113Z</time></trkpt><trkpt lat="43.5826211" lon="11.8766945"><ele>295.66666666666663</ele><time>2026-05-03T12:46:04.106Z</time></trkpt><trkpt lat="43.5825135" lon="11.8768442"><ele>299.3333333333333</ele><time>2026-05-03T12:46:05.099Z</time></trkpt><trkpt lat="43.5824049" lon="11.8770088"><ele>303.0</ele><time>2026-05-03T12:46:06.115Z</time></trkpt><trkpt lat="43.5822931" lon="11.8771784"><ele>303.0</ele><time>2026-05-03T12:46:07.102Z</time></trkpt><trkpt lat="43.5821776" lon="11.8773524"><ele>303.0</ele><time>2026-05-03T12:46:08.124Z</time></trkpt><trkpt lat="43.5820503" lon="11.8775191"><ele>303.0</ele><time>2026-05-03T12:46:09.1Z</time></trkpt><trkpt lat="43.5819214" lon="11.8776723"><ele>304.6666666666667</ele><time>2026-05-03T12:46:10.108Z</time></trkpt><trkpt lat="43.5817916" lon="11.8778269"><ele>306.33333333333337</ele><time>2026-05-03T12:46:11.105Z</time></trkpt><trkpt lat="43.5816599" lon="11.8779727"><ele>308.0</ele><time>2026-05-03T12:46:12.114Z</time></trkpt><trkpt lat="43.5815292" lon="11.8781016"><ele>308.0</ele><time>2026-05-03T12:46:13.11Z</time></trkpt><trkpt lat="43.5814112" lon="11.8782063"><ele>308.0</ele><time>2026-05-03T12:46:14.113Z</time></trkpt><trkpt lat="43.5813189" lon="11.8783012"><ele>308.0</ele><time>2026-05-03T12:46:15.108Z</time></trkpt><trkpt lat="43.5812682" lon="11.8784141"><ele>308.0</ele><time>2026-05-03T12:46:16.103Z</time></trkpt><trkpt lat="43.581275" lon="11.8785427"><ele>308.0</ele><time>2026-05-03T12:46:17.096Z</time></trkpt><trkpt lat="43.5812998" lon="11.8786598"><ele>309.6666666666667</ele><time>2026-05-03T12:46:18.113Z</time></trkpt><trkpt lat="43.5813156" lon="11.8787607"><ele>311.33333333333337</ele><time>2026-05-03T12:46:19.105Z</time></trkpt><trkpt lat="43.5813212" lon="11.8788489"><ele>313.0</ele><time>2026-05-03T12:46:20.101Z</time></trkpt><trkpt lat="43.5813079" lon="11.8789397"><ele>314.6666666666667</ele><time>2026-05-03T12:46:21.105Z</time></trkpt><trkpt lat="43.5813071" lon="11.8790458"><ele>316.3333333333333</ele><time>2026-05-03T12:46:22.111Z</time></trkpt><trkpt lat="43.5813137" lon="11.8791553"><ele>318.0</ele><time>2026-05-03T12:46:23.107Z</time></trkpt><trkpt lat="43.5813495" lon="11.8792723"><ele>319.6666666666667</ele><time>2026-05-03T12:46:24.1Z</time></trkpt><trkpt lat="43.5813745" lon="11.8793897"><ele>321.3333333333333</ele><time>2026-05-03T12:46:25.105Z</time></trkpt><trkpt lat="43.5813918" lon="11.8795102"><ele>323.0</ele><time>2026-05-03T12:46:26.105Z</time></trkpt><trkpt lat="43.5813865" lon="11.8796429"><ele>324.66666666666663</ele><time>2026-05-03T12:46:27.101Z</time></trkpt><trkpt lat="43.5813735" lon="11.8797694"><ele>326.3333333333333</ele><time>2026-05-03T12:46:28.11Z</time></trkpt><trkpt lat="43.5813705" lon="11.879862"><ele>328.0</ele><time>2026-05-03T12:46:29.098Z</time></trkpt><trkpt lat="43.5813875" lon="11.879949"><ele>328.0</ele><time>2026-05-03T12:46:31.107Z</time></trkpt><trkpt lat="43.5814542" lon="11.8798824"><ele>328.0</ele><time>2026-05-03T12:46:33.122Z</time></trkpt><trkpt lat="43.5815041" lon="11.8797607"><ele>328.0</ele><time>2026-05-03T12:46:35.107Z</time></trkpt><trkpt lat="43.581633" lon="11.8796139"><ele>328.0</ele><time>2026-05-03T12:46:39.119Z</time></trkpt><trkpt lat="43.5817066" lon="11.8795312"><ele>328.0</ele><time>2026-05-03T12:46:40.102Z</time></trkpt><trkpt lat="43.5817772" lon="11.8794892"><ele>328.0</ele><time>2026-05-03T12:46:41.1Z</time></trkpt><trkpt lat="43.5818447" lon="11.8794666"><ele>328.0</ele><time>2026-05-03T12:46:42.111Z</time></trkpt><trkpt lat="43.5819215" lon="11.8794263"><ele>328.0</ele><time>2026-05-03T12:46:43.091Z</time></trkpt><trkpt lat="43.5819979" lon="11.8793557"><ele>328.0</ele><time>2026-05-03T12:46:44.123Z</time></trkpt><trkpt lat="43.5820734" lon="11.879267"><ele>328.0</ele><time>2026-05-03T12:46:45.116Z</time></trkpt><trkpt lat="43.5821412" lon="11.8791899"><ele>328.0</ele><time>2026-05-03T12:46:46.116Z</time></trkpt><trkpt lat="43.5822633" lon="11.8791586"><ele>328.0</ele><time>2026-05-03T12:46:48.109Z</time></trkpt><trkpt lat="43.5823168" lon="11.8792546"><ele>328.0</ele><time>2026-05-03T12:46:50.115Z</time></trkpt><trkpt lat="43.5823449" lon="11.8794422"><ele>328.0</ele><time>2026-05-03T12:46:52.113Z</time></trkpt><trkpt lat="43.5823853" lon="11.8795707"><ele>328.0</ele><time>2026-05-03T12:46:53.105Z</time></trkpt><trkpt lat="43.5824253" lon="11.8796894"><ele>328.0</ele><time>2026-05-03T12:46:54.103Z</time></trkpt><trkpt lat="43.5824535" lon="11.8798022"><ele>329.59999999999997</ele><time>2026-05-03T12:46:55.115Z</time></trkpt><trkpt lat="43.5824478" lon="11.8799041"><ele>331.2</ele><time>2026-05-03T12:46:56.112Z</time></trkpt><trkpt lat="43.5823912" lon="11.8799806"><ele>332.8</ele><time>2026-05-03T12:46:57.109Z</time></trkpt><trkpt lat="43.5823168" lon="11.8800333"><ele>334.4</ele><time>2026-05-03T12:46:58.102Z</time></trkpt><trkpt lat="43.5822201" lon="11.8800669"><ele>336.0</ele><time>2026-05-03T12:46:59.093Z</time></trkpt><trkpt lat="43.5821035" lon="11.8800987"><ele>335.20000000000005</ele><time>2026-05-03T12:47:00.108Z</time></trkpt><trkpt lat="43.5820083" lon="11.8801452"><ele>334.40000000000003</ele><time>2026-05-03T12:47:01.096Z</time></trkpt><trkpt lat="43.5819367" lon="11.8802448"><ele>333.6</ele><time>2026-05-03T12:47:02.112Z</time></trkpt><trkpt lat="43.5819215" lon="11.8803769"><ele>332.8</ele><time>2026-05-03T12:47:03.107Z</time></trkpt><trkpt lat="43.5819352" lon="11.8805109"><ele>332.0</ele><time>2026-05-03T12:47:04.125Z</time></trkpt><trkpt lat="43.5820099" lon="11.8806177"><ele>335.40000000000003</ele><time>2026-05-03T12:47:05.12Z</time></trkpt><trkpt lat="43.5821001" lon="11.8806987"><ele>338.8</ele><time>2026-05-03T12:47:06.108Z</time></trkpt><trkpt lat="43.5821968" lon="11.8807785"><ele>342.2</ele><time>2026-05-03T12:47:07.114Z</time></trkpt><trkpt lat="43.5822834" lon="11.8808738"><ele>345.6</ele><time>2026-05-03T12:47:08.112Z</time></trkpt><trkpt lat="43.5823367" lon="11.8810065"><ele>349.0</ele><time>2026-05-03T12:47:09.104Z</time></trkpt><trkpt lat="43.5823604" lon="11.8811669"><ele>351.0</ele><time>2026-05-03T12:47:10.094Z</time></trkpt><trkpt lat="43.5823875" lon="11.8813362"><ele>353.0</ele><time>2026-05-03T12:47:11.103Z</time></trkpt><trkpt lat="43.5824046" lon="11.881511"><ele>355.0</ele><time>2026-05-03T12:47:12.113Z</time></trkpt><trkpt lat="43.5824218" lon="11.8816885"><ele>357.0</ele><time>2026-05-03T12:47:13.096Z</time></trkpt><trkpt lat="43.582434" lon="11.8818678"><ele>359.0</ele><time>2026-05-03T12:47:14.118Z</time></trkpt><trkpt lat="43.5824473" lon="11.8820408"><ele>361.0</ele><time>2026-05-03T12:47:15.106Z</time></trkpt><trkpt lat="43.5824518" lon="11.8822112"><ele>363.0</ele><time>2026-05-03T12:47:16.108Z</time></trkpt><trkpt lat="43.5824394" lon="11.8823665"><ele>365.0</ele><time>2026-05-03T12:47:17.104Z</time></trkpt><trkpt lat="43.582403" lon="11.882495"><ele>365.0</ele><time>2026-05-03T12:47:18.091Z</time></trkpt><trkpt lat="43.5823164" lon="11.8825781"><ele>365.0</ele><time>2026-05-03T12:47:19.104Z</time></trkpt><trkpt lat="43.5822221" lon="11.8826372"><ele>365.0</ele><time>2026-05-03T12:47:20.125Z</time></trkpt><trkpt lat="43.5821225" lon="11.8826722"><ele>365.0</ele><time>2026-05-03T12:47:21.107Z</time></trkpt><trkpt lat="43.5820339" lon="11.8827167"><ele>365.0</ele><time>2026-05-03T12:47:22.11Z</time></trkpt><trkpt lat="43.5819541" lon="11.8827937"><ele>366.25</ele><time>2026-05-03T12:47:23.106Z</time></trkpt><trkpt lat="43.5818758" lon="11.8829101"><ele>367.5</ele><time>2026-05-03T12:47:24.114Z</time></trkpt><trkpt lat="43.5818069" lon="11.8830699"><ele>368.75</ele><time>2026-05-03T12:47:25.108Z</time></trkpt><trkpt lat="43.5817269" lon="11.8832408"><ele>370.0</ele><time>2026-05-03T12:47:26.103Z</time></trkpt><trkpt lat="43.5816387" lon="11.8834085"><ele>373.25</ele><time>2026-05-03T12:47:27.113Z</time></trkpt><trkpt lat="43.5815543" lon="11.883557"><ele>376.5</ele><time>2026-05-03T12:47:28.115Z</time></trkpt><trkpt lat="43.5814708" lon="11.8836766"><ele>379.75</ele><time>2026-05-03T12:47:29.104Z</time></trkpt><trkpt lat="43.5813634" lon="11.8837625"><ele>383.0</ele><time>2026-05-03T12:47:30.11Z</time></trkpt><trkpt lat="43.5812394" lon="11.8838196"><ele>384.2</ele><time>2026-05-03T12:47:31.116Z</time></trkpt><trkpt lat="43.5811438" lon="11.8838848"><ele>385.4</ele><time>2026-05-03T12:47:32.099Z</time></trkpt><trkpt lat="43.5810577" lon="11.8839346"><ele>386.59999999999997</ele><time>2026-05-03T12:47:33.116Z</time></trkpt><trkpt lat="43.5809755" lon="11.8839533"><ele>387.79999999999995</ele><time>2026-05-03T12:47:34.102Z</time></trkpt><trkpt lat="43.580902" lon="11.883931"><ele>389.0</ele><time>2026-05-03T12:47:35.101Z</time></trkpt><trkpt lat="43.5808314" lon="11.8838515"><ele>389.0</ele><time>2026-05-03T12:47:36.114Z</time></trkpt><trkpt lat="43.5807725" lon="11.8837326"><ele>389.0</ele><time>2026-05-03T12:47:37.108Z</time></trkpt><trkpt lat="43.5807188" lon="11.8835991"><ele>389.0</ele><time>2026-05-03T12:47:38.118Z</time></trkpt><trkpt lat="43.5806737" lon="11.8834848"><ele>389.0</ele><time>2026-05-03T12:47:39.11Z</time></trkpt><trkpt lat="43.5806417" lon="11.8833858"><ele>389.0</ele><time>2026-05-03T12:47:40.109Z</time></trkpt><trkpt lat="43.5806079" lon="11.883292"><ele>387.4</ele><time>2026-05-03T12:47:41.105Z</time></trkpt><trkpt lat="43.5805733" lon="11.8832026"><ele>385.79999999999995</ele><time>2026-05-03T12:47:42.111Z</time></trkpt><trkpt lat="43.5805416" lon="11.8831192"><ele>384.20000000000005</ele><time>2026-05-03T12:47:43.093Z</time></trkpt><trkpt lat="43.580453" lon="11.8830115"><ele>382.6</ele><time>2026-05-03T12:47:45.1Z</time></trkpt><trkpt lat="43.5803467" lon="11.8830224"><ele>381.0</ele><time>2026-05-03T12:47:47.111Z</time></trkpt><trkpt lat="43.5802577" lon="11.8831067"><ele>382.3333333333333</ele><time>2026-05-03T12:47:49.113Z</time></trkpt><trkpt lat="43.5802195" lon="11.883181"><ele>383.66666666666663</ele><time>2026-05-03T12:47:50.096Z</time></trkpt><trkpt lat="43.5802092" lon="11.8832806"><ele>385.0</ele><time>2026-05-03T12:47:51.105Z</time></trkpt><trkpt lat="43.580244" lon="11.8833905"><ele>386.3333333333333</ele><time>2026-05-03T12:47:52.108Z</time></trkpt><trkpt lat="43.5802905" lon="11.8835014"><ele>387.66666666666663</ele><time>2026-05-03T12:47:53.115Z</time></trkpt><trkpt lat="43.5803359" lon="11.8836303"><ele>389.0</ele><time>2026-05-03T12:47:54.115Z</time></trkpt><trkpt lat="43.5803811" lon="11.8837687"><ele>388.99999999999994</ele><time>2026-05-03T12:47:55.108Z</time></trkpt><trkpt lat="43.5804301" lon="11.8839109"><ele>389.0</ele><time>2026-05-03T12:47:56.101Z</time></trkpt><trkpt lat="43.5804765" lon="11.8840434"><ele>389.0</ele><time>2026-05-03T12:47:57.112Z</time></trkpt><trkpt lat="43.5804938" lon="11.8841585"><ele>389.0</ele><time>2026-05-03T12:47:58.104Z</time></trkpt><trkpt lat="43.5804936" lon="11.8842616"><ele>388.99999999999994</ele><time>2026-05-03T12:47:59.108Z</time></trkpt><trkpt lat="43.5804683" lon="11.8843413"><ele>389.0</ele><time>2026-05-03T12:48:00.102Z</time></trkpt><trkpt lat="43.5803532" lon="11.8843212"><ele>394.0</ele><time>2026-05-03T12:48:02.113Z</time></trkpt><trkpt lat="43.5802949" lon="11.8842224"><ele>399.0</ele><time>2026-05-03T12:48:03.12Z</time></trkpt><trkpt lat="43.5802322" lon="11.8840844"><ele>404.0</ele><time>2026-05-03T12:48:04.106Z</time></trkpt><trkpt lat="43.5801722" lon="11.8839276"><ele>409.0</ele><time>2026-05-03T12:48:05.099Z</time></trkpt><trkpt lat="43.5801217" lon="11.8837677"><ele>409.0</ele><time>2026-05-03T12:48:06.107Z</time></trkpt><trkpt lat="43.5800636" lon="11.8835876"><ele>409.0</ele><time>2026-05-03T12:48:07.102Z</time></trkpt><trkpt lat="43.5800122" lon="11.8834165"><ele>409.0</ele><time>2026-05-03T12:48:08.115Z</time></trkpt><trkpt lat="43.5799619" lon="11.8832274"><ele>409.0</ele><time>2026-05-03T12:48:09.092Z</time></trkpt><trkpt lat="43.5799126" lon="11.8830787"><ele>410.6</ele><time>2026-05-03T12:48:10.114Z</time></trkpt><trkpt lat="43.5798437" lon="11.8829573"><ele>412.2</ele><time>2026-05-03T12:48:11.114Z</time></trkpt><trkpt lat="43.5797595" lon="11.8828548"><ele>413.8</ele><time>2026-05-03T12:48:12.104Z</time></trkpt><trkpt lat="43.5796604" lon="11.8827812"><ele>415.40000000000003</ele><time>2026-05-03T12:48:13.111Z</time></trkpt><trkpt lat="43.5795669" lon="11.8827449"><ele>417.0</ele><time>2026-05-03T12:48:14.108Z</time></trkpt><trkpt lat="43.5794851" lon="11.8827294"><ele>417.0</ele><time>2026-05-03T12:48:15.113Z</time></trkpt><trkpt lat="43.5794115" lon="11.8827109"><ele>417.0</ele><time>2026-05-03T12:48:16.109Z</time></trkpt><trkpt lat="43.5793064" lon="11.8827342"><ele>417.0</ele><time>2026-05-03T12:48:18.12Z</time></trkpt><trkpt lat="43.5792267" lon="11.8828431"><ele>417.0</ele><time>2026-05-03T12:48:20.115Z</time></trkpt><trkpt lat="43.5791874" lon="11.8829254"><ele>417.0</ele><time>2026-05-03T12:48:21.114Z</time></trkpt><trkpt lat="43.5791327" lon="11.8830487"><ele>417.0</ele><time>2026-05-03T12:48:22.104Z</time></trkpt><trkpt lat="43.5790672" lon="11.8831883"><ele>417.0</ele><time>2026-05-03T12:48:23.115Z</time></trkpt><trkpt lat="43.579004" lon="11.8833272"><ele>417.0</ele><time>2026-05-03T12:48:24.102Z</time></trkpt><trkpt lat="43.5789476" lon="11.8834531"><ele>417.0</ele><time>2026-05-03T12:48:25.106Z</time></trkpt><trkpt lat="43.5789026" lon="11.8835585"><ele>417.0</ele><time>2026-05-03T12:48:26.119Z</time></trkpt><trkpt lat="43.5788627" lon="11.8836657"><ele>418.5</ele><time>2026-05-03T12:48:27.115Z</time></trkpt><trkpt lat="43.5788303" lon="11.8837711"><ele>420.0</ele><time>2026-05-03T12:48:28.11Z</time></trkpt><trkpt lat="43.578797" lon="11.883882"><ele>421.5</ele><time>2026-05-03T12:48:29.117Z</time></trkpt><trkpt lat="43.5787679" lon="11.8839902"><ele>423.0</ele><time>2026-05-03T12:48:30.104Z</time></trkpt><trkpt lat="43.5787562" lon="11.88408"><ele>424.5</ele><time>2026-05-03T12:48:31.112Z</time></trkpt><trkpt lat="43.5787724" lon="11.8841861"><ele>426.0</ele><time>2026-05-03T12:48:32.106Z</time></trkpt><trkpt lat="43.5788117" lon="11.8843156"><ele>428.5</ele><time>2026-05-03T12:48:33.123Z</time></trkpt><trkpt lat="43.5788448" lon="11.8844675"><ele>431.0</ele><time>2026-05-03T12:48:34.094Z</time></trkpt><trkpt lat="43.5788713" lon="11.8846215"><ele>433.5</ele><time>2026-05-03T12:48:35.106Z</time></trkpt><trkpt lat="43.5788908" lon="11.8847763"><ele>436.0</ele><time>2026-05-03T12:48:36.11Z</time></trkpt><trkpt lat="43.5788995" lon="11.8849234"><ele>436.00000000000006</ele><time>2026-05-03T12:48:37.1Z</time></trkpt><trkpt lat="43.5788933" lon="11.8850593"><ele>436.0</ele><time>2026-05-03T12:48:38.094Z</time></trkpt><trkpt lat="43.5788899" lon="11.8851812"><ele>436.0</ele><time>2026-05-03T12:48:39.12Z</time></trkpt><trkpt lat="43.578906" lon="11.8852709"><ele>436.0</ele><time>2026-05-03T12:48:40.113Z</time></trkpt><trkpt lat="43.5789386" lon="11.8853455"><ele>436.00000000000006</ele><time>2026-05-03T12:48:41.109Z</time></trkpt><trkpt lat="43.5790076" lon="11.8854895"><ele>436.0</ele><time>2026-05-03T12:48:43.112Z</time></trkpt><trkpt lat="43.5790405" lon="11.8855964"><ele>437.0</ele><time>2026-05-03T12:48:44.113Z</time></trkpt><trkpt lat="43.5790743" lon="11.8857207"><ele>438.0</ele><time>2026-05-03T12:48:45.119Z</time></trkpt><trkpt lat="43.5791053" lon="11.8858572"><ele>439.0</ele><time>2026-05-03T12:48:46.11Z</time></trkpt><trkpt lat="43.5791397" lon="11.886008"><ele>440.0</ele><time>2026-05-03T12:48:47.093Z</time></trkpt><trkpt lat="43.5791795" lon="11.8861539"><ele>441.0</ele><time>2026-05-03T12:48:48.108Z</time></trkpt><trkpt lat="43.5792095" lon="11.8862772"><ele>442.6666666666667</ele><time>2026-05-03T12:48:49.101Z</time></trkpt><trkpt lat="43.579229" lon="11.8863806"><ele>444.33333333333337</ele><time>2026-05-03T12:48:50.097Z</time></trkpt><trkpt lat="43.5792458" lon="11.8864754"><ele>446.0</ele><time>2026-05-03T12:48:51.095Z</time></trkpt><trkpt lat="43.5792564" lon="11.8865882"><ele>447.6666666666667</ele><time>2026-05-03T12:48:52.11Z</time></trkpt><trkpt lat="43.5792595" lon="11.8867255"><ele>449.33333333333337</ele><time>2026-05-03T12:48:53.103Z</time></trkpt><trkpt lat="43.5792466" lon="11.8868865"><ele>451.0</ele><time>2026-05-03T12:48:54.101Z</time></trkpt><trkpt lat="43.5792372" lon="11.8870266"><ele>451.6666666666667</ele><time>2026-05-03T12:48:55.103Z</time></trkpt><trkpt lat="43.5792357" lon="11.8871566"><ele>452.33333333333337</ele><time>2026-05-03T12:48:56.103Z</time></trkpt><trkpt lat="43.5792454" lon="11.887273"><ele>453.0</ele><time>2026-05-03T12:48:57.11Z</time></trkpt><trkpt lat="43.5792599" lon="11.8873767"><ele>453.66666666666663</ele><time>2026-05-03T12:48:58.108Z</time></trkpt><trkpt lat="43.5792686" lon="11.8874784"><ele>454.3333333333333</ele><time>2026-05-03T12:48:59.092Z</time></trkpt><trkpt lat="43.5792812" lon="11.8875926"><ele>455.0</ele><time>2026-05-03T12:49:00.099Z</time></trkpt><trkpt lat="43.5793009" lon="11.8876993"><ele>455.49999999999994</ele><time>2026-05-03T12:49:01.106Z</time></trkpt><trkpt lat="43.5793393" lon="11.8878186"><ele>456.0</ele><time>2026-05-03T12:49:03.104Z</time></trkpt><trkpt lat="43.5793937" lon="11.8879123"><ele>456.5</ele><time>2026-05-03T12:49:05.112Z</time></trkpt><trkpt lat="43.5794362" lon="11.8879818"><ele>457.0</ele><time>2026-05-03T12:49:06.109Z</time></trkpt><trkpt lat="43.5794871" lon="11.888061"><ele>457.49999999999994</ele><time>2026-05-03T12:49:07.121Z</time></trkpt><trkpt lat="43.5795621" lon="11.8881447"><ele>458.0</ele><time>2026-05-03T12:49:08.117Z</time></trkpt><trkpt lat="43.5796423" lon="11.8882346"><ele>460.4</ele><time>2026-05-03T12:49:09.102Z</time></trkpt><trkpt lat="43.5797312" lon="11.8883467"><ele>462.79999999999995</ele><time>2026-05-03T12:49:10.114Z</time></trkpt><trkpt lat="43.5798046" lon="11.888457"><ele>465.2</ele><time>2026-05-03T12:49:11.111Z</time></trkpt><trkpt lat="43.5798647" lon="11.8885567"><ele>467.6</ele><time>2026-05-03T12:49:12.116Z</time></trkpt><trkpt lat="43.5799081" lon="11.8886477"><ele>470.0</ele><time>2026-05-03T12:49:13.113Z</time></trkpt><trkpt lat="43.5799577" lon="11.8887342"><ele>471.2</ele><time>2026-05-03T12:49:14.117Z</time></trkpt><trkpt lat="43.5800209" lon="11.8888179"><ele>472.4</ele><time>2026-05-03T12:49:15.119Z</time></trkpt><trkpt lat="43.5800903" lon="11.8889122"><ele>473.6</ele><time>2026-05-03T12:49:16.094Z</time></trkpt><trkpt lat="43.5801627" lon="11.889031"><ele>474.8</ele><time>2026-05-03T12:49:17.11Z</time></trkpt><trkpt lat="43.580237" lon="11.8891493"><ele>476.0</ele><time>2026-05-03T12:49:18.114Z</time></trkpt><trkpt lat="43.5803053" lon="11.8892568"><ele>477.49999999999994</ele><time>2026-05-03T12:49:19.133Z</time></trkpt><trkpt lat="43.58036" lon="11.8893527"><ele>479.0</ele><time>2026-05-03T12:49:20.106Z</time></trkpt><trkpt lat="43.5804043" lon="11.889444"><ele>480.5</ele><time>2026-05-03T12:49:21.117Z</time></trkpt><trkpt lat="43.5804447" lon="11.8895215"><ele>482.0</ele><time>2026-05-03T12:49:22.12Z</time></trkpt><trkpt lat="43.5804953" lon="11.8895838"><ele>483.49999999999994</ele><time>2026-05-03T12:49:23.117Z</time></trkpt><trkpt lat="43.5805544" lon="11.889643"><ele>485.0</ele><time>2026-05-03T12:49:24.117Z</time></trkpt><trkpt lat="43.5806085" lon="11.8897098"><ele>485.00000000000006</ele><time>2026-05-03T12:49:25.102Z</time></trkpt><trkpt lat="43.5806516" lon="11.8897913"><ele>485.0</ele><time>2026-05-03T12:49:26.098Z</time></trkpt><trkpt lat="43.580683" lon="11.8898809"><ele>485.00000000000006</ele><time>2026-05-03T12:49:27.116Z</time></trkpt><trkpt lat="43.5807087" lon="11.8899745"><ele>485.00000000000006</ele><time>2026-05-03T12:49:28.114Z</time></trkpt><trkpt lat="43.5807327" lon="11.8900721"><ele>485.0</ele><time>2026-05-03T12:49:29.099Z</time></trkpt><trkpt lat="43.5807538" lon="11.8901705"><ele>485.00000000000006</ele><time>2026-05-03T12:49:30.117Z</time></trkpt><trkpt lat="43.5807667" lon="11.8902689"><ele>485.00000000000006</ele><time>2026-05-03T12:49:31.095Z</time></trkpt><trkpt lat="43.5807645" lon="11.8903702"><ele>484.1428571428572</ele><time>2026-05-03T12:49:32.116Z</time></trkpt><trkpt lat="43.580751" lon="11.8904699"><ele>483.28571428571433</ele><time>2026-05-03T12:49:33.108Z</time></trkpt><trkpt lat="43.580733" lon="11.8905671"><ele>482.42857142857144</ele><time>2026-05-03T12:49:34.12Z</time></trkpt><trkpt lat="43.5807157" lon="11.8906658"><ele>481.5714285714286</ele><time>2026-05-03T12:49:35.105Z</time></trkpt><trkpt lat="43.5806994" lon="11.8907681"><ele>480.7142857142858</ele><time>2026-05-03T12:49:36.098Z</time></trkpt><trkpt lat="43.5806842" lon="11.8908683"><ele>479.85714285714283</ele><time>2026-05-03T12:49:37.097Z</time></trkpt><trkpt lat="43.5806679" lon="11.8909652"><ele>479.0</ele><time>2026-05-03T12:49:38.111Z</time></trkpt><trkpt lat="43.5806514" lon="11.8910561"><ele>478.8333333333333</ele><time>2026-05-03T12:49:39.11Z</time></trkpt><trkpt lat="43.5806377" lon="11.8911425"><ele>478.66666666666663</ele><time>2026-05-03T12:49:40.106Z</time></trkpt><trkpt lat="43.580629" lon="11.8912344"><ele>478.5</ele><time>2026-05-03T12:49:41.105Z</time></trkpt><trkpt lat="43.5806214" lon="11.8913393"><ele>478.33333333333337</ele><time>2026-05-03T12:49:42.12Z</time></trkpt><trkpt lat="43.5806106" lon="11.8914553"><ele>478.1666666666667</ele><time>2026-05-03T12:49:43.099Z</time></trkpt><trkpt lat="43.580592" lon="11.8915849"><ele>478.0</ele><time>2026-05-03T12:49:44.103Z</time></trkpt><trkpt lat="43.580562" lon="11.8917228"><ele>479.75</ele><time>2026-05-03T12:49:45.098Z</time></trkpt><trkpt lat="43.5805273" lon="11.891866"><ele>481.5</ele><time>2026-05-03T12:49:46.096Z</time></trkpt><trkpt lat="43.5804894" lon="11.8920145"><ele>483.25</ele><time>2026-05-03T12:49:47.108Z</time></trkpt><trkpt lat="43.5804488" lon="11.8921695"><ele>485.0</ele><time>2026-05-03T12:49:48.11Z</time></trkpt><trkpt lat="43.5804057" lon="11.8923294"><ele>485.0</ele><time>2026-05-03T12:49:49.129Z</time></trkpt><trkpt lat="43.5803631" lon="11.8924849"><ele>485.0</ele><time>2026-05-03T12:49:50.106Z</time></trkpt><trkpt lat="43.5803184" lon="11.8926398"><ele>485.0</ele><time>2026-05-03T12:49:51.113Z</time></trkpt><trkpt lat="43.5802626" lon="11.8927672"><ele>485.0</ele><time>2026-05-03T12:49:52.1Z</time></trkpt><trkpt lat="43.5801884" lon="11.8928759"><ele>488.0</ele><time>2026-05-03T12:49:53.103Z</time></trkpt><trkpt lat="43.580087" lon="11.8929603"><ele>491.0</ele><time>2026-05-03T12:49:54.105Z</time></trkpt><trkpt lat="43.5799804" lon="11.893029"><ele>494.0</ele><time>2026-05-03T12:49:55.1Z</time></trkpt><trkpt lat="43.5798689" lon="11.8930715"><ele>497.0</ele><time>2026-05-03T12:49:56.117Z</time></trkpt><trkpt lat="43.5797476" lon="11.8931125"><ele>497.0</ele><time>2026-05-03T12:49:57.105Z</time></trkpt><trkpt lat="43.5796196" lon="11.8931663"><ele>497.0</ele><time>2026-05-03T12:49:58.121Z</time></trkpt><trkpt lat="43.5795004" lon="11.8932184"><ele>497.0</ele><time>2026-05-03T12:49:59.122Z</time></trkpt><trkpt lat="43.5793983" lon="11.8932617"><ele>497.0</ele><time>2026-05-03T12:50:00.114Z</time></trkpt><trkpt lat="43.5793099" lon="11.8933091"><ele>496.0</ele><time>2026-05-03T12:50:01.09Z</time></trkpt><trkpt lat="43.5792341" lon="11.8933858"><ele>495.00000000000006</ele><time>2026-05-03T12:50:02.116Z</time></trkpt><trkpt lat="43.5791664" lon="11.8934847"><ele>494.00000000000006</ele><time>2026-05-03T12:50:03.143Z</time></trkpt><trkpt lat="43.5791235" lon="11.8936182"><ele>493.0</ele><time>2026-05-03T12:50:04.114Z</time></trkpt><trkpt lat="43.5790833" lon="11.8937621"><ele>492.0</ele><time>2026-05-03T12:50:05.105Z</time></trkpt><trkpt lat="43.5790421" lon="11.893912"><ele>495.0</ele><time>2026-05-03T12:50:06.11Z</time></trkpt><trkpt lat="43.5789913" lon="11.8940559"><ele>498.00000000000006</ele><time>2026-05-03T12:50:07.105Z</time></trkpt><trkpt lat="43.5789332" lon="11.8941892"><ele>501.00000000000006</ele><time>2026-05-03T12:50:08.116Z</time></trkpt><trkpt lat="43.5788502" lon="11.8942815"><ele>504.0</ele><time>2026-05-03T12:50:09.117Z</time></trkpt><trkpt lat="43.5787571" lon="11.8943403"><ele>507.0</ele><time>2026-05-03T12:50:10.092Z</time></trkpt><trkpt lat="43.5786541" lon="11.8943662"><ele>510.3333333333333</ele><time>2026-05-03T12:50:11.115Z</time></trkpt><trkpt lat="43.5785609" lon="11.8943788"><ele>513.6666666666666</ele><time>2026-05-03T12:50:12.091Z</time></trkpt><trkpt lat="43.5784822" lon="11.8943875"><ele>517.0</ele><time>2026-05-03T12:50:13.117Z</time></trkpt><trkpt lat="43.5784124" lon="11.8943919"><ele>520.3333333333333</ele><time>2026-05-03T12:50:14.099Z</time></trkpt><trkpt lat="43.5783488" lon="11.8943942"><ele>523.6666666666666</ele><time>2026-05-03T12:50:15.113Z</time></trkpt><trkpt lat="43.5782627" lon="11.8943886"><ele>527.0</ele><time>2026-05-03T12:50:17.101Z</time></trkpt><trkpt lat="43.5781845" lon="11.8943831"><ele>527.0</ele><time>2026-05-03T12:50:20.135Z</time></trkpt><trkpt lat="43.5780993" lon="11.8943857"><ele>527.0</ele><time>2026-05-03T12:50:23.112Z</time></trkpt><trkpt lat="43.5779967" lon="11.8943865"><ele>527.0</ele><time>2026-05-03T12:50:25.105Z</time></trkpt><trkpt lat="43.5778592" lon="11.8944017"><ele>527.0</ele><time>2026-05-03T12:50:27.104Z</time></trkpt><trkpt lat="43.5777869" lon="11.894431"><ele>527.0</ele><time>2026-05-03T12:50:28.11Z</time></trkpt><trkpt lat="43.577714" lon="11.8944756"><ele>524.8000000000001</ele><time>2026-05-03T12:50:29.116Z</time></trkpt><trkpt lat="43.5776458" lon="11.8945287"><ele>522.6</ele><time>2026-05-03T12:50:30.111Z</time></trkpt><trkpt lat="43.5775853" lon="11.8945742"><ele>520.4000000000001</ele><time>2026-05-03T12:50:31.119Z</time></trkpt><trkpt lat="43.5774801" lon="11.8946316"><ele>518.2</ele><time>2026-05-03T12:50:33.101Z</time></trkpt><trkpt lat="43.5773977" lon="11.8946556"><ele>516.0</ele><time>2026-05-03T12:50:35.118Z</time></trkpt><trkpt lat="43.5773221" lon="11.8947872"><ele>516.0</ele><time>2026-05-03T12:50:37.103Z</time></trkpt><trkpt lat="43.5772866" lon="11.8948835"><ele>516.0</ele><time>2026-05-03T12:50:38.109Z</time></trkpt><trkpt lat="43.5772433" lon="11.8949805"><ele>516.0</ele><time>2026-05-03T12:50:39.114Z</time></trkpt><trkpt lat="43.5771794" lon="11.8950634"><ele>516.0</ele><time>2026-05-03T12:50:40.147Z</time></trkpt><trkpt lat="43.5771148" lon="11.8951683"><ele>516.0</ele><time>2026-05-03T12:50:41.118Z</time></trkpt><trkpt lat="43.5770556" lon="11.8952663"><ele>516.0</ele><time>2026-05-03T12:50:42.116Z</time></trkpt><trkpt lat="43.5770007" lon="11.8953517"><ele>516.3333333333334</ele><time>2026-05-03T12:50:43.117Z</time></trkpt><trkpt lat="43.5769466" lon="11.8954023"><ele>516.6666666666666</ele><time>2026-05-03T12:50:44.107Z</time></trkpt><trkpt lat="43.5768821" lon="11.8954261"><ele>517.0</ele><time>2026-05-03T12:50:45.095Z</time></trkpt><trkpt lat="43.5768042" lon="11.8954289"><ele>517.3333333333333</ele><time>2026-05-03T12:50:46.1Z</time></trkpt><trkpt lat="43.5767267" lon="11.8954145"><ele>517.6666666666666</ele><time>2026-05-03T12:50:47.109Z</time></trkpt><trkpt lat="43.5766457" lon="11.8954093"><ele>518.0</ele><time>2026-05-03T12:50:48.107Z</time></trkpt><trkpt lat="43.5765608" lon="11.8954316"><ele>518.0</ele><time>2026-05-03T12:50:49.121Z</time></trkpt><trkpt lat="43.5764763" lon="11.8954586"><ele>518.0</ele><time>2026-05-03T12:50:50.111Z</time></trkpt><trkpt lat="43.5763948" lon="11.8954796"><ele>518.0</ele><time>2026-05-03T12:50:51.115Z</time></trkpt><trkpt lat="43.5763061" lon="11.8954786"><ele>518.0</ele><time>2026-05-03T12:50:52.107Z</time></trkpt><trkpt lat="43.5762146" lon="11.8954551"><ele>518.0</ele><time>2026-05-03T12:50:53.104Z</time></trkpt><trkpt lat="43.5761445" lon="11.8954508"><ele>518.0</ele><time>2026-05-03T12:50:54.103Z</time></trkpt><trkpt lat="43.5760797" lon="11.8954472"><ele>518.3333333333333</ele><time>2026-05-03T12:50:55.112Z</time></trkpt><trkpt lat="43.5760125" lon="11.8954495"><ele>518.6666666666666</ele><time>2026-05-03T12:50:56.1Z</time></trkpt><trkpt lat="43.5759356" lon="11.8954533"><ele>519.0</ele><time>2026-05-03T12:50:57.102Z</time></trkpt><trkpt lat="43.5758649" lon="11.8954602"><ele>519.3333333333334</ele><time>2026-05-03T12:50:58.099Z</time></trkpt><trkpt lat="43.5757873" lon="11.8954578"><ele>519.6666666666667</ele><time>2026-05-03T12:50:59.109Z</time></trkpt><trkpt lat="43.5757006" lon="11.8954473"><ele>520.0</ele><time>2026-05-03T12:51:00.106Z</time></trkpt><trkpt lat="43.5756162" lon="11.8954629"><ele>520.0</ele><time>2026-05-03T12:51:01.105Z</time></trkpt><trkpt lat="43.5755267" lon="11.8955038"><ele>520.0</ele><time>2026-05-03T12:51:02.108Z</time></trkpt><trkpt lat="43.5754404" lon="11.8955655"><ele>520.0</ele><time>2026-05-03T12:51:03.107Z</time></trkpt><trkpt lat="43.5753575" lon="11.8956211"><ele>520.0</ele><time>2026-05-03T12:51:04.1Z</time></trkpt><trkpt lat="43.5752745" lon="11.8956574"><ele>520.0</ele><time>2026-05-03T12:51:05.111Z</time></trkpt><trkpt lat="43.575196" lon="11.8956735"><ele>519.3333333333334</ele><time>2026-05-03T12:51:06.106Z</time></trkpt><trkpt lat="43.5751276" lon="11.8956837"><ele>518.6666666666667</ele><time>2026-05-03T12:51:07.123Z</time></trkpt><trkpt lat="43.5750613" lon="11.8956526"><ele>518.0</ele><time>2026-05-03T12:51:09.116Z</time></trkpt><trkpt lat="43.5749854" lon="11.8955509"><ele>517.3333333333334</ele><time>2026-05-03T12:51:12.11Z</time></trkpt><trkpt lat="43.5749235" lon="11.8955091"><ele>516.6666666666666</ele><time>2026-05-03T12:51:14.12Z</time></trkpt><trkpt lat="43.5748412" lon="11.8955083"><ele>516.0</ele><time>2026-05-03T12:51:17.129Z</time></trkpt><trkpt lat="43.5747306" lon="11.8954573"><ele>516.0</ele><time>2026-05-03T12:51:19.102Z</time></trkpt><trkpt lat="43.5746656" lon="11.8954489"><ele>516.0</ele><time>2026-05-03T12:51:20.115Z</time></trkpt><trkpt lat="43.5745468" lon="11.8954753"><ele>516.0</ele><time>2026-05-03T12:51:22.112Z</time></trkpt><trkpt lat="43.5744634" lon="11.8954955"><ele>516.0</ele><time>2026-05-03T12:51:24.118Z</time></trkpt><trkpt lat="43.5743821" lon="11.8954864"><ele>516.0</ele><time>2026-05-03T12:51:26.112Z</time></trkpt><trkpt lat="43.5743117" lon="11.8953956"><ele>516.0</ele><time>2026-05-03T12:51:28.117Z</time></trkpt><trkpt lat="43.5742555" lon="11.8952945"><ele>516.6666666666666</ele><time>2026-05-03T12:51:30.107Z</time></trkpt><trkpt lat="43.5741713" lon="11.8951813"><ele>517.3333333333334</ele><time>2026-05-03T12:51:32.112Z</time></trkpt><trkpt lat="43.5741119" lon="11.8951184"><ele>518.0</ele><time>2026-05-03T12:51:33.103Z</time></trkpt><trkpt lat="43.5740429" lon="11.8950673"><ele>518.6666666666667</ele><time>2026-05-03T12:51:34.116Z</time></trkpt><trkpt lat="43.5739704" lon="11.895021"><ele>519.3333333333334</ele><time>2026-05-03T12:51:35.102Z</time></trkpt><trkpt lat="43.5738887" lon="11.8949597"><ele>520.0</ele><time>2026-05-03T12:51:36.107Z</time></trkpt><trkpt lat="43.5738011" lon="11.8948932"><ele>519.2</ele><time>2026-05-03T12:51:37.106Z</time></trkpt><trkpt lat="43.5737186" lon="11.8948184"><ele>518.4</ele><time>2026-05-03T12:51:38.113Z</time></trkpt><trkpt lat="43.573647" lon="11.8947336"><ele>517.6</ele><time>2026-05-03T12:51:39.103Z</time></trkpt><trkpt lat="43.5735838" lon="11.8946446"><ele>516.8</ele><time>2026-05-03T12:51:40.105Z</time></trkpt><trkpt lat="43.573528" lon="11.8945597"><ele>516.0</ele><time>2026-05-03T12:51:41.108Z</time></trkpt><trkpt lat="43.5734562" lon="11.894497"><ele>516.0</ele><time>2026-05-03T12:51:42.106Z</time></trkpt><trkpt lat="43.5733774" lon="11.8944342"><ele>516.0</ele><time>2026-05-03T12:51:43.114Z</time></trkpt><trkpt lat="43.5732944" lon="11.894414"><ele>516.0</ele><time>2026-05-03T12:51:44.109Z</time></trkpt><trkpt lat="43.5732285" lon="11.8944091"><ele>516.0</ele><time>2026-05-03T12:51:45.1Z</time></trkpt><trkpt lat="43.5731608" lon="11.894413"><ele>516.0</ele><time>2026-05-03T12:51:46.114Z</time></trkpt><trkpt lat="43.5730854" lon="11.8944716"><ele>516.0</ele><time>2026-05-03T12:51:47.095Z</time></trkpt><trkpt lat="43.5730091" lon="11.8945363"><ele>515.9999999999999</ele><time>2026-05-03T12:51:48.107Z</time></trkpt><trkpt lat="43.5729454" lon="11.8945823"><ele>516.0</ele><time>2026-05-03T12:51:49.087Z</time></trkpt><trkpt lat="43.5728799" lon="11.8946021"><ele>516.0</ele><time>2026-05-03T12:51:50.111Z</time></trkpt><trkpt lat="43.5728095" lon="11.8946209"><ele>516.0</ele><time>2026-05-03T12:51:51.112Z</time></trkpt><trkpt lat="43.5727455" lon="11.8946352"><ele>516.0</ele><time>2026-05-03T12:51:52.109Z</time></trkpt><trkpt lat="43.5726782" lon="11.8946511"><ele>515.9999999999999</ele><time>2026-05-03T12:51:53.109Z</time></trkpt><trkpt lat="43.572613" lon="11.8946666"><ele>516.0</ele><time>2026-05-03T12:51:54.107Z</time></trkpt><trkpt lat="43.5724926" lon="11.8947023"><ele>515.6</ele><time>2026-05-03T12:51:56.106Z</time></trkpt><trkpt lat="43.5723923" lon="11.8947326"><ele>515.2</ele><time>2026-05-03T12:51:58.129Z</time></trkpt><trkpt lat="43.5723069" lon="11.8947588"><ele>514.8</ele><time>2026-05-03T12:52:00.095Z</time></trkpt><trkpt lat="43.5722423" lon="11.8946917"><ele>514.4</ele><time>2026-05-03T12:52:02.124Z</time></trkpt><trkpt lat="43.5721725" lon="11.8945803"><ele>514.0</ele><time>2026-05-03T12:52:04.116Z</time></trkpt><trkpt lat="43.5721643" lon="11.8944528"><ele>514.0</ele><time>2026-05-03T12:52:06.115Z</time></trkpt><trkpt lat="43.5721819" lon="11.8943247"><ele>514.0</ele><time>2026-05-03T12:52:07.103Z</time></trkpt><trkpt lat="43.5721982" lon="11.8942049"><ele>514.0</ele><time>2026-05-03T12:52:08.107Z</time></trkpt><trkpt lat="43.5722025" lon="11.8940848"><ele>514.0</ele><time>2026-05-03T12:52:09.106Z</time></trkpt><trkpt lat="43.5721952" lon="11.8939415"><ele>514.0</ele><time>2026-05-03T12:52:10.099Z</time></trkpt><trkpt lat="43.5721878" lon="11.8938156"><ele>514.4</ele><time>2026-05-03T12:52:11.089Z</time></trkpt><trkpt lat="43.5721707" lon="11.8937093"><ele>514.8</ele><time>2026-05-03T12:52:12.097Z</time></trkpt><trkpt lat="43.5721571" lon="11.8936045"><ele>515.2</ele><time>2026-05-03T12:52:13.102Z</time></trkpt><trkpt lat="43.5721385" lon="11.8935032"><ele>515.6</ele><time>2026-05-03T12:52:14.103Z</time></trkpt><trkpt lat="43.57208" lon="11.8933616"><ele>516.0</ele><time>2026-05-03T12:52:16.115Z</time></trkpt><trkpt lat="43.571988" lon="11.8932832"><ele>516.0</ele><time>2026-05-03T12:52:18.11Z</time></trkpt><trkpt lat="43.5719028" lon="11.893255"><ele>516.0</ele><time>2026-05-03T12:52:20.096Z</time></trkpt><trkpt lat="43.5718236" lon="11.8932196"><ele>516.0</ele><time>2026-05-03T12:52:22.098Z</time></trkpt><trkpt lat="43.5717601" lon="11.8931965"><ele>516.0</ele><time>2026-05-03T12:52:23.109Z</time></trkpt><trkpt lat="43.5716759" lon="11.893175"><ele>516.0</ele><time>2026-05-03T12:52:24.104Z</time></trkpt><trkpt lat="43.5716039" lon="11.8931372"><ele>516.0</ele><time>2026-05-03T12:52:25.114Z</time></trkpt><trkpt lat="43.5715342" lon="11.8931087"><ele>516.0</ele><time>2026-05-03T12:52:26.11Z</time></trkpt><trkpt lat="43.5714154" lon="11.8931208"><ele>516.0</ele><time>2026-05-03T12:52:28.11Z</time></trkpt><trkpt lat="43.5713098" lon="11.8931246"><ele>516.0</ele><time>2026-05-03T12:52:30.108Z</time></trkpt><trkpt lat="43.5712382" lon="11.8931183"><ele>516.0</ele><time>2026-05-03T12:52:32.092Z</time></trkpt><trkpt lat="43.5711546" lon="11.8930152"><ele>516.0</ele><time>2026-05-03T12:52:34.113Z</time></trkpt><trkpt lat="43.5710919" lon="11.8929516"><ele>519.0</ele><time>2026-05-03T12:52:35.108Z</time></trkpt><trkpt lat="43.571034" lon="11.8928953"><ele>522.0</ele><time>2026-05-03T12:52:36.114Z</time></trkpt><trkpt lat="43.5709615" lon="11.8927722"><ele>525.0</ele><time>2026-05-03T12:52:38.104Z</time></trkpt><trkpt lat="43.5709201" lon="11.8926337"><ele>528.0</ele><time>2026-05-03T12:52:40.1Z</time></trkpt><trkpt lat="43.5708932" lon="11.8925048"><ele>531.0</ele><time>2026-05-03T12:52:42.118Z</time></trkpt><trkpt lat="43.5708534" lon="11.89237"><ele>531.0</ele><time>2026-05-03T12:52:44.117Z</time></trkpt><trkpt lat="43.5708394" lon="11.8922725"><ele>531.0</ele><time>2026-05-03T12:52:45.1Z</time></trkpt><trkpt lat="43.57082" lon="11.8920897"><ele>531.0</ele><time>2026-05-03T12:52:47.1Z</time></trkpt><trkpt lat="43.5707975" lon="11.8919738"><ele>531.0</ele><time>2026-05-03T12:52:49.108Z</time></trkpt><trkpt lat="43.5707407" lon="11.8918473"><ele>531.0</ele><time>2026-05-03T12:52:51.109Z</time></trkpt><trkpt lat="43.5707029" lon="11.891739"><ele>532.0</ele><time>2026-05-03T12:52:52.103Z</time></trkpt><trkpt lat="43.5706619" lon="11.8916336"><ele>533.0</ele><time>2026-05-03T12:52:53.109Z</time></trkpt><trkpt lat="43.5706217" lon="11.8915429"><ele>534.0</ele><time>2026-05-03T12:52:54.108Z</time></trkpt><trkpt lat="43.5705814" lon="11.891468"><ele>535.0</ele><time>2026-05-03T12:52:55.098Z</time></trkpt><trkpt lat="43.5704652" lon="11.8913947"><ele>536.0</ele><time>2026-05-03T12:52:57.109Z</time></trkpt><trkpt lat="43.5703961" lon="11.8913723"><ele>537.0</ele><time>2026-05-03T12:52:58.11Z</time></trkpt><trkpt lat="43.5703249" lon="11.8913243"><ele>537.0</ele><time>2026-05-03T12:52:59.101Z</time></trkpt><trkpt lat="43.570266" lon="11.8912445"><ele>537.0</ele><time>2026-05-03T12:53:00.1Z</time></trkpt><trkpt lat="43.5701795" lon="11.8911759"><ele>537.0</ele><time>2026-05-03T12:53:01.127Z</time></trkpt><trkpt lat="43.5700888" lon="11.8911292"><ele>537.0</ele><time>2026-05-03T12:53:02.097Z</time></trkpt><trkpt lat="43.5700178" lon="11.8910969"><ele>537.0</ele><time>2026-05-03T12:53:03.105Z</time></trkpt><trkpt lat="43.5699097" lon="11.891038"><ele>537.0</ele><time>2026-05-03T12:53:05.115Z</time></trkpt><trkpt lat="43.5697847" lon="11.8909748"><ele>537.0</ele><time>2026-05-03T12:53:07.118Z</time></trkpt><trkpt lat="43.5696964" lon="11.8909833"><ele>537.0</ele><time>2026-05-03T12:53:08.111Z</time></trkpt><trkpt lat="43.5696113" lon="11.8910241"><ele>537.0</ele><time>2026-05-03T12:53:09.111Z</time></trkpt><trkpt lat="43.5695457" lon="11.8910525"><ele>537.0</ele><time>2026-05-03T12:53:10.097Z</time></trkpt><trkpt lat="43.5694457" lon="11.891065"><ele>538.4</ele><time>2026-05-03T12:53:12.112Z</time></trkpt><trkpt lat="43.5693534" lon="11.8909524"><ele>539.8000000000001</ele><time>2026-05-03T12:53:14.105Z</time></trkpt><trkpt lat="43.5692986" lon="11.8908595"><ele>541.2</ele><time>2026-05-03T12:53:15.111Z</time></trkpt><trkpt lat="43.5692299" lon="11.8907803"><ele>542.6</ele><time>2026-05-03T12:53:16.105Z</time></trkpt><trkpt lat="43.5691634" lon="11.8907285"><ele>544.0</ele><time>2026-05-03T12:53:17.131Z</time></trkpt><trkpt lat="43.5690695" lon="11.8906798"><ele>542.8333333333334</ele><time>2026-05-03T12:53:18.1Z</time></trkpt><trkpt lat="43.5689816" lon="11.8906418"><ele>541.6666666666667</ele><time>2026-05-03T12:53:19.103Z</time></trkpt><trkpt lat="43.5689083" lon="11.8906006"><ele>540.5</ele><time>2026-05-03T12:53:20.114Z</time></trkpt><trkpt lat="43.5688467" lon="11.8905393"><ele>539.3333333333334</ele><time>2026-05-03T12:53:21.102Z</time></trkpt><trkpt lat="43.5687934" lon="11.8904468"><ele>538.1666666666666</ele><time>2026-05-03T12:53:22.114Z</time></trkpt><trkpt lat="43.5687434" lon="11.8903659"><ele>537.0</ele><time>2026-05-03T12:53:23.11Z</time></trkpt><trkpt lat="43.5686911" lon="11.8903026"><ele>537.0</ele><time>2026-05-03T12:53:24.105Z</time></trkpt><trkpt lat="43.5685968" lon="11.8902469"><ele>537.0</ele><time>2026-05-03T12:53:25.103Z</time></trkpt><trkpt lat="43.568468" lon="11.8901633"><ele>537.0</ele><time>2026-05-03T12:53:26.097Z</time></trkpt><trkpt lat="43.5683425" lon="11.8900586"><ele>537.0</ele><time>2026-05-03T12:53:27.108Z</time></trkpt><trkpt lat="43.5682325" lon="11.8899764"><ele>535.0</ele><time>2026-05-03T12:53:28.108Z</time></trkpt><trkpt lat="43.5681397" lon="11.8899079"><ele>533.0</ele><time>2026-05-03T12:53:29.108Z</time></trkpt><trkpt lat="43.568056" lon="11.8898463"><ele>531.0</ele><time>2026-05-03T12:53:30.115Z</time></trkpt><trkpt lat="43.5679782" lon="11.8897914"><ele>529.0</ele><time>2026-05-03T12:53:31.1Z</time></trkpt><trkpt lat="43.5678969" lon="11.8897246"><ele>527.0</ele><time>2026-05-03T12:53:32.106Z</time></trkpt><trkpt lat="43.5678288" lon="11.8896671"><ele>527.0</ele><time>2026-05-03T12:53:33.114Z</time></trkpt><trkpt lat="43.5677667" lon="11.88962"><ele>527.0</ele><time>2026-05-03T12:53:34.117Z</time></trkpt><trkpt lat="43.5676513" lon="11.8895966"><ele>527.0</ele><time>2026-05-03T12:53:36.109Z</time></trkpt><trkpt lat="43.5675708" lon="11.8895969"><ele>527.0</ele><time>2026-05-03T12:53:37.115Z</time></trkpt><trkpt lat="43.5675006" lon="11.8895884"><ele>527.0</ele><time>2026-05-03T12:53:38.112Z</time></trkpt><trkpt lat="43.567437" lon="11.8895791"><ele>527.0</ele><time>2026-05-03T12:53:39.106Z</time></trkpt><trkpt lat="43.56734" lon="11.8895662"><ele>527.0</ele><time>2026-05-03T12:53:41.11Z</time></trkpt><trkpt lat="43.567251" lon="11.8895636"><ele>527.0</ele><time>2026-05-03T12:53:44.101Z</time></trkpt><trkpt lat="43.5671724" lon="11.8894424"><ele>527.0</ele><time>2026-05-03T12:53:46.106Z</time></trkpt><trkpt lat="43.5671005" lon="11.8893301"><ele>527.0</ele><time>2026-05-03T12:53:48.11Z</time></trkpt><trkpt lat="43.5670387" lon="11.889251"><ele>527.0</ele><time>2026-05-03T12:53:50.116Z</time></trkpt><trkpt lat="43.5669774" lon="11.8891569"><ele>527.0</ele><time>2026-05-03T12:53:52.107Z</time></trkpt><trkpt lat="43.5669331" lon="11.8890707"><ele>527.0</ele><time>2026-05-03T12:53:54.113Z</time></trkpt><trkpt lat="43.5668757" lon="11.8890014"><ele>527.0</ele><time>2026-05-03T12:53:57.118Z</time></trkpt><trkpt lat="43.5669264" lon="11.8890981"><ele>527.0</ele><time>2026-05-03T12:54:04.099Z</time></trkpt><trkpt lat="43.5670137" lon="11.8892232"><ele>527.0</ele><time>2026-05-03T12:54:06.118Z</time></trkpt><trkpt lat="43.5670796" lon="11.8893232"><ele>527.0</ele><time>2026-05-03T12:54:07.117Z</time></trkpt><trkpt lat="43.5671491" lon="11.8894274"><ele>527.0</ele><time>2026-05-03T12:54:08.106Z</time></trkpt><trkpt lat="43.5672246" lon="11.8895437"><ele>527.0</ele><time>2026-05-03T12:54:09.11Z</time></trkpt><trkpt lat="43.5673032" lon="11.889667"><ele>527.0</ele><time>2026-05-03T12:54:10.102Z</time></trkpt><trkpt lat="43.5673644" lon="11.889763"><ele>527.0</ele><time>2026-05-03T12:54:11.117Z</time></trkpt><trkpt lat="43.5674132" lon="11.889835"><ele>527.0</ele><time>2026-05-03T12:54:12.113Z</time></trkpt><trkpt lat="43.5674683" lon="11.8899817"><ele>527.0</ele><time>2026-05-03T12:54:14.106Z</time></trkpt><trkpt lat="43.5675012" lon="11.8900677"><ele>527.0</ele><time>2026-05-03T12:54:15.108Z</time></trkpt><trkpt lat="43.567576" lon="11.890204"><ele>527.0</ele><time>2026-05-03T12:54:17.107Z</time></trkpt><trkpt lat="43.5676754" lon="11.8903327"><ele>528.4</ele><time>2026-05-03T12:54:19.106Z</time></trkpt><trkpt lat="43.5677551" lon="11.8904541"><ele>529.8000000000001</ele><time>2026-05-03T12:54:21.106Z</time></trkpt><trkpt lat="43.5677963" lon="11.890537"><ele>531.2</ele><time>2026-05-03T12:54:22.109Z</time></trkpt><trkpt lat="43.567846" lon="11.8906274"><ele>532.6</ele><time>2026-05-03T12:54:23.102Z</time></trkpt><trkpt lat="43.5678909" lon="11.8907081"><ele>534.0</ele><time>2026-05-03T12:54:24.121Z</time></trkpt><trkpt lat="43.567963" lon="11.8908212"><ele>536.6</ele><time>2026-05-03T12:54:26.113Z</time></trkpt><trkpt lat="43.5680456" lon="11.8909579"><ele>539.2</ele><time>2026-05-03T12:54:28.103Z</time></trkpt><trkpt lat="43.5680795" lon="11.8910361"><ele>541.8000000000001</ele><time>2026-05-03T12:54:29.105Z</time></trkpt><trkpt lat="43.5681355" lon="11.8911824"><ele>544.4</ele><time>2026-05-03T12:54:31.103Z</time></trkpt><trkpt lat="43.5681478" lon="11.8913375"><ele>547.0</ele><time>2026-05-03T12:54:33.101Z</time></trkpt><trkpt lat="43.5681265" lon="11.8914852"><ele>547.0</ele><time>2026-05-03T12:54:35.112Z</time></trkpt><trkpt lat="43.5681056" lon="11.8916206"><ele>547.0</ele><time>2026-05-03T12:54:37.106Z</time></trkpt><trkpt lat="43.568102" lon="11.8917574"><ele>547.0</ele><time>2026-05-03T12:54:39.106Z</time></trkpt><trkpt lat="43.568102" lon="11.8918972"><ele>547.0</ele><time>2026-05-03T12:54:41.111Z</time></trkpt><trkpt lat="43.5680813" lon="11.8920096"><ele>547.0</ele><time>2026-05-03T12:54:43.116Z</time></trkpt><trkpt lat="43.5680885" lon="11.8921767"><ele>549.0</ele><time>2026-05-03T12:54:45.115Z</time></trkpt><trkpt lat="43.5680956" lon="11.8923036"><ele>551.0</ele><time>2026-05-03T12:54:46.117Z</time></trkpt><trkpt lat="43.5680989" lon="11.8924484"><ele>553.0</ele><time>2026-05-03T12:54:47.126Z</time></trkpt><trkpt lat="43.5681009" lon="11.8925691"><ele>555.0</ele><time>2026-05-03T12:54:48.117Z</time></trkpt><trkpt lat="43.5681028" lon="11.8926823"><ele>557.0</ele><time>2026-05-03T12:54:49.124Z</time></trkpt><trkpt lat="43.5681051" lon="11.8927939"><ele>559.0</ele><time>2026-05-03T12:54:50.129Z</time></trkpt><trkpt lat="43.568108" lon="11.8928855"><ele>561.0</ele><time>2026-05-03T12:54:51.109Z</time></trkpt><trkpt lat="43.5681493" lon="11.893039"><ele>563.0</ele><time>2026-05-03T12:54:53.111Z</time></trkpt><trkpt lat="43.5681632" lon="11.8931934"><ele>565.0</ele><time>2026-05-03T12:54:55.093Z</time></trkpt><trkpt lat="43.5681512" lon="11.8932899"><ele>567.0</ele><time>2026-05-03T12:54:56.114Z</time></trkpt><trkpt lat="43.5681318" lon="11.8933892"><ele>569.0</ele><time>2026-05-03T12:54:57.095Z</time></trkpt><trkpt lat="43.5681265" lon="11.893527"><ele>571.0</ele><time>2026-05-03T12:54:59.112Z</time></trkpt><trkpt lat="43.568193" lon="11.8936265"><ele>573.0</ele><time>2026-05-03T12:55:01.105Z</time></trkpt><trkpt lat="43.5682433" lon="11.8936796"><ele>575.0</ele><time>2026-05-03T12:55:02.115Z</time></trkpt><trkpt lat="43.5683155" lon="11.8937285"><ele>577.0</ele><time>2026-05-03T12:55:03.108Z</time></trkpt><trkpt lat="43.5683751" lon="11.8937843"><ele>579.0</ele><time>2026-05-03T12:55:04.095Z</time></trkpt><trkpt lat="43.5684534" lon="11.8939043"><ele>581.0</ele><time>2026-05-03T12:55:06.11Z</time></trkpt><trkpt lat="43.5684745" lon="11.8940118"><ele>581.0</ele><time>2026-05-03T12:55:08.118Z</time></trkpt><trkpt lat="43.568525" lon="11.8941095"><ele>581.0</ele><time>2026-05-03T12:55:15.116Z</time></trkpt><trkpt lat="43.5686025" lon="11.8942124"><ele>581.0</ele><time>2026-05-03T12:55:17.107Z</time></trkpt><trkpt lat="43.5686994" lon="11.8942903"><ele>581.0</ele><time>2026-05-03T12:55:19.097Z</time></trkpt><trkpt lat="43.5687915" lon="11.8943647"><ele>581.0</ele><time>2026-05-03T12:55:21.112Z</time></trkpt><trkpt lat="43.5688751" lon="11.8944692"><ele>583.1666666666666</ele><time>2026-05-03T12:55:23.112Z</time></trkpt><trkpt lat="43.5689392" lon="11.8945607"><ele>585.3333333333333</ele><time>2026-05-03T12:55:25.112Z</time></trkpt><trkpt lat="43.5689884" lon="11.8946385"><ele>587.5</ele><time>2026-05-03T12:55:27.105Z</time></trkpt><trkpt lat="43.5690345" lon="11.8947061"><ele>589.6666666666666</ele><time>2026-05-03T12:55:29.111Z</time></trkpt><trkpt lat="43.5690994" lon="11.8947819"><ele>591.8333333333334</ele><time>2026-05-03T12:55:31.105Z</time></trkpt><trkpt lat="43.5691527" lon="11.8948355"><ele>594.0</ele><time>2026-05-03T12:55:33.1Z</time></trkpt><trkpt lat="43.5692141" lon="11.8948725"><ele>594.0</ele><time>2026-05-03T12:55:35.104Z</time></trkpt><trkpt lat="43.5692794" lon="11.8949018"><ele>594.0</ele><time>2026-05-03T12:55:37.108Z</time></trkpt><trkpt lat="43.5693236" lon="11.8949877"><ele>594.0</ele><time>2026-05-03T12:55:40.115Z</time></trkpt><trkpt lat="43.5693667" lon="11.8950773"><ele>594.0</ele><time>2026-05-03T12:55:42.13Z</time></trkpt><trkpt lat="43.5694079" lon="11.8951548"><ele>594.0</ele><time>2026-05-03T12:55:44.11Z</time></trkpt><trkpt lat="43.5694448" lon="11.8952475"><ele>594.0</ele><time>2026-05-03T12:55:46.115Z</time></trkpt><trkpt lat="43.5694827" lon="11.8953623"><ele>594.8333333333334</ele><time>2026-05-03T12:55:48.114Z</time></trkpt><trkpt lat="43.5695115" lon="11.8954639"><ele>595.6666666666666</ele><time>2026-05-03T12:55:50.118Z</time></trkpt><trkpt lat="43.5695636" lon="11.8955758"><ele>596.5</ele><time>2026-05-03T12:55:52.114Z</time></trkpt><trkpt lat="43.5695892" lon="11.8956944"><ele>597.3333333333333</ele><time>2026-05-03T12:55:54.124Z</time></trkpt><trkpt lat="43.5695766" lon="11.8957998"><ele>598.1666666666666</ele><time>2026-05-03T12:55:56.103Z</time></trkpt><trkpt lat="43.5695649" lon="11.8959022"><ele>599.0</ele><time>2026-05-03T12:55:58.11Z</time></trkpt><trkpt lat="43.5695501" lon="11.8960109"><ele>600.8333333333333</ele><time>2026-05-03T12:56:00.108Z</time></trkpt><trkpt lat="43.5695359" lon="11.8961179"><ele>602.6666666666666</ele><time>2026-05-03T12:56:02.12Z</time></trkpt><trkpt lat="43.5695385" lon="11.8962506"><ele>604.5</ele><time>2026-05-03T12:56:04.112Z</time></trkpt><trkpt lat="43.5695445" lon="11.8963617"><ele>606.3333333333334</ele><time>2026-05-03T12:56:06.107Z</time></trkpt><trkpt lat="43.5695687" lon="11.8964797"><ele>608.1666666666667</ele><time>2026-05-03T12:56:08.107Z</time></trkpt><trkpt lat="43.5695419" lon="11.8966014"><ele>610.0</ele><time>2026-05-03T12:56:10.109Z</time></trkpt><trkpt lat="43.5695216" lon="11.896736"><ele>609.6666666666667</ele><time>2026-05-03T12:56:12.123Z</time></trkpt><trkpt lat="43.569496" lon="11.8968385"><ele>609.3333333333334</ele><time>2026-05-03T12:56:16.114Z</time></trkpt><trkpt lat="43.5693742" lon="11.896844"><ele>609.0</ele><time>2026-05-03T12:56:18.107Z</time></trkpt><trkpt lat="43.5693014" lon="11.8968394"><ele>608.6666666666666</ele><time>2026-05-03T12:56:19.106Z</time></trkpt><trkpt lat="43.5692284" lon="11.8968343"><ele>608.3333333333333</ele><time>2026-05-03T12:56:20.111Z</time></trkpt><trkpt lat="43.5691448" lon="11.8967887"><ele>608.0</ele><time>2026-05-03T12:56:22.115Z</time></trkpt><trkpt lat="43.5690914" lon="11.8967051"><ele>610.5</ele><time>2026-05-03T12:56:24.113Z</time></trkpt><trkpt lat="43.5690267" lon="11.8966631"><ele>613.0</ele><time>2026-05-03T12:56:26.11Z</time></trkpt><trkpt lat="43.5689406" lon="11.8965848"><ele>615.5</ele><time>2026-05-03T12:56:28.121Z</time></trkpt><trkpt lat="43.5688798" lon="11.8965354"><ele>618.0</ele><time>2026-05-03T12:56:29.109Z</time></trkpt><trkpt lat="43.5688076" lon="11.8965143"><ele>620.5</ele><time>2026-05-03T12:56:31.112Z</time></trkpt><trkpt lat="43.5687273" lon="11.8964769"><ele>623.0</ele><time>2026-05-03T12:56:33.108Z</time></trkpt><trkpt lat="43.5686015" lon="11.8964249"><ele>623.5</ele><time>2026-05-03T12:56:35.116Z</time></trkpt><trkpt lat="43.5685257" lon="11.8964096"><ele>624.0</ele><time>2026-05-03T12:56:36.118Z</time></trkpt><trkpt lat="43.568443" lon="11.8964232"><ele>624.5</ele><time>2026-05-03T12:56:37.115Z</time></trkpt><trkpt lat="43.5683543" lon="11.896459"><ele>625.0</ele><time>2026-05-03T12:56:38.114Z</time></trkpt><trkpt lat="43.5682707" lon="11.8964739"><ele>625.5</ele><time>2026-05-03T12:56:39.106Z</time></trkpt><trkpt lat="43.5681862" lon="11.8964723"><ele>626.0</ele><time>2026-05-03T12:56:41.105Z</time></trkpt><trkpt lat="43.5681128" lon="11.8964925"><ele>626.0</ele><time>2026-05-03T12:56:43.13Z</time></trkpt><trkpt lat="43.5680026" lon="11.8964159"><ele>626.0</ele><time>2026-05-03T12:56:45.123Z</time></trkpt><trkpt lat="43.5679421" lon="11.896375"><ele>626.0</ele><time>2026-05-03T12:56:46.107Z</time></trkpt><trkpt lat="43.56786" lon="11.8962888"><ele>626.0</ele><time>2026-05-03T12:56:48.117Z</time></trkpt><trkpt lat="43.5678151" lon="11.896222"><ele>626.0</ele><time>2026-05-03T12:56:50.108Z</time></trkpt><trkpt lat="43.5677306" lon="11.8962122"><ele>626.0</ele><time>2026-05-03T12:56:53.109Z</time></trkpt><trkpt lat="43.5676519" lon="11.8961518"><ele>626.4</ele><time>2026-05-03T12:56:56.109Z</time></trkpt><trkpt lat="43.567558" lon="11.8960914"><ele>626.8</ele><time>2026-05-03T12:56:58.119Z</time></trkpt><trkpt lat="43.5674262" lon="11.8960387"><ele>627.1999999999999</ele><time>2026-05-03T12:57:00.104Z</time></trkpt><trkpt lat="43.5673576" lon="11.8960174"><ele>627.6</ele><time>2026-05-03T12:57:01.112Z</time></trkpt><trkpt lat="43.5672907" lon="11.8959992"><ele>628.0</ele><time>2026-05-03T12:57:02.104Z</time></trkpt><trkpt lat="43.5671779" lon="11.895949"><ele>626.8</ele><time>2026-05-03T12:57:04.125Z</time></trkpt><trkpt lat="43.5670697" lon="11.8958794"><ele>625.5999999999999</ele><time>2026-05-03T12:57:06.111Z</time></trkpt><trkpt lat="43.567004" lon="11.8958238"><ele>624.4000000000001</ele><time>2026-05-03T12:57:07.109Z</time></trkpt><trkpt lat="43.566944" lon="11.8957752"><ele>623.2</ele><time>2026-05-03T12:57:08.111Z</time></trkpt><trkpt lat="43.5668449" lon="11.8957027"><ele>622.0</ele><time>2026-05-03T12:57:10.105Z</time></trkpt><trkpt lat="43.5667546" lon="11.8956436"><ele>620.6666666666667</ele><time>2026-05-03T12:57:12.121Z</time></trkpt><trkpt lat="43.5666676" lon="11.8956064"><ele>619.3333333333334</ele><time>2026-05-03T12:57:14.112Z</time></trkpt><trkpt lat="43.5665858" lon="11.8956119"><ele>618.0</ele><time>2026-05-03T12:57:16.12Z</time></trkpt><trkpt lat="43.5665364" lon="11.8956962"><ele>616.6666666666666</ele><time>2026-05-03T12:57:19.115Z</time></trkpt><trkpt lat="43.5665385" lon="11.8957868"><ele>615.3333333333333</ele><time>2026-05-03T12:57:21.105Z</time></trkpt><trkpt lat="43.5665155" lon="11.8958882"><ele>614.0</ele><time>2026-05-03T12:57:23.106Z</time></trkpt><trkpt lat="43.5664818" lon="11.8959759"><ele>613.6666666666666</ele><time>2026-05-03T12:57:25.115Z</time></trkpt><trkpt lat="43.5664241" lon="11.8960375"><ele>613.3333333333333</ele><time>2026-05-03T12:57:27.123Z</time></trkpt><trkpt lat="43.5663534" lon="11.8960784"><ele>613.0</ele><time>2026-05-03T12:57:29.111Z</time></trkpt><trkpt lat="43.566294" lon="11.896147"><ele>612.6666666666666</ele><time>2026-05-03T12:57:31.104Z</time></trkpt><trkpt lat="43.5662507" lon="11.8962295"><ele>612.3333333333334</ele><time>2026-05-03T12:57:33.118Z</time></trkpt><trkpt lat="43.5661982" lon="11.8963179"><ele>612.0</ele><time>2026-05-03T12:57:35.095Z</time></trkpt><trkpt lat="43.5661225" lon="11.8964247"><ele>610.6</ele><time>2026-05-03T12:57:37.112Z</time></trkpt><trkpt lat="43.5660263" lon="11.8965005"><ele>609.2</ele><time>2026-05-03T12:57:39.115Z</time></trkpt><trkpt lat="43.5659524" lon="11.8966178"><ele>607.8</ele><time>2026-05-03T12:57:41.108Z</time></trkpt><trkpt lat="43.5659059" lon="11.8966984"><ele>606.4</ele><time>2026-05-03T12:57:43.123Z</time></trkpt><trkpt lat="43.5657812" lon="11.8967704"><ele>605.0</ele><time>2026-05-03T12:57:45.118Z</time></trkpt><trkpt lat="43.565705" lon="11.8968076"><ele>605.0</ele><time>2026-05-03T12:57:46.112Z</time></trkpt><trkpt lat="43.5656144" lon="11.8968588"><ele>605.0</ele><time>2026-05-03T12:57:47.105Z</time></trkpt><trkpt lat="43.5655168" lon="11.8969281"><ele>605.0</ele><time>2026-05-03T12:57:48.108Z</time></trkpt><trkpt lat="43.5654336" lon="11.8969735"><ele>605.0</ele><time>2026-05-03T12:57:49.107Z</time></trkpt><trkpt lat="43.5653632" lon="11.8969906"><ele>605.0</ele><time>2026-05-03T12:57:50.112Z</time></trkpt><trkpt lat="43.5652644" lon="11.8970346"><ele>602.6666666666666</ele><time>2026-05-03T12:57:52.113Z</time></trkpt><trkpt lat="43.5652302" lon="11.8971285"><ele>600.3333333333333</ele><time>2026-05-03T12:57:54.099Z</time></trkpt><trkpt lat="43.5652015" lon="11.8972668"><ele>598.0</ele><time>2026-05-03T12:57:56.116Z</time></trkpt><trkpt lat="43.5651214" lon="11.8973995"><ele>595.6666666666666</ele><time>2026-05-03T12:57:58.107Z</time></trkpt><trkpt lat="43.5650789" lon="11.8974767"><ele>593.3333333333334</ele><time>2026-05-03T12:57:59.124Z</time></trkpt><trkpt lat="43.5650374" lon="11.8975503"><ele>591.0</ele><time>2026-05-03T12:58:00.121Z</time></trkpt><trkpt lat="43.5649549" lon="11.8976855"><ele>591.0</ele><time>2026-05-03T12:58:02.112Z</time></trkpt><trkpt lat="43.5649007" lon="11.8977476"><ele>591.0</ele><time>2026-05-03T12:58:03.13Z</time></trkpt><trkpt lat="43.5648437" lon="11.8977891"><ele>591.0</ele><time>2026-05-03T12:58:04.108Z</time></trkpt><trkpt lat="43.5647855" lon="11.8978235"><ele>591.0</ele><time>2026-05-03T12:58:05.104Z</time></trkpt><trkpt lat="43.5647113" lon="11.8978701"><ele>591.0</ele><time>2026-05-03T12:58:07.105Z</time></trkpt><trkpt lat="43.5647131" lon="11.897968"><ele>591.0</ele><time>2026-05-03T12:58:10.1Z</time></trkpt><trkpt lat="43.564798" lon="11.8980462"><ele>591.0</ele><time>2026-05-03T12:58:12.102Z</time></trkpt><trkpt lat="43.5648715" lon="11.898092"><ele>591.0</ele><time>2026-05-03T12:58:13.099Z</time></trkpt><trkpt lat="43.5649342" lon="11.8981588"><ele>591.0</ele><time>2026-05-03T12:58:14.104Z</time></trkpt><trkpt lat="43.5649995" lon="11.8982096"><ele>591.0</ele><time>2026-05-03T12:58:15.119Z</time></trkpt><trkpt lat="43.5650852" lon="11.8982413"><ele>591.0</ele><time>2026-05-03T12:58:16.119Z</time></trkpt><trkpt lat="43.565185" lon="11.8982628"><ele>591.0</ele><time>2026-05-03T12:58:17.106Z</time></trkpt><trkpt lat="43.5652899" lon="11.8982673"><ele>592.0</ele><time>2026-05-03T12:58:18.124Z</time></trkpt><trkpt lat="43.5654033" lon="11.8982662"><ele>593.0</ele><time>2026-05-03T12:58:19.093Z</time></trkpt><trkpt lat="43.5655295" lon="11.8982471"><ele>594.0</ele><time>2026-05-03T12:58:20.116Z</time></trkpt><trkpt lat="43.5656326" lon="11.8982346"><ele>595.0</ele><time>2026-05-03T12:58:21.115Z</time></trkpt><trkpt lat="43.5657227" lon="11.8982501"><ele>596.0</ele><time>2026-05-03T12:58:22.096Z</time></trkpt><trkpt lat="43.5658325" lon="11.8983178"><ele>593.5</ele><time>2026-05-03T12:58:23.111Z</time></trkpt><trkpt lat="43.5659582" lon="11.8984304"><ele>591.0</ele><time>2026-05-03T12:58:24.104Z</time></trkpt><trkpt lat="43.5660757" lon="11.8985248"><ele>588.5</ele><time>2026-05-03T12:58:25.114Z</time></trkpt><trkpt lat="43.5661857" lon="11.898609"><ele>586.0</ele><time>2026-05-03T12:58:26.104Z</time></trkpt><trkpt lat="43.5662951" lon="11.8986887"><ele>586.0</ele><time>2026-05-03T12:58:27.119Z</time></trkpt><trkpt lat="43.5663973" lon="11.8987723"><ele>586.0</ele><time>2026-05-03T12:58:28.113Z</time></trkpt><trkpt lat="43.5664947" lon="11.8988625"><ele>586.0</ele><time>2026-05-03T12:58:29.118Z</time></trkpt><trkpt lat="43.5665857" lon="11.8989361"><ele>586.0</ele><time>2026-05-03T12:58:30.104Z</time></trkpt><trkpt lat="43.5666709" lon="11.8990223"><ele>586.0</ele><time>2026-05-03T12:58:31.119Z</time></trkpt><trkpt lat="43.5667371" lon="11.8990924"><ele>586.0</ele><time>2026-05-03T12:58:32.109Z</time></trkpt><trkpt lat="43.5667991" lon="11.8991541"><ele>586.0</ele><time>2026-05-03T12:58:33.107Z</time></trkpt><trkpt lat="43.5668749" lon="11.8992259"><ele>586.0</ele><time>2026-05-03T12:58:34.111Z</time></trkpt><trkpt lat="43.566956" lon="11.8993067"><ele>586.0</ele><time>2026-05-03T12:58:35.105Z</time></trkpt><trkpt lat="43.56704" lon="11.8993662"><ele>586.0</ele><time>2026-05-03T12:58:36.114Z</time></trkpt><trkpt lat="43.5671173" lon="11.8994311"><ele>583.4</ele><time>2026-05-03T12:58:37.105Z</time></trkpt><trkpt lat="43.567185" lon="11.8994959"><ele>580.8</ele><time>2026-05-03T12:58:38.117Z</time></trkpt><trkpt lat="43.5672568" lon="11.8995554"><ele>578.1999999999999</ele><time>2026-05-03T12:58:39.105Z</time></trkpt><trkpt lat="43.5673435" lon="11.8995898"><ele>575.6</ele><time>2026-05-03T12:58:40.114Z</time></trkpt><trkpt lat="43.5674408" lon="11.8995603"><ele>573.0</ele><time>2026-05-03T12:58:41.109Z</time></trkpt><trkpt lat="43.5675352" lon="11.899521"><ele>573.0</ele><time>2026-05-03T12:58:42.105Z</time></trkpt><trkpt lat="43.5676199" lon="11.8994778"><ele>573.0</ele><time>2026-05-03T12:58:43.117Z</time></trkpt><trkpt lat="43.5677042" lon="11.8994154"><ele>573.0</ele><time>2026-05-03T12:58:44.11Z</time></trkpt><trkpt lat="43.5677821" lon="11.8993425"><ele>573.0</ele><time>2026-05-03T12:58:45.106Z</time></trkpt><trkpt lat="43.5678606" lon="11.899273"><ele>573.0</ele><time>2026-05-03T12:58:46.109Z</time></trkpt><trkpt lat="43.5679684" lon="11.8992337"><ele>572.4</ele><time>2026-05-03T12:58:47.105Z</time></trkpt><trkpt lat="43.5680838" lon="11.8992064"><ele>571.8</ele><time>2026-05-03T12:58:48.106Z</time></trkpt><trkpt lat="43.5681749" lon="11.8991771"><ele>571.2</ele><time>2026-05-03T12:58:49.099Z</time></trkpt><trkpt lat="43.5682513" lon="11.8991403"><ele>570.6</ele><time>2026-05-03T12:58:50.113Z</time></trkpt><trkpt lat="43.5683237" lon="11.8990758"><ele>570.0</ele><time>2026-05-03T12:58:51.11Z</time></trkpt><trkpt lat="43.5683617" lon="11.8989801"><ele>570.0</ele><time>2026-05-03T12:58:52.114Z</time></trkpt><trkpt lat="43.5683834" lon="11.8988808"><ele>570.0</ele><time>2026-05-03T12:58:53.105Z</time></trkpt><trkpt lat="43.5684136" lon="11.8987635"><ele>570.0</ele><time>2026-05-03T12:58:55.111Z</time></trkpt><trkpt lat="43.5684301" lon="11.8988791"><ele>570.0</ele><time>2026-05-03T12:59:00.101Z</time></trkpt><trkpt lat="43.5683964" lon="11.899006"><ele>570.0</ele><time>2026-05-03T12:59:02.117Z</time></trkpt><trkpt lat="43.5683629" lon="11.8991356"><ele>570.0</ele><time>2026-05-03T12:59:04.115Z</time></trkpt><trkpt lat="43.5683316" lon="11.8992461"><ele>567.8</ele><time>2026-05-03T12:59:06.121Z</time></trkpt><trkpt lat="43.5682967" lon="11.8993391"><ele>565.6</ele><time>2026-05-03T12:59:08.107Z</time></trkpt><trkpt lat="43.5682644" lon="11.8994236"><ele>563.4</ele><time>2026-05-03T12:59:10.105Z</time></trkpt><trkpt lat="43.5682346" lon="11.8995372"><ele>561.2</ele><time>2026-05-03T12:59:12.112Z</time></trkpt><trkpt lat="43.5682246" lon="11.8996923"><ele>559.0</ele><time>2026-05-03T12:59:14.112Z</time></trkpt><trkpt lat="43.5682239" lon="11.8998493"><ele>559.0</ele><time>2026-05-03T12:59:16.097Z</time></trkpt><trkpt lat="43.5681573" lon="11.899984"><ele>559.0</ele><time>2026-05-03T12:59:18.114Z</time></trkpt><trkpt lat="43.5681136" lon="11.9000479"><ele>559.0</ele><time>2026-05-03T12:59:19.114Z</time></trkpt><trkpt lat="43.5680634" lon="11.9001046"><ele>559.0</ele><time>2026-05-03T12:59:20.087Z</time></trkpt><trkpt lat="43.5679891" lon="11.9001678"><ele>559.0</ele><time>2026-05-03T12:59:22.103Z</time></trkpt><trkpt lat="43.5679212" lon="11.9002088"><ele>559.0</ele><time>2026-05-03T12:59:24.128Z</time></trkpt><trkpt lat="43.5678551" lon="11.9002144"><ele>557.0</ele><time>2026-05-03T12:59:26.112Z</time></trkpt><trkpt lat="43.5677484" lon="11.9002384"><ele>555.0</ele><time>2026-05-03T12:59:28.113Z</time></trkpt><trkpt lat="43.5676458" lon="11.9002964"><ele>553.0</ele><time>2026-05-03T12:59:30.108Z</time></trkpt><trkpt lat="43.5675454" lon="11.9003819"><ele>551.0</ele><time>2026-05-03T12:59:32.114Z</time></trkpt><trkpt lat="43.5674988" lon="11.9004455"><ele>549.0</ele><time>2026-05-03T12:59:33.112Z</time></trkpt><trkpt lat="43.567416" lon="11.9005593"><ele>549.0</ele><time>2026-05-03T12:59:35.108Z</time></trkpt><trkpt lat="43.5673147" lon="11.9006252"><ele>549.0</ele><time>2026-05-03T12:59:37.125Z</time></trkpt><trkpt lat="43.5672054" lon="11.9006607"><ele>549.0</ele><time>2026-05-03T12:59:39.1Z</time></trkpt><trkpt lat="43.5671406" lon="11.9006593"><ele>549.0</ele><time>2026-05-03T12:59:40.093Z</time></trkpt><trkpt lat="43.5670749" lon="11.9006629"><ele>549.0</ele><time>2026-05-03T12:59:41.115Z</time></trkpt><trkpt lat="43.567007" lon="11.9006781"><ele>549.0</ele><time>2026-05-03T12:59:42.109Z</time></trkpt><trkpt lat="43.5669447" lon="11.9006918"><ele>549.0</ele><time>2026-05-03T12:59:43.11Z</time></trkpt><trkpt lat="43.5668225" lon="11.9007042"><ele>549.0</ele><time>2026-05-03T12:59:45.117Z</time></trkpt><trkpt lat="43.5667209" lon="11.9007119"><ele>549.0</ele><time>2026-05-03T12:59:47.118Z</time></trkpt><trkpt lat="43.5666138" lon="11.9006978"><ele>549.0</ele><time>2026-05-03T12:59:49.108Z</time></trkpt><trkpt lat="43.56654" lon="11.9006626"><ele>549.0</ele><time>2026-05-03T12:59:50.122Z</time></trkpt><trkpt lat="43.5664782" lon="11.9006199"><ele>549.0</ele><time>2026-05-03T12:59:51.111Z</time></trkpt><trkpt lat="43.5664154" lon="11.9005618"><ele>549.0</ele><time>2026-05-03T12:59:53.114Z</time></trkpt><trkpt lat="43.5663583" lon="11.9005123"><ele>549.0</ele><time>2026-05-03T12:59:55.114Z</time></trkpt><trkpt lat="43.5663125" lon="11.9004468"><ele>549.0</ele><time>2026-05-03T12:59:57.105Z</time></trkpt><trkpt lat="43.5662569" lon="11.9003278"><ele>549.0</ele><time>2026-05-03T13:00:00.116Z</time></trkpt><trkpt lat="43.5662194" lon="11.900248"><ele>549.0</ele><time>2026-05-03T13:00:01.112Z</time></trkpt><trkpt lat="43.5661746" lon="11.9001506"><ele>549.5</ele><time>2026-05-03T13:00:02.104Z</time></trkpt><trkpt lat="43.5661162" lon="11.9000803"><ele>550.0</ele><time>2026-05-03T13:00:03.123Z</time></trkpt><trkpt lat="43.5660565" lon="11.9000314"><ele>550.5</ele><time>2026-05-03T13:00:04.107Z</time></trkpt><trkpt lat="43.5659682" lon="11.8999663"><ele>551.0</ele><time>2026-05-03T13:00:06.114Z</time></trkpt><trkpt lat="43.5659085" lon="11.8999045"><ele>551.5</ele><time>2026-05-03T13:00:09.107Z</time></trkpt><trkpt lat="43.5658566" lon="11.8998292"><ele>552.0</ele><time>2026-05-03T13:00:11.111Z</time></trkpt><trkpt lat="43.5657912" lon="11.8997608"><ele>552.0</ele><time>2026-05-03T13:00:13.109Z</time></trkpt><trkpt lat="43.5657011" lon="11.8997445"><ele>552.0</ele><time>2026-05-03T13:00:17.111Z</time></trkpt><trkpt lat="43.5656505" lon="11.8997986"><ele>552.0</ele><time>2026-05-03T13:00:19.114Z</time></trkpt><trkpt lat="43.5655889" lon="11.8998624"><ele>552.0</ele><time>2026-05-03T13:00:21.107Z</time></trkpt><trkpt lat="43.5655363" lon="11.8999211"><ele>552.0</ele><time>2026-05-03T13:00:22.113Z</time></trkpt><trkpt lat="43.5654865" lon="11.8999785"><ele>552.0</ele><time>2026-05-03T13:00:23.1Z</time></trkpt><trkpt lat="43.5653523" lon="11.9000392"><ele>552.3333333333334</ele><time>2026-05-03T13:00:25.125Z</time></trkpt><trkpt lat="43.5652452" lon="11.9000634"><ele>552.6666666666666</ele><time>2026-05-03T13:00:26.11Z</time></trkpt><trkpt lat="43.5651495" lon="11.900113"><ele>553.0</ele><time>2026-05-03T13:00:27.119Z</time></trkpt><trkpt lat="43.5650788" lon="11.9001578"><ele>553.3333333333333</ele><time>2026-05-03T13:00:28.104Z</time></trkpt><trkpt lat="43.5650153" lon="11.9002088"><ele>553.6666666666666</ele><time>2026-05-03T13:00:29.113Z</time></trkpt><trkpt lat="43.5649635" lon="11.9002922"><ele>554.0</ele><time>2026-05-03T13:00:30.115Z</time></trkpt><trkpt lat="43.5649213" lon="11.9003763"><ele>554.0</ele><time>2026-05-03T13:00:31.103Z</time></trkpt><trkpt lat="43.5648703" lon="11.9004469"><ele>554.0</ele><time>2026-05-03T13:00:32.107Z</time></trkpt><trkpt lat="43.5648307" lon="11.9005291"><ele>554.0</ele><time>2026-05-03T13:00:33.124Z</time></trkpt><trkpt lat="43.5647957" lon="11.9006221"><ele>554.0</ele><time>2026-05-03T13:00:34.112Z</time></trkpt><trkpt lat="43.5647686" lon="11.9007231"><ele>554.0</ele><time>2026-05-03T13:00:35.098Z</time></trkpt><trkpt lat="43.5647484" lon="11.9008294"><ele>554.0</ele><time>2026-05-03T13:00:36.11Z</time></trkpt><trkpt lat="43.5647716" lon="11.9010018"><ele>554.2</ele><time>2026-05-03T13:00:38.101Z</time></trkpt><trkpt lat="43.5648189" lon="11.9010797"><ele>554.4</ele><time>2026-05-03T13:00:39.112Z</time></trkpt><trkpt lat="43.5648556" lon="11.9012193"><ele>554.6</ele><time>2026-05-03T13:00:41.109Z</time></trkpt><trkpt lat="43.5648836" lon="11.9013602"><ele>554.8</ele><time>2026-05-03T13:00:43.108Z</time></trkpt><trkpt lat="43.5648575" lon="11.9015237"><ele>555.0</ele><time>2026-05-03T13:00:45.122Z</time></trkpt><trkpt lat="43.5647921" lon="11.9016366"><ele>555.0</ele><time>2026-05-03T13:00:47.11Z</time></trkpt><trkpt lat="43.5646791" lon="11.9017036"><ele>555.0</ele><time>2026-05-03T13:00:49.104Z</time></trkpt><trkpt lat="43.5645356" lon="11.9017397"><ele>555.0</ele><time>2026-05-03T13:00:51.11Z</time></trkpt><trkpt lat="43.5644581" lon="11.9017371"><ele>555.0</ele><time>2026-05-03T13:00:52.101Z</time></trkpt><trkpt lat="43.5643719" lon="11.9017355"><ele>555.0</ele><time>2026-05-03T13:00:53.104Z</time></trkpt><trkpt lat="43.56427" lon="11.9017425"><ele>556.3333333333334</ele><time>2026-05-03T13:00:54.103Z</time></trkpt><trkpt lat="43.5641727" lon="11.9017659"><ele>557.6666666666666</ele><time>2026-05-03T13:00:55.157Z</time></trkpt><trkpt lat="43.564107" lon="11.9017878"><ele>559.0</ele><time>2026-05-03T13:00:56.109Z</time></trkpt><trkpt lat="43.5640335" lon="11.9018498"><ele>560.3333333333333</ele><time>2026-05-03T13:00:58.125Z</time></trkpt><trkpt lat="43.5639761" lon="11.9019039"><ele>561.6666666666666</ele><time>2026-05-03T13:01:00.105Z</time></trkpt><trkpt lat="43.5639009" lon="11.9019709"><ele>563.0</ele><time>2026-05-03T13:01:02.107Z</time></trkpt><trkpt lat="43.5638359" lon="11.9020326"><ele>563.0</ele><time>2026-05-03T13:01:04.098Z</time></trkpt><trkpt lat="43.5637306" lon="11.9020703"><ele>563.0</ele><time>2026-05-03T13:01:06.111Z</time></trkpt><trkpt lat="43.5636571" lon="11.9021055"><ele>563.0</ele><time>2026-05-03T13:01:07.106Z</time></trkpt><trkpt lat="43.5635887" lon="11.9021556"><ele>563.0</ele><time>2026-05-03T13:01:08.114Z</time></trkpt><trkpt lat="43.5635214" lon="11.9022259"><ele>563.0</ele><time>2026-05-03T13:01:09.105Z</time></trkpt><trkpt lat="43.5634604" lon="11.9022958"><ele>563.0</ele><time>2026-05-03T13:01:10.111Z</time></trkpt><trkpt lat="43.5634054" lon="11.9023626"><ele>563.3333333333333</ele><time>2026-05-03T13:01:11.102Z</time></trkpt><trkpt lat="43.5633495" lon="11.9024239"><ele>563.6666666666666</ele><time>2026-05-03T13:01:12.114Z</time></trkpt><trkpt lat="43.5632858" lon="11.9024515"><ele>564.0</ele><time>2026-05-03T13:01:13.126Z</time></trkpt><trkpt lat="43.5631807" lon="11.9025089"><ele>564.3333333333334</ele><time>2026-05-03T13:01:15.107Z</time></trkpt><trkpt lat="43.563141" lon="11.9025782"><ele>564.6666666666667</ele><time>2026-05-03T13:01:16.097Z</time></trkpt><trkpt lat="43.5631155" lon="11.9027222"><ele>565.0</ele><time>2026-05-03T13:01:18.105Z</time></trkpt><trkpt lat="43.5631063" lon="11.9028927"><ele>564.3333333333334</ele><time>2026-05-03T13:01:20.099Z</time></trkpt><trkpt lat="43.5631021" lon="11.9030089"><ele>563.6666666666667</ele><time>2026-05-03T13:01:21.115Z</time></trkpt><trkpt lat="43.5630907" lon="11.9031118"><ele>563.0</ele><time>2026-05-03T13:01:22.123Z</time></trkpt><trkpt lat="43.5630749" lon="11.903204"><ele>562.3333333333334</ele><time>2026-05-03T13:01:23.113Z</time></trkpt><trkpt lat="43.563065" lon="11.9032918"><ele>561.6666666666666</ele><time>2026-05-03T13:01:24.123Z</time></trkpt><trkpt lat="43.5630669" lon="11.9034578"><ele>561.0</ele><time>2026-05-03T13:01:26.113Z</time></trkpt><trkpt lat="43.5630514" lon="11.9035736"><ele>562.3333333333334</ele><time>2026-05-03T13:01:28.113Z</time></trkpt><trkpt lat="43.5631627" lon="11.9036726"><ele>563.6666666666666</ele><time>2026-05-03T13:01:44.102Z</time></trkpt><trkpt lat="43.5632324" lon="11.9037233"><ele>565.0</ele><time>2026-05-03T13:01:45.11Z</time></trkpt><trkpt lat="43.5633017" lon="11.9037818"><ele>566.3333333333333</ele><time>2026-05-03T13:01:46.122Z</time></trkpt><trkpt lat="43.5633739" lon="11.903832"><ele>567.6666666666666</ele><time>2026-05-03T13:01:47.112Z</time></trkpt><trkpt lat="43.5634376" lon="11.9038773"><ele>569.0</ele><time>2026-05-03T13:01:48.111Z</time></trkpt><trkpt lat="43.5635005" lon="11.9039276"><ele>569.0000000000001</ele><time>2026-05-03T13:01:49.124Z</time></trkpt><trkpt lat="43.5635582" lon="11.9039759"><ele>569.0</ele><time>2026-05-03T13:01:50.109Z</time></trkpt><trkpt lat="43.5636149" lon="11.9040234"><ele>569.0</ele><time>2026-05-03T13:01:51.097Z</time></trkpt><trkpt lat="43.5636721" lon="11.9040737"><ele>569.0</ele><time>2026-05-03T13:01:52.108Z</time></trkpt><trkpt lat="43.5637323" lon="11.9041097"><ele>569.0</ele><time>2026-05-03T13:01:53.112Z</time></trkpt><trkpt lat="43.5637898" lon="11.9041484"><ele>569.0000000000001</ele><time>2026-05-03T13:01:54.114Z</time></trkpt><trkpt lat="43.5638508" lon="11.9041888"><ele>569.0</ele><time>2026-05-03T13:01:55.114Z</time></trkpt><trkpt lat="43.5639128" lon="11.9042381"><ele>566.8333333333333</ele><time>2026-05-03T13:01:56.117Z</time></trkpt><trkpt lat="43.5639711" lon="11.9042813"><ele>564.6666666666666</ele><time>2026-05-03T13:01:57.105Z</time></trkpt><trkpt lat="43.5640589" lon="11.9043686"><ele>562.5</ele><time>2026-05-03T13:01:59.108Z</time></trkpt><trkpt lat="43.5641151" lon="11.9044683"><ele>560.3333333333334</ele><time>2026-05-03T13:02:01.098Z</time></trkpt><trkpt lat="43.5641613" lon="11.9045497"><ele>558.1666666666667</ele><time>2026-05-03T13:02:03.098Z</time></trkpt><trkpt lat="43.5641679" lon="11.9046593"><ele>556.0</ele><time>2026-05-03T13:02:05.116Z</time></trkpt><trkpt lat="43.5641442" lon="11.9048548"><ele>556.0</ele><time>2026-05-03T13:02:07.115Z</time></trkpt><trkpt lat="43.5641302" lon="11.9049676"><ele>556.0</ele><time>2026-05-03T13:02:08.119Z</time></trkpt><trkpt lat="43.5641194" lon="11.9050745"><ele>556.0</ele><time>2026-05-03T13:02:09.105Z</time></trkpt><trkpt lat="43.5641184" lon="11.905177"><ele>556.0</ele><time>2026-05-03T13:02:10.113Z</time></trkpt><trkpt lat="43.5641191" lon="11.9052914"><ele>556.0</ele><time>2026-05-03T13:02:11.107Z</time></trkpt><trkpt lat="43.5641283" lon="11.9054087"><ele>556.0</ele><time>2026-05-03T13:02:12.117Z</time></trkpt><trkpt lat="43.5641513" lon="11.9055261"><ele>556.4</ele><time>2026-05-03T13:02:13.111Z</time></trkpt><trkpt lat="43.5641867" lon="11.9056391"><ele>556.8</ele><time>2026-05-03T13:02:14.118Z</time></trkpt><trkpt lat="43.5642359" lon="11.9057432"><ele>557.1999999999999</ele><time>2026-05-03T13:02:15.116Z</time></trkpt><trkpt lat="43.5642902" lon="11.9058361"><ele>557.6</ele><time>2026-05-03T13:02:16.125Z</time></trkpt><trkpt lat="43.564344" lon="11.9059165"><ele>558.0</ele><time>2026-05-03T13:02:17.099Z</time></trkpt><trkpt lat="43.5644177" lon="11.9060299"><ele>557.0</ele><time>2026-05-03T13:02:19.112Z</time></trkpt><trkpt lat="43.5644972" lon="11.9061111"><ele>556.0</ele><time>2026-05-03T13:02:21.126Z</time></trkpt><trkpt lat="43.5646033" lon="11.9061771"><ele>555.0</ele><time>2026-05-03T13:02:23.113Z</time></trkpt><trkpt lat="43.5647088" lon="11.9062381"><ele>554.0</ele><time>2026-05-03T13:02:25.116Z</time></trkpt><trkpt lat="43.5647736" lon="11.9062823"><ele>553.0</ele><time>2026-05-03T13:02:26.124Z</time></trkpt><trkpt lat="43.5648308" lon="11.9063232"><ele>553.0</ele><time>2026-05-03T13:02:27.117Z</time></trkpt><trkpt lat="43.5649352" lon="11.9064329"><ele>553.0</ele><time>2026-05-03T13:02:29.12Z</time></trkpt><trkpt lat="43.5649855" lon="11.9065077"><ele>553.0</ele><time>2026-05-03T13:02:30.12Z</time></trkpt><trkpt lat="43.5650377" lon="11.9065891"><ele>553.0</ele><time>2026-05-03T13:02:31.123Z</time></trkpt><trkpt lat="43.5650913" lon="11.9066757"><ele>553.0</ele><time>2026-05-03T13:02:32.115Z</time></trkpt><trkpt lat="43.5651409" lon="11.9067703"><ele>551.3333333333334</ele><time>2026-05-03T13:02:33.113Z</time></trkpt><trkpt lat="43.565179" lon="11.9068459"><ele>549.6666666666667</ele><time>2026-05-03T13:02:34.112Z</time></trkpt><trkpt lat="43.5652408" lon="11.9069636"><ele>548.0</ele><time>2026-05-03T13:02:36.097Z</time></trkpt><trkpt lat="43.565306" lon="11.907095"><ele>546.3333333333334</ele><time>2026-05-03T13:02:38.109Z</time></trkpt><trkpt lat="43.565342" lon="11.9071792"><ele>544.6666666666666</ele><time>2026-05-03T13:02:39.116Z</time></trkpt><trkpt lat="43.5653828" lon="11.9072907"><ele>543.0</ele><time>2026-05-03T13:02:40.107Z</time></trkpt><trkpt lat="43.5654238" lon="11.9074156"><ele>543.0</ele><time>2026-05-03T13:02:41.108Z</time></trkpt><trkpt lat="43.5654599" lon="11.9075343"><ele>543.0</ele><time>2026-05-03T13:02:42.095Z</time></trkpt><trkpt lat="43.5654934" lon="11.9076406"><ele>543.0</ele><time>2026-05-03T13:02:43.117Z</time></trkpt><trkpt lat="43.5655216" lon="11.9077302"><ele>543.0</ele><time>2026-05-03T13:02:44.116Z</time></trkpt><trkpt lat="43.565575" lon="11.9077953"><ele>543.0</ele><time>2026-05-03T13:02:45.099Z</time></trkpt><trkpt lat="43.5656503" lon="11.9078948"><ele>543.0</ele><time>2026-05-03T13:02:47.112Z</time></trkpt><trkpt lat="43.5656958" lon="11.9080401"><ele>544.0</ele><time>2026-05-03T13:02:49.115Z</time></trkpt><trkpt lat="43.5657548" lon="11.9081566"><ele>545.0</ele><time>2026-05-03T13:02:51.107Z</time></trkpt><trkpt lat="43.5658385" lon="11.9082573"><ele>546.0</ele><time>2026-05-03T13:02:53.104Z</time></trkpt><trkpt lat="43.565918" lon="11.9083944"><ele>547.0</ele><time>2026-05-03T13:02:55.102Z</time></trkpt><trkpt lat="43.5659926" lon="11.9085047"><ele>547.8333333333334</ele><time>2026-05-03T13:02:57.118Z</time></trkpt><trkpt lat="43.5660442" lon="11.9086003"><ele>548.6666666666667</ele><time>2026-05-03T13:02:59.122Z</time></trkpt><trkpt lat="43.5660756" lon="11.9087055"><ele>549.5</ele><time>2026-05-03T13:03:02.109Z</time></trkpt><trkpt lat="43.5661091" lon="11.9088001"><ele>550.3333333333334</ele><time>2026-05-03T13:03:04.102Z</time></trkpt><trkpt lat="43.5661543" lon="11.9088996"><ele>551.1666666666666</ele><time>2026-05-03T13:03:06.12Z</time></trkpt><trkpt lat="43.5662093" lon="11.9089807"><ele>552.0</ele><time>2026-05-03T13:03:08.102Z</time></trkpt><trkpt lat="43.5662974" lon="11.9090368"><ele>548.8333333333334</ele><time>2026-05-03T13:03:10.109Z</time></trkpt><trkpt lat="43.5663802" lon="11.9091058"><ele>545.6666666666666</ele><time>2026-05-03T13:03:12.11Z</time></trkpt><trkpt lat="43.5664365" lon="11.9092049"><ele>542.5</ele><time>2026-05-03T13:03:14.101Z</time></trkpt><trkpt lat="43.5664953" lon="11.9093073"><ele>539.3333333333333</ele><time>2026-05-03T13:03:16.112Z</time></trkpt><trkpt lat="43.5665507" lon="11.9093799"><ele>536.1666666666666</ele><time>2026-05-03T13:03:18.099Z</time></trkpt><trkpt lat="43.5666116" lon="11.9094553"><ele>533.0</ele><time>2026-05-03T13:03:29.113Z</time></trkpt><trkpt lat="43.5666711" lon="11.9095239"><ele>533.0</ele><time>2026-05-03T13:03:31.12Z</time></trkpt><trkpt lat="43.5667709" lon="11.9095831"><ele>533.0</ele><time>2026-05-03T13:03:33.112Z</time></trkpt><trkpt lat="43.5668701" lon="11.9096592"><ele>533.0</ele><time>2026-05-03T13:03:35.118Z</time></trkpt><trkpt lat="43.5669581" lon="11.9097526"><ele>533.0</ele><time>2026-05-03T13:03:37.103Z</time></trkpt><trkpt lat="43.5670317" lon="11.9098434"><ele>533.0</ele><time>2026-05-03T13:03:39.107Z</time></trkpt><trkpt lat="43.5671043" lon="11.9098995"><ele>533.0</ele><time>2026-05-03T13:03:49.116Z</time></trkpt><trkpt lat="43.5670252" lon="11.909772"><ele>533.0</ele><time>2026-05-03T13:03:58.106Z</time></trkpt><trkpt lat="43.5669706" lon="11.9097167"><ele>533.0</ele><time>2026-05-03T13:03:59.107Z</time></trkpt><trkpt lat="43.5669028" lon="11.9096532"><ele>533.0</ele><time>2026-05-03T13:04:00.118Z</time></trkpt><trkpt lat="43.5668264" lon="11.9095991"><ele>533.0</ele><time>2026-05-03T13:04:01.114Z</time></trkpt><trkpt lat="43.5667539" lon="11.9095553"><ele>533.0</ele><time>2026-05-03T13:04:02.109Z</time></trkpt><trkpt lat="43.5666589" lon="11.9094623"><ele>533.0</ele><time>2026-05-03T13:04:04.108Z</time></trkpt><trkpt lat="43.5665962" lon="11.9093808"><ele>533.0</ele><time>2026-05-03T13:04:06.115Z</time></trkpt><trkpt lat="43.5665158" lon="11.9092852"><ele>533.0</ele><time>2026-05-03T13:04:08.108Z</time></trkpt><trkpt lat="43.5664382" lon="11.9091444"><ele>533.0</ele><time>2026-05-03T13:04:10.105Z</time></trkpt><trkpt lat="43.566364" lon="11.9090361"><ele>533.0</ele><time>2026-05-03T13:04:12.109Z</time></trkpt><trkpt lat="43.5662699" lon="11.9089848"><ele>535.8</ele><time>2026-05-03T13:04:14.114Z</time></trkpt><trkpt lat="43.5661749" lon="11.9089096"><ele>538.5999999999999</ele><time>2026-05-03T13:04:16.117Z</time></trkpt><trkpt lat="43.5661061" lon="11.9087441"><ele>541.4000000000001</ele><time>2026-05-03T13:04:18.11Z</time></trkpt><trkpt lat="43.5660677" lon="11.9086499"><ele>544.2</ele><time>2026-05-03T13:04:19.113Z</time></trkpt><trkpt lat="43.5660186" lon="11.9085191"><ele>547.0</ele><time>2026-05-03T13:04:21.12Z</time></trkpt><trkpt lat="43.5659406" lon="11.9084062"><ele>547.0</ele><time>2026-05-03T13:04:23.094Z</time></trkpt><trkpt lat="43.56589" lon="11.9083453"><ele>547.0</ele><time>2026-05-03T13:04:24.111Z</time></trkpt><trkpt lat="43.5658388" lon="11.9082234"><ele>547.0</ele><time>2026-05-03T13:04:26.103Z</time></trkpt><trkpt lat="43.56578" lon="11.9081414"><ele>547.0</ele><time>2026-05-03T13:04:28.109Z</time></trkpt><trkpt lat="43.5657268" lon="11.9080095"><ele>547.0</ele><time>2026-05-03T13:04:30.11Z</time></trkpt><trkpt lat="43.5657024" lon="11.9079268"><ele>547.0</ele><time>2026-05-03T13:04:31.114Z</time></trkpt><trkpt lat="43.565654" lon="11.9078125"><ele>547.0</ele><time>2026-05-03T13:04:33.123Z</time></trkpt><trkpt lat="43.5656104" lon="11.9077278"><ele>547.0</ele><time>2026-05-03T13:04:35.129Z</time></trkpt><trkpt lat="43.5655456" lon="11.9075876"><ele>547.0</ele><time>2026-05-03T13:04:37.107Z</time></trkpt><trkpt lat="43.5655167" lon="11.907488"><ele>547.0</ele><time>2026-05-03T13:04:38.108Z</time></trkpt><trkpt lat="43.5654871" lon="11.9073968"><ele>547.0</ele><time>2026-05-03T13:04:39.097Z</time></trkpt><trkpt lat="43.5654568" lon="11.9073101"><ele>547.0</ele><time>2026-05-03T13:04:40.117Z</time></trkpt><trkpt lat="43.5654236" lon="11.9072236"><ele>546.4285714285714</ele><time>2026-05-03T13:04:41.116Z</time></trkpt><trkpt lat="43.5653907" lon="11.9071453"><ele>545.8571428571428</ele><time>2026-05-03T13:04:42.101Z</time></trkpt><trkpt lat="43.5653499" lon="11.9070663"><ele>545.2857142857142</ele><time>2026-05-03T13:04:43.098Z</time></trkpt><trkpt lat="43.5653115" lon="11.9069936"><ele>544.7142857142857</ele><time>2026-05-03T13:04:44.102Z</time></trkpt><trkpt lat="43.5652771" lon="11.906919"><ele>544.1428571428571</ele><time>2026-05-03T13:04:45.103Z</time></trkpt><trkpt lat="43.565241" lon="11.906835"><ele>543.5714285714286</ele><time>2026-05-03T13:04:46.093Z</time></trkpt><trkpt lat="43.5651888" lon="11.9067516"><ele>543.0</ele><time>2026-05-03T13:04:47.113Z</time></trkpt><trkpt lat="43.5651389" lon="11.9066695"><ele>545.0</ele><time>2026-05-03T13:04:48.112Z</time></trkpt><trkpt lat="43.5650976" lon="11.9065961"><ele>547.0</ele><time>2026-05-03T13:04:49.155Z</time></trkpt><trkpt lat="43.5650212" lon="11.9064787"><ele>549.0</ele><time>2026-05-03T13:04:51.113Z</time></trkpt><trkpt lat="43.5649479" lon="11.9063624"><ele>551.0</ele><time>2026-05-03T13:04:53.115Z</time></trkpt><trkpt lat="43.5648423" lon="11.9062671"><ele>553.0</ele><time>2026-05-03T13:04:55.118Z</time></trkpt><trkpt lat="43.5647782" lon="11.9062253"><ele>553.0</ele><time>2026-05-03T13:04:56.103Z</time></trkpt><trkpt lat="43.5647174" lon="11.9061883"><ele>553.0</ele><time>2026-05-03T13:04:57.112Z</time></trkpt><trkpt lat="43.5646577" lon="11.9061539"><ele>553.0</ele><time>2026-05-03T13:04:58.112Z</time></trkpt><trkpt lat="43.5645593" lon="11.9061033"><ele>553.0</ele><time>2026-05-03T13:05:00.105Z</time></trkpt><trkpt lat="43.5644501" lon="11.9060021"><ele>553.0</ele><time>2026-05-03T13:05:02.105Z</time></trkpt><trkpt lat="43.5643872" lon="11.9059269"><ele>554.0</ele><time>2026-05-03T13:05:03.102Z</time></trkpt><trkpt lat="43.5643194" lon="11.9058226"><ele>555.0</ele><time>2026-05-03T13:05:04.096Z</time></trkpt><trkpt lat="43.5642615" lon="11.9057234"><ele>556.0</ele><time>2026-05-03T13:05:05.116Z</time></trkpt><trkpt lat="43.5642134" lon="11.9056177"><ele>557.0</ele><time>2026-05-03T13:05:06.11Z</time></trkpt><trkpt lat="43.5641699" lon="11.9055157"><ele>558.0</ele><time>2026-05-03T13:05:07.095Z</time></trkpt><trkpt lat="43.5641421" lon="11.9054076"><ele>558.0</ele><time>2026-05-03T13:05:08.105Z</time></trkpt><trkpt lat="43.5641221" lon="11.9052892"><ele>558.0</ele><time>2026-05-03T13:05:09.106Z</time></trkpt><trkpt lat="43.564102" lon="11.9051519"><ele>558.0</ele><time>2026-05-03T13:05:10.109Z</time></trkpt><trkpt lat="43.5641112" lon="11.9049869"><ele>558.0</ele><time>2026-05-03T13:05:11.111Z</time></trkpt><trkpt lat="43.5641296" lon="11.9048448"><ele>558.0</ele><time>2026-05-03T13:05:12.134Z</time></trkpt><trkpt lat="43.5641428" lon="11.9047241"><ele>557.6666666666666</ele><time>2026-05-03T13:05:13.1Z</time></trkpt><trkpt lat="43.5641523" lon="11.9046321"><ele>557.3333333333334</ele><time>2026-05-03T13:05:14.117Z</time></trkpt><trkpt lat="43.5641261" lon="11.9045178"><ele>557.0</ele><time>2026-05-03T13:05:16.114Z</time></trkpt><trkpt lat="43.5640553" lon="11.9044116"><ele>556.6666666666667</ele><time>2026-05-03T13:05:18.099Z</time></trkpt><trkpt lat="43.5640122" lon="11.9043481"><ele>556.3333333333334</ele><time>2026-05-03T13:05:19.109Z</time></trkpt><trkpt lat="43.5639661" lon="11.9042851"><ele>556.0</ele><time>2026-05-03T13:05:20.116Z</time></trkpt><trkpt lat="43.5639069" lon="11.9042222"><ele>555.4</ele><time>2026-05-03T13:05:21.111Z</time></trkpt><trkpt lat="43.5638244" lon="11.9041523"><ele>554.8</ele><time>2026-05-03T13:05:22.115Z</time></trkpt><trkpt lat="43.5637305" lon="11.9040864"><ele>554.1999999999999</ele><time>2026-05-03T13:05:23.119Z</time></trkpt><trkpt lat="43.5636424" lon="11.9040185"><ele>553.6</ele><time>2026-05-03T13:05:24.107Z</time></trkpt><trkpt lat="43.5635406" lon="11.9039379"><ele>553.0</ele><time>2026-05-03T13:05:25.095Z</time></trkpt><trkpt lat="43.563435" lon="11.9038472"><ele>556.1999999999999</ele><time>2026-05-03T13:05:26.108Z</time></trkpt><trkpt lat="43.5633331" lon="11.9037757"><ele>559.4</ele><time>2026-05-03T13:05:27.113Z</time></trkpt><trkpt lat="43.5632304" lon="11.9037063"><ele>562.5999999999999</ele><time>2026-05-03T13:05:28.117Z</time></trkpt><trkpt lat="43.5631479" lon="11.9036512"><ele>565.8</ele><time>2026-05-03T13:05:29.111Z</time></trkpt><trkpt lat="43.5630388" lon="11.9036138"><ele>569.0</ele><time>2026-05-03T13:05:31.124Z</time></trkpt><trkpt lat="43.56292" lon="11.9035988"><ele>567.8333333333333</ele><time>2026-05-03T13:05:33.112Z</time></trkpt><trkpt lat="43.5628396" lon="11.9035838"><ele>566.6666666666666</ele><time>2026-05-03T13:05:34.128Z</time></trkpt><trkpt lat="43.5627489" lon="11.9035664"><ele>565.5</ele><time>2026-05-03T13:05:35.107Z</time></trkpt><trkpt lat="43.5626594" lon="11.9035434"><ele>564.3333333333334</ele><time>2026-05-03T13:05:36.113Z</time></trkpt><trkpt lat="43.5625716" lon="11.903525"><ele>563.1666666666667</ele><time>2026-05-03T13:05:37.117Z</time></trkpt><trkpt lat="43.5624829" lon="11.9035095"><ele>562.0</ele><time>2026-05-03T13:05:38.137Z</time></trkpt><trkpt lat="43.5623956" lon="11.9035005"><ele>562.0</ele><time>2026-05-03T13:05:39.099Z</time></trkpt><trkpt lat="43.5623077" lon="11.903497"><ele>562.0</ele><time>2026-05-03T13:05:40.105Z</time></trkpt><trkpt lat="43.5622225" lon="11.9034961"><ele>562.0</ele><time>2026-05-03T13:05:41.119Z</time></trkpt><trkpt lat="43.5621434" lon="11.903495"><ele>562.0</ele><time>2026-05-03T13:05:42.119Z</time></trkpt><trkpt lat="43.5620698" lon="11.9034933"><ele>562.0</ele><time>2026-05-03T13:05:43.127Z</time></trkpt><trkpt lat="43.5620019" lon="11.9034916"><ele>562.0</ele><time>2026-05-03T13:05:44.116Z</time></trkpt><trkpt lat="43.5619291" lon="11.9034992"><ele>559.0</ele><time>2026-05-03T13:05:45.109Z</time></trkpt><trkpt lat="43.5618629" lon="11.90351"><ele>556.0</ele><time>2026-05-03T13:05:46.14Z</time></trkpt><trkpt lat="43.5618003" lon="11.9035211"><ele>553.0</ele><time>2026-05-03T13:05:47.112Z</time></trkpt><trkpt lat="43.5616936" lon="11.9035385"><ele>550.0</ele><time>2026-05-03T13:05:49.125Z</time></trkpt><trkpt lat="43.5616119" lon="11.9035955"><ele>547.0</ele><time>2026-05-03T13:05:51.118Z</time></trkpt><trkpt lat="43.5615385" lon="11.9037223"><ele>544.0</ele><time>2026-05-03T13:05:53.112Z</time></trkpt><trkpt lat="43.5615044" lon="11.9037969"><ele>543.9999999999999</ele><time>2026-05-03T13:05:54.126Z</time></trkpt><trkpt lat="43.561477" lon="11.9038945"><ele>544.0</ele><time>2026-05-03T13:05:55.12Z</time></trkpt><trkpt lat="43.5614541" lon="11.9039842"><ele>544.0</ele><time>2026-05-03T13:05:56.109Z</time></trkpt><trkpt lat="43.5614367" lon="11.9040811"><ele>544.0</ele><time>2026-05-03T13:05:57.115Z</time></trkpt><trkpt lat="43.5614096" lon="11.9041637"><ele>544.0</ele><time>2026-05-03T13:05:58.096Z</time></trkpt><trkpt lat="43.5613817" lon="11.9042461"><ele>543.9999999999999</ele><time>2026-05-03T13:05:59.131Z</time></trkpt><trkpt lat="43.5613257" lon="11.9043302"><ele>544.0</ele><time>2026-05-03T13:06:00.108Z</time></trkpt><trkpt lat="43.561263" lon="11.9044164"><ele>544.1666666666667</ele><time>2026-05-03T13:06:01.113Z</time></trkpt><trkpt lat="43.5612051" lon="11.9044843"><ele>544.3333333333334</ele><time>2026-05-03T13:06:02.101Z</time></trkpt><trkpt lat="43.5611526" lon="11.9045362"><ele>544.5</ele><time>2026-05-03T13:06:03.098Z</time></trkpt><trkpt lat="43.561045" lon="11.9045228"><ele>544.6666666666666</ele><time>2026-05-03T13:06:05.106Z</time></trkpt><trkpt lat="43.560933" lon="11.9045119"><ele>544.8333333333333</ele><time>2026-05-03T13:06:07.119Z</time></trkpt><trkpt lat="43.5608619" lon="11.9045338"><ele>545.0</ele><time>2026-05-03T13:06:09.137Z</time></trkpt><trkpt lat="43.5608762" lon="11.9046218"><ele>545.0</ele><time>2026-05-03T13:06:12.104Z</time></trkpt><trkpt lat="43.5609586" lon="11.9046389"><ele>545.0</ele><time>2026-05-03T13:06:14.119Z</time></trkpt><trkpt lat="43.5610433" lon="11.9046728"><ele>545.0</ele><time>2026-05-03T13:06:16.103Z</time></trkpt><trkpt lat="43.5610887" lon="11.9047617"><ele>545.0</ele><time>2026-05-03T13:06:19.098Z</time></trkpt><trkpt lat="43.5610335" lon="11.9048252"><ele>545.0</ele><time>2026-05-03T13:06:21.101Z</time></trkpt><trkpt lat="43.5609742" lon="11.9048649"><ele>545.0</ele><time>2026-05-03T13:06:22.122Z</time></trkpt><trkpt lat="43.560928" lon="11.904931"><ele>545.0</ele><time>2026-05-03T13:06:23.114Z</time></trkpt><trkpt lat="43.5608626" lon="11.9050755"><ele>545.0</ele><time>2026-05-03T13:06:25.109Z</time></trkpt><trkpt lat="43.5607892" lon="11.9051951"><ele>545.0</ele><time>2026-05-03T13:06:27.105Z</time></trkpt><trkpt lat="43.5607372" lon="11.9052668"><ele>545.0</ele><time>2026-05-03T13:06:28.111Z</time></trkpt><trkpt lat="43.5606638" lon="11.9053528"><ele>545.0</ele><time>2026-05-03T13:06:29.093Z</time></trkpt><trkpt lat="43.5605923" lon="11.9054198"><ele>548.1666666666666</ele><time>2026-05-03T13:06:30.105Z</time></trkpt><trkpt lat="43.5605473" lon="11.9054892"><ele>551.3333333333333</ele><time>2026-05-03T13:06:31.11Z</time></trkpt><trkpt lat="43.5605192" lon="11.9055836"><ele>554.5</ele><time>2026-05-03T13:06:32.108Z</time></trkpt><trkpt lat="43.5604942" lon="11.9056784"><ele>557.6666666666666</ele><time>2026-05-03T13:06:33.104Z</time></trkpt><trkpt lat="43.5604896" lon="11.905833"><ele>560.8333333333334</ele><time>2026-05-03T13:06:35.109Z</time></trkpt><trkpt lat="43.5605509" lon="11.9059288"><ele>564.0</ele><time>2026-05-03T13:06:36.112Z</time></trkpt><trkpt lat="43.560622" lon="11.9060231"><ele>564.6</ele><time>2026-05-03T13:06:37.116Z</time></trkpt><trkpt lat="43.5606943" lon="11.9061111"><ele>565.2</ele><time>2026-05-03T13:06:38.123Z</time></trkpt><trkpt lat="43.5607618" lon="11.9061998"><ele>565.8000000000001</ele><time>2026-05-03T13:06:39.116Z</time></trkpt><trkpt lat="43.560819" lon="11.9062888"><ele>566.4</ele><time>2026-05-03T13:06:40.112Z</time></trkpt><trkpt lat="43.5608674" lon="11.9064038"><ele>567.0</ele><time>2026-05-03T13:06:41.115Z</time></trkpt><trkpt lat="43.5609037" lon="11.906537"><ele>567.0</ele><time>2026-05-03T13:06:42.116Z</time></trkpt><trkpt lat="43.5609598" lon="11.9066552"><ele>567.0</ele><time>2026-05-03T13:06:43.113Z</time></trkpt><trkpt lat="43.5610151" lon="11.906772"><ele>567.0</ele><time>2026-05-03T13:06:44.112Z</time></trkpt><trkpt lat="43.5610427" lon="11.9068814"><ele>567.0</ele><time>2026-05-03T13:06:45.101Z</time></trkpt><trkpt lat="43.5610483" lon="11.9070004"><ele>567.0</ele><time>2026-05-03T13:06:46.1Z</time></trkpt><trkpt lat="43.5610569" lon="11.9071169"><ele>567.0</ele><time>2026-05-03T13:06:47.107Z</time></trkpt><trkpt lat="43.5610643" lon="11.9072159"><ele>567.0</ele><time>2026-05-03T13:06:48.114Z</time></trkpt><trkpt lat="43.5610939" lon="11.9073696"><ele>567.0</ele><time>2026-05-03T13:06:50.112Z</time></trkpt><trkpt lat="43.5611259" lon="11.9074559"><ele>567.0</ele><time>2026-05-03T13:06:51.121Z</time></trkpt><trkpt lat="43.5611691" lon="11.9075287"><ele>567.0</ele><time>2026-05-03T13:06:52.099Z</time></trkpt><trkpt lat="43.5612178" lon="11.9076064"><ele>567.0</ele><time>2026-05-03T13:06:53.135Z</time></trkpt><trkpt lat="43.5612706" lon="11.907694"><ele>566.5714285714286</ele><time>2026-05-03T13:06:54.105Z</time></trkpt><trkpt lat="43.5613158" lon="11.9077857"><ele>566.1428571428571</ele><time>2026-05-03T13:06:55.113Z</time></trkpt><trkpt lat="43.5613431" lon="11.907888"><ele>565.7142857142858</ele><time>2026-05-03T13:06:56.107Z</time></trkpt><trkpt lat="43.5613708" lon="11.9079866"><ele>565.2857142857142</ele><time>2026-05-03T13:06:57.098Z</time></trkpt><trkpt lat="43.5614048" lon="11.9080714"><ele>564.8571428571429</ele><time>2026-05-03T13:06:58.115Z</time></trkpt><trkpt lat="43.5614365" lon="11.908157"><ele>564.4285714285714</ele><time>2026-05-03T13:06:59.104Z</time></trkpt><trkpt lat="43.5614538" lon="11.9082447"><ele>564.0</ele><time>2026-05-03T13:07:00.122Z</time></trkpt><trkpt lat="43.5614987" lon="11.9083835"><ele>563.6</ele><time>2026-05-03T13:07:02.117Z</time></trkpt><trkpt lat="43.5615959" lon="11.9084252"><ele>563.2</ele><time>2026-05-03T13:07:04.094Z</time></trkpt><trkpt lat="43.5616781" lon="11.9085235"><ele>562.8000000000001</ele><time>2026-05-03T13:07:06.109Z</time></trkpt><trkpt lat="43.5617266" lon="11.9086702"><ele>562.4</ele><time>2026-05-03T13:07:08.113Z</time></trkpt><trkpt lat="43.5617608" lon="11.9088056"><ele>562.0</ele><time>2026-05-03T13:07:10.107Z</time></trkpt><trkpt lat="43.5617885" lon="11.9089035"><ele>562.0</ele><time>2026-05-03T13:07:12.115Z</time></trkpt><trkpt lat="43.5618455" lon="11.9090325"><ele>562.0</ele><time>2026-05-03T13:07:14.113Z</time></trkpt><trkpt lat="43.5619124" lon="11.9091427"><ele>562.0</ele><time>2026-05-03T13:07:16.114Z</time></trkpt><trkpt lat="43.5619835" lon="11.9092292"><ele>562.0</ele><time>2026-05-03T13:07:18.112Z</time></trkpt><trkpt lat="43.5620479" lon="11.9092932"><ele>562.0</ele><time>2026-05-03T13:07:20.115Z</time></trkpt><trkpt lat="43.5620708" lon="11.9093934"><ele>560.1666666666667</ele><time>2026-05-03T13:07:22.119Z</time></trkpt><trkpt lat="43.5620738" lon="11.909519"><ele>558.3333333333334</ele><time>2026-05-03T13:07:24.117Z</time></trkpt><trkpt lat="43.5620743" lon="11.9096708"><ele>556.5</ele><time>2026-05-03T13:07:26.112Z</time></trkpt><trkpt lat="43.5621155" lon="11.9097631"><ele>554.6666666666666</ele><time>2026-05-03T13:07:28.101Z</time></trkpt><trkpt lat="43.5621623" lon="11.9098289"><ele>552.8333333333333</ele><time>2026-05-03T13:07:29.125Z</time></trkpt><trkpt lat="43.5622199" lon="11.9099074"><ele>551.0</ele><time>2026-05-03T13:07:30.116Z</time></trkpt><trkpt lat="43.5622719" lon="11.9099717"><ele>552.2</ele><time>2026-05-03T13:07:31.119Z</time></trkpt><trkpt lat="43.5623213" lon="11.9100759"><ele>553.4000000000001</ele><time>2026-05-03T13:07:33.115Z</time></trkpt><trkpt lat="43.5623292" lon="11.9101919"><ele>554.6</ele><time>2026-05-03T13:07:35.113Z</time></trkpt><trkpt lat="43.5623183" lon="11.9102828"><ele>555.8000000000001</ele><time>2026-05-03T13:07:36.115Z</time></trkpt><trkpt lat="43.562332" lon="11.9104379"><ele>557.0</ele><time>2026-05-03T13:07:38.12Z</time></trkpt><trkpt lat="43.5623987" lon="11.9105866"><ele>557.0</ele><time>2026-05-03T13:07:40.115Z</time></trkpt><trkpt lat="43.5624411" lon="11.9106633"><ele>557.0</ele><time>2026-05-03T13:07:41.105Z</time></trkpt><trkpt lat="43.5624885" lon="11.9107364"><ele>557.0</ele><time>2026-05-03T13:07:43.101Z</time></trkpt><trkpt lat="43.5625534" lon="11.9108115"><ele>557.0</ele><time>2026-05-03T13:07:45.109Z</time></trkpt><trkpt lat="43.5626026" lon="11.9108805"><ele>557.0</ele><time>2026-05-03T13:07:46.113Z</time></trkpt><trkpt lat="43.5626555" lon="11.9109602"><ele>557.0</ele><time>2026-05-03T13:07:47.118Z</time></trkpt><trkpt lat="43.5627325" lon="11.9110907"><ele>559.3333333333333</ele><time>2026-05-03T13:07:49.113Z</time></trkpt><trkpt lat="43.5627678" lon="11.911165"><ele>561.6666666666666</ele><time>2026-05-03T13:07:50.11Z</time></trkpt><trkpt lat="43.5628066" lon="11.9112466"><ele>564.0</ele><time>2026-05-03T13:07:51.109Z</time></trkpt><trkpt lat="43.5628476" lon="11.911351"><ele>566.3333333333334</ele><time>2026-05-03T13:07:52.132Z</time></trkpt><trkpt lat="43.5628946" lon="11.9114765"><ele>568.6666666666667</ele><time>2026-05-03T13:07:53.117Z</time></trkpt><trkpt lat="43.5629394" lon="11.9115917"><ele>571.0</ele><time>2026-05-03T13:07:54.108Z</time></trkpt><trkpt lat="43.5629802" lon="11.9116966"><ele>566.3333333333334</ele><time>2026-05-03T13:07:55.116Z</time></trkpt><trkpt lat="43.5630171" lon="11.9117907"><ele>561.6666666666667</ele><time>2026-05-03T13:07:56.115Z</time></trkpt><trkpt lat="43.5630434" lon="11.9118735"><ele>557.0</ele><time>2026-05-03T13:07:57.099Z</time></trkpt><trkpt lat="43.5630814" lon="11.9119964"><ele>552.3333333333334</ele><time>2026-05-03T13:07:59.108Z</time></trkpt><trkpt lat="43.5631124" lon="11.9121345"><ele>547.6666666666666</ele><time>2026-05-03T13:08:01.115Z</time></trkpt><trkpt lat="43.5631309" lon="11.9122194"><ele>543.0</ele><time>2026-05-03T13:08:02.111Z</time></trkpt><trkpt lat="43.5631649" lon="11.9123322"><ele>543.0</ele><time>2026-05-03T13:08:03.095Z</time></trkpt><trkpt lat="43.5632102" lon="11.9124411"><ele>543.0</ele><time>2026-05-03T13:08:04.117Z</time></trkpt><trkpt lat="43.5632401" lon="11.912562"><ele>543.0</ele><time>2026-05-03T13:08:05.117Z</time></trkpt><trkpt lat="43.5632591" lon="11.912676"><ele>543.0</ele><time>2026-05-03T13:08:06.108Z</time></trkpt><trkpt lat="43.5632851" lon="11.9127723"><ele>543.0</ele><time>2026-05-03T13:08:07.099Z</time></trkpt><trkpt lat="43.5633139" lon="11.9128751"><ele>543.0</ele><time>2026-05-03T13:08:09.112Z</time></trkpt><trkpt lat="43.5633359" lon="11.9129761"><ele>543.4</ele><time>2026-05-03T13:08:11.11Z</time></trkpt><trkpt lat="43.5633768" lon="11.9131185"><ele>543.8</ele><time>2026-05-03T13:08:13.111Z</time></trkpt><trkpt lat="43.5634309" lon="11.9132885"><ele>544.2</ele><time>2026-05-03T13:08:15.109Z</time></trkpt><trkpt lat="43.5634594" lon="11.9133783"><ele>544.6</ele><time>2026-05-03T13:08:16.114Z</time></trkpt><trkpt lat="43.5634815" lon="11.913466"><ele>545.0</ele><time>2026-05-03T13:08:17.1Z</time></trkpt><trkpt lat="43.5634919" lon="11.9135941"><ele>545.0</ele><time>2026-05-03T13:08:19.127Z</time></trkpt><trkpt lat="43.56348" lon="11.913724"><ele>545.0</ele><time>2026-05-03T13:08:21.106Z</time></trkpt><trkpt lat="43.563447" lon="11.9138317"><ele>545.0</ele><time>2026-05-03T13:08:23.099Z</time></trkpt><trkpt lat="43.563383" lon="11.9139006"><ele>545.0</ele><time>2026-05-03T13:08:25.157Z</time></trkpt><trkpt lat="43.5633257" lon="11.9139726"><ele>545.0</ele><time>2026-05-03T13:08:27.133Z</time></trkpt><trkpt lat="43.5632742" lon="11.9140459"><ele>545.0</ele><time>2026-05-03T13:08:29.12Z</time></trkpt><trkpt lat="43.5631861" lon="11.9141"><ele>545.0</ele><time>2026-05-03T13:08:31.105Z</time></trkpt><trkpt lat="43.5631096" lon="11.9141957"><ele>545.0</ele><time>2026-05-03T13:08:33.11Z</time></trkpt><trkpt lat="43.563055" lon="11.9143"><ele>545.0</ele><time>2026-05-03T13:08:35.113Z</time></trkpt><trkpt lat="43.5630078" lon="11.9144025"><ele>545.0</ele><time>2026-05-03T13:08:37.118Z</time></trkpt><trkpt lat="43.5629498" lon="11.9144904"><ele>545.0</ele><time>2026-05-03T13:08:39.108Z</time></trkpt><trkpt lat="43.5628678" lon="11.9145304"><ele>545.0</ele><time>2026-05-03T13:08:41.113Z</time></trkpt><trkpt lat="43.5628158" lon="11.914607"><ele>545.0</ele><time>2026-05-03T13:08:43.11Z</time></trkpt><trkpt lat="43.5627536" lon="11.9146528"><ele>545.0</ele><time>2026-05-03T13:08:45.113Z</time></trkpt><trkpt lat="43.5626906" lon="11.9146462"><ele>545.0</ele><time>2026-05-03T13:08:47.103Z</time></trkpt><trkpt lat="43.5626258" lon="11.9145739"><ele>545.0</ele><time>2026-05-03T13:08:49.122Z</time></trkpt><trkpt lat="43.5625636" lon="11.9145419"><ele>545.0</ele><time>2026-05-03T13:08:51.11Z</time></trkpt><trkpt lat="43.5625025" lon="11.9146202"><ele>545.0</ele><time>2026-05-03T13:08:54.125Z</time></trkpt><trkpt lat="43.5625124" lon="11.9147241"><ele>545.0</ele><time>2026-05-03T13:08:56.117Z</time></trkpt><trkpt lat="43.5625334" lon="11.9148093"><ele>545.0</ele><time>2026-05-03T13:08:57.109Z</time></trkpt><trkpt lat="43.5625809" lon="11.9148858"><ele>545.0</ele><time>2026-05-03T13:08:58.109Z</time></trkpt><trkpt lat="43.5626272" lon="11.9149475"><ele>545.0</ele><time>2026-05-03T13:08:59.127Z</time></trkpt><trkpt lat="43.5627431" lon="11.9149624"><ele>545.0</ele><time>2026-05-03T13:09:01.101Z</time></trkpt><trkpt lat="43.5628711" lon="11.9150555"><ele>545.0</ele><time>2026-05-03T13:09:03.103Z</time></trkpt><trkpt lat="43.562924" lon="11.9151363"><ele>545.0</ele><time>2026-05-03T13:09:04.111Z</time></trkpt><trkpt lat="43.5629775" lon="11.9152252"><ele>545.0</ele><time>2026-05-03T13:09:05.109Z</time></trkpt><trkpt lat="43.5630242" lon="11.9153032"><ele>545.0</ele><time>2026-05-03T13:09:06.104Z</time></trkpt><trkpt lat="43.5631078" lon="11.9154171"><ele>545.0</ele><time>2026-05-03T13:09:08.103Z</time></trkpt><trkpt lat="43.5632073" lon="11.9155203"><ele>545.0</ele><time>2026-05-03T13:09:10.113Z</time></trkpt><trkpt lat="43.5633232" lon="11.9156227"><ele>545.0</ele><time>2026-05-03T13:09:12.101Z</time></trkpt><trkpt lat="43.5634017" lon="11.9156969"><ele>545.0</ele><time>2026-05-03T13:09:13.105Z</time></trkpt><trkpt lat="43.5634801" lon="11.9157622"><ele>545.0</ele><time>2026-05-03T13:09:14.107Z</time></trkpt><trkpt lat="43.5635548" lon="11.9158241"><ele>545.0</ele><time>2026-05-03T13:09:15.093Z</time></trkpt><trkpt lat="43.5636261" lon="11.9158847"><ele>544.6666666666666</ele><time>2026-05-03T13:09:16.108Z</time></trkpt><trkpt lat="43.5636903" lon="11.9159433"><ele>544.3333333333333</ele><time>2026-05-03T13:09:17.11Z</time></trkpt><trkpt lat="43.5637693" lon="11.9160051"><ele>544.0</ele><time>2026-05-03T13:09:18.099Z</time></trkpt><trkpt lat="43.5638396" lon="11.9160532"><ele>543.6666666666666</ele><time>2026-05-03T13:09:19.112Z</time></trkpt><trkpt lat="43.5639043" lon="11.9161039"><ele>543.3333333333334</ele><time>2026-05-03T13:09:20.1Z</time></trkpt><trkpt lat="43.5639779" lon="11.9161903"><ele>543.0</ele><time>2026-05-03T13:09:21.119Z</time></trkpt><trkpt lat="43.5640409" lon="11.9162736"><ele>543.0</ele><time>2026-05-03T13:09:22.105Z</time></trkpt><trkpt lat="43.5640884" lon="11.916344"><ele>543.0</ele><time>2026-05-03T13:09:23.103Z</time></trkpt><trkpt lat="43.5641831" lon="11.9164473"><ele>543.0</ele><time>2026-05-03T13:09:25.106Z</time></trkpt><trkpt lat="43.5642483" lon="11.9164986"><ele>543.0</ele><time>2026-05-03T13:09:26.114Z</time></trkpt><trkpt lat="43.564309" lon="11.9165578"><ele>543.0</ele><time>2026-05-03T13:09:27.116Z</time></trkpt><trkpt lat="43.5643773" lon="11.9166254"><ele>543.0</ele><time>2026-05-03T13:09:28.089Z</time></trkpt><trkpt lat="43.5644302" lon="11.9166816"><ele>541.8333333333334</ele><time>2026-05-03T13:09:29.12Z</time></trkpt><trkpt lat="43.5645008" lon="11.9167838"><ele>540.6666666666666</ele><time>2026-05-03T13:09:31.117Z</time></trkpt><trkpt lat="43.5644918" lon="11.9168859"><ele>539.5</ele><time>2026-05-03T13:09:33.113Z</time></trkpt><trkpt lat="43.5644586" lon="11.9169887"><ele>538.3333333333333</ele><time>2026-05-03T13:09:35.107Z</time></trkpt><trkpt lat="43.5644253" lon="11.9170711"><ele>537.1666666666666</ele><time>2026-05-03T13:09:37.117Z</time></trkpt><trkpt lat="43.5643575" lon="11.9171391"><ele>536.0</ele><time>2026-05-03T13:09:39.109Z</time></trkpt><trkpt lat="43.5642598" lon="11.917216"><ele>536.0</ele><time>2026-05-03T13:09:41.112Z</time></trkpt><trkpt lat="43.5642062" lon="11.9172672"><ele>536.0</ele><time>2026-05-03T13:09:42.099Z</time></trkpt><trkpt lat="43.5641055" lon="11.9173806"><ele>536.0</ele><time>2026-05-03T13:09:44.109Z</time></trkpt><trkpt lat="43.5640602" lon="11.9174532"><ele>536.0</ele><time>2026-05-03T13:09:45.124Z</time></trkpt><trkpt lat="43.5640165" lon="11.9175222"><ele>536.0</ele><time>2026-05-03T13:09:46.1Z</time></trkpt><trkpt lat="43.5639695" lon="11.9175977"><ele>536.0</ele><time>2026-05-03T13:09:47.116Z</time></trkpt><trkpt lat="43.5639097" lon="11.9176923"><ele>538.4</ele><time>2026-05-03T13:09:48.097Z</time></trkpt><trkpt lat="43.5638366" lon="11.9178015"><ele>540.8</ele><time>2026-05-03T13:09:49.115Z</time></trkpt><trkpt lat="43.563768" lon="11.9179029"><ele>543.1999999999999</ele><time>2026-05-03T13:09:50.139Z</time></trkpt><trkpt lat="43.5637058" lon="11.9180167"><ele>545.6</ele><time>2026-05-03T13:09:51.116Z</time></trkpt><trkpt lat="43.5636572" lon="11.9181412"><ele>548.0</ele><time>2026-05-03T13:09:52.11Z</time></trkpt><trkpt lat="43.5636156" lon="11.9182925"><ele>543.8</ele><time>2026-05-03T13:09:53.15Z</time></trkpt><trkpt lat="43.5635848" lon="11.9184139"><ele>539.5999999999999</ele><time>2026-05-03T13:09:54.098Z</time></trkpt><trkpt lat="43.5635507" lon="11.9185282"><ele>535.4000000000001</ele><time>2026-05-03T13:09:55.1Z</time></trkpt><trkpt lat="43.5634944" lon="11.9186613"><ele>531.2</ele><time>2026-05-03T13:09:56.105Z</time></trkpt><trkpt lat="43.5634313" lon="11.9187846"><ele>527.0</ele><time>2026-05-03T13:09:57.104Z</time></trkpt><trkpt lat="43.5633897" lon="11.9188874"><ele>527.0</ele><time>2026-05-03T13:09:58.102Z</time></trkpt><trkpt lat="43.5633568" lon="11.9190019"><ele>527.0</ele><time>2026-05-03T13:09:59.098Z</time></trkpt><trkpt lat="43.5633081" lon="11.9190991"><ele>527.0</ele><time>2026-05-03T13:10:00.102Z</time></trkpt><trkpt lat="43.5632678" lon="11.9192085"><ele>527.0</ele><time>2026-05-03T13:10:01.101Z</time></trkpt><trkpt lat="43.5632305" lon="11.919316"><ele>527.0</ele><time>2026-05-03T13:10:02.101Z</time></trkpt><trkpt lat="43.5631441" lon="11.9194605"><ele>525.0</ele><time>2026-05-03T13:10:04.11Z</time></trkpt><trkpt lat="43.5630522" lon="11.9195545"><ele>523.0</ele><time>2026-05-03T13:10:06.114Z</time></trkpt><trkpt lat="43.5629848" lon="11.919615"><ele>521.0</ele><time>2026-05-03T13:10:07.114Z</time></trkpt><trkpt lat="43.5628845" lon="11.919601"><ele>519.0</ele><time>2026-05-03T13:10:09.1Z</time></trkpt><trkpt lat="43.5628004" lon="11.919628"><ele>517.0</ele><time>2026-05-03T13:10:10.105Z</time></trkpt><trkpt lat="43.5627378" lon="11.9196476"><ele>515.0</ele><time>2026-05-03T13:10:11.126Z</time></trkpt><trkpt lat="43.5626613" lon="11.9196729"><ele>515.0</ele><time>2026-05-03T13:10:12.115Z</time></trkpt><trkpt lat="43.5625908" lon="11.9197018"><ele>515.0</ele><time>2026-05-03T13:10:13.115Z</time></trkpt><trkpt lat="43.5625335" lon="11.9197421"><ele>515.0</ele><time>2026-05-03T13:10:14.108Z</time></trkpt><trkpt lat="43.5624751" lon="11.9197766"><ele>515.0</ele><time>2026-05-03T13:10:15.116Z</time></trkpt><trkpt lat="43.5623777" lon="11.9198009"><ele>515.0</ele><time>2026-05-03T13:10:17.104Z</time></trkpt><trkpt lat="43.56226" lon="11.9197865"><ele>515.0</ele><time>2026-05-03T13:10:19.101Z</time></trkpt><trkpt lat="43.5621559" lon="11.9197802"><ele>515.0</ele><time>2026-05-03T13:10:21.109Z</time></trkpt><trkpt lat="43.5620361" lon="11.919815"><ele>515.0</ele><time>2026-05-03T13:10:23.146Z</time></trkpt><trkpt lat="43.5619701" lon="11.9198528"><ele>515.0</ele><time>2026-05-03T13:10:24.105Z</time></trkpt><trkpt lat="43.5618952" lon="11.9198952"><ele>515.0</ele><time>2026-05-03T13:10:25.113Z</time></trkpt><trkpt lat="43.561826" lon="11.9199408"><ele>515.0</ele><time>2026-05-03T13:10:26.111Z</time></trkpt><trkpt lat="43.561731" lon="11.9200164"><ele>516.0</ele><time>2026-05-03T13:10:28.096Z</time></trkpt><trkpt lat="43.561654" lon="11.9200594"><ele>517.0</ele><time>2026-05-03T13:10:30.116Z</time></trkpt><trkpt lat="43.561559" lon="11.9201123"><ele>518.0</ele><time>2026-05-03T13:10:32.108Z</time></trkpt><trkpt lat="43.5614547" lon="11.9201534"><ele>519.0</ele><time>2026-05-03T13:10:34.102Z</time></trkpt><trkpt lat="43.5613503" lon="11.9201752"><ele>520.0</ele><time>2026-05-03T13:10:36.101Z</time></trkpt><trkpt lat="43.5612869" lon="11.9201838"><ele>518.4</ele><time>2026-05-03T13:10:37.099Z</time></trkpt><trkpt lat="43.56117" lon="11.9201703"><ele>516.8</ele><time>2026-05-03T13:10:39.099Z</time></trkpt><trkpt lat="43.5610753" lon="11.9200894"><ele>515.2</ele><time>2026-05-03T13:10:41.089Z</time></trkpt><trkpt lat="43.5609941" lon="11.9200097"><ele>513.6</ele><time>2026-05-03T13:10:43.11Z</time></trkpt><trkpt lat="43.5609296" lon="11.9199669"><ele>512.0</ele><time>2026-05-03T13:10:45.116Z</time></trkpt><trkpt lat="43.5608508" lon="11.9199699"><ele>511.99999999999994</ele><time>2026-05-03T13:10:47.113Z</time></trkpt><trkpt lat="43.5607616" lon="11.919969"><ele>512.0</ele><time>2026-05-03T13:10:49.104Z</time></trkpt><trkpt lat="43.5606815" lon="11.9199735"><ele>512.0</ele><time>2026-05-03T13:10:51.103Z</time></trkpt><trkpt lat="43.5607218" lon="11.9200747"><ele>512.0</ele><time>2026-05-03T13:10:58.111Z</time></trkpt><trkpt lat="43.5607923" lon="11.9201275"><ele>511.99999999999994</ele><time>2026-05-03T13:10:59.114Z</time></trkpt><trkpt lat="43.560878" lon="11.9201804"><ele>512.0</ele><time>2026-05-03T13:11:00.112Z</time></trkpt><trkpt lat="43.5609621" lon="11.9202407"><ele>507.66666666666663</ele><time>2026-05-03T13:11:01.104Z</time></trkpt><trkpt lat="43.5610299" lon="11.9203009"><ele>503.3333333333333</ele><time>2026-05-03T13:11:02.097Z</time></trkpt><trkpt lat="43.5610937" lon="11.9203497"><ele>499.0</ele><time>2026-05-03T13:11:03.11Z</time></trkpt><trkpt lat="43.5612006" lon="11.920428"><ele>494.66666666666663</ele><time>2026-05-03T13:11:05.096Z</time></trkpt><trkpt lat="43.5612611" lon="11.9204592"><ele>490.3333333333333</ele><time>2026-05-03T13:11:06.106Z</time></trkpt><trkpt lat="43.5613576" lon="11.9204752"><ele>486.0</ele><time>2026-05-03T13:11:08.104Z</time></trkpt><trkpt lat="43.5613371" lon="11.9205813"><ele>486.0</ele><time>2026-05-03T13:11:17.111Z</time></trkpt><trkpt lat="43.5612959" lon="11.9206502"><ele>486.0</ele><time>2026-05-03T13:11:19.109Z</time></trkpt><trkpt lat="43.5612574" lon="11.920723"><ele>486.0</ele><time>2026-05-03T13:11:21.112Z</time></trkpt><trkpt lat="43.5612381" lon="11.9208126"><ele>486.0</ele><time>2026-05-03T13:11:23.109Z</time></trkpt><trkpt lat="43.5612724" lon="11.9209369"><ele>486.0</ele><time>2026-05-03T13:11:26.096Z</time></trkpt><trkpt lat="43.561317" lon="11.9210515"><ele>486.0</ele><time>2026-05-03T13:11:29.111Z</time></trkpt><trkpt lat="43.5613443" lon="11.921158"><ele>482.3333333333333</ele><time>2026-05-03T13:11:31.105Z</time></trkpt><trkpt lat="43.5613575" lon="11.9212801"><ele>478.66666666666663</ele><time>2026-05-03T13:11:34.113Z</time></trkpt><trkpt lat="43.5612924" lon="11.9213549"><ele>475.0</ele><time>2026-05-03T13:11:37.109Z</time></trkpt><trkpt lat="43.5612269" lon="11.9214269"><ele>471.3333333333333</ele><time>2026-05-03T13:11:40.096Z</time></trkpt><trkpt lat="43.5612027" lon="11.921542"><ele>467.66666666666663</ele><time>2026-05-03T13:11:43.116Z</time></trkpt><trkpt lat="43.5612019" lon="11.9216372"><ele>464.0</ele><time>2026-05-03T13:11:45.105Z</time></trkpt><trkpt lat="43.5611893" lon="11.9217435"><ele>460.6</ele><time>2026-05-03T13:11:47.123Z</time></trkpt><trkpt lat="43.5611098" lon="11.9218445"><ele>457.2</ele><time>2026-05-03T13:11:49.104Z</time></trkpt><trkpt lat="43.5610019" lon="11.921939"><ele>453.80000000000007</ele><time>2026-05-03T13:11:51.118Z</time></trkpt><trkpt lat="43.5609385" lon="11.9219896"><ele>450.40000000000003</ele><time>2026-05-03T13:11:52.105Z</time></trkpt><trkpt lat="43.5608494" lon="11.9220656"><ele>447.0</ele><time>2026-05-03T13:11:54.103Z</time></trkpt><trkpt lat="43.5608652" lon="11.9221523"><ele>447.0</ele><time>2026-05-03T13:11:56.158Z</time></trkpt><trkpt lat="43.5609471" lon="11.9222047"><ele>447.0</ele><time>2026-05-03T13:11:58.107Z</time></trkpt><trkpt lat="43.5610239" lon="11.9222153"><ele>447.0</ele><time>2026-05-03T13:12:00.136Z</time></trkpt><trkpt lat="43.5610894" lon="11.9222254"><ele>447.0</ele><time>2026-05-03T13:12:02.108Z</time></trkpt><trkpt lat="43.5611137" lon="11.9223301"><ele>447.0</ele><time>2026-05-03T13:12:05.109Z</time></trkpt><trkpt lat="43.5610755" lon="11.9224058"><ele>447.0</ele><time>2026-05-03T13:12:07.103Z</time></trkpt><trkpt lat="43.5610054" lon="11.9224861"><ele>444.0</ele><time>2026-05-03T13:12:10.132Z</time></trkpt><trkpt lat="43.5609516" lon="11.9225691"><ele>441.0</ele><time>2026-05-03T13:12:12.102Z</time></trkpt><trkpt lat="43.5609111" lon="11.9226627"><ele>438.0</ele><time>2026-05-03T13:12:14.116Z</time></trkpt><trkpt lat="43.5608615" lon="11.9227637"><ele>435.0</ele><time>2026-05-03T13:12:16.11Z</time></trkpt><trkpt lat="43.5608045" lon="11.9228425"><ele>432.0</ele><time>2026-05-03T13:12:18.112Z</time></trkpt><trkpt lat="43.5607396" lon="11.9229788"><ele>429.0</ele><time>2026-05-03T13:12:20.106Z</time></trkpt><trkpt lat="43.5606943" lon="11.9231097"><ele>429.0</ele><time>2026-05-03T13:12:22.107Z</time></trkpt><trkpt lat="43.5606519" lon="11.9231959"><ele>429.0</ele><time>2026-05-03T13:12:24.116Z</time></trkpt><trkpt lat="43.560623" lon="11.9233081"><ele>429.0</ele><time>2026-05-03T13:12:27.116Z</time></trkpt><trkpt lat="43.5606094" lon="11.9234357"><ele>429.0</ele><time>2026-05-03T13:12:30.114Z</time></trkpt><trkpt lat="43.5606503" lon="11.9235265"><ele>429.0</ele><time>2026-05-03T13:12:32.115Z</time></trkpt><trkpt lat="43.5606999" lon="11.9235979"><ele>429.0</ele><time>2026-05-03T13:12:34.123Z</time></trkpt><trkpt lat="43.5607212" lon="11.9236863"><ele>429.0</ele><time>2026-05-03T13:12:36.118Z</time></trkpt><trkpt lat="43.5607836" lon="11.9236493"><ele>429.0</ele><time>2026-05-03T13:12:43.12Z</time></trkpt><trkpt lat="43.5608142" lon="11.9235552"><ele>429.0</ele><time>2026-05-03T13:12:45.105Z</time></trkpt><trkpt lat="43.5607788" lon="11.9234471"><ele>429.0</ele><time>2026-05-03T13:12:48.136Z</time></trkpt><trkpt lat="43.5607938" lon="11.9233372"><ele>429.0</ele><time>2026-05-03T13:12:50.183Z</time></trkpt><trkpt lat="43.5607371" lon="11.9232257"><ele>429.0</ele><time>2026-05-03T13:12:52.097Z</time></trkpt><trkpt lat="43.5607045" lon="11.9231367"><ele>429.0</ele><time>2026-05-03T13:12:55.125Z</time></trkpt><trkpt lat="43.5606828" lon="11.9232421"><ele>429.0</ele><time>2026-05-03T13:12:58.123Z</time></trkpt><trkpt lat="43.5606348" lon="11.9233915"><ele>429.0</ele><time>2026-05-03T13:12:59.125Z</time></trkpt><trkpt lat="43.5605982" lon="11.9234849"><ele>429.0</ele><time>2026-05-03T13:13:00.144Z</time></trkpt><trkpt lat="43.5605524" lon="11.9235995"><ele>429.0</ele><time>2026-05-03T13:13:02.1Z</time></trkpt><trkpt lat="43.5604342" lon="11.9236169"><ele>425.0</ele><time>2026-05-03T13:13:03.099Z</time></trkpt><trkpt lat="43.5603271" lon="11.9236963"><ele>421.0</ele><time>2026-05-03T13:13:04.138Z</time></trkpt><trkpt lat="43.5602232" lon="11.9237535"><ele>417.0</ele><time>2026-05-03T13:13:05.121Z</time></trkpt><trkpt lat="43.5601388" lon="11.9238216"><ele>413.0</ele><time>2026-05-03T13:13:06.218Z</time></trkpt><trkpt lat="43.5600675" lon="11.923893"><ele>409.0</ele><time>2026-05-03T13:13:07.125Z</time></trkpt><trkpt lat="43.5599761" lon="11.92399"><ele>409.0</ele><time>2026-05-03T13:13:08.098Z</time></trkpt><trkpt lat="43.5599183" lon="11.9240594"><ele>409.0</ele><time>2026-05-03T13:13:09.11Z</time></trkpt><trkpt lat="43.5598532" lon="11.9242005"><ele>409.0</ele><time>2026-05-03T13:13:11.129Z</time></trkpt><trkpt lat="43.5598015" lon="11.9243036"><ele>409.0</ele><time>2026-05-03T13:13:13.122Z</time></trkpt><trkpt lat="43.5597611" lon="11.924517"><ele>409.0</ele><time>2026-05-03T13:13:16.107Z</time></trkpt><trkpt lat="43.5597229" lon="11.9246804"><ele>405.6666666666667</ele><time>2026-05-03T13:13:18.097Z</time></trkpt><trkpt lat="43.5597074" lon="11.9247674"><ele>402.33333333333337</ele><time>2026-05-03T13:13:19.136Z</time></trkpt><trkpt lat="43.5596784" lon="11.9248495"><ele>399.0</ele><time>2026-05-03T13:13:20.145Z</time></trkpt><trkpt lat="43.5596619" lon="11.9249728"><ele>395.66666666666663</ele><time>2026-05-03T13:13:22.126Z</time></trkpt><trkpt lat="43.5596734" lon="11.9250947"><ele>392.3333333333333</ele><time>2026-05-03T13:13:24.112Z</time></trkpt><trkpt lat="43.5596834" lon="11.9252138"><ele>389.0</ele><time>2026-05-03T13:13:26.12Z</time></trkpt><trkpt lat="43.5596612" lon="11.9253445"><ele>384.8333333333333</ele><time>2026-05-03T13:13:28.128Z</time></trkpt><trkpt lat="43.5596135" lon="11.9254405"><ele>380.66666666666663</ele><time>2026-05-03T13:13:30.095Z</time></trkpt><trkpt lat="43.5595357" lon="11.9254679"><ele>376.5</ele><time>2026-05-03T13:13:32.115Z</time></trkpt><trkpt lat="43.5594503" lon="11.9254291"><ele>372.3333333333333</ele><time>2026-05-03T13:13:35.122Z</time></trkpt><trkpt lat="43.5593852" lon="11.9253774"><ele>368.16666666666663</ele><time>2026-05-03T13:13:37.121Z</time></trkpt><trkpt lat="43.5593005" lon="11.9253079"><ele>364.0</ele><time>2026-05-03T13:13:39.119Z</time></trkpt><trkpt lat="43.5592252" lon="11.9252421"><ele>364.0</ele><time>2026-05-03T13:13:41.109Z</time></trkpt><trkpt lat="43.5591619" lon="11.9251808"><ele>364.0</ele><time>2026-05-03T13:13:43.126Z</time></trkpt><trkpt lat="43.5591051" lon="11.9250644"><ele>364.0</ele><time>2026-05-03T13:13:46.117Z</time></trkpt><trkpt lat="43.5590599" lon="11.9249871"><ele>364.0</ele><time>2026-05-03T13:13:48.11Z</time></trkpt><trkpt lat="43.5589877" lon="11.9249248"><ele>364.0</ele><time>2026-05-03T13:13:50.116Z</time></trkpt><trkpt lat="43.5588964" lon="11.9248964"><ele>364.0</ele><time>2026-05-03T13:13:52.113Z</time></trkpt><trkpt lat="43.5588157" lon="11.9249205"><ele>364.0</ele><time>2026-05-03T13:13:54.118Z</time></trkpt><trkpt lat="43.5587664" lon="11.9249961"><ele>364.0</ele><time>2026-05-03T13:13:56.113Z</time></trkpt><trkpt lat="43.5587369" lon="11.925105"><ele>364.0</ele><time>2026-05-03T13:13:58.118Z</time></trkpt><trkpt lat="43.5587248" lon="11.925227"><ele>364.0</ele><time>2026-05-03T13:14:00.112Z</time></trkpt><trkpt lat="43.5587234" lon="11.925366"><ele>364.0</ele><time>2026-05-03T13:14:02.117Z</time></trkpt><trkpt lat="43.5587243" lon="11.925486"><ele>364.0</ele><time>2026-05-03T13:14:04.12Z</time></trkpt><trkpt lat="43.5587304" lon="11.9255854"><ele>364.0</ele><time>2026-05-03T13:14:06.111Z</time></trkpt><trkpt lat="43.5588116" lon="11.9257026"><ele>364.0</ele><time>2026-05-03T13:14:08.109Z</time></trkpt><trkpt lat="43.5588679" lon="11.9257523"><ele>364.0</ele><time>2026-05-03T13:14:09.12Z</time></trkpt><trkpt lat="43.5589337" lon="11.9257965"><ele>364.0</ele><time>2026-05-03T13:14:10.119Z</time></trkpt><trkpt lat="43.5589904" lon="11.9258661"><ele>364.0</ele><time>2026-05-03T13:14:11.108Z</time></trkpt><trkpt lat="43.5590361" lon="11.925939"><ele>364.0</ele><time>2026-05-03T13:14:12.119Z</time></trkpt><trkpt lat="43.5590848" lon="11.9260247"><ele>362.0</ele><time>2026-05-03T13:14:13.106Z</time></trkpt><trkpt lat="43.5591292" lon="11.926133"><ele>360.0</ele><time>2026-05-03T13:14:14.115Z</time></trkpt><trkpt lat="43.5591629" lon="11.9262098"><ele>358.0</ele><time>2026-05-03T13:14:15.117Z</time></trkpt><trkpt lat="43.559203" lon="11.926331"><ele>356.0</ele><time>2026-05-03T13:14:17.107Z</time></trkpt><trkpt lat="43.5592231" lon="11.926431"><ele>354.0</ele><time>2026-05-03T13:14:19.131Z</time></trkpt><trkpt lat="43.5592404" lon="11.9265171"><ele>352.0</ele><time>2026-05-03T13:14:21.103Z</time></trkpt><trkpt lat="43.559263" lon="11.9266426"><ele>349.8333333333333</ele><time>2026-05-03T13:14:24.114Z</time></trkpt><trkpt lat="43.5592995" lon="11.9267569"><ele>347.66666666666663</ele><time>2026-05-03T13:14:27.105Z</time></trkpt><trkpt lat="43.5593381" lon="11.926859"><ele>345.5</ele><time>2026-05-03T13:14:30.116Z</time></trkpt><trkpt lat="43.5593339" lon="11.9269778"><ele>343.3333333333333</ele><time>2026-05-03T13:14:33.127Z</time></trkpt><trkpt lat="43.5593058" lon="11.9270742"><ele>341.1666666666667</ele><time>2026-05-03T13:14:36.105Z</time></trkpt><trkpt lat="43.5592451" lon="11.9271914"><ele>339.0</ele><time>2026-05-03T13:14:39.121Z</time></trkpt><trkpt lat="43.5591966" lon="11.9272668"><ele>339.0</ele><time>2026-05-03T13:14:40.113Z</time></trkpt><trkpt lat="43.5591387" lon="11.9273402"><ele>339.0</ele><time>2026-05-03T13:14:41.12Z</time></trkpt><trkpt lat="43.5590718" lon="11.9274062"><ele>339.0</ele><time>2026-05-03T13:14:42.108Z</time></trkpt><trkpt lat="43.5590031" lon="11.9274566"><ele>339.0</ele><time>2026-05-03T13:14:43.102Z</time></trkpt><trkpt lat="43.5589311" lon="11.9275094"><ele>339.0</ele><time>2026-05-03T13:14:44.102Z</time></trkpt><trkpt lat="43.5588196" lon="11.9275742"><ele>339.0</ele><time>2026-05-03T13:14:45.107Z</time></trkpt><trkpt lat="43.5586744" lon="11.9276396"><ele>337.0</ele><time>2026-05-03T13:14:46.112Z</time></trkpt><trkpt lat="43.5585021" lon="11.9277184"><ele>335.0</ele><time>2026-05-03T13:14:47.117Z</time></trkpt><trkpt lat="43.5583094" lon="11.9278073"><ele>333.0</ele><time>2026-05-03T13:14:48.11Z</time></trkpt><trkpt lat="43.5581286" lon="11.9278941"><ele>333.0</ele><time>2026-05-03T13:14:49.117Z</time></trkpt><trkpt lat="43.5579653" lon="11.9279738"><ele>333.0</ele><time>2026-05-03T13:14:50.118Z</time></trkpt><trkpt lat="43.5578177" lon="11.9280442"><ele>333.0</ele><time>2026-05-03T13:14:51.112Z</time></trkpt><trkpt lat="43.5576758" lon="11.9281124"><ele>334.75</ele><time>2026-05-03T13:14:52.11Z</time></trkpt><trkpt lat="43.5575534" lon="11.9281728"><ele>336.5</ele><time>2026-05-03T13:14:53.114Z</time></trkpt><trkpt lat="43.5574446" lon="11.9282371"><ele>338.25</ele><time>2026-05-03T13:14:54.108Z</time></trkpt><trkpt lat="43.5573409" lon="11.9282964"><ele>340.0</ele><time>2026-05-03T13:14:55.118Z</time></trkpt><trkpt lat="43.5572363" lon="11.9283744"><ele>338.0</ele><time>2026-05-03T13:14:56.114Z</time></trkpt><trkpt lat="43.5571315" lon="11.9284763"><ele>336.0</ele><time>2026-05-03T13:14:57.1Z</time></trkpt><trkpt lat="43.5570239" lon="11.9285759"><ele>334.0</ele><time>2026-05-03T13:14:58.095Z</time></trkpt><trkpt lat="43.5569195" lon="11.9286704"><ele>332.0</ele><time>2026-05-03T13:14:59.105Z</time></trkpt><trkpt lat="43.5568229" lon="11.9287567"><ele>331.0</ele><time>2026-05-03T13:15:00.108Z</time></trkpt><trkpt lat="43.556731" lon="11.9288234"><ele>330.0</ele><time>2026-05-03T13:15:01.109Z</time></trkpt><trkpt lat="43.5566419" lon="11.9288755"><ele>329.0</ele><time>2026-05-03T13:15:02.111Z</time></trkpt><trkpt lat="43.5565412" lon="11.9289178"><ele>328.0</ele><time>2026-05-03T13:15:03.11Z</time></trkpt><trkpt lat="43.5564319" lon="11.9289596"><ele>327.0</ele><time>2026-05-03T13:15:04.108Z</time></trkpt><trkpt lat="43.5563133" lon="11.9289941"><ele>326.5</ele><time>2026-05-03T13:15:05.109Z</time></trkpt><trkpt lat="43.5561875" lon="11.9290341"><ele>326.0</ele><time>2026-05-03T13:15:06.112Z</time></trkpt><trkpt lat="43.5560526" lon="11.9290716"><ele>325.5</ele><time>2026-05-03T13:15:07.119Z</time></trkpt><trkpt lat="43.5559137" lon="11.9291105"><ele>325.0</ele><time>2026-05-03T13:15:08.111Z</time></trkpt><trkpt lat="43.5557713" lon="11.9291576"><ele>325.0</ele><time>2026-05-03T13:15:09.11Z</time></trkpt><trkpt lat="43.5556279" lon="11.9292123"><ele>325.0</ele><time>2026-05-03T13:15:10.112Z</time></trkpt><trkpt lat="43.5554825" lon="11.9292762"><ele>325.0</ele><time>2026-05-03T13:15:11.112Z</time></trkpt><trkpt lat="43.5553447" lon="11.9293444"><ele>325.0</ele><time>2026-05-03T13:15:12.113Z</time></trkpt><trkpt lat="43.5552176" lon="11.9294123"><ele>324.75</ele><time>2026-05-03T13:15:13.116Z</time></trkpt><trkpt lat="43.5550988" lon="11.929476"><ele>324.5</ele><time>2026-05-03T13:15:14.11Z</time></trkpt><trkpt lat="43.5549848" lon="11.9295283"><ele>324.25</ele><time>2026-05-03T13:15:15.115Z</time></trkpt><trkpt lat="43.5548726" lon="11.9295777"><ele>324.0</ele><time>2026-05-03T13:15:16.111Z</time></trkpt><trkpt lat="43.5547488" lon="11.9295929"><ele>324.0</ele><time>2026-05-03T13:15:17.1Z</time></trkpt><trkpt lat="43.5546166" lon="11.929564"><ele>324.0</ele><time>2026-05-03T13:15:18.124Z</time></trkpt><trkpt lat="43.5544817" lon="11.9295327"><ele>324.0</ele><time>2026-05-03T13:15:19.111Z</time></trkpt><trkpt lat="43.5543442" lon="11.929502"><ele>324.0</ele><time>2026-05-03T13:15:20.118Z</time></trkpt><trkpt lat="43.554202" lon="11.9294762"><ele>323.5</ele><time>2026-05-03T13:15:21.118Z</time></trkpt><trkpt lat="43.5540597" lon="11.9294639"><ele>323.0</ele><time>2026-05-03T13:15:22.12Z</time></trkpt><trkpt lat="43.5539179" lon="11.9294537"><ele>322.5</ele><time>2026-05-03T13:15:23.116Z</time></trkpt><trkpt lat="43.5537763" lon="11.9294519"><ele>322.0</ele><time>2026-05-03T13:15:24.104Z</time></trkpt><trkpt lat="43.5536314" lon="11.9294556"><ele>321.8</ele><time>2026-05-03T13:15:25.107Z</time></trkpt><trkpt lat="43.5534903" lon="11.9294623"><ele>321.6</ele><time>2026-05-03T13:15:26.111Z</time></trkpt><trkpt lat="43.5533823" lon="11.9294639"><ele>321.40000000000003</ele><time>2026-05-03T13:15:27.106Z</time></trkpt><trkpt lat="43.5532901" lon="11.9294636"><ele>321.20000000000005</ele><time>2026-05-03T13:15:28.102Z</time></trkpt><trkpt lat="43.5531935" lon="11.9294686"><ele>321.0</ele><time>2026-05-03T13:15:29.114Z</time></trkpt><trkpt lat="43.5530881" lon="11.9294736"><ele>321.0</ele><time>2026-05-03T13:15:30.107Z</time></trkpt><trkpt lat="43.5529758" lon="11.9294738"><ele>321.0</ele><time>2026-05-03T13:15:31.111Z</time></trkpt><trkpt lat="43.5528563" lon="11.929466"><ele>321.0</ele><time>2026-05-03T13:15:32.111Z</time></trkpt><trkpt lat="43.5527301" lon="11.9294554"><ele>321.0</ele><time>2026-05-03T13:15:33.12Z</time></trkpt><trkpt lat="43.5526009" lon="11.9294442"><ele>320.25</ele><time>2026-05-03T13:15:34.116Z</time></trkpt><trkpt lat="43.5524662" lon="11.929434"><ele>319.5</ele><time>2026-05-03T13:15:35.117Z</time></trkpt><trkpt lat="43.5523298" lon="11.9294227"><ele>318.75</ele><time>2026-05-03T13:15:36.12Z</time></trkpt><trkpt lat="43.5521969" lon="11.9294088"><ele>318.0</ele><time>2026-05-03T13:15:37.113Z</time></trkpt><trkpt lat="43.552072" lon="11.9293914"><ele>317.0</ele><time>2026-05-03T13:15:38.118Z</time></trkpt><trkpt lat="43.5519462" lon="11.9293718"><ele>316.0</ele><time>2026-05-03T13:15:39.109Z</time></trkpt><trkpt lat="43.5518225" lon="11.9293433"><ele>315.0</ele><time>2026-05-03T13:15:40.12Z</time></trkpt><trkpt lat="43.5517012" lon="11.9293132"><ele>314.0</ele><time>2026-05-03T13:15:41.112Z</time></trkpt><trkpt lat="43.5515932" lon="11.9292845"><ele>314.0</ele><time>2026-05-03T13:15:42.105Z</time></trkpt><trkpt lat="43.5515112" lon="11.9292537"><ele>314.0</ele><time>2026-05-03T13:15:43.109Z</time></trkpt><trkpt lat="43.5514104" lon="11.9292187"><ele>314.0</ele><time>2026-05-03T13:15:45.157Z</time></trkpt><trkpt lat="43.55134" lon="11.9292698"><ele>314.0</ele><time>2026-05-03T13:15:47.102Z</time></trkpt><trkpt lat="43.5513101" lon="11.9294288"><ele>314.0</ele><time>2026-05-03T13:15:49.125Z</time></trkpt><trkpt lat="43.551309" lon="11.929566"><ele>314.0</ele><time>2026-05-03T13:15:50.085Z</time></trkpt><trkpt lat="43.5513039" lon="11.929706"><ele>314.0</ele><time>2026-05-03T13:15:51.105Z</time></trkpt><trkpt lat="43.5512718" lon="11.9298789"><ele>314.0</ele><time>2026-05-03T13:15:52.089Z</time></trkpt><trkpt lat="43.5512313" lon="11.9300723"><ele>314.0</ele><time>2026-05-03T13:15:53.108Z</time></trkpt><trkpt lat="43.55119" lon="11.9302817"><ele>313.5</ele><time>2026-05-03T13:15:54.111Z</time></trkpt><trkpt lat="43.5511508" lon="11.9304802"><ele>313.0</ele><time>2026-05-03T13:15:55.101Z</time></trkpt><trkpt lat="43.5511084" lon="11.9306567"><ele>312.5</ele><time>2026-05-03T13:15:56.109Z</time></trkpt><trkpt lat="43.5510687" lon="11.930823"><ele>312.0</ele><time>2026-05-03T13:15:57.09Z</time></trkpt><trkpt lat="43.5510216" lon="11.9309841"><ele>314.5</ele><time>2026-05-03T13:15:58.096Z</time></trkpt><trkpt lat="43.5509669" lon="11.9311378"><ele>317.0</ele><time>2026-05-03T13:15:59.105Z</time></trkpt><trkpt lat="43.5508898" lon="11.9312816"><ele>319.5</ele><time>2026-05-03T13:16:00.1Z</time></trkpt><trkpt lat="43.550798" lon="11.931403"><ele>322.0</ele><time>2026-05-03T13:16:01.11Z</time></trkpt><trkpt lat="43.5507105" lon="11.9315115"><ele>322.0</ele><time>2026-05-03T13:16:02.108Z</time></trkpt><trkpt lat="43.550635" lon="11.9316231"><ele>322.0</ele><time>2026-05-03T13:16:03.113Z</time></trkpt><trkpt lat="43.550572" lon="11.9317336"><ele>322.0</ele><time>2026-05-03T13:16:04.103Z</time></trkpt><trkpt lat="43.5505104" lon="11.9318307"><ele>322.0</ele><time>2026-05-03T13:16:05.101Z</time></trkpt><trkpt lat="43.5504484" lon="11.9319028"><ele>322.0</ele><time>2026-05-03T13:16:06.092Z</time></trkpt><trkpt lat="43.550374" lon="11.931955"><ele>321.0</ele><time>2026-05-03T13:16:07.102Z</time></trkpt><trkpt lat="43.5502826" lon="11.9319836"><ele>320.0</ele><time>2026-05-03T13:16:08.096Z</time></trkpt><trkpt lat="43.5501747" lon="11.9319893"><ele>319.0</ele><time>2026-05-03T13:16:09.102Z</time></trkpt><trkpt lat="43.5500582" lon="11.9319808"><ele>318.0</ele><time>2026-05-03T13:16:10.09Z</time></trkpt><trkpt lat="43.5499438" lon="11.93194"><ele>317.0</ele><time>2026-05-03T13:16:11.115Z</time></trkpt><trkpt lat="43.5498314" lon="11.9318747"><ele>317.0</ele><time>2026-05-03T13:16:12.112Z</time></trkpt><trkpt lat="43.5497153" lon="11.9317974"><ele>317.0</ele><time>2026-05-03T13:16:13.111Z</time></trkpt><trkpt lat="43.5495966" lon="11.9317197"><ele>317.0</ele><time>2026-05-03T13:16:14.107Z</time></trkpt><trkpt lat="43.5494799" lon="11.9316402"><ele>317.0</ele><time>2026-05-03T13:16:15.107Z</time></trkpt><trkpt lat="43.5493637" lon="11.9315602"><ele>317.5</ele><time>2026-05-03T13:16:16.095Z</time></trkpt><trkpt lat="43.5492407" lon="11.931471"><ele>318.0</ele><time>2026-05-03T13:16:17.119Z</time></trkpt><trkpt lat="43.5491211" lon="11.9313879"><ele>318.5</ele><time>2026-05-03T13:16:18.105Z</time></trkpt><trkpt lat="43.5490095" lon="11.931304"><ele>319.0</ele><time>2026-05-03T13:16:19.096Z</time></trkpt><trkpt lat="43.5489053" lon="11.9312314"><ele>319.0</ele><time>2026-05-03T13:16:20.115Z</time></trkpt><trkpt lat="43.5488126" lon="11.9311791"><ele>319.0</ele><time>2026-05-03T13:16:21.113Z</time></trkpt><trkpt lat="43.5487238" lon="11.9311423"><ele>319.0</ele><time>2026-05-03T13:16:22.113Z</time></trkpt><trkpt lat="43.5486399" lon="11.9311254"><ele>319.0</ele><time>2026-05-03T13:16:23.104Z</time></trkpt><trkpt lat="43.5485571" lon="11.9311293"><ele>319.0</ele><time>2026-05-03T13:16:24.114Z</time></trkpt><trkpt lat="43.5484752" lon="11.9311493"><ele>319.0</ele><time>2026-05-03T13:16:25.103Z</time></trkpt><trkpt lat="43.5484028" lon="11.9311828"><ele>318.3333333333333</ele><time>2026-05-03T13:16:26.113Z</time></trkpt><trkpt lat="43.5483421" lon="11.9312319"><ele>317.66666666666663</ele><time>2026-05-03T13:16:27.118Z</time></trkpt><trkpt lat="43.5482917" lon="11.9312973"><ele>317.0</ele><time>2026-05-03T13:16:28.09Z</time></trkpt><trkpt lat="43.5482489" lon="11.9313782"><ele>316.3333333333333</ele><time>2026-05-03T13:16:29.112Z</time></trkpt><trkpt lat="43.5482108" lon="11.9314825"><ele>315.6666666666667</ele><time>2026-05-03T13:16:30.111Z</time></trkpt><trkpt lat="43.548176" lon="11.931602"><ele>315.0</ele><time>2026-05-03T13:16:31.116Z</time></trkpt><trkpt lat="43.5481469" lon="11.9317214"><ele>317.8</ele><time>2026-05-03T13:16:32.102Z</time></trkpt><trkpt lat="43.5481174" lon="11.9318361"><ele>320.6</ele><time>2026-05-03T13:16:33.1Z</time></trkpt><trkpt lat="43.5480852" lon="11.931948"><ele>323.4</ele><time>2026-05-03T13:16:34.103Z</time></trkpt><trkpt lat="43.5480462" lon="11.9320558"><ele>326.2</ele><time>2026-05-03T13:16:35.113Z</time></trkpt><trkpt lat="43.5480064" lon="11.9321714"><ele>329.0</ele><time>2026-05-03T13:16:36.122Z</time></trkpt><trkpt lat="43.5479638" lon="11.9322886"><ele>329.0</ele><time>2026-05-03T13:16:37.109Z</time></trkpt><trkpt lat="43.5479191" lon="11.9323986"><ele>329.0</ele><time>2026-05-03T13:16:38.105Z</time></trkpt><trkpt lat="43.5478701" lon="11.93251"><ele>329.0</ele><time>2026-05-03T13:16:39.108Z</time></trkpt><trkpt lat="43.5478186" lon="11.9326244"><ele>329.0</ele><time>2026-05-03T13:16:40.111Z</time></trkpt><trkpt lat="43.5477703" lon="11.9327309"><ele>329.0</ele><time>2026-05-03T13:16:41.102Z</time></trkpt><trkpt lat="43.5477269" lon="11.9328301"><ele>327.2857142857143</ele><time>2026-05-03T13:16:42.116Z</time></trkpt><trkpt lat="43.5476885" lon="11.9329159"><ele>325.57142857142856</ele><time>2026-05-03T13:16:43.109Z</time></trkpt><trkpt lat="43.5476525" lon="11.9329948"><ele>323.8571428571429</ele><time>2026-05-03T13:16:44.105Z</time></trkpt><trkpt lat="43.547613" lon="11.9330802"><ele>322.1428571428571</ele><time>2026-05-03T13:16:45.099Z</time></trkpt><trkpt lat="43.5475705" lon="11.9331681"><ele>320.42857142857144</ele><time>2026-05-03T13:16:46.104Z</time></trkpt><trkpt lat="43.5475309" lon="11.9332467"><ele>318.7142857142857</ele><time>2026-05-03T13:16:47.104Z</time></trkpt><trkpt lat="43.5474815" lon="11.9333211"><ele>317.0</ele><time>2026-05-03T13:16:48.102Z</time></trkpt><trkpt lat="43.5474357" lon="11.9333808"><ele>316.6</ele><time>2026-05-03T13:16:49.098Z</time></trkpt><trkpt lat="43.5473426" lon="11.933496"><ele>316.2</ele><time>2026-05-03T13:16:51.107Z</time></trkpt><trkpt lat="43.5472831" lon="11.9335633"><ele>315.8</ele><time>2026-05-03T13:16:52.109Z</time></trkpt><trkpt lat="43.5472072" lon="11.9336272"><ele>315.4</ele><time>2026-05-03T13:16:53.111Z</time></trkpt><trkpt lat="43.5471203" lon="11.9336862"><ele>315.0</ele><time>2026-05-03T13:16:54.099Z</time></trkpt><trkpt lat="43.5470279" lon="11.9337233"><ele>315.0</ele><time>2026-05-03T13:16:55.13Z</time></trkpt><trkpt lat="43.5469291" lon="11.9337678"><ele>315.0</ele><time>2026-05-03T13:16:56.108Z</time></trkpt><trkpt lat="43.5468271" lon="11.9338152"><ele>315.0</ele><time>2026-05-03T13:16:57.109Z</time></trkpt><trkpt lat="43.5467329" lon="11.9338606"><ele>315.0</ele><time>2026-05-03T13:16:58.101Z</time></trkpt><trkpt lat="43.5466464" lon="11.9339021"><ele>315.0</ele><time>2026-05-03T13:16:59.105Z</time></trkpt><trkpt lat="43.5465476" lon="11.9339482"><ele>315.0</ele><time>2026-05-03T13:17:00.096Z</time></trkpt><trkpt lat="43.546433" lon="11.9339721"><ele>315.0</ele><time>2026-05-03T13:17:01.104Z</time></trkpt><trkpt lat="43.546325" lon="11.9339817"><ele>315.0</ele><time>2026-05-03T13:17:02.099Z</time></trkpt><trkpt lat="43.5462298" lon="11.9339936"><ele>315.0</ele><time>2026-05-03T13:17:03.111Z</time></trkpt><trkpt lat="43.5461363" lon="11.934005"><ele>315.0</ele><time>2026-05-03T13:17:04.106Z</time></trkpt><trkpt lat="43.5460476" lon="11.9340578"><ele>314.6</ele><time>2026-05-03T13:17:05.109Z</time></trkpt><trkpt lat="43.545962" lon="11.9341107"><ele>314.2</ele><time>2026-05-03T13:17:06.114Z</time></trkpt><trkpt lat="43.5458645" lon="11.9341754"><ele>313.8</ele><time>2026-05-03T13:17:07.105Z</time></trkpt><trkpt lat="43.5457646" lon="11.9342406"><ele>313.4</ele><time>2026-05-03T13:17:08.097Z</time></trkpt><trkpt lat="43.5456658" lon="11.9343127"><ele>313.0</ele><time>2026-05-03T13:17:09.1Z</time></trkpt><trkpt lat="43.5455622" lon="11.9344158"><ele>314.5</ele><time>2026-05-03T13:17:10.089Z</time></trkpt><trkpt lat="43.545448" lon="11.9345289"><ele>316.0</ele><time>2026-05-03T13:17:11.097Z</time></trkpt><trkpt lat="43.5453365" lon="11.9346406"><ele>317.5</ele><time>2026-05-03T13:17:12.105Z</time></trkpt><trkpt lat="43.5452416" lon="11.934734"><ele>319.0</ele><time>2026-05-03T13:17:13.103Z</time></trkpt><trkpt lat="43.5451588" lon="11.934815"><ele>319.0</ele><time>2026-05-03T13:17:14.106Z</time></trkpt><trkpt lat="43.5450632" lon="11.9348976"><ele>319.0</ele><time>2026-05-03T13:17:15.106Z</time></trkpt><trkpt lat="43.5449734" lon="11.934978"><ele>319.0</ele><time>2026-05-03T13:17:16.108Z</time></trkpt><trkpt lat="43.5448785" lon="11.9350355"><ele>319.0</ele><time>2026-05-03T13:17:17.108Z</time></trkpt><trkpt lat="43.5447926" lon="11.9350756"><ele>319.0</ele><time>2026-05-03T13:17:18.106Z</time></trkpt><trkpt lat="43.5447156" lon="11.9351055"><ele>320.16666666666663</ele><time>2026-05-03T13:17:19.102Z</time></trkpt><trkpt lat="43.5446526" lon="11.9351458"><ele>321.3333333333333</ele><time>2026-05-03T13:17:20.101Z</time></trkpt><trkpt lat="43.5445604" lon="11.9352082"><ele>322.5</ele><time>2026-05-03T13:17:22.105Z</time></trkpt><trkpt lat="43.5444957" lon="11.9352591"><ele>323.6666666666667</ele><time>2026-05-03T13:17:24.091Z</time></trkpt><trkpt lat="43.5444347" lon="11.9353201"><ele>324.83333333333337</ele><time>2026-05-03T13:17:26.115Z</time></trkpt><trkpt lat="43.5443624" lon="11.935395"><ele>326.0</ele><time>2026-05-03T13:17:28.111Z</time></trkpt><trkpt lat="43.5442791" lon="11.9354722"><ele>326.0</ele><time>2026-05-03T13:17:30.103Z</time></trkpt><trkpt lat="43.5441881" lon="11.9355625"><ele>326.0</ele><time>2026-05-03T13:17:32.118Z</time></trkpt><trkpt lat="43.5441249" lon="11.9356258"><ele>326.0</ele><time>2026-05-03T13:17:33.115Z</time></trkpt><trkpt lat="43.5440634" lon="11.9356921"><ele>326.0</ele><time>2026-05-03T13:17:34.116Z</time></trkpt><trkpt lat="43.5439979" lon="11.9357604"><ele>326.0</ele><time>2026-05-03T13:17:35.096Z</time></trkpt><trkpt lat="43.5439291" lon="11.9358351"><ele>326.0</ele><time>2026-05-03T13:17:36.1Z</time></trkpt><trkpt lat="43.5438562" lon="11.9359148"><ele>326.6</ele><time>2026-05-03T13:17:37.097Z</time></trkpt><trkpt lat="43.543778" lon="11.9359902"><ele>327.20000000000005</ele><time>2026-05-03T13:17:38.115Z</time></trkpt><trkpt lat="43.5436881" lon="11.9360698"><ele>327.79999999999995</ele><time>2026-05-03T13:17:39.098Z</time></trkpt><trkpt lat="43.5435922" lon="11.9361628"><ele>328.4</ele><time>2026-05-03T13:17:40.098Z</time></trkpt><trkpt lat="43.5434914" lon="11.9362715"><ele>329.0</ele><time>2026-05-03T13:17:41.105Z</time></trkpt><trkpt lat="43.5433845" lon="11.9363952"><ele>329.0</ele><time>2026-05-03T13:17:42.115Z</time></trkpt><trkpt lat="43.5432851" lon="11.93653"><ele>329.0</ele><time>2026-05-03T13:17:43.12Z</time></trkpt><trkpt lat="43.5431831" lon="11.9366639"><ele>329.0</ele><time>2026-05-03T13:17:44.097Z</time></trkpt><trkpt lat="43.5430749" lon="11.9367988"><ele>329.0</ele><time>2026-05-03T13:17:45.108Z</time></trkpt><trkpt lat="43.5429803" lon="11.936938"><ele>327.2</ele><time>2026-05-03T13:17:46.109Z</time></trkpt><trkpt lat="43.5428954" lon="11.9370694"><ele>325.4</ele><time>2026-05-03T13:17:47.106Z</time></trkpt><trkpt lat="43.5428172" lon="11.9371877"><ele>323.6</ele><time>2026-05-03T13:17:48.102Z</time></trkpt><trkpt lat="43.5427475" lon="11.9372911"><ele>321.8</ele><time>2026-05-03T13:17:49.096Z</time></trkpt><trkpt lat="43.5426767" lon="11.9373792"><ele>320.0</ele><time>2026-05-03T13:17:50.105Z</time></trkpt><trkpt lat="43.5426114" lon="11.9374626"><ele>323.4</ele><time>2026-05-03T13:17:51.114Z</time></trkpt><trkpt lat="43.542564" lon="11.9375817"><ele>326.8</ele><time>2026-05-03T13:17:52.116Z</time></trkpt><trkpt lat="43.5425435" lon="11.9377044"><ele>330.20000000000005</ele><time>2026-05-03T13:17:53.11Z</time></trkpt><trkpt lat="43.5425202" lon="11.9378312"><ele>333.6</ele><time>2026-05-03T13:17:54.104Z</time></trkpt><trkpt lat="43.542494" lon="11.9379584"><ele>337.0</ele><time>2026-05-03T13:17:55.115Z</time></trkpt><trkpt lat="43.5424359" lon="11.9380808"><ele>337.0</ele><time>2026-05-03T13:17:56.108Z</time></trkpt><trkpt lat="43.5423657" lon="11.9381754"><ele>337.0</ele><time>2026-05-03T13:17:57.102Z</time></trkpt><trkpt lat="43.5422963" lon="11.938264"><ele>337.0</ele><time>2026-05-03T13:17:58.102Z</time></trkpt><trkpt lat="43.5422091" lon="11.9383321"><ele>337.0</ele><time>2026-05-03T13:17:59.118Z</time></trkpt><trkpt lat="43.542134" lon="11.9384136"><ele>337.0</ele><time>2026-05-03T13:18:00.116Z</time></trkpt><trkpt lat="43.5420617" lon="11.9385003"><ele>336.0</ele><time>2026-05-03T13:18:01.112Z</time></trkpt><trkpt lat="43.5419837" lon="11.9386264"><ele>335.0</ele><time>2026-05-03T13:18:02.113Z</time></trkpt><trkpt lat="43.5419008" lon="11.9387943"><ele>334.0</ele><time>2026-05-03T13:18:03.104Z</time></trkpt><trkpt lat="43.5418217" lon="11.9389447"><ele>333.0</ele><time>2026-05-03T13:18:04.109Z</time></trkpt><trkpt lat="43.5417321" lon="11.9390818"><ele>333.0</ele><time>2026-05-03T13:18:05.099Z</time></trkpt><trkpt lat="43.5416516" lon="11.9392101"><ele>333.0</ele><time>2026-05-03T13:18:06.109Z</time></trkpt><trkpt lat="43.5415709" lon="11.9393436"><ele>333.0</ele><time>2026-05-03T13:18:07.108Z</time></trkpt><trkpt lat="43.5414809" lon="11.9394922"><ele>333.0</ele><time>2026-05-03T13:18:08.109Z</time></trkpt><trkpt lat="43.5413874" lon="11.9396507"><ele>334.25</ele><time>2026-05-03T13:18:09.103Z</time></trkpt><trkpt lat="43.541299" lon="11.9397955"><ele>335.5</ele><time>2026-05-03T13:18:10.113Z</time></trkpt><trkpt lat="43.5412149" lon="11.9399279"><ele>336.75</ele><time>2026-05-03T13:18:11.117Z</time></trkpt><trkpt lat="43.541132" lon="11.9400564"><ele>338.0</ele><time>2026-05-03T13:18:12.104Z</time></trkpt><trkpt lat="43.541034" lon="11.9401831"><ele>344.5</ele><time>2026-05-03T13:18:13.11Z</time></trkpt><trkpt lat="43.5409275" lon="11.9403085"><ele>351.0</ele><time>2026-05-03T13:18:14.142Z</time></trkpt><trkpt lat="43.5408249" lon="11.9404423"><ele>357.5</ele><time>2026-05-03T13:18:15.111Z</time></trkpt><trkpt lat="43.5407275" lon="11.9405406"><ele>364.0</ele><time>2026-05-03T13:18:16.097Z</time></trkpt><trkpt lat="43.5406312" lon="11.9406174"><ele>364.0</ele><time>2026-05-03T13:18:17.108Z</time></trkpt><trkpt lat="43.5405223" lon="11.9406712"><ele>364.0</ele><time>2026-05-03T13:18:18.103Z</time></trkpt><trkpt lat="43.5403987" lon="11.940706"><ele>364.0</ele><time>2026-05-03T13:18:19.105Z</time></trkpt><trkpt lat="43.5402694" lon="11.9407221"><ele>364.0</ele><time>2026-05-03T13:18:20.105Z</time></trkpt><trkpt lat="43.540136" lon="11.9407276"><ele>363.0</ele><time>2026-05-03T13:18:21.104Z</time></trkpt><trkpt lat="43.5400013" lon="11.9407324"><ele>362.0</ele><time>2026-05-03T13:18:22.101Z</time></trkpt><trkpt lat="43.5398564" lon="11.9407301"><ele>361.0</ele><time>2026-05-03T13:18:23.107Z</time></trkpt><trkpt lat="43.5396885" lon="11.9407153"><ele>360.0</ele><time>2026-05-03T13:18:24.095Z</time></trkpt><trkpt lat="43.5395181" lon="11.9407044"><ele>360.0</ele><time>2026-05-03T13:18:25.112Z</time></trkpt><trkpt lat="43.5393739" lon="11.9406895"><ele>360.0</ele><time>2026-05-03T13:18:26.105Z</time></trkpt><trkpt lat="43.5392366" lon="11.9406735"><ele>360.0</ele><time>2026-05-03T13:18:27.105Z</time></trkpt><trkpt lat="43.539089" lon="11.9406372"><ele>360.0</ele><time>2026-05-03T13:18:28.11Z</time></trkpt><trkpt lat="43.5389451" lon="11.9406236"><ele>360.0</ele><time>2026-05-03T13:18:29.101Z</time></trkpt><trkpt lat="43.5388296" lon="11.9406158"><ele>360.0</ele><time>2026-05-03T13:18:30.103Z</time></trkpt><trkpt lat="43.5387173" lon="11.9406111"><ele>360.0</ele><time>2026-05-03T13:18:31.101Z</time></trkpt><trkpt lat="43.5385992" lon="11.9406266"><ele>360.0</ele><time>2026-05-03T13:18:32.091Z</time></trkpt><trkpt lat="43.5384825" lon="11.9406866"><ele>359.25</ele><time>2026-05-03T13:18:33.1Z</time></trkpt><trkpt lat="43.5383724" lon="11.9407896"><ele>358.5</ele><time>2026-05-03T13:18:34.1Z</time></trkpt><trkpt lat="43.5382705" lon="11.9409242"><ele>357.75</ele><time>2026-05-03T13:18:35.106Z</time></trkpt><trkpt lat="43.538182" lon="11.9410521"><ele>357.0</ele><time>2026-05-03T13:18:36.108Z</time></trkpt><trkpt lat="43.5381096" lon="11.9411565"><ele>359.1666666666667</ele><time>2026-05-03T13:18:37.1Z</time></trkpt><trkpt lat="43.5380419" lon="11.9412404"><ele>361.3333333333333</ele><time>2026-05-03T13:18:38.098Z</time></trkpt><trkpt lat="43.5379714" lon="11.9412914"><ele>363.5</ele><time>2026-05-03T13:18:39.112Z</time></trkpt><trkpt lat="43.5378936" lon="11.9412906"><ele>365.66666666666663</ele><time>2026-05-03T13:18:40.116Z</time></trkpt><trkpt lat="43.5378098" lon="11.9412735"><ele>367.8333333333333</ele><time>2026-05-03T13:18:41.113Z</time></trkpt><trkpt lat="43.537738" lon="11.9412117"><ele>370.0</ele><time>2026-05-03T13:18:42.106Z</time></trkpt><trkpt lat="43.5376597" lon="11.9410874"><ele>371.75</ele><time>2026-05-03T13:18:43.118Z</time></trkpt><trkpt lat="43.5376036" lon="11.9409338"><ele>373.5</ele><time>2026-05-03T13:18:44.115Z</time></trkpt><trkpt lat="43.5375387" lon="11.9407699"><ele>375.25</ele><time>2026-05-03T13:18:45.102Z</time></trkpt><trkpt lat="43.5374636" lon="11.9406115"><ele>377.0</ele><time>2026-05-03T13:18:46.11Z</time></trkpt><trkpt lat="43.537367" lon="11.9404744"><ele>372.0</ele><time>2026-05-03T13:18:47.101Z</time></trkpt><trkpt lat="43.5372603" lon="11.9403223"><ele>367.0</ele><time>2026-05-03T13:18:48.111Z</time></trkpt><trkpt lat="43.5371536" lon="11.9401542"><ele>362.0</ele><time>2026-05-03T13:18:49.106Z</time></trkpt><trkpt lat="43.5370538" lon="11.9399817"><ele>362.6</ele><time>2026-05-03T13:18:50.111Z</time></trkpt><trkpt lat="43.5369755" lon="11.93984"><ele>363.20000000000005</ele><time>2026-05-03T13:18:51.104Z</time></trkpt><trkpt lat="43.5369111" lon="11.9397448"><ele>363.8</ele><time>2026-05-03T13:18:52.1Z</time></trkpt><trkpt lat="43.5368373" lon="11.9396814"><ele>364.4</ele><time>2026-05-03T13:18:53.111Z</time></trkpt><trkpt lat="43.5367453" lon="11.9396404"><ele>365.0</ele><time>2026-05-03T13:18:54.098Z</time></trkpt><trkpt lat="43.5366297" lon="11.9396271"><ele>365.0</ele><time>2026-05-03T13:18:55.103Z</time></trkpt><trkpt lat="43.5365097" lon="11.9396272"><ele>365.0</ele><time>2026-05-03T13:18:56.105Z</time></trkpt><trkpt lat="43.5363727" lon="11.9396511"><ele>365.0</ele><time>2026-05-03T13:18:57.109Z</time></trkpt><trkpt lat="43.5361901" lon="11.9397013"><ele>365.0</ele><time>2026-05-03T13:18:58.106Z</time></trkpt><trkpt lat="43.5360057" lon="11.9397371"><ele>364.33333333333337</ele><time>2026-05-03T13:18:59.104Z</time></trkpt><trkpt lat="43.5358487" lon="11.9397597"><ele>363.6666666666667</ele><time>2026-05-03T13:19:00.092Z</time></trkpt><trkpt lat="43.5357007" lon="11.9398025"><ele>363.0</ele><time>2026-05-03T13:19:01.113Z</time></trkpt><trkpt lat="43.535561" lon="11.9398618"><ele>363.0</ele><time>2026-05-03T13:19:02.097Z</time></trkpt><trkpt lat="43.5354409" lon="11.9399161"><ele>363.0</ele><time>2026-05-03T13:19:03.102Z</time></trkpt><trkpt lat="43.5353393" lon="11.9399643"><ele>363.0</ele><time>2026-05-03T13:19:04.107Z</time></trkpt><trkpt lat="43.5352453" lon="11.940025"><ele>363.0</ele><time>2026-05-03T13:19:05.134Z</time></trkpt><trkpt lat="43.5351553" lon="11.9401133"><ele>363.0</ele><time>2026-05-03T13:19:06.098Z</time></trkpt><trkpt lat="43.5350443" lon="11.940245"><ele>364.0</ele><time>2026-05-03T13:19:07.098Z</time></trkpt><trkpt lat="43.5349156" lon="11.9404023"><ele>365.0</ele><time>2026-05-03T13:19:08.117Z</time></trkpt><trkpt lat="43.53479" lon="11.9405481"><ele>366.0</ele><time>2026-05-03T13:19:09.11Z</time></trkpt><trkpt lat="43.5346717" lon="11.9406675"><ele>366.0</ele><time>2026-05-03T13:19:10.109Z</time></trkpt><trkpt lat="43.5345608" lon="11.9407638"><ele>366.0</ele><time>2026-05-03T13:19:11.111Z</time></trkpt><trkpt lat="43.5344574" lon="11.9408355"><ele>366.0</ele><time>2026-05-03T13:19:12.112Z</time></trkpt><trkpt lat="43.5343566" lon="11.9408876"><ele>366.0</ele><time>2026-05-03T13:19:13.104Z</time></trkpt><trkpt lat="43.534254" lon="11.9409208"><ele>365.6666666666667</ele><time>2026-05-03T13:19:14.108Z</time></trkpt><trkpt lat="43.534155" lon="11.9409358"><ele>365.3333333333333</ele><time>2026-05-03T13:19:15.102Z</time></trkpt><trkpt lat="43.5340671" lon="11.9409432"><ele>365.0</ele><time>2026-05-03T13:19:16.107Z</time></trkpt><trkpt lat="43.5339926" lon="11.9409477"><ele>364.66666666666663</ele><time>2026-05-03T13:19:17.107Z</time></trkpt><trkpt lat="43.5339287" lon="11.9409257"><ele>364.3333333333333</ele><time>2026-05-03T13:19:18.113Z</time></trkpt><trkpt lat="43.5338272" lon="11.9408942"><ele>364.0</ele><time>2026-05-03T13:19:20.124Z</time></trkpt><trkpt lat="43.5337058" lon="11.9409034"><ele>366.4</ele><time>2026-05-03T13:19:22.112Z</time></trkpt><trkpt lat="43.5336057" lon="11.940909"><ele>368.79999999999995</ele><time>2026-05-03T13:19:24.094Z</time></trkpt><trkpt lat="43.5334838" lon="11.9409326"><ele>371.20000000000005</ele><time>2026-05-03T13:19:26.104Z</time></trkpt><trkpt lat="43.533402" lon="11.9410113"><ele>373.6</ele><time>2026-05-03T13:19:28.115Z</time></trkpt><trkpt lat="43.5334128" lon="11.9411286"><ele>376.0</ele><time>2026-05-03T13:19:31.12Z</time></trkpt><trkpt lat="43.5334827" lon="11.9411623"><ele>376.0</ele><time>2026-05-03T13:19:33.113Z</time></trkpt><trkpt lat="43.5335845" lon="11.9411664"><ele>376.0</ele><time>2026-05-03T13:19:35.118Z</time></trkpt><trkpt lat="43.5336662" lon="11.9412077"><ele>376.0</ele><time>2026-05-03T13:19:37.116Z</time></trkpt><trkpt lat="43.5337094" lon="11.9413089"><ele>376.0</ele><time>2026-05-03T13:19:39.118Z</time></trkpt><trkpt lat="43.5337184" lon="11.941483"><ele>376.0</ele><time>2026-05-03T13:19:41.11Z</time></trkpt><trkpt lat="43.5337202" lon="11.941574"><ele>376.16666666666663</ele><time>2026-05-03T13:19:42.113Z</time></trkpt><trkpt lat="43.5337309" lon="11.9416616"><ele>376.3333333333333</ele><time>2026-05-03T13:19:43.118Z</time></trkpt><trkpt lat="43.5337558" lon="11.9418358"><ele>376.5</ele><time>2026-05-03T13:19:45.105Z</time></trkpt><trkpt lat="43.5337576" lon="11.9419555"><ele>376.6666666666667</ele><time>2026-05-03T13:19:46.094Z</time></trkpt><trkpt lat="43.5337762" lon="11.9420708"><ele>376.83333333333337</ele><time>2026-05-03T13:19:47.108Z</time></trkpt><trkpt lat="43.5337981" lon="11.9421791"><ele>377.0</ele><time>2026-05-03T13:19:48.106Z</time></trkpt><trkpt lat="43.5338158" lon="11.9422885"><ele>377.0</ele><time>2026-05-03T13:19:49.114Z</time></trkpt><trkpt lat="43.5338332" lon="11.9423983"><ele>377.0</ele><time>2026-05-03T13:19:50.1Z</time></trkpt><trkpt lat="43.5338532" lon="11.9425002"><ele>377.0</ele><time>2026-05-03T13:19:51.113Z</time></trkpt><trkpt lat="43.5338703" lon="11.9425931"><ele>377.0</ele><time>2026-05-03T13:19:52.102Z</time></trkpt><trkpt lat="43.5338832" lon="11.942681"><ele>377.0</ele><time>2026-05-03T13:19:53.118Z</time></trkpt><trkpt lat="43.5338926" lon="11.9428068"><ele>377.0</ele><time>2026-05-03T13:19:55.109Z</time></trkpt><trkpt lat="43.5338448" lon="11.9426757"><ele>377.0</ele><time>2026-05-03T13:20:01.112Z</time></trkpt><trkpt lat="43.5338169" lon="11.9425766"><ele>377.0</ele><time>2026-05-03T13:20:02.105Z</time></trkpt><trkpt lat="43.5337682" lon="11.9424781"><ele>377.0</ele><time>2026-05-03T13:20:03.103Z</time></trkpt><trkpt lat="43.533713" lon="11.9423862"><ele>377.0</ele><time>2026-05-03T13:20:04.102Z</time></trkpt><trkpt lat="43.5336767" lon="11.9423036"><ele>377.0</ele><time>2026-05-03T13:20:05.105Z</time></trkpt><trkpt lat="43.5336489" lon="11.9422094"><ele>377.0</ele><time>2026-05-03T13:20:06.116Z</time></trkpt><trkpt lat="43.5336056" lon="11.9421012"><ele>381.33333333333337</ele><time>2026-05-03T13:20:07.113Z</time></trkpt><trkpt lat="43.5335583" lon="11.941995"><ele>385.6666666666667</ele><time>2026-05-03T13:20:08.116Z</time></trkpt><trkpt lat="43.5335159" lon="11.9419144"><ele>390.0</ele><time>2026-05-03T13:20:09.088Z</time></trkpt><trkpt lat="43.5334617" lon="11.9418535"><ele>394.33333333333337</ele><time>2026-05-03T13:20:10.104Z</time></trkpt><trkpt lat="43.5333836" lon="11.9418178"><ele>398.6666666666667</ele><time>2026-05-03T13:20:11.099Z</time></trkpt><trkpt lat="43.5332918" lon="11.9418098"><ele>403.0</ele><time>2026-05-03T13:20:12.107Z</time></trkpt><trkpt lat="43.5331999" lon="11.941832"><ele>403.0</ele><time>2026-05-03T13:20:13.101Z</time></trkpt><trkpt lat="43.5331064" lon="11.9418591"><ele>403.0</ele><time>2026-05-03T13:20:14.099Z</time></trkpt><trkpt lat="43.5330103" lon="11.9419142"><ele>403.0</ele><time>2026-05-03T13:20:15.103Z</time></trkpt><trkpt lat="43.5329036" lon="11.9419766"><ele>403.0</ele><time>2026-05-03T13:20:16.109Z</time></trkpt><trkpt lat="43.5328138" lon="11.9420257"><ele>403.0</ele><time>2026-05-03T13:20:17.099Z</time></trkpt><trkpt lat="43.532729" lon="11.9420668"><ele>401.5714285714286</ele><time>2026-05-03T13:20:18.11Z</time></trkpt><trkpt lat="43.5326556" lon="11.9421118"><ele>400.1428571428571</ele><time>2026-05-03T13:20:19.104Z</time></trkpt><trkpt lat="43.5325981" lon="11.9421578"><ele>398.7142857142857</ele><time>2026-05-03T13:20:20.1Z</time></trkpt><trkpt lat="43.5325354" lon="11.9422154"><ele>397.28571428571433</ele><time>2026-05-03T13:20:21.109Z</time></trkpt><trkpt lat="43.5324777" lon="11.9422788"><ele>395.8571428571429</ele><time>2026-05-03T13:20:22.11Z</time></trkpt><trkpt lat="43.53244" lon="11.9423519"><ele>394.42857142857144</ele><time>2026-05-03T13:20:23.111Z</time></trkpt><trkpt lat="43.5324032" lon="11.9424287"><ele>393.0</ele><time>2026-05-03T13:20:24.103Z</time></trkpt><trkpt lat="43.5323627" lon="11.9425233"><ele>396.8333333333333</ele><time>2026-05-03T13:20:25.087Z</time></trkpt><trkpt lat="43.5323197" lon="11.9426364"><ele>400.66666666666663</ele><time>2026-05-03T13:20:26.105Z</time></trkpt><trkpt lat="43.5322811" lon="11.9427422"><ele>404.5</ele><time>2026-05-03T13:20:27.097Z</time></trkpt><trkpt lat="43.5322526" lon="11.9428321"><ele>408.3333333333333</ele><time>2026-05-03T13:20:28.104Z</time></trkpt><trkpt lat="43.5322242" lon="11.9429155"><ele>412.16666666666663</ele><time>2026-05-03T13:20:29.106Z</time></trkpt><trkpt lat="43.5321861" lon="11.9430225"><ele>416.0</ele><time>2026-05-03T13:20:30.115Z</time></trkpt><trkpt lat="43.5321256" lon="11.9431425"><ele>413.99999999999994</ele><time>2026-05-03T13:20:31.097Z</time></trkpt><trkpt lat="43.5320473" lon="11.9432579"><ele>412.0</ele><time>2026-05-03T13:20:32.104Z</time></trkpt><trkpt lat="43.5319852" lon="11.9433492"><ele>410.0</ele><time>2026-05-03T13:20:33.105Z</time></trkpt><trkpt lat="43.5319478" lon="11.9434199"><ele>408.0</ele><time>2026-05-03T13:20:34.099Z</time></trkpt><trkpt lat="43.5319087" lon="11.943491"><ele>405.99999999999994</ele><time>2026-05-03T13:20:35.108Z</time></trkpt><trkpt lat="43.5318582" lon="11.9435741"><ele>404.0</ele><time>2026-05-03T13:20:36.099Z</time></trkpt><trkpt lat="43.5317922" lon="11.9436813"><ele>403.99999999999994</ele><time>2026-05-03T13:20:37.101Z</time></trkpt><trkpt lat="43.5317213" lon="11.9437914"><ele>404.0</ele><time>2026-05-03T13:20:38.116Z</time></trkpt><trkpt lat="43.5316624" lon="11.9438869"><ele>404.0</ele><time>2026-05-03T13:20:39.11Z</time></trkpt><trkpt lat="43.5316122" lon="11.9439698"><ele>404.0</ele><time>2026-05-03T13:20:40.114Z</time></trkpt><trkpt lat="43.5315655" lon="11.9440385"><ele>403.99999999999994</ele><time>2026-05-03T13:20:41.111Z</time></trkpt><trkpt lat="43.5315175" lon="11.9440961"><ele>404.0</ele><time>2026-05-03T13:20:42.097Z</time></trkpt><trkpt lat="43.5314589" lon="11.9441402"><ele>404.0</ele><time>2026-05-03T13:20:43.103Z</time></trkpt><trkpt lat="43.5313989" lon="11.9441817"><ele>404.0</ele><time>2026-05-03T13:20:44.11Z</time></trkpt><trkpt lat="43.5313315" lon="11.9443388"><ele>404.0</ele><time>2026-05-03T13:20:46.104Z</time></trkpt><trkpt lat="43.5313293" lon="11.9444575"><ele>404.0</ele><time>2026-05-03T13:20:47.104Z</time></trkpt><trkpt lat="43.5313411" lon="11.9445764"><ele>404.0</ele><time>2026-05-03T13:20:48.098Z</time></trkpt><trkpt lat="43.5313567" lon="11.9446844"><ele>407.2</ele><time>2026-05-03T13:20:49.104Z</time></trkpt><trkpt lat="43.5313854" lon="11.9447837"><ele>410.4</ele><time>2026-05-03T13:20:50.115Z</time></trkpt><trkpt lat="43.5314091" lon="11.9448654"><ele>413.6</ele><time>2026-05-03T13:20:51.103Z</time></trkpt><trkpt lat="43.5313596" lon="11.945027"><ele>416.8</ele><time>2026-05-03T13:20:53.114Z</time></trkpt><trkpt lat="43.5313102" lon="11.9451397"><ele>420.0</ele><time>2026-05-03T13:20:54.11Z</time></trkpt><trkpt lat="43.5312758" lon="11.9452616"><ele>421.4</ele><time>2026-05-03T13:20:55.108Z</time></trkpt><trkpt lat="43.5312466" lon="11.9453677"><ele>422.8</ele><time>2026-05-03T13:20:56.113Z</time></trkpt><trkpt lat="43.5312166" lon="11.9454475"><ele>424.20000000000005</ele><time>2026-05-03T13:20:57.117Z</time></trkpt><trkpt lat="43.5311041" lon="11.9455117"><ele>425.6</ele><time>2026-05-03T13:20:59.105Z</time></trkpt><trkpt lat="43.531017" lon="11.9454658"><ele>427.0</ele><time>2026-05-03T13:21:00.106Z</time></trkpt><trkpt lat="43.5309095" lon="11.945417"><ele>427.00000000000006</ele><time>2026-05-03T13:21:01.102Z</time></trkpt><trkpt lat="43.5308004" lon="11.9453787"><ele>427.0</ele><time>2026-05-03T13:21:02.107Z</time></trkpt><trkpt lat="43.5307106" lon="11.9453428"><ele>427.0</ele><time>2026-05-03T13:21:03.105Z</time></trkpt><trkpt lat="43.5306439" lon="11.9453178"><ele>427.0</ele><time>2026-05-03T13:21:04.114Z</time></trkpt><trkpt lat="43.5305474" lon="11.9453507"><ele>427.00000000000006</ele><time>2026-05-03T13:21:06.093Z</time></trkpt><trkpt lat="43.5304956" lon="11.9454152"><ele>427.0</ele><time>2026-05-03T13:21:07.113Z</time></trkpt><trkpt lat="43.5304318" lon="11.9454746"><ele>426.83333333333337</ele><time>2026-05-03T13:21:08.115Z</time></trkpt><trkpt lat="43.5303677" lon="11.9455057"><ele>426.6666666666667</ele><time>2026-05-03T13:21:09.106Z</time></trkpt><trkpt lat="43.530242" lon="11.9454548"><ele>426.5</ele><time>2026-05-03T13:21:11.119Z</time></trkpt><trkpt lat="43.5301779" lon="11.9454201"><ele>426.33333333333337</ele><time>2026-05-03T13:21:12.108Z</time></trkpt><trkpt lat="43.530122" lon="11.9453713"><ele>426.1666666666667</ele><time>2026-05-03T13:21:13.107Z</time></trkpt><trkpt lat="43.530045" lon="11.9453071"><ele>426.0</ele><time>2026-05-03T13:21:14.113Z</time></trkpt><trkpt lat="43.5299474" lon="11.9452482"><ele>426.0</ele><time>2026-05-03T13:21:15.107Z</time></trkpt><trkpt lat="43.5298621" lon="11.945184"><ele>426.0</ele><time>2026-05-03T13:21:16.12Z</time></trkpt><trkpt lat="43.5297923" lon="11.9451195"><ele>426.0</ele><time>2026-05-03T13:21:17.121Z</time></trkpt><trkpt lat="43.5297376" lon="11.9450713"><ele>426.0</ele><time>2026-05-03T13:21:18.121Z</time></trkpt><trkpt lat="43.5296453" lon="11.9450159"><ele>426.0</ele><time>2026-05-03T13:21:20.119Z</time></trkpt><trkpt lat="43.5295375" lon="11.9450477"><ele>424.0</ele><time>2026-05-03T13:21:22.117Z</time></trkpt><trkpt lat="43.5294504" lon="11.9451505"><ele>422.0</ele><time>2026-05-03T13:21:24.102Z</time></trkpt><trkpt lat="43.5293894" lon="11.945237"><ele>420.0</ele><time>2026-05-03T13:21:25.121Z</time></trkpt><trkpt lat="43.5293279" lon="11.9453512"><ele>418.0</ele><time>2026-05-03T13:21:26.119Z</time></trkpt><trkpt lat="43.5292746" lon="11.9454848"><ele>416.0</ele><time>2026-05-03T13:21:27.115Z</time></trkpt><trkpt lat="43.5292292" lon="11.9456003"><ele>416.0</ele><time>2026-05-03T13:21:28.099Z</time></trkpt><trkpt lat="43.5291968" lon="11.9456914"><ele>416.0</ele><time>2026-05-03T13:21:29.113Z</time></trkpt><trkpt lat="43.5291714" lon="11.9458411"><ele>416.0</ele><time>2026-05-03T13:21:31.121Z</time></trkpt><trkpt lat="43.5291969" lon="11.9459964"><ele>416.0</ele><time>2026-05-03T13:21:33.101Z</time></trkpt><trkpt lat="43.5292106" lon="11.9461003"><ele>416.0</ele><time>2026-05-03T13:21:34.114Z</time></trkpt><trkpt lat="43.5292172" lon="11.9462209"><ele>417.49999999999994</ele><time>2026-05-03T13:21:35.121Z</time></trkpt><trkpt lat="43.5292122" lon="11.9463408"><ele>419.0</ele><time>2026-05-03T13:21:36.122Z</time></trkpt><trkpt lat="43.5292027" lon="11.94646"><ele>420.5</ele><time>2026-05-03T13:21:37.108Z</time></trkpt><trkpt lat="43.5291998" lon="11.9465686"><ele>422.0</ele><time>2026-05-03T13:21:38.105Z</time></trkpt><trkpt lat="43.5292031" lon="11.9466576"><ele>423.49999999999994</ele><time>2026-05-03T13:21:39.105Z</time></trkpt><trkpt lat="43.5291682" lon="11.9468251"><ele>425.0</ele><time>2026-05-03T13:21:41.114Z</time></trkpt><trkpt lat="43.529142" lon="11.9469136"><ele>425.0</ele><time>2026-05-03T13:21:42.116Z</time></trkpt><trkpt lat="43.5291277" lon="11.9470101"><ele>425.0</ele><time>2026-05-03T13:21:43.105Z</time></trkpt><trkpt lat="43.5291296" lon="11.9471135"><ele>425.0</ele><time>2026-05-03T13:21:44.108Z</time></trkpt><trkpt lat="43.5291544" lon="11.947276"><ele>425.0</ele><time>2026-05-03T13:21:46.111Z</time></trkpt><trkpt lat="43.5292309" lon="11.9474038"><ele>425.0</ele><time>2026-05-03T13:21:48.107Z</time></trkpt><trkpt lat="43.5293338" lon="11.9475113"><ele>428.5</ele><time>2026-05-03T13:21:50.107Z</time></trkpt><trkpt lat="43.5294284" lon="11.9476014"><ele>432.0</ele><time>2026-05-03T13:21:52.098Z</time></trkpt><trkpt lat="43.5295226" lon="11.9476805"><ele>435.5</ele><time>2026-05-03T13:21:54.114Z</time></trkpt><trkpt lat="43.529595" lon="11.9477961"><ele>439.0</ele><time>2026-05-03T13:21:56.116Z</time></trkpt><trkpt lat="43.5296333" lon="11.9479438"><ele>439.0</ele><time>2026-05-03T13:21:58.107Z</time></trkpt><trkpt lat="43.5296411" lon="11.9480846"><ele>439.0</ele><time>2026-05-03T13:22:00.1Z</time></trkpt><trkpt lat="43.5295582" lon="11.9481795"><ele>439.0</ele><time>2026-05-03T13:22:02.087Z</time></trkpt><trkpt lat="43.5294415" lon="11.9482217"><ele>439.0</ele><time>2026-05-03T13:22:04.117Z</time></trkpt><trkpt lat="43.5293771" lon="11.9482036"><ele>439.0</ele><time>2026-05-03T13:22:05.112Z</time></trkpt><trkpt lat="43.5292907" lon="11.9481697"><ele>439.0</ele><time>2026-05-03T13:22:06.111Z</time></trkpt><trkpt lat="43.5291981" lon="11.9481087"><ele>439.0</ele><time>2026-05-03T13:22:07.114Z</time></trkpt><trkpt lat="43.5291305" lon="11.9480703"><ele>439.0</ele><time>2026-05-03T13:22:08.099Z</time></trkpt><trkpt lat="43.5290165" lon="11.9480926"><ele>439.0</ele><time>2026-05-03T13:22:10.12Z</time></trkpt><trkpt lat="43.5289337" lon="11.948169"><ele>439.0</ele><time>2026-05-03T13:22:12.114Z</time></trkpt><trkpt lat="43.5289315" lon="11.9483083"><ele>444.2</ele><time>2026-05-03T13:22:14.109Z</time></trkpt><trkpt lat="43.5289933" lon="11.9483839"><ele>449.4</ele><time>2026-05-03T13:22:16.107Z</time></trkpt><trkpt lat="43.5290986" lon="11.948407"><ele>454.6</ele><time>2026-05-03T13:22:18.12Z</time></trkpt><trkpt lat="43.529246" lon="11.9484533"><ele>459.8</ele><time>2026-05-03T13:22:20.11Z</time></trkpt><trkpt lat="43.5293385" lon="11.9484869"><ele>465.0</ele><time>2026-05-03T13:22:21.105Z</time></trkpt><trkpt lat="43.529427" lon="11.9485033"><ele>465.0</ele><time>2026-05-03T13:22:22.115Z</time></trkpt><trkpt lat="43.5295039" lon="11.9485155"><ele>465.0</ele><time>2026-05-03T13:22:23.116Z</time></trkpt><trkpt lat="43.5295771" lon="11.948533"><ele>465.0</ele><time>2026-05-03T13:22:24.128Z</time></trkpt><trkpt lat="43.5296514" lon="11.9485599"><ele>465.0</ele><time>2026-05-03T13:22:25.105Z</time></trkpt><trkpt lat="43.5297234" lon="11.9485982"><ele>465.0</ele><time>2026-05-03T13:22:26.11Z</time></trkpt><trkpt lat="43.5297869" lon="11.9486417"><ele>465.0</ele><time>2026-05-03T13:22:27.105Z</time></trkpt><trkpt lat="43.5298487" lon="11.9486851"><ele>465.0</ele><time>2026-05-03T13:22:28.122Z</time></trkpt><trkpt lat="43.5299162" lon="11.9487357"><ele>466.1666666666667</ele><time>2026-05-03T13:22:29.122Z</time></trkpt><trkpt lat="43.5299731" lon="11.9487835"><ele>467.33333333333337</ele><time>2026-05-03T13:22:30.114Z</time></trkpt><trkpt lat="43.5300718" lon="11.948819"><ele>468.5</ele><time>2026-05-03T13:22:32.113Z</time></trkpt><trkpt lat="43.5301095" lon="11.9486911"><ele>469.6666666666667</ele><time>2026-05-03T13:22:34.119Z</time></trkpt><trkpt lat="43.530095" lon="11.948579"><ele>470.83333333333337</ele><time>2026-05-03T13:22:35.121Z</time></trkpt><trkpt lat="43.5300714" lon="11.9484596"><ele>472.0</ele><time>2026-05-03T13:22:36.119Z</time></trkpt><trkpt lat="43.5300295" lon="11.9483287"><ele>467.75</ele><time>2026-05-03T13:22:37.106Z</time></trkpt><trkpt lat="43.5299818" lon="11.9481793"><ele>463.5</ele><time>2026-05-03T13:22:38.121Z</time></trkpt><trkpt lat="43.5299359" lon="11.9480241"><ele>459.25</ele><time>2026-05-03T13:22:39.108Z</time></trkpt><trkpt lat="43.5298925" lon="11.9478714"><ele>455.0</ele><time>2026-05-03T13:22:40.098Z</time></trkpt><trkpt lat="43.5298403" lon="11.9477175"><ele>455.0</ele><time>2026-05-03T13:22:41.117Z</time></trkpt><trkpt lat="43.5297762" lon="11.947553"><ele>455.0</ele><time>2026-05-03T13:22:42.109Z</time></trkpt><trkpt lat="43.5297158" lon="11.947424"><ele>455.0</ele><time>2026-05-03T13:22:43.119Z</time></trkpt><trkpt lat="43.5296734" lon="11.9473208"><ele>455.0</ele><time>2026-05-03T13:22:44.113Z</time></trkpt><trkpt lat="43.5296435" lon="11.9472267"><ele>455.0</ele><time>2026-05-03T13:22:45.119Z</time></trkpt><trkpt lat="43.5296252" lon="11.9471347"><ele>455.0</ele><time>2026-05-03T13:22:46.116Z</time></trkpt><trkpt lat="43.5296417" lon="11.9469752"><ele>455.0</ele><time>2026-05-03T13:22:48.133Z</time></trkpt><trkpt lat="43.5297238" lon="11.9468544"><ele>455.0</ele><time>2026-05-03T13:22:50.118Z</time></trkpt><trkpt lat="43.5297974" lon="11.9468379"><ele>455.0</ele><time>2026-05-03T13:22:51.121Z</time></trkpt><trkpt lat="43.5298875" lon="11.9468566"><ele>455.0</ele><time>2026-05-03T13:22:52.116Z</time></trkpt><trkpt lat="43.5299904" lon="11.9469132"><ele>455.0</ele><time>2026-05-03T13:22:53.12Z</time></trkpt><trkpt lat="43.5301026" lon="11.9469719"><ele>455.0</ele><time>2026-05-03T13:22:54.133Z</time></trkpt><trkpt lat="43.5301998" lon="11.9470264"><ele>455.0</ele><time>2026-05-03T13:22:55.112Z</time></trkpt><trkpt lat="43.5302855" lon="11.947077"><ele>455.0</ele><time>2026-05-03T13:22:56.101Z</time></trkpt><trkpt lat="43.5303539" lon="11.9471237"><ele>455.0</ele><time>2026-05-03T13:22:57.115Z</time></trkpt><trkpt lat="43.5304105" lon="11.9471701"><ele>454.99999999999994</ele><time>2026-05-03T13:22:58.119Z</time></trkpt><trkpt lat="43.5304541" lon="11.9472462"><ele>455.0</ele><time>2026-05-03T13:23:00.108Z</time></trkpt><trkpt lat="43.530374" lon="11.9472907"><ele>455.0</ele><time>2026-05-03T13:23:02.118Z</time></trkpt><trkpt lat="43.5303005" lon="11.9472695"><ele>455.0</ele><time>2026-05-03T13:23:03.105Z</time></trkpt><trkpt lat="43.5302243" lon="11.9472631"><ele>454.99999999999994</ele><time>2026-05-03T13:23:04.117Z</time></trkpt><trkpt lat="43.5301459" lon="11.9472883"><ele>455.0</ele><time>2026-05-03T13:23:05.11Z</time></trkpt><trkpt lat="43.530091" lon="11.9473531"><ele>455.0</ele><time>2026-05-03T13:23:06.106Z</time></trkpt><trkpt lat="43.5300534" lon="11.9474246"><ele>455.0</ele><time>2026-05-03T13:23:07.115Z</time></trkpt><trkpt lat="43.5300669" lon="11.9475226"><ele>455.0</ele><time>2026-05-03T13:23:08.117Z</time></trkpt><trkpt lat="43.5300888" lon="11.947642"><ele>455.0</ele><time>2026-05-03T13:23:09.117Z</time></trkpt><trkpt lat="43.5301486" lon="11.9477862"><ele>455.0</ele><time>2026-05-03T13:23:10.117Z</time></trkpt><trkpt lat="43.530205" lon="11.9479336"><ele>455.0</ele><time>2026-05-03T13:23:11.129Z</time></trkpt><trkpt lat="43.5302531" lon="11.9480469"><ele>455.0</ele><time>2026-05-03T13:23:12.118Z</time></trkpt><trkpt lat="43.5302972" lon="11.9481446"><ele>455.0</ele><time>2026-05-03T13:23:13.11Z</time></trkpt><trkpt lat="43.5303512" lon="11.9482614"><ele>455.0</ele><time>2026-05-03T13:23:14.13Z</time></trkpt><trkpt lat="43.5304046" lon="11.9484097"><ele>455.0</ele><time>2026-05-03T13:23:15.107Z</time></trkpt><trkpt lat="43.530442" lon="11.9485328"><ele>461.8333333333333</ele><time>2026-05-03T13:23:16.118Z</time></trkpt><trkpt lat="43.5304763" lon="11.9486517"><ele>468.66666666666663</ele><time>2026-05-03T13:23:17.105Z</time></trkpt><trkpt lat="43.5304965" lon="11.9487685"><ele>475.5</ele><time>2026-05-03T13:23:18.114Z</time></trkpt><trkpt lat="43.5305202" lon="11.9488892"><ele>482.33333333333337</ele><time>2026-05-03T13:23:19.115Z</time></trkpt><trkpt lat="43.5305333" lon="11.9490089"><ele>489.1666666666667</ele><time>2026-05-03T13:23:20.112Z</time></trkpt><trkpt lat="43.5305366" lon="11.9491102"><ele>496.0</ele><time>2026-05-03T13:23:21.105Z</time></trkpt><trkpt lat="43.5305401" lon="11.9492036"><ele>498.0</ele><time>2026-05-03T13:23:22.107Z</time></trkpt><trkpt lat="43.5305329" lon="11.9492954"><ele>500.00000000000006</ele><time>2026-05-03T13:23:23.114Z</time></trkpt><trkpt lat="43.5305088" lon="11.9493939"><ele>502.0</ele><time>2026-05-03T13:23:24.107Z</time></trkpt><trkpt lat="43.5304829" lon="11.9494983"><ele>504.0</ele><time>2026-05-03T13:23:25.108Z</time></trkpt><trkpt lat="43.5304681" lon="11.9495941"><ele>506.00000000000006</ele><time>2026-05-03T13:23:26.124Z</time></trkpt><trkpt lat="43.5304578" lon="11.949698"><ele>508.0</ele><time>2026-05-03T13:23:27.112Z</time></trkpt><trkpt lat="43.5304474" lon="11.9497988"><ele>510.0</ele><time>2026-05-03T13:23:28.111Z</time></trkpt><trkpt lat="43.5304361" lon="11.949898"><ele>510.0</ele><time>2026-05-03T13:23:29.111Z</time></trkpt><trkpt lat="43.5304221" lon="11.9499846"><ele>510.0</ele><time>2026-05-03T13:23:30.116Z</time></trkpt><trkpt lat="43.5303517" lon="11.9500808"><ele>510.0</ele><time>2026-05-03T13:23:32.114Z</time></trkpt><trkpt lat="43.5302644" lon="11.9500403"><ele>510.0</ele><time>2026-05-03T13:23:34.107Z</time></trkpt><trkpt lat="43.530248" lon="11.949956"><ele>510.0</ele><time>2026-05-03T13:23:35.114Z</time></trkpt><trkpt lat="43.530205" lon="11.9498284"><ele>510.0</ele><time>2026-05-03T13:23:36.115Z</time></trkpt><trkpt lat="43.5301394" lon="11.9497027"><ele>508.0</ele><time>2026-05-03T13:23:37.113Z</time></trkpt><trkpt lat="43.5300773" lon="11.9496164"><ele>506.0</ele><time>2026-05-03T13:23:38.115Z</time></trkpt><trkpt lat="43.5300175" lon="11.9495352"><ele>504.0</ele><time>2026-05-03T13:23:39.128Z</time></trkpt><trkpt lat="43.5299417" lon="11.9494721"><ele>502.0</ele><time>2026-05-03T13:23:40.106Z</time></trkpt><trkpt lat="43.5298458" lon="11.9494247"><ele>500.0</ele><time>2026-05-03T13:23:41.117Z</time></trkpt><trkpt lat="43.529745" lon="11.9493819"><ele>499.99999999999994</ele><time>2026-05-03T13:23:42.106Z</time></trkpt><trkpt lat="43.5296407" lon="11.9493338"><ele>500.0</ele><time>2026-05-03T13:23:43.118Z</time></trkpt><trkpt lat="43.5295433" lon="11.9493019"><ele>500.0</ele><time>2026-05-03T13:23:44.124Z</time></trkpt><trkpt lat="43.5294576" lon="11.949271"><ele>500.0</ele><time>2026-05-03T13:23:45.116Z</time></trkpt><trkpt lat="43.5293967" lon="11.9493087"><ele>499.99999999999994</ele><time>2026-05-03T13:23:46.106Z</time></trkpt><trkpt lat="43.5293484" lon="11.9493799"><ele>500.0</ele><time>2026-05-03T13:23:47.108Z</time></trkpt><trkpt lat="43.5293125" lon="11.9494708"><ele>497.4</ele><time>2026-05-03T13:23:48.119Z</time></trkpt><trkpt lat="43.5292901" lon="11.9495883"><ele>494.8</ele><time>2026-05-03T13:23:49.117Z</time></trkpt><trkpt lat="43.5292688" lon="11.9497175"><ele>492.20000000000005</ele><time>2026-05-03T13:23:50.096Z</time></trkpt><trkpt lat="43.5292654" lon="11.9498619"><ele>489.6</ele><time>2026-05-03T13:23:51.111Z</time></trkpt><trkpt lat="43.5292588" lon="11.9500019"><ele>487.0</ele><time>2026-05-03T13:23:52.113Z</time></trkpt><trkpt lat="43.5292325" lon="11.950129"><ele>492.40000000000003</ele><time>2026-05-03T13:23:53.108Z</time></trkpt><trkpt lat="43.5292039" lon="11.9502563"><ele>497.80000000000007</ele><time>2026-05-03T13:23:54.101Z</time></trkpt><trkpt lat="43.5291431" lon="11.9503789"><ele>503.2</ele><time>2026-05-03T13:23:55.117Z</time></trkpt><trkpt lat="43.5290927" lon="11.9504795"><ele>508.6</ele><time>2026-05-03T13:23:56.12Z</time></trkpt><trkpt lat="43.52906" lon="11.9505766"><ele>514.0</ele><time>2026-05-03T13:23:57.11Z</time></trkpt><trkpt lat="43.5290369" lon="11.9507016"><ele>514.0</ele><time>2026-05-03T13:23:58.099Z</time></trkpt><trkpt lat="43.5290156" lon="11.9508142"><ele>514.0</ele><time>2026-05-03T13:23:59.113Z</time></trkpt><trkpt lat="43.5289776" lon="11.9509021"><ele>514.0</ele><time>2026-05-03T13:24:00.117Z</time></trkpt><trkpt lat="43.5289184" lon="11.9509436"><ele>514.0</ele><time>2026-05-03T13:24:01.102Z</time></trkpt><trkpt lat="43.5288519" lon="11.950947"><ele>514.0</ele><time>2026-05-03T13:24:02.108Z</time></trkpt><trkpt lat="43.5287903" lon="11.950902"><ele>514.0</ele><time>2026-05-03T13:24:03.097Z</time></trkpt><trkpt lat="43.5287306" lon="11.9508047"><ele>513.4</ele><time>2026-05-03T13:24:04.116Z</time></trkpt><trkpt lat="43.5286758" lon="11.9506928"><ele>512.8</ele><time>2026-05-03T13:24:05.112Z</time></trkpt><trkpt lat="43.5286189" lon="11.9505854"><ele>512.2</ele><time>2026-05-03T13:24:06.113Z</time></trkpt><trkpt lat="43.5285646" lon="11.9504912"><ele>511.6</ele><time>2026-05-03T13:24:07.1Z</time></trkpt><trkpt lat="43.5285075" lon="11.9504054"><ele>511.0</ele><time>2026-05-03T13:24:08.111Z</time></trkpt><trkpt lat="43.5284429" lon="11.9503114"><ele>511.00000000000006</ele><time>2026-05-03T13:24:09.108Z</time></trkpt><trkpt lat="43.5283699" lon="11.9502129"><ele>511.0</ele><time>2026-05-03T13:24:10.11Z</time></trkpt><trkpt lat="43.5282979" lon="11.9501266"><ele>511.0</ele><time>2026-05-03T13:24:11.11Z</time></trkpt><trkpt lat="43.5282348" lon="11.9500692"><ele>511.0</ele><time>2026-05-03T13:24:12.103Z</time></trkpt><trkpt lat="43.5281749" lon="11.9500305"><ele>511.00000000000006</ele><time>2026-05-03T13:24:13.113Z</time></trkpt><trkpt lat="43.5280693" lon="11.950036"><ele>511.0</ele><time>2026-05-03T13:24:15.111Z</time></trkpt><trkpt lat="43.5280055" lon="11.9501032"><ele>511.0</ele><time>2026-05-03T13:24:17.126Z</time></trkpt><trkpt lat="43.5279531" lon="11.9502358"><ele>511.0</ele><time>2026-05-03T13:24:19.09Z</time></trkpt><trkpt lat="43.5279197" lon="11.9503536"><ele>511.0</ele><time>2026-05-03T13:24:20.117Z</time></trkpt><trkpt lat="43.5278837" lon="11.9504769"><ele>511.0</ele><time>2026-05-03T13:24:21.109Z</time></trkpt><trkpt lat="43.5278512" lon="11.9505916"><ele>511.0</ele><time>2026-05-03T13:24:22.109Z</time></trkpt><trkpt lat="43.5278191" lon="11.9507008"><ele>513.5</ele><time>2026-05-03T13:24:23.124Z</time></trkpt><trkpt lat="43.5277899" lon="11.9507959"><ele>516.0</ele><time>2026-05-03T13:24:24.104Z</time></trkpt><trkpt lat="43.5277613" lon="11.9508838"><ele>518.5</ele><time>2026-05-03T13:24:25.105Z</time></trkpt><trkpt lat="43.5277354" lon="11.950964"><ele>521.0</ele><time>2026-05-03T13:24:26.108Z</time></trkpt><trkpt lat="43.5276866" lon="11.9510838"><ele>523.5</ele><time>2026-05-03T13:24:28.113Z</time></trkpt><trkpt lat="43.5275632" lon="11.9511132"><ele>526.0</ele><time>2026-05-03T13:24:30.101Z</time></trkpt><trkpt lat="43.5274787" lon="11.951054"><ele>526.0</ele><time>2026-05-03T13:24:31.107Z</time></trkpt><trkpt lat="43.5273873" lon="11.9509943"><ele>526.0</ele><time>2026-05-03T13:24:32.112Z</time></trkpt><trkpt lat="43.5272917" lon="11.9509377"><ele>526.0</ele><time>2026-05-03T13:24:33.116Z</time></trkpt><trkpt lat="43.5271892" lon="11.9508941"><ele>526.0</ele><time>2026-05-03T13:24:34.112Z</time></trkpt><trkpt lat="43.5271049" lon="11.9508628"><ele>526.0</ele><time>2026-05-03T13:24:35.107Z</time></trkpt><trkpt lat="43.5269985" lon="11.9508375"><ele>520.4</ele><time>2026-05-03T13:24:37.124Z</time></trkpt><trkpt lat="43.5268929" lon="11.9509023"><ele>514.8</ele><time>2026-05-03T13:24:39.12Z</time></trkpt><trkpt lat="43.5268401" lon="11.9510707"><ele>509.19999999999993</ele><time>2026-05-03T13:24:41.113Z</time></trkpt><trkpt lat="43.5268233" lon="11.951159"><ele>503.59999999999997</ele><time>2026-05-03T13:24:42.122Z</time></trkpt><trkpt lat="43.5268114" lon="11.9512717"><ele>498.0</ele><time>2026-05-03T13:24:43.123Z</time></trkpt><trkpt lat="43.526798" lon="11.9513945"><ele>498.0</ele><time>2026-05-03T13:24:44.11Z</time></trkpt><trkpt lat="43.526782" lon="11.9515089"><ele>497.99999999999994</ele><time>2026-05-03T13:24:45.108Z</time></trkpt><trkpt lat="43.5267696" lon="11.9516758"><ele>497.99999999999994</ele><time>2026-05-03T13:24:47.116Z</time></trkpt><trkpt lat="43.5266995" lon="11.9518007"><ele>498.0</ele><time>2026-05-03T13:24:49.12Z</time></trkpt><trkpt lat="43.5266287" lon="11.9518264"><ele>498.0</ele><time>2026-05-03T13:24:50.114Z</time></trkpt><trkpt lat="43.5265634" lon="11.9518531"><ele>497.4</ele><time>2026-05-03T13:24:51.118Z</time></trkpt><trkpt lat="43.5264926" lon="11.951915"><ele>496.79999999999995</ele><time>2026-05-03T13:24:52.113Z</time></trkpt><trkpt lat="43.5264083" lon="11.9520023"><ele>496.2</ele><time>2026-05-03T13:24:53.11Z</time></trkpt><trkpt lat="43.5263295" lon="11.9520663"><ele>495.6</ele><time>2026-05-03T13:24:54.118Z</time></trkpt><trkpt lat="43.5262532" lon="11.952127"><ele>495.0</ele><time>2026-05-03T13:24:55.095Z</time></trkpt><trkpt lat="43.5261457" lon="11.9521416"><ele>495.0</ele><time>2026-05-03T13:24:56.12Z</time></trkpt><trkpt lat="43.526045" lon="11.9521304"><ele>495.0</ele><time>2026-05-03T13:24:57.092Z</time></trkpt><trkpt lat="43.5259749" lon="11.952093"><ele>495.0</ele><time>2026-05-03T13:24:58.111Z</time></trkpt><trkpt lat="43.525892" lon="11.952107"><ele>495.0</ele><time>2026-05-03T13:25:00.119Z</time></trkpt><trkpt lat="43.5258977" lon="11.9522857"><ele>495.0</ele><time>2026-05-03T13:25:02.109Z</time></trkpt><trkpt lat="43.5259238" lon="11.952384"><ele>495.0</ele><time>2026-05-03T13:25:03.109Z</time></trkpt><trkpt lat="43.525961" lon="11.952486"><ele>495.0</ele><time>2026-05-03T13:25:04.123Z</time></trkpt><trkpt lat="43.5259996" lon="11.952592"><ele>495.0</ele><time>2026-05-03T13:25:05.119Z</time></trkpt><trkpt lat="43.5260402" lon="11.9527075"><ele>495.0</ele><time>2026-05-03T13:25:06.122Z</time></trkpt><trkpt lat="43.5260684" lon="11.9528552"><ele>495.0</ele><time>2026-05-03T13:25:07.103Z</time></trkpt><trkpt lat="43.5260678" lon="11.9530004"><ele>494.6666666666667</ele><time>2026-05-03T13:25:08.106Z</time></trkpt><trkpt lat="43.5260663" lon="11.9531343"><ele>494.33333333333337</ele><time>2026-05-03T13:25:09.117Z</time></trkpt><trkpt lat="43.5260685" lon="11.9532311"><ele>494.0</ele><time>2026-05-03T13:25:10.132Z</time></trkpt><trkpt lat="43.5260943" lon="11.9533565"><ele>493.6666666666667</ele><time>2026-05-03T13:25:12.117Z</time></trkpt><trkpt lat="43.526161" lon="11.9532703"><ele>493.33333333333337</ele><time>2026-05-03T13:25:20.104Z</time></trkpt><trkpt lat="43.5261612" lon="11.95314"><ele>493.0</ele><time>2026-05-03T13:25:22.138Z</time></trkpt><trkpt lat="43.5261718" lon="11.9530457"><ele>493.00000000000006</ele><time>2026-05-03T13:25:23.112Z</time></trkpt><trkpt lat="43.5261977" lon="11.9529205"><ele>493.0</ele><time>2026-05-03T13:25:24.116Z</time></trkpt><trkpt lat="43.5262296" lon="11.9527905"><ele>493.0</ele><time>2026-05-03T13:25:25.102Z</time></trkpt><trkpt lat="43.5262623" lon="11.9526814"><ele>493.0</ele><time>2026-05-03T13:25:26.114Z</time></trkpt><trkpt lat="43.5263129" lon="11.9525859"><ele>493.00000000000006</ele><time>2026-05-03T13:25:28.135Z</time></trkpt><trkpt lat="43.5263838" lon="11.952626"><ele>493.0</ele><time>2026-05-03T13:25:31.113Z</time></trkpt><trkpt lat="43.5264141" lon="11.9527747"><ele>496.71428571428567</ele><time>2026-05-03T13:25:33.121Z</time></trkpt><trkpt lat="43.5264076" lon="11.9528793"><ele>500.42857142857144</ele><time>2026-05-03T13:25:34.097Z</time></trkpt><trkpt lat="43.5264239" lon="11.9529876"><ele>504.1428571428571</ele><time>2026-05-03T13:25:35.124Z</time></trkpt><trkpt lat="43.5264564" lon="11.9530874"><ele>507.85714285714283</ele><time>2026-05-03T13:25:36.117Z</time></trkpt><trkpt lat="43.5264878" lon="11.953189"><ele>511.57142857142856</ele><time>2026-05-03T13:25:37.108Z</time></trkpt><trkpt lat="43.5265272" lon="11.9532672"><ele>515.2857142857142</ele><time>2026-05-03T13:25:38.117Z</time></trkpt><trkpt lat="43.5265734" lon="11.9533267"><ele>519.0</ele><time>2026-05-03T13:25:39.108Z</time></trkpt><trkpt lat="43.5266599" lon="11.9534278"><ele>519.0</ele><time>2026-05-03T13:25:41.115Z</time></trkpt><trkpt lat="43.5267414" lon="11.9534779"><ele>519.0</ele><time>2026-05-03T13:25:43.122Z</time></trkpt><trkpt lat="43.526815" lon="11.9535008"><ele>519.0</ele><time>2026-05-03T13:25:45.115Z</time></trkpt><trkpt lat="43.5268629" lon="11.9533876"><ele>519.0</ele><time>2026-05-03T13:25:48.101Z</time></trkpt><trkpt lat="43.5268327" lon="11.9532087"><ele>519.0</ele><time>2026-05-03T13:25:50.092Z</time></trkpt><trkpt lat="43.5268459" lon="11.9530639"><ele>521.6</ele><time>2026-05-03T13:25:52.106Z</time></trkpt><trkpt lat="43.5269096" lon="11.9530072"><ele>524.2</ele><time>2026-05-03T13:25:55.122Z</time></trkpt><trkpt lat="43.5269606" lon="11.9531104"><ele>526.8000000000001</ele><time>2026-05-03T13:25:57.108Z</time></trkpt><trkpt lat="43.5270455" lon="11.953261"><ele>529.4</ele><time>2026-05-03T13:25:59.109Z</time></trkpt><trkpt lat="43.5271118" lon="11.9533447"><ele>532.0</ele><time>2026-05-03T13:26:00.112Z</time></trkpt><trkpt lat="43.527195" lon="11.953442"><ele>535.3333333333334</ele><time>2026-05-03T13:26:01.116Z</time></trkpt><trkpt lat="43.5272618" lon="11.9535172"><ele>538.6666666666667</ele><time>2026-05-03T13:26:02.116Z</time></trkpt><trkpt lat="43.5273579" lon="11.9536018"><ele>542.0</ele><time>2026-05-03T13:26:04.1Z</time></trkpt><trkpt lat="43.5274171" lon="11.9536378"><ele>545.3333333333334</ele><time>2026-05-03T13:26:05.115Z</time></trkpt><trkpt lat="43.527478" lon="11.9536757"><ele>548.6666666666666</ele><time>2026-05-03T13:26:06.116Z</time></trkpt><trkpt lat="43.5275448" lon="11.9537128"><ele>552.0</ele><time>2026-05-03T13:26:07.113Z</time></trkpt><trkpt lat="43.5276248" lon="11.9537503"><ele>552.0</ele><time>2026-05-03T13:26:08.117Z</time></trkpt><trkpt lat="43.5276931" lon="11.9537665"><ele>552.0</ele><time>2026-05-03T13:26:09.103Z</time></trkpt><trkpt lat="43.5277597" lon="11.9537728"><ele>552.0</ele><time>2026-05-03T13:26:10.112Z</time></trkpt><trkpt lat="43.5278426" lon="11.95378"><ele>552.0</ele><time>2026-05-03T13:26:11.104Z</time></trkpt><trkpt lat="43.5279402" lon="11.9537921"><ele>552.0</ele><time>2026-05-03T13:26:12.108Z</time></trkpt><trkpt lat="43.5280248" lon="11.9538151"><ele>552.0</ele><time>2026-05-03T13:26:13.108Z</time></trkpt><trkpt lat="43.5280871" lon="11.9538326"><ele>554.6</ele><time>2026-05-03T13:26:14.11Z</time></trkpt><trkpt lat="43.5281571" lon="11.9539304"><ele>557.2</ele><time>2026-05-03T13:26:16.116Z</time></trkpt><trkpt lat="43.5282049" lon="11.9540804"><ele>559.8</ele><time>2026-05-03T13:26:18.105Z</time></trkpt><trkpt lat="43.5282666" lon="11.9541428"><ele>562.4</ele><time>2026-05-03T13:26:19.1Z</time></trkpt><trkpt lat="43.5283216" lon="11.9542046"><ele>565.0</ele><time>2026-05-03T13:26:20.102Z</time></trkpt><trkpt lat="43.5284113" lon="11.9542959"><ele>565.0</ele><time>2026-05-03T13:26:22.114Z</time></trkpt><trkpt lat="43.5285107" lon="11.9543391"><ele>565.0</ele><time>2026-05-03T13:26:24.112Z</time></trkpt><trkpt lat="43.5286274" lon="11.9543877"><ele>565.0</ele><time>2026-05-03T13:26:26.114Z</time></trkpt><trkpt lat="43.5286922" lon="11.9544823"><ele>565.0</ele><time>2026-05-03T13:26:27.107Z</time></trkpt><trkpt lat="43.5287576" lon="11.9545545"><ele>565.0</ele><time>2026-05-03T13:26:28.117Z</time></trkpt><trkpt lat="43.5288134" lon="11.9546095"><ele>573.4</ele><time>2026-05-03T13:26:29.102Z</time></trkpt><trkpt lat="43.5288892" lon="11.9546576"><ele>581.8</ele><time>2026-05-03T13:26:30.108Z</time></trkpt><trkpt lat="43.5289576" lon="11.9547028"><ele>590.2</ele><time>2026-05-03T13:26:31.113Z</time></trkpt><trkpt lat="43.5290446" lon="11.9548118"><ele>598.6</ele><time>2026-05-03T13:26:33.113Z</time></trkpt><trkpt lat="43.5290706" lon="11.9548926"><ele>607.0</ele><time>2026-05-03T13:26:34.103Z</time></trkpt><trkpt lat="43.5290723" lon="11.9550645"><ele>607.0</ele><time>2026-05-03T13:26:36.106Z</time></trkpt><trkpt lat="43.5291269" lon="11.9551999"><ele>607.0</ele><time>2026-05-03T13:26:38.11Z</time></trkpt><trkpt lat="43.529203" lon="11.9553056"><ele>607.0</ele><time>2026-05-03T13:26:40.117Z</time></trkpt><trkpt lat="43.5292229" lon="11.9553971"><ele>607.0</ele><time>2026-05-03T13:26:42.106Z</time></trkpt><trkpt lat="43.5291974" lon="11.9554874"><ele>607.0</ele><time>2026-05-03T13:26:44.119Z</time></trkpt><trkpt lat="43.5291616" lon="11.9556068"><ele>607.0</ele><time>2026-05-03T13:26:46.11Z</time></trkpt><trkpt lat="43.5291363" lon="11.9557281"><ele>607.0</ele><time>2026-05-03T13:26:48.112Z</time></trkpt><trkpt lat="43.5290632" lon="11.9558892"><ele>607.0</ele><time>2026-05-03T13:26:50.101Z</time></trkpt><trkpt lat="43.529038" lon="11.9559789"><ele>607.0</ele><time>2026-05-03T13:26:51.112Z</time></trkpt><trkpt lat="43.5290111" lon="11.9561408"><ele>607.0</ele><time>2026-05-03T13:26:53.093Z</time></trkpt><trkpt lat="43.5290207" lon="11.9562933"><ele>608.4</ele><time>2026-05-03T13:26:55.103Z</time></trkpt><trkpt lat="43.5290232" lon="11.9564286"><ele>609.8000000000001</ele><time>2026-05-03T13:26:57.108Z</time></trkpt><trkpt lat="43.5290161" lon="11.9565201"><ele>611.2</ele><time>2026-05-03T13:27:12.126Z</time></trkpt><trkpt lat="43.5289713" lon="11.9566141"><ele>612.6</ele><time>2026-05-03T13:27:14.115Z</time></trkpt><trkpt lat="43.5288923" lon="11.9567284"><ele>614.0</ele><time>2026-05-03T13:27:16.104Z</time></trkpt><trkpt lat="43.528843" lon="11.9568356"><ele>615.1666666666666</ele><time>2026-05-03T13:27:18.111Z</time></trkpt><trkpt lat="43.5288094" lon="11.9569692"><ele>616.3333333333333</ele><time>2026-05-03T13:27:20.12Z</time></trkpt><trkpt lat="43.528778" lon="11.9570849"><ele>617.5</ele><time>2026-05-03T13:27:22.109Z</time></trkpt><trkpt lat="43.5287356" lon="11.9571717"><ele>618.6666666666666</ele><time>2026-05-03T13:27:24.123Z</time></trkpt><trkpt lat="43.528698" lon="11.9572637"><ele>619.8333333333334</ele><time>2026-05-03T13:27:26.118Z</time></trkpt><trkpt lat="43.5286558" lon="11.9573718"><ele>621.0</ele><time>2026-05-03T13:27:28.119Z</time></trkpt><trkpt lat="43.5286126" lon="11.9574955"><ele>616.5</ele><time>2026-05-03T13:27:30.105Z</time></trkpt><trkpt lat="43.5285924" lon="11.9576193"><ele>612.0</ele><time>2026-05-03T13:27:32.104Z</time></trkpt><trkpt lat="43.5285693" lon="11.9577477"><ele>607.5</ele><time>2026-05-03T13:27:34.11Z</time></trkpt><trkpt lat="43.5285381" lon="11.9578568"><ele>603.0</ele><time>2026-05-03T13:27:36.11Z</time></trkpt><trkpt lat="43.5284904" lon="11.9579569"><ele>598.5</ele><time>2026-05-03T13:27:38.102Z</time></trkpt><trkpt lat="43.5284301" lon="11.9580318"><ele>594.0</ele><time>2026-05-03T13:27:40.11Z</time></trkpt><trkpt lat="43.5283603" lon="11.9580929"><ele>594.0</ele><time>2026-05-03T13:27:42.149Z</time></trkpt><trkpt lat="43.5282992" lon="11.958155"><ele>594.0</ele><time>2026-05-03T13:27:46.118Z</time></trkpt><trkpt lat="43.5283954" lon="11.9580651"><ele>594.0</ele><time>2026-05-03T13:27:56.11Z</time></trkpt><trkpt lat="43.5284876" lon="11.9579635"><ele>594.0</ele><time>2026-05-03T13:27:58.108Z</time></trkpt><trkpt lat="43.528527" lon="11.9578925"><ele>594.0</ele><time>2026-05-03T13:27:59.126Z</time></trkpt><trkpt lat="43.5285551" lon="11.9578111"><ele>594.0</ele><time>2026-05-03T13:28:00.126Z</time></trkpt><trkpt lat="43.528585" lon="11.9577134"><ele>594.0</ele><time>2026-05-03T13:28:01.102Z</time></trkpt><trkpt lat="43.5286089" lon="11.9576053"><ele>594.0</ele><time>2026-05-03T13:28:02.124Z</time></trkpt><trkpt lat="43.5286331" lon="11.9574946"><ele>594.0</ele><time>2026-05-03T13:28:03.11Z</time></trkpt><trkpt lat="43.5286568" lon="11.9573959"><ele>594.0</ele><time>2026-05-03T13:28:04.12Z</time></trkpt><trkpt lat="43.5287092" lon="11.9572467"><ele>594.0</ele><time>2026-05-03T13:28:06.104Z</time></trkpt><trkpt lat="43.5287689" lon="11.9571042"><ele>597.3333333333334</ele><time>2026-05-03T13:28:08.105Z</time></trkpt><trkpt lat="43.5287975" lon="11.9570144"><ele>600.6666666666666</ele><time>2026-05-03T13:28:09.111Z</time></trkpt><trkpt lat="43.5288228" lon="11.9569239"><ele>604.0</ele><time>2026-05-03T13:28:10.108Z</time></trkpt><trkpt lat="43.5288435" lon="11.9568397"><ele>607.3333333333333</ele><time>2026-05-03T13:28:11.106Z</time></trkpt><trkpt lat="43.5289019" lon="11.9566945"><ele>610.6666666666666</ele><time>2026-05-03T13:28:13.103Z</time></trkpt><trkpt lat="43.5289567" lon="11.9566146"><ele>614.0</ele><time>2026-05-03T13:28:14.113Z</time></trkpt><trkpt lat="43.529015" lon="11.956544"><ele>614.0</ele><time>2026-05-03T13:28:15.109Z</time></trkpt><trkpt lat="43.5290608" lon="11.9564771"><ele>614.0</ele><time>2026-05-03T13:28:16.124Z</time></trkpt><trkpt lat="43.5291008" lon="11.9564053"><ele>614.0</ele><time>2026-05-03T13:28:17.105Z</time></trkpt><trkpt lat="43.529134" lon="11.9563194"><ele>614.0</ele><time>2026-05-03T13:28:18.138Z</time></trkpt><trkpt lat="43.5291803" lon="11.9562066"><ele>614.0</ele><time>2026-05-03T13:28:19.114Z</time></trkpt><trkpt lat="43.5292237" lon="11.9560828"><ele>614.0</ele><time>2026-05-03T13:28:20.113Z</time></trkpt><trkpt lat="43.5292594" lon="11.9559762"><ele>614.0</ele><time>2026-05-03T13:28:21.112Z</time></trkpt><trkpt lat="43.5292915" lon="11.9558929"><ele>614.0</ele><time>2026-05-03T13:28:22.105Z</time></trkpt><trkpt lat="43.5293249" lon="11.9558147"><ele>614.0</ele><time>2026-05-03T13:28:23.113Z</time></trkpt><trkpt lat="43.5293718" lon="11.9557364"><ele>614.0</ele><time>2026-05-03T13:28:24.109Z</time></trkpt><trkpt lat="43.5294356" lon="11.9556331"><ele>614.0</ele><time>2026-05-03T13:28:25.106Z</time></trkpt><trkpt lat="43.5294898" lon="11.9555377"><ele>614.0</ele><time>2026-05-03T13:28:26.106Z</time></trkpt><trkpt lat="43.5295482" lon="11.9554295"><ele>614.0</ele><time>2026-05-03T13:28:28.103Z</time></trkpt><trkpt lat="43.5294862" lon="11.9555574"><ele>614.0</ele><time>2026-05-03T13:28:33.119Z</time></trkpt><trkpt lat="43.5294652" lon="11.9556578"><ele>614.0</ele><time>2026-05-03T13:28:34.102Z</time></trkpt><trkpt lat="43.5294744" lon="11.9557891"><ele>614.0</ele><time>2026-05-03T13:28:35.109Z</time></trkpt><trkpt lat="43.5294885" lon="11.9559136"><ele>614.0</ele><time>2026-05-03T13:28:36.11Z</time></trkpt><trkpt lat="43.529511" lon="11.9560387"><ele>614.0</ele><time>2026-05-03T13:28:37.122Z</time></trkpt><trkpt lat="43.5295268" lon="11.95615"><ele>614.0</ele><time>2026-05-03T13:28:38.121Z</time></trkpt><trkpt lat="43.5295657" lon="11.9562692"><ele>614.0</ele><time>2026-05-03T13:28:40.111Z</time></trkpt><trkpt lat="43.5296519" lon="11.9564111"><ele>614.0</ele><time>2026-05-03T13:28:42.11Z</time></trkpt><trkpt lat="43.5296726" lon="11.956516"><ele>614.0</ele><time>2026-05-03T13:28:43.116Z</time></trkpt><trkpt lat="43.5296601" lon="11.956621"><ele>619.3333333333333</ele><time>2026-05-03T13:28:44.118Z</time></trkpt><trkpt lat="43.5296457" lon="11.9567182"><ele>624.6666666666666</ele><time>2026-05-03T13:28:45.113Z</time></trkpt><trkpt lat="43.5296242" lon="11.956811"><ele>630.0</ele><time>2026-05-03T13:28:46.118Z</time></trkpt><trkpt lat="43.5296147" lon="11.9569779"><ele>635.3333333333334</ele><time>2026-05-03T13:28:48.115Z</time></trkpt><trkpt lat="43.529629" lon="11.9570656"><ele>640.6666666666667</ele><time>2026-05-03T13:28:49.108Z</time></trkpt><trkpt lat="43.5296188" lon="11.9571619"><ele>646.0</ele><time>2026-05-03T13:28:50.12Z</time></trkpt><trkpt lat="43.5296127" lon="11.9573035"><ele>646.0</ele><time>2026-05-03T13:28:51.108Z</time></trkpt><trkpt lat="43.5296056" lon="11.9574344"><ele>646.0</ele><time>2026-05-03T13:28:52.109Z</time></trkpt><trkpt lat="43.5296012" lon="11.9575432"><ele>646.0</ele><time>2026-05-03T13:28:53.113Z</time></trkpt><trkpt lat="43.5296057" lon="11.9576535"><ele>646.0</ele><time>2026-05-03T13:28:54.111Z</time></trkpt><trkpt lat="43.5296354" lon="11.9577687"><ele>646.0</ele><time>2026-05-03T13:28:55.115Z</time></trkpt><trkpt lat="43.5296663" lon="11.9578714"><ele>646.0</ele><time>2026-05-03T13:28:56.107Z</time></trkpt><trkpt lat="43.5297126" lon="11.9579682"><ele>645.8</ele><time>2026-05-03T13:28:57.128Z</time></trkpt><trkpt lat="43.5297621" lon="11.9580812"><ele>645.5999999999999</ele><time>2026-05-03T13:28:58.12Z</time></trkpt><trkpt lat="43.5298099" lon="11.9582174"><ele>645.4</ele><time>2026-05-03T13:28:59.117Z</time></trkpt><trkpt lat="43.529861" lon="11.9583515"><ele>645.2</ele><time>2026-05-03T13:29:00.114Z</time></trkpt><trkpt lat="43.5299064" lon="11.9584691"><ele>645.0</ele><time>2026-05-03T13:29:01.095Z</time></trkpt><trkpt lat="43.5299462" lon="11.9585824"><ele>645.0</ele><time>2026-05-03T13:29:02.106Z</time></trkpt><trkpt lat="43.529984" lon="11.958702"><ele>645.0</ele><time>2026-05-03T13:29:03.102Z</time></trkpt><trkpt lat="43.530014" lon="11.9588041"><ele>645.0</ele><time>2026-05-03T13:29:04.101Z</time></trkpt><trkpt lat="43.5300306" lon="11.9589522"><ele>645.0</ele><time>2026-05-03T13:29:06.116Z</time></trkpt><trkpt lat="43.5299999" lon="11.9590709"><ele>645.0</ele><time>2026-05-03T13:29:08.116Z</time></trkpt><trkpt lat="43.5298989" lon="11.9591657"><ele>646.2</ele><time>2026-05-03T13:29:10.117Z</time></trkpt><trkpt lat="43.5298475" lon="11.9592305"><ele>647.4</ele><time>2026-05-03T13:29:11.11Z</time></trkpt><trkpt lat="43.5298006" lon="11.9593013"><ele>648.5999999999999</ele><time>2026-05-03T13:29:12.108Z</time></trkpt><trkpt lat="43.5297151" lon="11.9594255"><ele>649.8</ele><time>2026-05-03T13:29:14.102Z</time></trkpt><trkpt lat="43.5296642" lon="11.9595611"><ele>651.0</ele><time>2026-05-03T13:29:16.116Z</time></trkpt><trkpt lat="43.5296602" lon="11.9597245"><ele>651.0</ele><time>2026-05-03T13:29:18.116Z</time></trkpt><trkpt lat="43.5296428" lon="11.9598738"><ele>651.0</ele><time>2026-05-03T13:29:20.095Z</time></trkpt><trkpt lat="43.5296084" lon="11.9599764"><ele>651.0</ele><time>2026-05-03T13:29:21.111Z</time></trkpt><trkpt lat="43.5295611" lon="11.9601077"><ele>651.0</ele><time>2026-05-03T13:29:22.104Z</time></trkpt><trkpt lat="43.5294984" lon="11.960255"><ele>651.0</ele><time>2026-05-03T13:29:23.094Z</time></trkpt><trkpt lat="43.5294424" lon="11.9603887"><ele>651.6666666666666</ele><time>2026-05-03T13:29:24.122Z</time></trkpt><trkpt lat="43.5293968" lon="11.9604811"><ele>652.3333333333334</ele><time>2026-05-03T13:29:25.111Z</time></trkpt><trkpt lat="43.5293429" lon="11.9605463"><ele>653.0</ele><time>2026-05-03T13:29:26.112Z</time></trkpt><trkpt lat="43.5292673" lon="11.9606033"><ele>653.6666666666667</ele><time>2026-05-03T13:29:27.105Z</time></trkpt><trkpt lat="43.5291666" lon="11.9606594"><ele>654.3333333333334</ele><time>2026-05-03T13:29:28.113Z</time></trkpt><trkpt lat="43.5290778" lon="11.9607073"><ele>655.0</ele><time>2026-05-03T13:29:29.119Z</time></trkpt><trkpt lat="43.5290075" lon="11.9607328"><ele>655.0</ele><time>2026-05-03T13:29:30.098Z</time></trkpt><trkpt lat="43.5289413" lon="11.9607501"><ele>655.0</ele><time>2026-05-03T13:29:31.113Z</time></trkpt><trkpt lat="43.5288395" lon="11.9608359"><ele>655.0</ele><time>2026-05-03T13:29:33.107Z</time></trkpt><trkpt lat="43.5287407" lon="11.9609292"><ele>655.0</ele><time>2026-05-03T13:29:35.105Z</time></trkpt><trkpt lat="43.5286423" lon="11.9610082"><ele>655.0</ele><time>2026-05-03T13:29:37.096Z</time></trkpt><trkpt lat="43.5285417" lon="11.9611117"><ele>655.1666666666667</ele><time>2026-05-03T13:29:39.111Z</time></trkpt><trkpt lat="43.5284895" lon="11.961179"><ele>655.3333333333334</ele><time>2026-05-03T13:29:40.106Z</time></trkpt><trkpt lat="43.5284385" lon="11.9612575"><ele>655.5</ele><time>2026-05-03T13:29:41.115Z</time></trkpt><trkpt lat="43.5283914" lon="11.9613393"><ele>655.6666666666666</ele><time>2026-05-03T13:29:42.096Z</time></trkpt><trkpt lat="43.5283573" lon="11.9614374"><ele>655.8333333333333</ele><time>2026-05-03T13:29:43.116Z</time></trkpt><trkpt lat="43.5283219" lon="11.9615388"><ele>656.0</ele><time>2026-05-03T13:29:44.109Z</time></trkpt><trkpt lat="43.5282911" lon="11.9616238"><ele>655.8</ele><time>2026-05-03T13:29:45.103Z</time></trkpt><trkpt lat="43.5282681" lon="11.9617839"><ele>655.5999999999999</ele><time>2026-05-03T13:29:47.12Z</time></trkpt><trkpt lat="43.5282796" lon="11.9618728"><ele>655.4</ele><time>2026-05-03T13:29:48.12Z</time></trkpt><trkpt lat="43.5282919" lon="11.9619615"><ele>655.2</ele><time>2026-05-03T13:29:49.105Z</time></trkpt><trkpt lat="43.528313" lon="11.9621038"><ele>655.0</ele><time>2026-05-03T13:29:51.116Z</time></trkpt><trkpt lat="43.5283242" lon="11.9622379"><ele>655.0</ele><time>2026-05-03T13:29:53.104Z</time></trkpt><trkpt lat="43.5283292" lon="11.9623549"><ele>655.0</ele><time>2026-05-03T13:29:55.136Z</time></trkpt><trkpt lat="43.5283531" lon="11.9624735"><ele>655.0</ele><time>2026-05-03T13:29:57.114Z</time></trkpt><trkpt lat="43.5283929" lon="11.9625546"><ele>655.0</ele><time>2026-05-03T13:29:59.123Z</time></trkpt><trkpt lat="43.5284267" lon="11.9626367"><ele>655.0</ele><time>2026-05-03T13:30:03.111Z</time></trkpt><trkpt lat="43.5284798" lon="11.9626924"><ele>655.0</ele><time>2026-05-03T13:30:17.102Z</time></trkpt><trkpt lat="43.5285982" lon="11.9627245"><ele>653.0</ele><time>2026-05-03T13:30:19.103Z</time></trkpt><trkpt lat="43.5286888" lon="11.9627316"><ele>651.0</ele><time>2026-05-03T13:30:20.118Z</time></trkpt><trkpt lat="43.5288028" lon="11.9627659"><ele>649.0</ele><time>2026-05-03T13:30:21.103Z</time></trkpt><trkpt lat="43.5289351" lon="11.9628174"><ele>647.0</ele><time>2026-05-03T13:30:22.113Z</time></trkpt><trkpt lat="43.5290554" lon="11.9628803"><ele>647.0</ele><time>2026-05-03T13:30:23.101Z</time></trkpt><trkpt lat="43.5291624" lon="11.9629528"><ele>647.0</ele><time>2026-05-03T13:30:24.107Z</time></trkpt><trkpt lat="43.5292619" lon="11.9630465"><ele>647.0</ele><time>2026-05-03T13:30:25.112Z</time></trkpt><trkpt lat="43.5293549" lon="11.9631501"><ele>647.0</ele><time>2026-05-03T13:30:26.096Z</time></trkpt><trkpt lat="43.5294453" lon="11.963254"><ele>646.4000000000001</ele><time>2026-05-03T13:30:27.112Z</time></trkpt><trkpt lat="43.5295285" lon="11.9633657"><ele>645.8000000000001</ele><time>2026-05-03T13:30:28.093Z</time></trkpt><trkpt lat="43.5296052" lon="11.9634671"><ele>645.2</ele><time>2026-05-03T13:30:29.109Z</time></trkpt><trkpt lat="43.5296688" lon="11.9635595"><ele>644.6</ele><time>2026-05-03T13:30:30.116Z</time></trkpt><trkpt lat="43.5297299" lon="11.9636456"><ele>644.0</ele><time>2026-05-03T13:30:31.101Z</time></trkpt><trkpt lat="43.5297844" lon="11.9637297"><ele>644.0</ele><time>2026-05-03T13:30:32.102Z</time></trkpt><trkpt lat="43.5298365" lon="11.9638079"><ele>644.0</ele><time>2026-05-03T13:30:33.123Z</time></trkpt><trkpt lat="43.5298876" lon="11.9638786"><ele>644.0</ele><time>2026-05-03T13:30:34.111Z</time></trkpt><trkpt lat="43.5299413" lon="11.9639425"><ele>644.0</ele><time>2026-05-03T13:30:35.118Z</time></trkpt><trkpt lat="43.5300044" lon="11.9640001"><ele>644.0</ele><time>2026-05-03T13:30:36.108Z</time></trkpt><trkpt lat="43.5300808" lon="11.9640348"><ele>644.0</ele><time>2026-05-03T13:30:37.097Z</time></trkpt><trkpt lat="43.5301667" lon="11.9640562"><ele>644.0</ele><time>2026-05-03T13:30:38.11Z</time></trkpt><trkpt lat="43.5302635" lon="11.9640705"><ele>644.0</ele><time>2026-05-03T13:30:39.117Z</time></trkpt><trkpt lat="43.5303664" lon="11.9640767"><ele>644.0</ele><time>2026-05-03T13:30:40.105Z</time></trkpt><trkpt lat="43.5304791" lon="11.9640778"><ele>644.0</ele><time>2026-05-03T13:30:41.113Z</time></trkpt><trkpt lat="43.5305911" lon="11.9640809"><ele>644.0</ele><time>2026-05-03T13:30:42.116Z</time></trkpt><trkpt lat="43.530714" lon="11.964083"><ele>641.75</ele><time>2026-05-03T13:30:43.104Z</time></trkpt><trkpt lat="43.5308365" lon="11.964087"><ele>639.5</ele><time>2026-05-03T13:30:44.096Z</time></trkpt><trkpt lat="43.5309663" lon="11.9640935"><ele>637.25</ele><time>2026-05-03T13:30:45.113Z</time></trkpt><trkpt lat="43.5310955" lon="11.964099"><ele>635.0</ele><time>2026-05-03T13:30:46.115Z</time></trkpt><trkpt lat="43.5312226" lon="11.9641052"><ele>634.0</ele><time>2026-05-03T13:30:47.121Z</time></trkpt><trkpt lat="43.531347" lon="11.9641235"><ele>633.0</ele><time>2026-05-03T13:30:48.094Z</time></trkpt><trkpt lat="43.5314729" lon="11.9641382"><ele>632.0</ele><time>2026-05-03T13:30:49.116Z</time></trkpt><trkpt lat="43.5316012" lon="11.964159"><ele>631.0</ele><time>2026-05-03T13:30:50.112Z</time></trkpt><trkpt lat="43.5317342" lon="11.9641849"><ele>630.25</ele><time>2026-05-03T13:30:51.097Z</time></trkpt><trkpt lat="43.5318627" lon="11.9642215"><ele>629.5</ele><time>2026-05-03T13:30:52.099Z</time></trkpt><trkpt lat="43.5319906" lon="11.9642551"><ele>628.75</ele><time>2026-05-03T13:30:53.112Z</time></trkpt><trkpt lat="43.5321187" lon="11.9642885"><ele>628.0</ele><time>2026-05-03T13:30:54.107Z</time></trkpt><trkpt lat="43.5322433" lon="11.9643268"><ele>627.25</ele><time>2026-05-03T13:30:55.104Z</time></trkpt><trkpt lat="43.5323616" lon="11.9643654"><ele>626.5</ele><time>2026-05-03T13:30:56.103Z</time></trkpt><trkpt lat="43.5324777" lon="11.9644104"><ele>625.75</ele><time>2026-05-03T13:30:57.101Z</time></trkpt><trkpt lat="43.5325905" lon="11.964466"><ele>625.0</ele><time>2026-05-03T13:30:58.115Z</time></trkpt><trkpt lat="43.5326991" lon="11.9645263"><ele>625.0</ele><time>2026-05-03T13:30:59.126Z</time></trkpt><trkpt lat="43.5328145" lon="11.9645952"><ele>625.0</ele><time>2026-05-03T13:31:00.104Z</time></trkpt><trkpt lat="43.5329358" lon="11.9646646"><ele>625.0</ele><time>2026-05-03T13:31:01.113Z</time></trkpt><trkpt lat="43.5330483" lon="11.9647353"><ele>625.0</ele><time>2026-05-03T13:31:02.111Z</time></trkpt><trkpt lat="43.5331578" lon="11.9648009"><ele>626.25</ele><time>2026-05-03T13:31:03.102Z</time></trkpt><trkpt lat="43.5332669" lon="11.9648682"><ele>627.5</ele><time>2026-05-03T13:31:04.108Z</time></trkpt><trkpt lat="43.5333767" lon="11.9649346"><ele>628.75</ele><time>2026-05-03T13:31:05.107Z</time></trkpt><trkpt lat="43.5334961" lon="11.9649828"><ele>630.0</ele><time>2026-05-03T13:31:06.104Z</time></trkpt><trkpt lat="43.5336101" lon="11.9650178"><ele>630.75</ele><time>2026-05-03T13:31:07.102Z</time></trkpt><trkpt lat="43.5337266" lon="11.9650426"><ele>631.5</ele><time>2026-05-03T13:31:08.099Z</time></trkpt><trkpt lat="43.5338406" lon="11.9650586"><ele>632.25</ele><time>2026-05-03T13:31:09.1Z</time></trkpt><trkpt lat="43.5339518" lon="11.965064"><ele>633.0</ele><time>2026-05-03T13:31:10.101Z</time></trkpt><trkpt lat="43.5340631" lon="11.9650626"><ele>633.0</ele><time>2026-05-03T13:31:11.101Z</time></trkpt><trkpt lat="43.5341782" lon="11.9650597"><ele>633.0</ele><time>2026-05-03T13:31:12.119Z</time></trkpt><trkpt lat="43.5342961" lon="11.9650449"><ele>633.0</ele><time>2026-05-03T13:31:13.106Z</time></trkpt><trkpt lat="43.5344181" lon="11.9650266"><ele>633.0</ele><time>2026-05-03T13:31:14.106Z</time></trkpt><trkpt lat="43.5345473" lon="11.9650042"><ele>633.6</ele><time>2026-05-03T13:31:15.113Z</time></trkpt><trkpt lat="43.5346641" lon="11.9649844"><ele>634.1999999999999</ele><time>2026-05-03T13:31:16.109Z</time></trkpt><trkpt lat="43.534774" lon="11.9649655"><ele>634.8</ele><time>2026-05-03T13:31:17.105Z</time></trkpt><trkpt lat="43.5348757" lon="11.9649521"><ele>635.4</ele><time>2026-05-03T13:31:18.1Z</time></trkpt><trkpt lat="43.5349709" lon="11.9649582"><ele>636.0</ele><time>2026-05-03T13:31:19.105Z</time></trkpt><trkpt lat="43.5350598" lon="11.9649832"><ele>636.0</ele><time>2026-05-03T13:31:20.115Z</time></trkpt><trkpt lat="43.5351443" lon="11.9650186"><ele>636.0</ele><time>2026-05-03T13:31:21.103Z</time></trkpt><trkpt lat="43.5352204" lon="11.9650666"><ele>636.0</ele><time>2026-05-03T13:31:22.104Z</time></trkpt><trkpt lat="43.5352915" lon="11.9651158"><ele>636.0</ele><time>2026-05-03T13:31:23.114Z</time></trkpt><trkpt lat="43.5353527" lon="11.9651737"><ele>636.0</ele><time>2026-05-03T13:31:24.107Z</time></trkpt><trkpt lat="43.5354061" lon="11.9652567"><ele>636.0</ele><time>2026-05-03T13:31:25.106Z</time></trkpt><trkpt lat="43.5354564" lon="11.9653286"><ele>636.7142857142857</ele><time>2026-05-03T13:31:26.094Z</time></trkpt><trkpt lat="43.5355126" lon="11.9653869"><ele>637.4285714285714</ele><time>2026-05-03T13:31:27.115Z</time></trkpt><trkpt lat="43.5355692" lon="11.9654329"><ele>638.1428571428571</ele><time>2026-05-03T13:31:28.104Z</time></trkpt><trkpt lat="43.5356308" lon="11.9654711"><ele>638.8571428571429</ele><time>2026-05-03T13:31:29.114Z</time></trkpt><trkpt lat="43.5356947" lon="11.9655095"><ele>639.5714285714286</ele><time>2026-05-03T13:31:30.111Z</time></trkpt><trkpt lat="43.5357656" lon="11.9655472"><ele>640.2857142857143</ele><time>2026-05-03T13:31:31.121Z</time></trkpt><trkpt lat="43.5358345" lon="11.9655847"><ele>641.0</ele><time>2026-05-03T13:31:32.116Z</time></trkpt><trkpt lat="43.5359002" lon="11.9656221"><ele>641.0</ele><time>2026-05-03T13:31:33.104Z</time></trkpt><trkpt lat="43.5359629" lon="11.9656551"><ele>641.0</ele><time>2026-05-03T13:31:34.116Z</time></trkpt><trkpt lat="43.536083" lon="11.9656928"><ele>641.0</ele><time>2026-05-03T13:31:36.097Z</time></trkpt><trkpt lat="43.5361533" lon="11.9656825"><ele>641.0</ele><time>2026-05-03T13:31:37.114Z</time></trkpt><trkpt lat="43.5362211" lon="11.9656695"><ele>641.0</ele><time>2026-05-03T13:31:38.121Z</time></trkpt><trkpt lat="43.5362914" lon="11.9656604"><ele>641.0</ele><time>2026-05-03T13:31:39.113Z</time></trkpt><trkpt lat="43.5363546" lon="11.9656521"><ele>639.4</ele><time>2026-05-03T13:31:40.114Z</time></trkpt><trkpt lat="43.5364809" lon="11.9656393"><ele>637.8</ele><time>2026-05-03T13:31:42.106Z</time></trkpt><trkpt lat="43.5366134" lon="11.9656349"><ele>636.1999999999999</ele><time>2026-05-03T13:31:44.114Z</time></trkpt><trkpt lat="43.5366918" lon="11.9656499"><ele>634.5999999999999</ele><time>2026-05-03T13:31:45.118Z</time></trkpt><trkpt lat="43.5367692" lon="11.9656795"><ele>633.0</ele><time>2026-05-03T13:31:46.101Z</time></trkpt><trkpt lat="43.5368444" lon="11.9657064"><ele>633.0</ele><time>2026-05-03T13:31:47.112Z</time></trkpt><trkpt lat="43.5369172" lon="11.9657319"><ele>633.0</ele><time>2026-05-03T13:31:48.103Z</time></trkpt><trkpt lat="43.5369873" lon="11.9657415"><ele>633.0</ele><time>2026-05-03T13:31:49.114Z</time></trkpt><trkpt lat="43.537061" lon="11.965751"><ele>633.0</ele><time>2026-05-03T13:31:50.105Z</time></trkpt><trkpt lat="43.5371332" lon="11.9657619"><ele>633.0</ele><time>2026-05-03T13:31:51.104Z</time></trkpt><trkpt lat="43.5372078" lon="11.9657711"><ele>633.0</ele><time>2026-05-03T13:31:52.1Z</time></trkpt><trkpt lat="43.5372793" lon="11.9657813"><ele>633.0</ele><time>2026-05-03T13:31:53.104Z</time></trkpt><trkpt lat="43.5373478" lon="11.9657984"><ele>634.0</ele><time>2026-05-03T13:31:54.107Z</time></trkpt><trkpt lat="43.5374188" lon="11.9658291"><ele>635.0</ele><time>2026-05-03T13:31:55.093Z</time></trkpt><trkpt lat="43.5374921" lon="11.9658725"><ele>636.0</ele><time>2026-05-03T13:31:56.112Z</time></trkpt><trkpt lat="43.5375605" lon="11.965933"><ele>637.0</ele><time>2026-05-03T13:31:57.117Z</time></trkpt><trkpt lat="43.5376232" lon="11.9660067"><ele>638.0</ele><time>2026-05-03T13:31:58.109Z</time></trkpt><trkpt lat="43.5376786" lon="11.966093"><ele>639.0</ele><time>2026-05-03T13:31:59.102Z</time></trkpt><trkpt lat="43.5377337" lon="11.966171"><ele>639.0</ele><time>2026-05-03T13:32:00.105Z</time></trkpt><trkpt lat="43.5377893" lon="11.9662331"><ele>639.0</ele><time>2026-05-03T13:32:01.109Z</time></trkpt><trkpt lat="43.5378514" lon="11.966275"><ele>639.0</ele><time>2026-05-03T13:32:02.1Z</time></trkpt><trkpt lat="43.5379237" lon="11.966306"><ele>639.0</ele><time>2026-05-03T13:32:03.106Z</time></trkpt><trkpt lat="43.5380053" lon="11.9663291"><ele>639.0</ele><time>2026-05-03T13:32:04.108Z</time></trkpt><trkpt lat="43.5380962" lon="11.9663492"><ele>639.0</ele><time>2026-05-03T13:32:05.12Z</time></trkpt><trkpt lat="43.5381854" lon="11.9663593"><ele>636.0</ele><time>2026-05-03T13:32:06.113Z</time></trkpt><trkpt lat="43.5382681" lon="11.9663685"><ele>633.0</ele><time>2026-05-03T13:32:07.109Z</time></trkpt><trkpt lat="43.5383557" lon="11.9663873"><ele>630.0</ele><time>2026-05-03T13:32:08.11Z</time></trkpt><trkpt lat="43.5384412" lon="11.9664073"><ele>627.0</ele><time>2026-05-03T13:32:09.103Z</time></trkpt><trkpt lat="43.5385228" lon="11.9664415"><ele>624.0</ele><time>2026-05-03T13:32:10.106Z</time></trkpt><trkpt lat="43.5385977" lon="11.9664798"><ele>621.0</ele><time>2026-05-03T13:32:11.1Z</time></trkpt><trkpt lat="43.538675" lon="11.9665189"><ele>620.8333333333334</ele><time>2026-05-03T13:32:12.104Z</time></trkpt><trkpt lat="43.5387501" lon="11.9665637"><ele>620.6666666666666</ele><time>2026-05-03T13:32:13.101Z</time></trkpt><trkpt lat="43.5388293" lon="11.9666037"><ele>620.5</ele><time>2026-05-03T13:32:14.111Z</time></trkpt><trkpt lat="43.5389128" lon="11.96664"><ele>620.3333333333333</ele><time>2026-05-03T13:32:15.114Z</time></trkpt><trkpt lat="43.5389967" lon="11.9666688"><ele>620.1666666666666</ele><time>2026-05-03T13:32:16.107Z</time></trkpt><trkpt lat="43.539078" lon="11.9666972"><ele>620.0</ele><time>2026-05-03T13:32:17.118Z</time></trkpt><trkpt lat="43.5391591" lon="11.9667136"><ele>620.0</ele><time>2026-05-03T13:32:18.123Z</time></trkpt><trkpt lat="43.5392466" lon="11.966727"><ele>620.0</ele><time>2026-05-03T13:32:19.109Z</time></trkpt><trkpt lat="43.539333" lon="11.9667318"><ele>620.0</ele><time>2026-05-03T13:32:20.118Z</time></trkpt><trkpt lat="43.5394172" lon="11.9667348"><ele>620.0</ele><time>2026-05-03T13:32:21.116Z</time></trkpt><trkpt lat="43.5395037" lon="11.9667335"><ele>620.0</ele><time>2026-05-03T13:32:22.113Z</time></trkpt><trkpt lat="43.5395875" lon="11.9667039"><ele>620.0</ele><time>2026-05-03T13:32:23.099Z</time></trkpt><trkpt lat="43.5396657" lon="11.9666539"><ele>617.8</ele><time>2026-05-03T13:32:24.111Z</time></trkpt><trkpt lat="43.5397423" lon="11.9665959"><ele>615.6</ele><time>2026-05-03T13:32:25.114Z</time></trkpt><trkpt lat="43.5398137" lon="11.9665399"><ele>613.4</ele><time>2026-05-03T13:32:26.132Z</time></trkpt><trkpt lat="43.5398771" lon="11.9664945"><ele>611.2</ele><time>2026-05-03T13:32:27.106Z</time></trkpt><trkpt lat="43.5400064" lon="11.9664644"><ele>609.0</ele><time>2026-05-03T13:32:29.107Z</time></trkpt><trkpt lat="43.5400909" lon="11.9664478"><ele>609.0</ele><time>2026-05-03T13:32:30.12Z</time></trkpt><trkpt lat="43.5401696" lon="11.9664196"><ele>609.0</ele><time>2026-05-03T13:32:31.115Z</time></trkpt><trkpt lat="43.5402472" lon="11.9663888"><ele>609.0</ele><time>2026-05-03T13:32:32.109Z</time></trkpt><trkpt lat="43.5403221" lon="11.9663504"><ele>609.0</ele><time>2026-05-03T13:32:33.119Z</time></trkpt><trkpt lat="43.5404005" lon="11.9663139"><ele>609.0</ele><time>2026-05-03T13:32:34.136Z</time></trkpt><trkpt lat="43.5404721" lon="11.9662712"><ele>609.0</ele><time>2026-05-03T13:32:35.118Z</time></trkpt><trkpt lat="43.5405328" lon="11.9662373"><ele>609.0</ele><time>2026-05-03T13:32:36.119Z</time></trkpt><trkpt lat="43.540606" lon="11.9661843"><ele>609.0</ele><time>2026-05-03T13:32:38.111Z</time></trkpt><trkpt lat="43.540576" lon="11.9662808"><ele>609.0</ele><time>2026-05-03T13:32:44.089Z</time></trkpt><trkpt lat="43.5404671" lon="11.9663648"><ele>609.0</ele><time>2026-05-03T13:32:46.111Z</time></trkpt><trkpt lat="43.5403806" lon="11.9664595"><ele>609.0</ele><time>2026-05-03T13:32:47.1Z</time></trkpt><trkpt lat="43.5402679" lon="11.9666"><ele>609.75</ele><time>2026-05-03T13:32:48.118Z</time></trkpt><trkpt lat="43.5401544" lon="11.9667385"><ele>610.5</ele><time>2026-05-03T13:32:49.11Z</time></trkpt><trkpt lat="43.5400388" lon="11.9668698"><ele>611.25</ele><time>2026-05-03T13:32:50.099Z</time></trkpt><trkpt lat="43.5399295" lon="11.9669931"><ele>612.0</ele><time>2026-05-03T13:32:51.105Z</time></trkpt><trkpt lat="43.53984" lon="11.9670982"><ele>612.0</ele><time>2026-05-03T13:32:52.1Z</time></trkpt><trkpt lat="43.5397662" lon="11.9671931"><ele>612.0</ele><time>2026-05-03T13:32:53.095Z</time></trkpt><trkpt lat="43.5397131" lon="11.9673021"><ele>612.0</ele><time>2026-05-03T13:32:54.12Z</time></trkpt><trkpt lat="43.539663" lon="11.9674122"><ele>612.0</ele><time>2026-05-03T13:32:55.107Z</time></trkpt><trkpt lat="43.5396335" lon="11.9675404"><ele>612.0</ele><time>2026-05-03T13:32:56.105Z</time></trkpt><trkpt lat="43.5396024" lon="11.9676784"><ele>611.5</ele><time>2026-05-03T13:32:57.096Z</time></trkpt><trkpt lat="43.5395695" lon="11.9678079"><ele>611.0</ele><time>2026-05-03T13:32:58.092Z</time></trkpt><trkpt lat="43.5395453" lon="11.9679331"><ele>610.5</ele><time>2026-05-03T13:32:59.113Z</time></trkpt><trkpt lat="43.5395199" lon="11.968058"><ele>610.0</ele><time>2026-05-03T13:33:00.099Z</time></trkpt><trkpt lat="43.5395091" lon="11.9681702"><ele>609.5</ele><time>2026-05-03T13:33:01.106Z</time></trkpt><trkpt lat="43.539501" lon="11.9682732"><ele>609.0</ele><time>2026-05-03T13:33:02.112Z</time></trkpt><trkpt lat="43.5395029" lon="11.9683777"><ele>610.3333333333334</ele><time>2026-05-03T13:33:03.115Z</time></trkpt><trkpt lat="43.539511" lon="11.9684896"><ele>611.6666666666666</ele><time>2026-05-03T13:33:04.122Z</time></trkpt><trkpt lat="43.5395219" lon="11.968602"><ele>613.0</ele><time>2026-05-03T13:33:05.119Z</time></trkpt><trkpt lat="43.5395286" lon="11.9687082"><ele>614.3333333333333</ele><time>2026-05-03T13:33:06.133Z</time></trkpt><trkpt lat="43.5395287" lon="11.968805"><ele>615.6666666666666</ele><time>2026-05-03T13:33:07.105Z</time></trkpt><trkpt lat="43.5394934" lon="11.9689582"><ele>617.0</ele><time>2026-05-03T13:33:09.118Z</time></trkpt><trkpt lat="43.5393896" lon="11.9690398"><ele>617.0</ele><time>2026-05-03T13:33:11.095Z</time></trkpt><trkpt lat="43.539326" lon="11.9690563"><ele>617.0</ele><time>2026-05-03T13:33:12.117Z</time></trkpt><trkpt lat="43.5392524" lon="11.9690423"><ele>617.0</ele><time>2026-05-03T13:33:13.113Z</time></trkpt><trkpt lat="43.5391822" lon="11.969006"><ele>617.0</ele><time>2026-05-03T13:33:14.111Z</time></trkpt><trkpt lat="43.539108" lon="11.9689695"><ele>617.0</ele><time>2026-05-03T13:33:15.114Z</time></trkpt><trkpt lat="43.5390355" lon="11.9689417"><ele>617.0</ele><time>2026-05-03T13:33:16.122Z</time></trkpt><trkpt lat="43.5389678" lon="11.9689517"><ele>617.0</ele><time>2026-05-03T13:33:17.112Z</time></trkpt><trkpt lat="43.5388978" lon="11.9689638"><ele>617.0</ele><time>2026-05-03T13:33:18.119Z</time></trkpt><trkpt lat="43.5388254" lon="11.968992"><ele>617.0</ele><time>2026-05-03T13:33:19.112Z</time></trkpt><trkpt lat="43.5387596" lon="11.9690165"><ele>617.0</ele><time>2026-05-03T13:33:20.104Z</time></trkpt><trkpt lat="43.5386956" lon="11.9690366"><ele>617.0</ele><time>2026-05-03T13:33:21.095Z</time></trkpt><trkpt lat="43.5386331" lon="11.969054"><ele>617.0</ele><time>2026-05-03T13:33:22.114Z</time></trkpt><trkpt lat="43.5385679" lon="11.9690642"><ele>617.0</ele><time>2026-05-03T13:33:23.113Z</time></trkpt><trkpt lat="43.5384946" lon="11.9690747"><ele>617.0</ele><time>2026-05-03T13:33:24.115Z</time></trkpt><trkpt lat="43.538431" lon="11.9690965"><ele>620.6</ele><time>2026-05-03T13:33:25.132Z</time></trkpt><trkpt lat="43.5383443" lon="11.969207"><ele>624.2</ele><time>2026-05-03T13:33:27.121Z</time></trkpt><trkpt lat="43.5383213" lon="11.9692892"><ele>627.8</ele><time>2026-05-03T13:33:28.12Z</time></trkpt><trkpt lat="43.5383162" lon="11.9693897"><ele>631.4</ele><time>2026-05-03T13:33:29.12Z</time></trkpt><trkpt lat="43.5383149" lon="11.969522"><ele>635.0</ele><time>2026-05-03T13:33:30.111Z</time></trkpt><trkpt lat="43.5383151" lon="11.969675"><ele>635.0</ele><time>2026-05-03T13:33:31.11Z</time></trkpt><trkpt lat="43.5383185" lon="11.9698658"><ele>635.0</ele><time>2026-05-03T13:33:32.11Z</time></trkpt><trkpt lat="43.538316" lon="11.9700495"><ele>635.0</ele><time>2026-05-03T13:33:33.11Z</time></trkpt><trkpt lat="43.5383101" lon="11.9702282"><ele>635.0</ele><time>2026-05-03T13:33:34.11Z</time></trkpt><trkpt lat="43.5382871" lon="11.9703642"><ele>634.3333333333333</ele><time>2026-05-03T13:33:35.117Z</time></trkpt><trkpt lat="43.5382596" lon="11.9704825"><ele>633.6666666666666</ele><time>2026-05-03T13:33:36.111Z</time></trkpt><trkpt lat="43.538236" lon="11.970582"><ele>633.0</ele><time>2026-05-03T13:33:37.115Z</time></trkpt><trkpt lat="43.5382301" lon="11.9706991"><ele>632.3333333333334</ele><time>2026-05-03T13:33:38.097Z</time></trkpt><trkpt lat="43.5382508" lon="11.9708197"><ele>631.6666666666667</ele><time>2026-05-03T13:33:39.107Z</time></trkpt><trkpt lat="43.5382841" lon="11.9709511"><ele>631.0</ele><time>2026-05-03T13:33:40.114Z</time></trkpt><trkpt lat="43.5383178" lon="11.9710995"><ele>629.6</ele><time>2026-05-03T13:33:41.106Z</time></trkpt><trkpt lat="43.5383447" lon="11.9712383"><ele>628.2</ele><time>2026-05-03T13:33:42.108Z</time></trkpt><trkpt lat="43.5383381" lon="11.9713575"><ele>626.8</ele><time>2026-05-03T13:33:43.112Z</time></trkpt><trkpt lat="43.5383075" lon="11.9714983"><ele>625.4</ele><time>2026-05-03T13:33:44.113Z</time></trkpt><trkpt lat="43.5382817" lon="11.9716293"><ele>624.0</ele><time>2026-05-03T13:33:45.094Z</time></trkpt><trkpt lat="43.5382782" lon="11.9717504"><ele>622.5</ele><time>2026-05-03T13:33:46.1Z</time></trkpt><trkpt lat="43.5383083" lon="11.9718752"><ele>621.0</ele><time>2026-05-03T13:33:47.147Z</time></trkpt><trkpt lat="43.5383404" lon="11.9720113"><ele>619.5</ele><time>2026-05-03T13:33:48.121Z</time></trkpt><trkpt lat="43.5383957" lon="11.9722133"><ele>618.0</ele><time>2026-05-03T13:33:49.101Z</time></trkpt><trkpt lat="43.5384486" lon="11.9724213"><ele>616.25</ele><time>2026-05-03T13:33:50.11Z</time></trkpt><trkpt lat="43.5384919" lon="11.972598"><ele>614.5</ele><time>2026-05-03T13:33:51.116Z</time></trkpt><trkpt lat="43.5385306" lon="11.9727559"><ele>612.75</ele><time>2026-05-03T13:33:52.113Z</time></trkpt><trkpt lat="43.538564" lon="11.9728938"><ele>611.0</ele><time>2026-05-03T13:33:53.12Z</time></trkpt><trkpt lat="43.5385931" lon="11.9730279"><ele>611.0</ele><time>2026-05-03T13:33:54.118Z</time></trkpt><trkpt lat="43.5386208" lon="11.9731499"><ele>611.0</ele><time>2026-05-03T13:33:55.115Z</time></trkpt><trkpt lat="43.5386423" lon="11.9732618"><ele>611.0</ele><time>2026-05-03T13:33:56.104Z</time></trkpt><trkpt lat="43.5386608" lon="11.9733744"><ele>611.0</ele><time>2026-05-03T13:33:57.091Z</time></trkpt><trkpt lat="43.5386755" lon="11.9734831"><ele>611.0</ele><time>2026-05-03T13:33:58.12Z</time></trkpt><trkpt lat="43.5386916" lon="11.9735809"><ele>611.0</ele><time>2026-05-03T13:33:59.112Z</time></trkpt><trkpt lat="43.5387101" lon="11.9736646"><ele>611.0</ele><time>2026-05-03T13:34:00.106Z</time></trkpt><trkpt lat="43.5387438" lon="11.9737496"><ele>611.0</ele><time>2026-05-03T13:34:01.119Z</time></trkpt><trkpt lat="43.5387918" lon="11.9738177"><ele>611.0</ele><time>2026-05-03T13:34:02.118Z</time></trkpt><trkpt lat="43.5388456" lon="11.9738882"><ele>611.0</ele><time>2026-05-03T13:34:03.112Z</time></trkpt><trkpt lat="43.5388997" lon="11.9739485"><ele>611.0</ele><time>2026-05-03T13:34:04.111Z</time></trkpt><trkpt lat="43.5389711" lon="11.974051"><ele>611.0</ele><time>2026-05-03T13:34:06.11Z</time></trkpt><trkpt lat="43.53901" lon="11.9741717"><ele>609.0</ele><time>2026-05-03T13:34:08.112Z</time></trkpt><trkpt lat="43.538998" lon="11.9743544"><ele>607.0</ele><time>2026-05-03T13:34:10.117Z</time></trkpt><trkpt lat="43.5389811" lon="11.9744664"><ele>605.0</ele><time>2026-05-03T13:34:11.125Z</time></trkpt><trkpt lat="43.5389736" lon="11.9745967"><ele>603.0</ele><time>2026-05-03T13:34:12.121Z</time></trkpt><trkpt lat="43.538966" lon="11.974765"><ele>601.0</ele><time>2026-05-03T13:34:13.115Z</time></trkpt><trkpt lat="43.5389703" lon="11.9749549"><ele>600.75</ele><time>2026-05-03T13:34:14.12Z</time></trkpt><trkpt lat="43.5389768" lon="11.97513"><ele>600.5</ele><time>2026-05-03T13:34:15.097Z</time></trkpt><trkpt lat="43.538982" lon="11.9752932"><ele>600.25</ele><time>2026-05-03T13:34:16.111Z</time></trkpt><trkpt lat="43.5389851" lon="11.9754454"><ele>600.0</ele><time>2026-05-03T13:34:17.113Z</time></trkpt><trkpt lat="43.5389851" lon="11.9755842"><ele>600.0</ele><time>2026-05-03T13:34:18.108Z</time></trkpt><trkpt lat="43.538985" lon="11.975708"><ele>600.0</ele><time>2026-05-03T13:34:19.108Z</time></trkpt><trkpt lat="43.5389889" lon="11.9758196"><ele>600.0</ele><time>2026-05-03T13:34:20.112Z</time></trkpt><trkpt lat="43.5389882" lon="11.9759133"><ele>600.0</ele><time>2026-05-03T13:34:21.113Z</time></trkpt><trkpt lat="43.5389863" lon="11.9760587"><ele>600.0</ele><time>2026-05-03T13:34:23.105Z</time></trkpt><trkpt lat="43.5390035" lon="11.9761446"><ele>600.0</ele><time>2026-05-03T13:34:25.117Z</time></trkpt><trkpt lat="43.5390482" lon="11.9762168"><ele>600.0</ele><time>2026-05-03T13:34:29.101Z</time></trkpt><trkpt lat="43.5390999" lon="11.976279"><ele>600.0</ele><time>2026-05-03T13:34:32.108Z</time></trkpt><trkpt lat="43.5390396" lon="11.9761854"><ele>600.0</ele><time>2026-05-03T13:34:42.113Z</time></trkpt><trkpt lat="43.5390157" lon="11.976101"><ele>600.0</ele><time>2026-05-03T13:34:44.128Z</time></trkpt><trkpt lat="43.5390519" lon="11.9760241"><ele>600.0</ele><time>2026-05-03T13:34:45.102Z</time></trkpt><trkpt lat="43.5390894" lon="11.9759158"><ele>600.0</ele><time>2026-05-03T13:34:46.116Z</time></trkpt><trkpt lat="43.5391254" lon="11.975813"><ele>600.0</ele><time>2026-05-03T13:34:47.107Z</time></trkpt><trkpt lat="43.5391675" lon="11.9757114"><ele>600.0</ele><time>2026-05-03T13:34:48.096Z</time></trkpt><trkpt lat="43.5392059" lon="11.9756036"><ele>600.0</ele><time>2026-05-03T13:34:49.102Z</time></trkpt><trkpt lat="43.5392487" lon="11.9754977"><ele>600.0</ele><time>2026-05-03T13:34:50.093Z</time></trkpt><trkpt lat="43.5392872" lon="11.9754162"><ele>600.0</ele><time>2026-05-03T13:34:51.101Z</time></trkpt><trkpt lat="43.5393238" lon="11.9753448"><ele>600.0</ele><time>2026-05-03T13:34:52.105Z</time></trkpt><trkpt lat="43.5394134" lon="11.9752875"><ele>600.0</ele><time>2026-05-03T13:34:54.117Z</time></trkpt><trkpt lat="43.5395495" lon="11.9752997"><ele>600.0</ele><time>2026-05-03T13:34:56.111Z</time></trkpt><trkpt lat="43.5396352" lon="11.9753145"><ele>600.0</ele><time>2026-05-03T13:34:57.116Z</time></trkpt><trkpt lat="43.5397262" lon="11.9753307"><ele>600.0</ele><time>2026-05-03T13:34:58.116Z</time></trkpt><trkpt lat="43.5398193" lon="11.9753536"><ele>600.0</ele><time>2026-05-03T13:34:59.108Z</time></trkpt><trkpt lat="43.5399079" lon="11.9753772"><ele>596.8</ele><time>2026-05-03T13:35:00.099Z</time></trkpt><trkpt lat="43.5400041" lon="11.9754127"><ele>593.6</ele><time>2026-05-03T13:35:01.101Z</time></trkpt><trkpt lat="43.5400974" lon="11.9754527"><ele>590.4</ele><time>2026-05-03T13:35:02.112Z</time></trkpt><trkpt lat="43.5401834" lon="11.9754954"><ele>587.2</ele><time>2026-05-03T13:35:03.108Z</time></trkpt><trkpt lat="43.5402632" lon="11.9755335"><ele>584.0</ele><time>2026-05-03T13:35:04.1Z</time></trkpt><trkpt lat="43.5403503" lon="11.9755811"><ele>581.5</ele><time>2026-05-03T13:35:05.116Z</time></trkpt><trkpt lat="43.5404487" lon="11.9756906"><ele>579.0</ele><time>2026-05-03T13:35:06.093Z</time></trkpt><trkpt lat="43.5405683" lon="11.9758316"><ele>576.5</ele><time>2026-05-03T13:35:07.094Z</time></trkpt><trkpt lat="43.5406798" lon="11.9759606"><ele>574.0</ele><time>2026-05-03T13:35:08.103Z</time></trkpt><trkpt lat="43.5407887" lon="11.9760705"><ele>574.0</ele><time>2026-05-03T13:35:09.09Z</time></trkpt><trkpt lat="43.5408915" lon="11.9761725"><ele>574.0</ele><time>2026-05-03T13:35:10.097Z</time></trkpt><trkpt lat="43.5409869" lon="11.9762701"><ele>574.0</ele><time>2026-05-03T13:35:11.114Z</time></trkpt><trkpt lat="43.5410849" lon="11.9763693"><ele>574.0</ele><time>2026-05-03T13:35:12.109Z</time></trkpt><trkpt lat="43.5411736" lon="11.9764828"><ele>574.25</ele><time>2026-05-03T13:35:13.105Z</time></trkpt><trkpt lat="43.5412658" lon="11.9765985"><ele>574.5</ele><time>2026-05-03T13:35:14.106Z</time></trkpt><trkpt lat="43.5413571" lon="11.9767484"><ele>574.75</ele><time>2026-05-03T13:35:15.103Z</time></trkpt><trkpt lat="43.5414605" lon="11.9768996"><ele>575.0</ele><time>2026-05-03T13:35:16.121Z</time></trkpt><trkpt lat="43.5415688" lon="11.9770559"><ele>576.6666666666666</ele><time>2026-05-03T13:35:17.1Z</time></trkpt><trkpt lat="43.5416817" lon="11.9772101"><ele>578.3333333333334</ele><time>2026-05-03T13:35:18.108Z</time></trkpt><trkpt lat="43.5417815" lon="11.9773581"><ele>580.0</ele><time>2026-05-03T13:35:19.088Z</time></trkpt><trkpt lat="43.5418843" lon="11.9775115"><ele>580.3333333333334</ele><time>2026-05-03T13:35:20.106Z</time></trkpt><trkpt lat="43.5419909" lon="11.9776959"><ele>580.6666666666666</ele><time>2026-05-03T13:35:21.097Z</time></trkpt><trkpt lat="43.5420942" lon="11.9778777"><ele>581.0</ele><time>2026-05-03T13:35:22.102Z</time></trkpt><trkpt lat="43.5421869" lon="11.978038"><ele>581.0</ele><time>2026-05-03T13:35:23.109Z</time></trkpt><trkpt lat="43.5422771" lon="11.9781845"><ele>581.0</ele><time>2026-05-03T13:35:24.115Z</time></trkpt><trkpt lat="43.5423699" lon="11.9783397"><ele>581.0</ele><time>2026-05-03T13:35:25.109Z</time></trkpt><trkpt lat="43.5424537" lon="11.9784835"><ele>581.0</ele><time>2026-05-03T13:35:26.085Z</time></trkpt><trkpt lat="43.5425418" lon="11.978624"><ele>580.75</ele><time>2026-05-03T13:35:27.094Z</time></trkpt><trkpt lat="43.5426367" lon="11.9787714"><ele>580.5</ele><time>2026-05-03T13:35:28.096Z</time></trkpt><trkpt lat="43.5427271" lon="11.9789094"><ele>580.25</ele><time>2026-05-03T13:35:29.101Z</time></trkpt><trkpt lat="43.542807" lon="11.9790347"><ele>580.0</ele><time>2026-05-03T13:35:30.107Z</time></trkpt><trkpt lat="43.5428787" lon="11.9791539"><ele>581.0</ele><time>2026-05-03T13:35:31.11Z</time></trkpt><trkpt lat="43.5429519" lon="11.9792728"><ele>582.0</ele><time>2026-05-03T13:35:32.117Z</time></trkpt><trkpt lat="43.5430301" lon="11.9793816"><ele>583.0</ele><time>2026-05-03T13:35:33.11Z</time></trkpt><trkpt lat="43.543114" lon="11.979496"><ele>584.0</ele><time>2026-05-03T13:35:34.112Z</time></trkpt><trkpt lat="43.5432038" lon="11.9796127"><ele>584.0</ele><time>2026-05-03T13:35:35.102Z</time></trkpt><trkpt lat="43.543294" lon="11.9797053"><ele>584.0</ele><time>2026-05-03T13:35:36.101Z</time></trkpt><trkpt lat="43.5433812" lon="11.9797961"><ele>584.0</ele><time>2026-05-03T13:35:37.108Z</time></trkpt><trkpt lat="43.5434655" lon="11.9798994"><ele>584.0</ele><time>2026-05-03T13:35:38.118Z</time></trkpt><trkpt lat="43.5435578" lon="11.9800349"><ele>583.4</ele><time>2026-05-03T13:35:39.108Z</time></trkpt><trkpt lat="43.5436464" lon="11.9801624"><ele>582.8</ele><time>2026-05-03T13:35:40.111Z</time></trkpt><trkpt lat="43.5437191" lon="11.9802658"><ele>582.2</ele><time>2026-05-03T13:35:41.121Z</time></trkpt><trkpt lat="43.5437684" lon="11.9803706"><ele>581.6</ele><time>2026-05-03T13:35:42.108Z</time></trkpt><trkpt lat="43.543804" lon="11.9804732"><ele>581.0</ele><time>2026-05-03T13:35:43.111Z</time></trkpt><trkpt lat="43.5438292" lon="11.9805904"><ele>582.25</ele><time>2026-05-03T13:35:44.114Z</time></trkpt><trkpt lat="43.5438524" lon="11.9807104"><ele>583.5</ele><time>2026-05-03T13:35:45.105Z</time></trkpt><trkpt lat="43.5438516" lon="11.9808716"><ele>584.75</ele><time>2026-05-03T13:35:46.115Z</time></trkpt><trkpt lat="43.543853" lon="11.9810569"><ele>586.0</ele><time>2026-05-03T13:35:47.091Z</time></trkpt><trkpt lat="43.5438527" lon="11.9812178"><ele>586.0</ele><time>2026-05-03T13:35:48.093Z</time></trkpt><trkpt lat="43.5438496" lon="11.9813646"><ele>586.0</ele><time>2026-05-03T13:35:49.114Z</time></trkpt><trkpt lat="43.5438473" lon="11.9815153"><ele>586.0</ele><time>2026-05-03T13:35:50.099Z</time></trkpt><trkpt lat="43.5438467" lon="11.9816569"><ele>586.0</ele><time>2026-05-03T13:35:51.106Z</time></trkpt><trkpt lat="43.5438438" lon="11.9818141"><ele>586.0</ele><time>2026-05-03T13:35:52.106Z</time></trkpt><trkpt lat="43.5438441" lon="11.9819724"><ele>585.6</ele><time>2026-05-03T13:35:53.1Z</time></trkpt><trkpt lat="43.5438474" lon="11.9821257"><ele>585.2</ele><time>2026-05-03T13:35:54.105Z</time></trkpt><trkpt lat="43.5438514" lon="11.9822648"><ele>584.8</ele><time>2026-05-03T13:35:55.116Z</time></trkpt><trkpt lat="43.5438567" lon="11.9823935"><ele>584.4</ele><time>2026-05-03T13:35:56.108Z</time></trkpt><trkpt lat="43.5438675" lon="11.9825262"><ele>584.0</ele><time>2026-05-03T13:35:57.106Z</time></trkpt><trkpt lat="43.5438877" lon="11.9826719"><ele>584.0</ele><time>2026-05-03T13:35:58.089Z</time></trkpt><trkpt lat="43.5439117" lon="11.9828216"><ele>584.0</ele><time>2026-05-03T13:35:59.107Z</time></trkpt><trkpt lat="43.5439367" lon="11.9829611"><ele>584.0</ele><time>2026-05-03T13:36:00.103Z</time></trkpt><trkpt lat="43.5439557" lon="11.9830895"><ele>584.0</ele><time>2026-05-03T13:36:01.096Z</time></trkpt><trkpt lat="43.5439708" lon="11.983201"><ele>584.0</ele><time>2026-05-03T13:36:02.103Z</time></trkpt><trkpt lat="43.5439843" lon="11.9833106"><ele>584.0</ele><time>2026-05-03T13:36:03.104Z</time></trkpt><trkpt lat="43.5439829" lon="11.9834137"><ele>584.0</ele><time>2026-05-03T13:36:04.105Z</time></trkpt><trkpt lat="43.5439696" lon="11.9835122"><ele>584.0</ele><time>2026-05-03T13:36:05.095Z</time></trkpt><trkpt lat="43.5439485" lon="11.9836234"><ele>584.0</ele><time>2026-05-03T13:36:06.1Z</time></trkpt><trkpt lat="43.5439304" lon="11.9837308"><ele>584.0</ele><time>2026-05-03T13:36:07.103Z</time></trkpt><trkpt lat="43.5439174" lon="11.9838184"><ele>584.0</ele><time>2026-05-03T13:36:08.11Z</time></trkpt><trkpt lat="43.5439003" lon="11.9839027"><ele>584.0</ele><time>2026-05-03T13:36:09.099Z</time></trkpt><trkpt lat="43.5438698" lon="11.9840038"><ele>584.0</ele><time>2026-05-03T13:36:10.116Z</time></trkpt><trkpt lat="43.543845" lon="11.9841054"><ele>584.0</ele><time>2026-05-03T13:36:11.112Z</time></trkpt><trkpt lat="43.5438209" lon="11.9841909"><ele>584.0</ele><time>2026-05-03T13:36:12.108Z</time></trkpt><trkpt lat="43.5437841" lon="11.9842786"><ele>584.0</ele><time>2026-05-03T13:36:13.098Z</time></trkpt><trkpt lat="43.5437285" lon="11.984372"><ele>584.0</ele><time>2026-05-03T13:36:14.103Z</time></trkpt><trkpt lat="43.5436654" lon="11.9844693"><ele>584.0</ele><time>2026-05-03T13:36:15.118Z</time></trkpt><trkpt lat="43.543612" lon="11.9845614"><ele>582.5</ele><time>2026-05-03T13:36:16.104Z</time></trkpt><trkpt lat="43.5435708" lon="11.9846534"><ele>581.0</ele><time>2026-05-03T13:36:17.115Z</time></trkpt><trkpt lat="43.5435238" lon="11.9847479"><ele>579.5</ele><time>2026-05-03T13:36:18.102Z</time></trkpt><trkpt lat="43.543496" lon="11.9848715"><ele>578.0</ele><time>2026-05-03T13:36:19.096Z</time></trkpt><trkpt lat="43.5434711" lon="11.9849857"><ele>576.5</ele><time>2026-05-03T13:36:20.097Z</time></trkpt><trkpt lat="43.5434528" lon="11.9850887"><ele>575.0</ele><time>2026-05-03T13:36:21.102Z</time></trkpt><trkpt lat="43.5434573" lon="11.9851934"><ele>574.1666666666666</ele><time>2026-05-03T13:36:22.103Z</time></trkpt><trkpt lat="43.543468" lon="11.9853077"><ele>573.3333333333333</ele><time>2026-05-03T13:36:23.106Z</time></trkpt><trkpt lat="43.5434844" lon="11.9854268"><ele>572.5</ele><time>2026-05-03T13:36:24.116Z</time></trkpt><trkpt lat="43.5434998" lon="11.9855335"><ele>571.6666666666666</ele><time>2026-05-03T13:36:25.109Z</time></trkpt><trkpt lat="43.5435126" lon="11.9856512"><ele>570.8333333333334</ele><time>2026-05-03T13:36:26.11Z</time></trkpt><trkpt lat="43.5435052" lon="11.9857897"><ele>570.0</ele><time>2026-05-03T13:36:27.092Z</time></trkpt><trkpt lat="43.5435081" lon="11.9859002"><ele>568.8333333333334</ele><time>2026-05-03T13:36:28.103Z</time></trkpt><trkpt lat="43.5435163" lon="11.9859917"><ele>567.6666666666666</ele><time>2026-05-03T13:36:29.105Z</time></trkpt><trkpt lat="43.5435224" lon="11.9860879"><ele>566.5</ele><time>2026-05-03T13:36:30.102Z</time></trkpt><trkpt lat="43.5435267" lon="11.9861858"><ele>565.3333333333333</ele><time>2026-05-03T13:36:31.101Z</time></trkpt><trkpt lat="43.5435286" lon="11.9862798"><ele>564.1666666666666</ele><time>2026-05-03T13:36:32.12Z</time></trkpt><trkpt lat="43.5435066" lon="11.9864283"><ele>563.0</ele><time>2026-05-03T13:36:34.121Z</time></trkpt><trkpt lat="43.5434685" lon="11.9865515"><ele>563.0</ele><time>2026-05-03T13:36:36.109Z</time></trkpt><trkpt lat="43.5434036" lon="11.9866764"><ele>563.0</ele><time>2026-05-03T13:36:38.114Z</time></trkpt><trkpt lat="43.5433524" lon="11.9867341"><ele>563.0</ele><time>2026-05-03T13:36:39.104Z</time></trkpt><trkpt lat="43.5432918" lon="11.9867941"><ele>563.0</ele><time>2026-05-03T13:36:40.137Z</time></trkpt><trkpt lat="43.543237" lon="11.9868772"><ele>563.0</ele><time>2026-05-03T13:36:41.102Z</time></trkpt><trkpt lat="43.5431867" lon="11.9869689"><ele>563.0</ele><time>2026-05-03T13:36:42.109Z</time></trkpt><trkpt lat="43.5431386" lon="11.9870571"><ele>562.3333333333333</ele><time>2026-05-03T13:36:43.092Z</time></trkpt><trkpt lat="43.5430931" lon="11.9871393"><ele>561.6666666666666</ele><time>2026-05-03T13:36:44.106Z</time></trkpt><trkpt lat="43.5430472" lon="11.9872243"><ele>561.0</ele><time>2026-05-03T13:36:45.11Z</time></trkpt><trkpt lat="43.5430128" lon="11.9873301"><ele>560.3333333333334</ele><time>2026-05-03T13:36:46.098Z</time></trkpt><trkpt lat="43.5429735" lon="11.9874281"><ele>559.6666666666667</ele><time>2026-05-03T13:36:47.1Z</time></trkpt><trkpt lat="43.5429505" lon="11.9875544"><ele>559.0</ele><time>2026-05-03T13:36:48.093Z</time></trkpt><trkpt lat="43.5428947" lon="11.9876771"><ele>558.6</ele><time>2026-05-03T13:36:49.112Z</time></trkpt><trkpt lat="43.5428383" lon="11.9877921"><ele>558.2</ele><time>2026-05-03T13:36:50.11Z</time></trkpt><trkpt lat="43.5427887" lon="11.9878945"><ele>557.8000000000001</ele><time>2026-05-03T13:36:51.115Z</time></trkpt><trkpt lat="43.5427358" lon="11.9880087"><ele>557.4</ele><time>2026-05-03T13:36:52.102Z</time></trkpt><trkpt lat="43.5426882" lon="11.9881102"><ele>557.0</ele><time>2026-05-03T13:36:53.117Z</time></trkpt><trkpt lat="43.5426431" lon="11.9882051"><ele>557.0</ele><time>2026-05-03T13:36:54.103Z</time></trkpt><trkpt lat="43.5425983" lon="11.9883008"><ele>557.0</ele><time>2026-05-03T13:36:55.1Z</time></trkpt><trkpt lat="43.5425561" lon="11.988408"><ele>557.0</ele><time>2026-05-03T13:36:56.108Z</time></trkpt><trkpt lat="43.5425148" lon="11.9885115"><ele>557.0</ele><time>2026-05-03T13:36:57.11Z</time></trkpt><trkpt lat="43.5424817" lon="11.9886157"><ele>557.0</ele><time>2026-05-03T13:36:58.096Z</time></trkpt><trkpt lat="43.542455" lon="11.9886961"><ele>557.0</ele><time>2026-05-03T13:36:59.103Z</time></trkpt><trkpt lat="43.5424191" lon="11.9887971"><ele>556.1666666666666</ele><time>2026-05-03T13:37:01.1Z</time></trkpt><trkpt lat="43.5424137" lon="11.9889199"><ele>555.3333333333333</ele><time>2026-05-03T13:37:04.109Z</time></trkpt><trkpt lat="43.5424363" lon="11.9890715"><ele>554.5</ele><time>2026-05-03T13:37:06.098Z</time></trkpt><trkpt lat="43.5424224" lon="11.9891663"><ele>553.6666666666666</ele><time>2026-05-03T13:37:07.11Z</time></trkpt><trkpt lat="43.5424103" lon="11.9892579"><ele>552.8333333333334</ele><time>2026-05-03T13:37:08.1Z</time></trkpt><trkpt lat="43.5423997" lon="11.9893532"><ele>552.0</ele><time>2026-05-03T13:37:09.097Z</time></trkpt><trkpt lat="43.5424065" lon="11.9895114"><ele>551.2857142857143</ele><time>2026-05-03T13:37:11.114Z</time></trkpt><trkpt lat="43.5424233" lon="11.9896006"><ele>550.5714285714287</ele><time>2026-05-03T13:37:13.132Z</time></trkpt><trkpt lat="43.5424387" lon="11.9896878"><ele>549.8571428571429</ele><time>2026-05-03T13:37:23.112Z</time></trkpt><trkpt lat="43.542471" lon="11.9897776"><ele>549.1428571428571</ele><time>2026-05-03T13:37:25.132Z</time></trkpt><trkpt lat="43.5424998" lon="11.989876"><ele>548.4285714285713</ele><time>2026-05-03T13:37:27.107Z</time></trkpt><trkpt lat="43.5425132" lon="11.9900104"><ele>547.7142857142857</ele><time>2026-05-03T13:37:29.11Z</time></trkpt><trkpt lat="43.5425012" lon="11.9901033"><ele>547.0</ele><time>2026-05-03T13:37:30.113Z</time></trkpt><trkpt lat="43.5424837" lon="11.9902025"><ele>546.6666666666667</ele><time>2026-05-03T13:37:31.106Z</time></trkpt><trkpt lat="43.5424609" lon="11.9902912"><ele>546.3333333333334</ele><time>2026-05-03T13:37:32.1Z</time></trkpt><trkpt lat="43.542423" lon="11.9903824"><ele>546.0</ele><time>2026-05-03T13:37:33.1Z</time></trkpt><trkpt lat="43.5423903" lon="11.99047"><ele>545.6666666666666</ele><time>2026-05-03T13:37:34.086Z</time></trkpt><trkpt lat="43.5423655" lon="11.9905577"><ele>545.3333333333333</ele><time>2026-05-03T13:37:35.093Z</time></trkpt><trkpt lat="43.5423643" lon="11.990702"><ele>545.0</ele><time>2026-05-03T13:37:37.108Z</time></trkpt><trkpt lat="43.5423644" lon="11.9907972"><ele>544.2857142857143</ele><time>2026-05-03T13:37:38.094Z</time></trkpt><trkpt lat="43.5423787" lon="11.9908998"><ele>543.5714285714287</ele><time>2026-05-03T13:37:39.122Z</time></trkpt><trkpt lat="43.5423959" lon="11.990996"><ele>542.8571428571429</ele><time>2026-05-03T13:37:40.11Z</time></trkpt><trkpt lat="43.542423" lon="11.9910781"><ele>542.1428571428571</ele><time>2026-05-03T13:37:41.117Z</time></trkpt><trkpt lat="43.542446" lon="11.9911642"><ele>541.4285714285713</ele><time>2026-05-03T13:37:42.103Z</time></trkpt><trkpt lat="43.5424694" lon="11.9912535"><ele>540.7142857142857</ele><time>2026-05-03T13:37:43.103Z</time></trkpt><trkpt lat="43.5424893" lon="11.9913369"><ele>540.0</ele><time>2026-05-03T13:37:44.096Z</time></trkpt><trkpt lat="43.5424851" lon="11.9914898"><ele>540.0</ele><time>2026-05-03T13:37:46.109Z</time></trkpt><trkpt lat="43.5424972" lon="11.9916345"><ele>540.0</ele><time>2026-05-03T13:37:48.11Z</time></trkpt><trkpt lat="43.5425137" lon="11.9917514"><ele>540.0</ele><time>2026-05-03T13:37:50.115Z</time></trkpt><trkpt lat="43.542509" lon="11.9918476"><ele>540.0</ele><time>2026-05-03T13:37:52.118Z</time></trkpt><trkpt lat="43.5424839" lon="11.9919388"><ele>540.0</ele><time>2026-05-03T13:37:54.113Z</time></trkpt><trkpt lat="43.5424222" lon="11.9920282"><ele>540.0</ele><time>2026-05-03T13:37:56.097Z</time></trkpt><trkpt lat="43.5423767" lon="11.99211"><ele>537.8</ele><time>2026-05-03T13:37:58.115Z</time></trkpt><trkpt lat="43.5423297" lon="11.9921849"><ele>535.6</ele><time>2026-05-03T13:38:01.105Z</time></trkpt><trkpt lat="43.5422689" lon="11.992292"><ele>533.4</ele><time>2026-05-03T13:38:04.122Z</time></trkpt><trkpt lat="43.5422312" lon="11.9923761"><ele>531.2</ele><time>2026-05-03T13:38:06.093Z</time></trkpt><trkpt lat="43.5421889" lon="11.9925059"><ele>529.0</ele><time>2026-05-03T13:38:08.09Z</time></trkpt><trkpt lat="43.5421614" lon="11.9926673"><ele>526.6666666666667</ele><time>2026-05-03T13:38:10.103Z</time></trkpt><trkpt lat="43.5421435" lon="11.9927602"><ele>524.3333333333334</ele><time>2026-05-03T13:38:11.105Z</time></trkpt><trkpt lat="43.5421351" lon="11.9928502"><ele>522.0</ele><time>2026-05-03T13:38:12.117Z</time></trkpt><trkpt lat="43.5421205" lon="11.9930224"><ele>519.6666666666666</ele><time>2026-05-03T13:38:14.096Z</time></trkpt><trkpt lat="43.5421136" lon="11.9931127"><ele>517.3333333333333</ele><time>2026-05-03T13:38:15.101Z</time></trkpt><trkpt lat="43.5421004" lon="11.9932143"><ele>515.0</ele><time>2026-05-03T13:38:16.097Z</time></trkpt><trkpt lat="43.5420757" lon="11.9933919"><ele>515.0</ele><time>2026-05-03T13:38:18.109Z</time></trkpt><trkpt lat="43.5420555" lon="11.9935205"><ele>515.0</ele><time>2026-05-03T13:38:19.095Z</time></trkpt><trkpt lat="43.5420374" lon="11.9936481"><ele>515.0</ele><time>2026-05-03T13:38:20.101Z</time></trkpt><trkpt lat="43.5420315" lon="11.9937834"><ele>515.0</ele><time>2026-05-03T13:38:21.1Z</time></trkpt><trkpt lat="43.542027" lon="11.9939055"><ele>515.0</ele><time>2026-05-03T13:38:22.104Z</time></trkpt><trkpt lat="43.5420247" lon="11.9940198"><ele>515.0</ele><time>2026-05-03T13:38:23.116Z</time></trkpt><trkpt lat="43.5420229" lon="11.9941241"><ele>515.0</ele><time>2026-05-03T13:38:24.103Z</time></trkpt><trkpt lat="43.5420211" lon="11.9942203"><ele>515.0</ele><time>2026-05-03T13:38:25.106Z</time></trkpt><trkpt lat="43.5420167" lon="11.9943144"><ele>515.0</ele><time>2026-05-03T13:38:26.102Z</time></trkpt><trkpt lat="43.5420145" lon="11.9944057"><ele>515.0</ele><time>2026-05-03T13:38:27.112Z</time></trkpt><trkpt lat="43.5420161" lon="11.9944987"><ele>515.0</ele><time>2026-05-03T13:38:28.144Z</time></trkpt><trkpt lat="43.5420159" lon="11.9945937"><ele>515.0</ele><time>2026-05-03T13:38:29.105Z</time></trkpt><trkpt lat="43.5420166" lon="11.9946869"><ele>513.6666666666666</ele><time>2026-05-03T13:38:30.099Z</time></trkpt><trkpt lat="43.5420136" lon="11.9947781"><ele>512.3333333333333</ele><time>2026-05-03T13:38:31.107Z</time></trkpt><trkpt lat="43.5420097" lon="11.9948649"><ele>511.0</ele><time>2026-05-03T13:38:32.11Z</time></trkpt><trkpt lat="43.5419998" lon="11.9950426"><ele>509.66666666666663</ele><time>2026-05-03T13:38:34.11Z</time></trkpt><trkpt lat="43.5420124" lon="11.9951305"><ele>508.3333333333333</ele><time>2026-05-03T13:38:35.109Z</time></trkpt><trkpt lat="43.542034" lon="11.9952222"><ele>507.0</ele><time>2026-05-03T13:38:36.115Z</time></trkpt><trkpt lat="43.5420583" lon="11.9953212"><ele>505.1666666666667</ele><time>2026-05-03T13:38:37.101Z</time></trkpt><trkpt lat="43.542079" lon="11.9954176"><ele>503.33333333333337</ele><time>2026-05-03T13:38:38.113Z</time></trkpt><trkpt lat="43.5420933" lon="11.9955615"><ele>501.5</ele><time>2026-05-03T13:38:40.093Z</time></trkpt><trkpt lat="43.5420393" lon="11.9957008"><ele>499.6666666666667</ele><time>2026-05-03T13:38:42.107Z</time></trkpt><trkpt lat="43.5420036" lon="11.9957833"><ele>497.83333333333337</ele><time>2026-05-03T13:38:43.102Z</time></trkpt><trkpt lat="43.541971" lon="11.9958606"><ele>496.0</ele><time>2026-05-03T13:38:44.114Z</time></trkpt><trkpt lat="43.5419351" lon="11.995938"><ele>493.83333333333337</ele><time>2026-05-03T13:38:45.106Z</time></trkpt><trkpt lat="43.5418931" lon="11.9960067"><ele>491.6666666666667</ele><time>2026-05-03T13:38:46.114Z</time></trkpt><trkpt lat="43.5418375" lon="11.9960624"><ele>489.5</ele><time>2026-05-03T13:38:47.101Z</time></trkpt><trkpt lat="43.5417758" lon="11.9961646"><ele>487.33333333333337</ele><time>2026-05-03T13:38:49.104Z</time></trkpt><trkpt lat="43.541746" lon="11.9962938"><ele>485.1666666666667</ele><time>2026-05-03T13:38:51.09Z</time></trkpt><trkpt lat="43.5417444" lon="11.9964171"><ele>483.0</ele><time>2026-05-03T13:38:53.105Z</time></trkpt><trkpt lat="43.5417609" lon="11.9965606"><ele>480.75</ele><time>2026-05-03T13:38:55.088Z</time></trkpt><trkpt lat="43.5417654" lon="11.9967211"><ele>478.5</ele><time>2026-05-03T13:38:57.091Z</time></trkpt><trkpt lat="43.5417509" lon="11.9968807"><ele>476.25</ele><time>2026-05-03T13:38:59.109Z</time></trkpt><trkpt lat="43.5417447" lon="11.9970203"><ele>474.0</ele><time>2026-05-03T13:39:01.117Z</time></trkpt><trkpt lat="43.5417727" lon="11.9971938"><ele>474.0</ele><time>2026-05-03T13:39:03.105Z</time></trkpt><trkpt lat="43.5418016" lon="11.9972972"><ele>474.0</ele><time>2026-05-03T13:39:04.109Z</time></trkpt><trkpt lat="43.5418307" lon="11.9974109"><ele>474.0</ele><time>2026-05-03T13:39:05.104Z</time></trkpt><trkpt lat="43.5418599" lon="11.9975244"><ele>474.0</ele><time>2026-05-03T13:39:06.117Z</time></trkpt><trkpt lat="43.5418889" lon="11.9976428"><ele>474.0</ele><time>2026-05-03T13:39:07.103Z</time></trkpt><trkpt lat="43.541918" lon="11.9977676"><ele>474.0</ele><time>2026-05-03T13:39:08.1Z</time></trkpt><trkpt lat="43.5419403" lon="11.9979068"><ele>473.5</ele><time>2026-05-03T13:39:09.09Z</time></trkpt><trkpt lat="43.5419647" lon="11.9980439"><ele>473.0</ele><time>2026-05-03T13:39:10.105Z</time></trkpt><trkpt lat="43.5419916" lon="11.9981738"><ele>472.5</ele><time>2026-05-03T13:39:11.105Z</time></trkpt><trkpt lat="43.5420142" lon="11.9982929"><ele>472.0</ele><time>2026-05-03T13:39:12.098Z</time></trkpt><trkpt lat="43.5420296" lon="11.9983955"><ele>471.5</ele><time>2026-05-03T13:39:13.112Z</time></trkpt><trkpt lat="43.5420359" lon="11.9984958"><ele>471.0</ele><time>2026-05-03T13:39:15.106Z</time></trkpt><trkpt lat="43.5420481" lon="11.9986358"><ele>470.8</ele><time>2026-05-03T13:39:20.113Z</time></trkpt><trkpt lat="43.5420555" lon="11.9987611"><ele>470.6</ele><time>2026-05-03T13:39:22.093Z</time></trkpt><trkpt lat="43.5420516" lon="11.9988856"><ele>470.4</ele><time>2026-05-03T13:39:24.113Z</time></trkpt><trkpt lat="43.5419998" lon="11.9990299"><ele>470.2</ele><time>2026-05-03T13:39:26.095Z</time></trkpt><trkpt lat="43.5419236" lon="11.9991654"><ele>470.0</ele><time>2026-05-03T13:39:28.103Z</time></trkpt><trkpt lat="43.5418388" lon="11.999281"><ele>469.99999999999994</ele><time>2026-05-03T13:39:30.113Z</time></trkpt><trkpt lat="43.5417628" lon="11.999408"><ele>470.0</ele><time>2026-05-03T13:39:32.107Z</time></trkpt><trkpt lat="43.541731" lon="11.9994948"><ele>470.0</ele><time>2026-05-03T13:39:33.102Z</time></trkpt><trkpt lat="43.5416943" lon="11.9995863"><ele>470.0</ele><time>2026-05-03T13:39:34.12Z</time></trkpt><trkpt lat="43.5416665" lon="11.999676"><ele>469.99999999999994</ele><time>2026-05-03T13:39:35.098Z</time></trkpt><trkpt lat="43.5416408" lon="11.9997707"><ele>470.0</ele><time>2026-05-03T13:39:36.109Z</time></trkpt><trkpt lat="43.5416189" lon="11.9998654"><ele>470.0</ele><time>2026-05-03T13:39:37.106Z</time></trkpt><trkpt lat="43.5415973" lon="11.9999513"><ele>469.99999999999994</ele><time>2026-05-03T13:39:38.104Z</time></trkpt><trkpt lat="43.5415802" lon="12.0000386"><ele>470.0</ele><time>2026-05-03T13:39:39.113Z</time></trkpt><trkpt lat="43.5415621" lon="12.0001945"><ele>470.0</ele><time>2026-05-03T13:39:41.11Z</time></trkpt><trkpt lat="43.5415542" lon="12.0002828"><ele>469.99999999999994</ele><time>2026-05-03T13:39:42.104Z</time></trkpt><trkpt lat="43.54155" lon="12.0003754"><ele>470.0</ele><time>2026-05-03T13:39:43.11Z</time></trkpt><trkpt lat="43.5415474" lon="12.0004689"><ele>470.0</ele><time>2026-05-03T13:39:44.122Z</time></trkpt><trkpt lat="43.5415465" lon="12.0005677"><ele>469.99999999999994</ele><time>2026-05-03T13:39:45.097Z</time></trkpt><trkpt lat="43.5415454" lon="12.0006722"><ele>470.0</ele><time>2026-05-03T13:39:46.107Z</time></trkpt><trkpt lat="43.5415431" lon="12.0007804"><ele>470.0</ele><time>2026-05-03T13:39:47.101Z</time></trkpt><trkpt lat="43.5415407" lon="12.0008923"><ele>470.0</ele><time>2026-05-03T13:39:48.111Z</time></trkpt><trkpt lat="43.5415363" lon="12.0010068"><ele>469.99999999999994</ele><time>2026-05-03T13:39:49.094Z</time></trkpt><trkpt lat="43.5415306" lon="12.0011232"><ele>470.0</ele><time>2026-05-03T13:39:50.117Z</time></trkpt><trkpt lat="43.5415263" lon="12.0012404"><ele>469.66666666666663</ele><time>2026-05-03T13:39:51.105Z</time></trkpt><trkpt lat="43.5415218" lon="12.0013547"><ele>469.3333333333333</ele><time>2026-05-03T13:39:52.093Z</time></trkpt><trkpt lat="43.5415189" lon="12.0014625"><ele>469.0</ele><time>2026-05-03T13:39:53.103Z</time></trkpt><trkpt lat="43.5415161" lon="12.0015737"><ele>468.66666666666663</ele><time>2026-05-03T13:39:54.112Z</time></trkpt><trkpt lat="43.541511" lon="12.0016889"><ele>468.3333333333333</ele><time>2026-05-03T13:39:55.102Z</time></trkpt><trkpt lat="43.5415084" lon="12.0018038"><ele>468.0</ele><time>2026-05-03T13:39:56.108Z</time></trkpt><trkpt lat="43.5415076" lon="12.0019167"><ele>467.5</ele><time>2026-05-03T13:39:57.105Z</time></trkpt><trkpt lat="43.5415077" lon="12.0020209"><ele>467.0</ele><time>2026-05-03T13:39:58.102Z</time></trkpt><trkpt lat="43.5415121" lon="12.0021194"><ele>466.5</ele><time>2026-05-03T13:39:59.107Z</time></trkpt><trkpt lat="43.5415249" lon="12.0022171"><ele>466.0</ele><time>2026-05-03T13:40:00.102Z</time></trkpt><trkpt lat="43.5415445" lon="12.0023177"><ele>465.5</ele><time>2026-05-03T13:40:01.104Z</time></trkpt><trkpt lat="43.5415687" lon="12.0024237"><ele>465.0</ele><time>2026-05-03T13:40:02.137Z</time></trkpt><trkpt lat="43.541592" lon="12.0025361"><ele>465.0</ele><time>2026-05-03T13:40:03.108Z</time></trkpt><trkpt lat="43.5416143" lon="12.0026419"><ele>465.0</ele><time>2026-05-03T13:40:04.105Z</time></trkpt><trkpt lat="43.5416368" lon="12.0027296"><ele>465.0</ele><time>2026-05-03T13:40:05.098Z</time></trkpt><trkpt lat="43.5416594" lon="12.0028138"><ele>465.0</ele><time>2026-05-03T13:40:06.107Z</time></trkpt><trkpt lat="43.5416852" lon="12.0028954"><ele>465.0</ele><time>2026-05-03T13:40:07.106Z</time></trkpt><trkpt lat="43.5417478" lon="12.0030305"><ele>465.0</ele><time>2026-05-03T13:40:09.113Z</time></trkpt><trkpt lat="43.5418449" lon="12.0031284"><ele>465.0</ele><time>2026-05-03T13:40:11.119Z</time></trkpt><trkpt lat="43.5419153" lon="12.003171"><ele>465.0</ele><time>2026-05-03T13:40:12.097Z</time></trkpt><trkpt lat="43.5419856" lon="12.0032125"><ele>465.0</ele><time>2026-05-03T13:40:13.111Z</time></trkpt><trkpt lat="43.5420591" lon="12.0032559"><ele>465.0</ele><time>2026-05-03T13:40:14.106Z</time></trkpt><trkpt lat="43.5421323" lon="12.0032964"><ele>465.0</ele><time>2026-05-03T13:40:15.094Z</time></trkpt><trkpt lat="43.5422043" lon="12.0033281"><ele>465.0</ele><time>2026-05-03T13:40:16.126Z</time></trkpt><trkpt lat="43.5422895" lon="12.0033585"><ele>467.25</ele><time>2026-05-03T13:40:17.102Z</time></trkpt><trkpt lat="43.5423966" lon="12.0033768"><ele>469.5</ele><time>2026-05-03T13:40:18.113Z</time></trkpt><trkpt lat="43.5425286" lon="12.0033994"><ele>471.75</ele><time>2026-05-03T13:40:19.116Z</time></trkpt><trkpt lat="43.542655" lon="12.0034184"><ele>474.0</ele><time>2026-05-03T13:40:20.104Z</time></trkpt><trkpt lat="43.5427777" lon="12.0034489"><ele>472.0</ele><time>2026-05-03T13:40:21.124Z</time></trkpt><trkpt lat="43.5428904" lon="12.0034844"><ele>470.0</ele><time>2026-05-03T13:40:22.097Z</time></trkpt><trkpt lat="43.542998" lon="12.0035321"><ele>468.0</ele><time>2026-05-03T13:40:23.105Z</time></trkpt><trkpt lat="43.543095" lon="12.0035744"><ele>466.0</ele><time>2026-05-03T13:40:24.098Z</time></trkpt><trkpt lat="43.5431768" lon="12.0036179"><ele>464.0</ele><time>2026-05-03T13:40:25.104Z</time></trkpt><trkpt lat="43.5432524" lon="12.0036594"><ele>463.99999999999994</ele><time>2026-05-03T13:40:26.11Z</time></trkpt><trkpt lat="43.5433097" lon="12.0037029"><ele>464.0</ele><time>2026-05-03T13:40:27.108Z</time></trkpt><trkpt lat="43.5433654" lon="12.0037549"><ele>464.0</ele><time>2026-05-03T13:40:28.104Z</time></trkpt><trkpt lat="43.5434472" lon="12.0038404"><ele>464.0</ele><time>2026-05-03T13:40:30.096Z</time></trkpt><trkpt lat="43.5435125" lon="12.003897"><ele>463.99999999999994</ele><time>2026-05-03T13:40:32.113Z</time></trkpt><trkpt lat="43.5435696" lon="12.0039465"><ele>464.0</ele><time>2026-05-03T13:40:34.128Z</time></trkpt><trkpt lat="43.5436475" lon="12.0039986"><ele>464.2</ele><time>2026-05-03T13:40:36.109Z</time></trkpt><trkpt lat="43.5437337" lon="12.0040637"><ele>464.4</ele><time>2026-05-03T13:40:38.106Z</time></trkpt><trkpt lat="43.5438298" lon="12.0041375"><ele>464.6</ele><time>2026-05-03T13:40:40.106Z</time></trkpt><trkpt lat="43.543881" lon="12.0041946"><ele>464.8</ele><time>2026-05-03T13:40:41.107Z</time></trkpt><trkpt lat="43.5439684" lon="12.0043087"><ele>465.0</ele><time>2026-05-03T13:40:43.122Z</time></trkpt><trkpt lat="43.5440452" lon="12.0044429"><ele>465.0</ele><time>2026-05-03T13:40:45.092Z</time></trkpt><trkpt lat="43.5440892" lon="12.0045276"><ele>465.0</ele><time>2026-05-03T13:40:46.102Z</time></trkpt><trkpt lat="43.5441307" lon="12.0046003"><ele>465.0</ele><time>2026-05-03T13:40:47.112Z</time></trkpt><trkpt lat="43.5441677" lon="12.0046759"><ele>465.0</ele><time>2026-05-03T13:40:48.113Z</time></trkpt><trkpt lat="43.5441952" lon="12.0047613"><ele>465.0</ele><time>2026-05-03T13:40:49.107Z</time></trkpt><trkpt lat="43.5442063" lon="12.0048546"><ele>465.0</ele><time>2026-05-03T13:40:50.113Z</time></trkpt><trkpt lat="43.5442045" lon="12.0049481"><ele>465.0</ele><time>2026-05-03T13:40:51.112Z</time></trkpt><trkpt lat="43.5441709" lon="12.005109"><ele>467.2</ele><time>2026-05-03T13:40:53.098Z</time></trkpt><trkpt lat="43.5441425" lon="12.0051885"><ele>469.4</ele><time>2026-05-03T13:40:54.104Z</time></trkpt><trkpt lat="43.5440928" lon="12.0053299"><ele>471.6</ele><time>2026-05-03T13:40:56.089Z</time></trkpt><trkpt lat="43.5440656" lon="12.0054667"><ele>473.8</ele><time>2026-05-03T13:40:58.115Z</time></trkpt><trkpt lat="43.5441008" lon="12.0056017"><ele>476.0</ele><time>2026-05-03T13:41:00.11Z</time></trkpt><trkpt lat="43.5440992" lon="12.0057582"><ele>475.66666666666663</ele><time>2026-05-03T13:41:02.115Z</time></trkpt><trkpt lat="43.5440834" lon="12.0058537"><ele>475.3333333333333</ele><time>2026-05-03T13:41:03.103Z</time></trkpt><trkpt lat="43.5440661" lon="12.0059516"><ele>475.0</ele><time>2026-05-03T13:41:04.122Z</time></trkpt><trkpt lat="43.5440645" lon="12.006056"><ele>474.66666666666663</ele><time>2026-05-03T13:41:05.11Z</time></trkpt><trkpt lat="43.5440857" lon="12.0061736"><ele>474.3333333333333</ele><time>2026-05-03T13:41:06.105Z</time></trkpt><trkpt lat="43.5441305" lon="12.0063021"><ele>474.0</ele><time>2026-05-03T13:41:07.107Z</time></trkpt><trkpt lat="43.5441971" lon="12.0064792"><ele>472.75</ele><time>2026-05-03T13:41:08.11Z</time></trkpt><trkpt lat="43.5442533" lon="12.0066749"><ele>471.5</ele><time>2026-05-03T13:41:09.109Z</time></trkpt><trkpt lat="43.5442912" lon="12.0068898"><ele>470.25</ele><time>2026-05-03T13:41:10.1Z</time></trkpt><trkpt lat="43.5443189" lon="12.0070634"><ele>469.0</ele><time>2026-05-03T13:41:11.099Z</time></trkpt><trkpt lat="43.5443533" lon="12.0072005"><ele>469.00000000000006</ele><time>2026-05-03T13:41:12.101Z</time></trkpt><trkpt lat="43.5443975" lon="12.0073033"><ele>469.0</ele><time>2026-05-03T13:41:13.109Z</time></trkpt><trkpt lat="43.5444616" lon="12.0073848"><ele>469.0</ele><time>2026-05-03T13:41:14.11Z</time></trkpt><trkpt lat="43.5445366" lon="12.0074462"><ele>469.0</ele><time>2026-05-03T13:41:15.158Z</time></trkpt><trkpt lat="43.5446124" lon="12.0074958"><ele>469.00000000000006</ele><time>2026-05-03T13:41:16.107Z</time></trkpt><trkpt lat="43.544683" lon="12.007539"><ele>469.0</ele><time>2026-05-03T13:41:17.104Z</time></trkpt><trkpt lat="43.5447458" lon="12.0075851"><ele>466.50000000000006</ele><time>2026-05-03T13:41:18.11Z</time></trkpt><trkpt lat="43.5448147" lon="12.0076524"><ele>464.0</ele><time>2026-05-03T13:41:19.098Z</time></trkpt><trkpt lat="43.5448692" lon="12.0077545"><ele>461.5</ele><time>2026-05-03T13:41:20.11Z</time></trkpt><trkpt lat="43.544907" lon="12.0078546"><ele>459.0</ele><time>2026-05-03T13:41:21.096Z</time></trkpt><trkpt lat="43.5449407" lon="12.0079515"><ele>456.50000000000006</ele><time>2026-05-03T13:41:22.104Z</time></trkpt><trkpt lat="43.5449708" lon="12.0080636"><ele>454.0</ele><time>2026-05-03T13:41:23.111Z</time></trkpt><trkpt lat="43.5449831" lon="12.0081876"><ele>454.00000000000006</ele><time>2026-05-03T13:41:24.114Z</time></trkpt><trkpt lat="43.5449833" lon="12.0083104"><ele>454.0</ele><time>2026-05-03T13:41:25.107Z</time></trkpt><trkpt lat="43.5449791" lon="12.0084212"><ele>454.0</ele><time>2026-05-03T13:41:26.097Z</time></trkpt><trkpt lat="43.5449726" lon="12.0085316"><ele>454.0</ele><time>2026-05-03T13:41:27.104Z</time></trkpt><trkpt lat="43.5449691" lon="12.0086313"><ele>454.00000000000006</ele><time>2026-05-03T13:41:28.1Z</time></trkpt><trkpt lat="43.5449708" lon="12.0087326"><ele>454.0</ele><time>2026-05-03T13:41:29.107Z</time></trkpt><trkpt lat="43.5449878" lon="12.0088336"><ele>454.1666666666667</ele><time>2026-05-03T13:41:30.109Z</time></trkpt><trkpt lat="43.5450085" lon="12.0089335"><ele>454.33333333333337</ele><time>2026-05-03T13:41:31.104Z</time></trkpt><trkpt lat="43.5450295" lon="12.0090326"><ele>454.5</ele><time>2026-05-03T13:41:32.116Z</time></trkpt><trkpt lat="43.5450521" lon="12.0091253"><ele>454.66666666666663</ele><time>2026-05-03T13:41:33.106Z</time></trkpt><trkpt lat="43.5450802" lon="12.0092304"><ele>454.8333333333333</ele><time>2026-05-03T13:41:34.109Z</time></trkpt><trkpt lat="43.545125" lon="12.0093278"><ele>455.0</ele><time>2026-05-03T13:41:35.121Z</time></trkpt><trkpt lat="43.5451689" lon="12.0094116"><ele>454.99999999999994</ele><time>2026-05-03T13:41:36.11Z</time></trkpt><trkpt lat="43.5452146" lon="12.0094861"><ele>455.0</ele><time>2026-05-03T13:41:37.104Z</time></trkpt><trkpt lat="43.545258" lon="12.0095624"><ele>455.0</ele><time>2026-05-03T13:41:38.108Z</time></trkpt><trkpt lat="43.5452975" lon="12.0096348"><ele>455.0</ele><time>2026-05-03T13:41:39.096Z</time></trkpt><trkpt lat="43.5453391" lon="12.0097032"><ele>454.99999999999994</ele><time>2026-05-03T13:41:40.118Z</time></trkpt><trkpt lat="43.5454048" lon="12.0098243"><ele>455.0</ele><time>2026-05-03T13:41:42.112Z</time></trkpt><trkpt lat="43.5454467" lon="12.0099557"><ele>453.6</ele><time>2026-05-03T13:41:44.106Z</time></trkpt><trkpt lat="43.5454657" lon="12.0100575"><ele>452.2</ele><time>2026-05-03T13:41:45.109Z</time></trkpt><trkpt lat="43.5454671" lon="12.0101871"><ele>450.79999999999995</ele><time>2026-05-03T13:41:46.093Z</time></trkpt><trkpt lat="43.5454323" lon="12.0103597"><ele>449.4</ele><time>2026-05-03T13:41:47.099Z</time></trkpt><trkpt lat="43.5454048" lon="12.0105565"><ele>448.0</ele><time>2026-05-03T13:41:48.099Z</time></trkpt><trkpt lat="43.5453643" lon="12.010799"><ele>446.0</ele><time>2026-05-03T13:41:49.111Z</time></trkpt><trkpt lat="43.5453279" lon="12.0110311"><ele>444.0</ele><time>2026-05-03T13:41:50.115Z</time></trkpt><trkpt lat="43.5452959" lon="12.0112468"><ele>442.0</ele><time>2026-05-03T13:41:51.105Z</time></trkpt><trkpt lat="43.5452697" lon="12.0114539"><ele>442.0</ele><time>2026-05-03T13:41:52.107Z</time></trkpt><trkpt lat="43.5452442" lon="12.0116437"><ele>442.0</ele><time>2026-05-03T13:41:53.095Z</time></trkpt><trkpt lat="43.545222" lon="12.0118237"><ele>442.0</ele><time>2026-05-03T13:41:54.105Z</time></trkpt><trkpt lat="43.5452013" lon="12.0119981"><ele>442.0</ele><time>2026-05-03T13:41:55.106Z</time></trkpt><trkpt lat="43.5451785" lon="12.0121723"><ele>441.0</ele><time>2026-05-03T13:41:56.104Z</time></trkpt><trkpt lat="43.5451472" lon="12.0123711"><ele>440.0</ele><time>2026-05-03T13:41:57.107Z</time></trkpt><trkpt lat="43.5451233" lon="12.0125719"><ele>439.0</ele><time>2026-05-03T13:41:58.134Z</time></trkpt><trkpt lat="43.5451001" lon="12.0127605"><ele>438.0</ele><time>2026-05-03T13:41:59.114Z</time></trkpt><trkpt lat="43.5450788" lon="12.012931"><ele>437.79999999999995</ele><time>2026-05-03T13:42:00.101Z</time></trkpt><trkpt lat="43.5450609" lon="12.0130879"><ele>437.59999999999997</ele><time>2026-05-03T13:42:01.098Z</time></trkpt><trkpt lat="43.5450397" lon="12.0132268"><ele>437.40000000000003</ele><time>2026-05-03T13:42:02.088Z</time></trkpt><trkpt lat="43.5450238" lon="12.0133517"><ele>437.20000000000005</ele><time>2026-05-03T13:42:03.102Z</time></trkpt><trkpt lat="43.545015" lon="12.0134618"><ele>437.0</ele><time>2026-05-03T13:42:04.113Z</time></trkpt><trkpt lat="43.5450061" lon="12.0135654"><ele>436.8333333333333</ele><time>2026-05-03T13:42:05.102Z</time></trkpt><trkpt lat="43.5449974" lon="12.0136683"><ele>436.66666666666663</ele><time>2026-05-03T13:42:06.107Z</time></trkpt><trkpt lat="43.5449883" lon="12.0137729"><ele>436.5</ele><time>2026-05-03T13:42:07.109Z</time></trkpt><trkpt lat="43.5449797" lon="12.0138705"><ele>436.33333333333337</ele><time>2026-05-03T13:42:08.108Z</time></trkpt><trkpt lat="43.5449581" lon="12.0140016"><ele>436.1666666666667</ele><time>2026-05-03T13:42:10.114Z</time></trkpt><trkpt lat="43.5449169" lon="12.0141334"><ele>436.0</ele><time>2026-05-03T13:42:13.122Z</time></trkpt><trkpt lat="43.544871" lon="12.0142048"><ele>435.83333333333337</ele><time>2026-05-03T13:42:14.1Z</time></trkpt><trkpt lat="43.5448167" lon="12.0142971"><ele>435.6666666666667</ele><time>2026-05-03T13:42:15.11Z</time></trkpt><trkpt lat="43.5447602" lon="12.0143817"><ele>435.5</ele><time>2026-05-03T13:42:16.101Z</time></trkpt><trkpt lat="43.5447012" lon="12.0144574"><ele>435.33333333333337</ele><time>2026-05-03T13:42:17.113Z</time></trkpt><trkpt lat="43.544628" lon="12.0145163"><ele>435.1666666666667</ele><time>2026-05-03T13:42:18.101Z</time></trkpt><trkpt lat="43.5445498" lon="12.0145852"><ele>435.0</ele><time>2026-05-03T13:42:19.106Z</time></trkpt><trkpt lat="43.5444735" lon="12.0146487"><ele>432.8</ele><time>2026-05-03T13:42:20.104Z</time></trkpt><trkpt lat="43.5444094" lon="12.014701"><ele>430.6</ele><time>2026-05-03T13:42:21.106Z</time></trkpt><trkpt lat="43.5443139" lon="12.0148011"><ele>428.4</ele><time>2026-05-03T13:42:23.113Z</time></trkpt><trkpt lat="43.5442734" lon="12.0149726"><ele>426.2</ele><time>2026-05-03T13:42:25.105Z</time></trkpt><trkpt lat="43.5442729" lon="12.0150981"><ele>424.0</ele><time>2026-05-03T13:42:26.101Z</time></trkpt><trkpt lat="43.5442791" lon="12.0152459"><ele>424.0</ele><time>2026-05-03T13:42:27.112Z</time></trkpt><trkpt lat="43.5442822" lon="12.0153976"><ele>424.0</ele><time>2026-05-03T13:42:28.117Z</time></trkpt><trkpt lat="43.5442832" lon="12.0155401"><ele>424.0</ele><time>2026-05-03T13:42:29.102Z</time></trkpt><trkpt lat="43.5442847" lon="12.01567"><ele>424.0</ele><time>2026-05-03T13:42:30.127Z</time></trkpt><trkpt lat="43.5442932" lon="12.0157943"><ele>424.0</ele><time>2026-05-03T13:42:31.1Z</time></trkpt><trkpt lat="43.5442979" lon="12.0159113"><ele>422.6666666666667</ele><time>2026-05-03T13:42:32.104Z</time></trkpt><trkpt lat="43.5442927" lon="12.0160324"><ele>421.33333333333337</ele><time>2026-05-03T13:42:33.104Z</time></trkpt><trkpt lat="43.5442881" lon="12.0161501"><ele>420.0</ele><time>2026-05-03T13:42:34.095Z</time></trkpt><trkpt lat="43.5442712" lon="12.0162684"><ele>418.66666666666663</ele><time>2026-05-03T13:42:35.11Z</time></trkpt><trkpt lat="43.5442532" lon="12.0163888"><ele>417.3333333333333</ele><time>2026-05-03T13:42:36.119Z</time></trkpt><trkpt lat="43.5442342" lon="12.0165129"><ele>416.0</ele><time>2026-05-03T13:42:37.125Z</time></trkpt><trkpt lat="43.5442085" lon="12.0166501"><ele>415.4</ele><time>2026-05-03T13:42:38.098Z</time></trkpt><trkpt lat="43.5441833" lon="12.0167813"><ele>414.8</ele><time>2026-05-03T13:42:39.112Z</time></trkpt><trkpt lat="43.544153" lon="12.0169046"><ele>414.2</ele><time>2026-05-03T13:42:40.115Z</time></trkpt><trkpt lat="43.5441184" lon="12.0170284"><ele>413.59999999999997</ele><time>2026-05-03T13:42:41.107Z</time></trkpt><trkpt lat="43.5440743" lon="12.0171498"><ele>413.0</ele><time>2026-05-03T13:42:42.101Z</time></trkpt><trkpt lat="43.5440187" lon="12.0172612"><ele>412.99999999999994</ele><time>2026-05-03T13:42:43.101Z</time></trkpt><trkpt lat="43.543965" lon="12.0173659"><ele>413.0</ele><time>2026-05-03T13:42:44.097Z</time></trkpt><trkpt lat="43.5439154" lon="12.0174613"><ele>413.0</ele><time>2026-05-03T13:42:45.1Z</time></trkpt><trkpt lat="43.543891" lon="12.01756"><ele>413.0</ele><time>2026-05-03T13:42:46.11Z</time></trkpt><trkpt lat="43.5438931" lon="12.0176596"><ele>412.99999999999994</ele><time>2026-05-03T13:42:47.113Z</time></trkpt><trkpt lat="43.543921" lon="12.0177483"><ele>413.0</ele><time>2026-05-03T13:42:48.102Z</time></trkpt><trkpt lat="43.5439592" lon="12.0178228"><ele>411.8333333333333</ele><time>2026-05-03T13:42:49.118Z</time></trkpt><trkpt lat="43.5440023" lon="12.0178902"><ele>410.66666666666663</ele><time>2026-05-03T13:42:50.107Z</time></trkpt><trkpt lat="43.5440486" lon="12.0179586"><ele>409.5</ele><time>2026-05-03T13:42:51.098Z</time></trkpt><trkpt lat="43.5441077" lon="12.0180199"><ele>408.33333333333337</ele><time>2026-05-03T13:42:52.111Z</time></trkpt><trkpt lat="43.5441854" lon="12.0180843"><ele>407.1666666666667</ele><time>2026-05-03T13:42:53.11Z</time></trkpt><trkpt lat="43.5442677" lon="12.0181471"><ele>406.0</ele><time>2026-05-03T13:42:54.105Z</time></trkpt><trkpt lat="43.5443527" lon="12.0182115"><ele>406.0</ele><time>2026-05-03T13:42:55.098Z</time></trkpt><trkpt lat="43.5444498" lon="12.01829"><ele>406.0</ele><time>2026-05-03T13:42:56.095Z</time></trkpt><trkpt lat="43.544532" lon="12.0183821"><ele>406.0</ele><time>2026-05-03T13:42:57.083Z</time></trkpt><trkpt lat="43.5446029" lon="12.0184763"><ele>406.0</ele><time>2026-05-03T13:42:58.105Z</time></trkpt><trkpt lat="43.5446648" lon="12.0185522"><ele>406.0</ele><time>2026-05-03T13:42:59.105Z</time></trkpt><trkpt lat="43.5447187" lon="12.0186185"><ele>404.20000000000005</ele><time>2026-05-03T13:43:00.099Z</time></trkpt><trkpt lat="43.5447792" lon="12.0187264"><ele>402.40000000000003</ele><time>2026-05-03T13:43:02.094Z</time></trkpt><trkpt lat="43.5447213" lon="12.0188365"><ele>400.6</ele><time>2026-05-03T13:43:04.112Z</time></trkpt><trkpt lat="43.544641" lon="12.0188524"><ele>398.8</ele><time>2026-05-03T13:43:05.09Z</time></trkpt><trkpt lat="43.5445503" lon="12.0188593"><ele>397.0</ele><time>2026-05-03T13:43:06.105Z</time></trkpt><trkpt lat="43.544459" lon="12.0188639"><ele>396.50000000000006</ele><time>2026-05-03T13:43:07.104Z</time></trkpt><trkpt lat="43.5443673" lon="12.0188729"><ele>396.0</ele><time>2026-05-03T13:43:08.108Z</time></trkpt><trkpt lat="43.5442832" lon="12.0189094"><ele>395.5</ele><time>2026-05-03T13:43:09.11Z</time></trkpt><trkpt lat="43.5442103" lon="12.0189707"><ele>395.0</ele><time>2026-05-03T13:43:10.104Z</time></trkpt><trkpt lat="43.54415" lon="12.0190462"><ele>394.50000000000006</ele><time>2026-05-03T13:43:11.103Z</time></trkpt><trkpt lat="43.5440879" lon="12.0191243"><ele>394.0</ele><time>2026-05-03T13:43:12.099Z</time></trkpt><trkpt lat="43.544031" lon="12.0192045"><ele>390.2</ele><time>2026-05-03T13:43:13.119Z</time></trkpt><trkpt lat="43.5439771" lon="12.0192791"><ele>386.4</ele><time>2026-05-03T13:43:14.108Z</time></trkpt><trkpt lat="43.5438976" lon="12.0193833"><ele>382.6</ele><time>2026-05-03T13:43:16.116Z</time></trkpt><trkpt lat="43.5438541" lon="12.019474"><ele>378.8</ele><time>2026-05-03T13:43:19.184Z</time></trkpt><trkpt lat="43.5438741" lon="12.0196042"><ele>375.0</ele><time>2026-05-03T13:43:22.11Z</time></trkpt><trkpt lat="43.5439314" lon="12.0197279"><ele>375.0</ele><time>2026-05-03T13:43:24.094Z</time></trkpt><trkpt lat="43.5439742" lon="12.0198138"><ele>375.0</ele><time>2026-05-03T13:43:25.111Z</time></trkpt><trkpt lat="43.5440158" lon="12.0198916"><ele>375.0</ele><time>2026-05-03T13:43:26.108Z</time></trkpt><trkpt lat="43.5440568" lon="12.0199665"><ele>375.0</ele><time>2026-05-03T13:43:27.113Z</time></trkpt><trkpt lat="43.5441345" lon="12.0200767"><ele>375.0</ele><time>2026-05-03T13:43:29.099Z</time></trkpt><trkpt lat="43.5442432" lon="12.0201583"><ele>375.0</ele><time>2026-05-03T13:43:31.1Z</time></trkpt><trkpt lat="43.5443177" lon="12.020168"><ele>371.8</ele><time>2026-05-03T13:43:32.102Z</time></trkpt><trkpt lat="43.5444007" lon="12.0201556"><ele>368.6</ele><time>2026-05-03T13:43:33.09Z</time></trkpt><trkpt lat="43.5444901" lon="12.0201376"><ele>365.4</ele><time>2026-05-03T13:43:34.148Z</time></trkpt><trkpt lat="43.5445996" lon="12.0201073"><ele>362.2</ele><time>2026-05-03T13:43:35.103Z</time></trkpt><trkpt lat="43.5447077" lon="12.0200751"><ele>359.0</ele><time>2026-05-03T13:43:36.107Z</time></trkpt><trkpt lat="43.5448143" lon="12.0200432"><ele>358.6666666666667</ele><time>2026-05-03T13:43:37.092Z</time></trkpt><trkpt lat="43.5449138" lon="12.0200139"><ele>358.33333333333337</ele><time>2026-05-03T13:43:38.105Z</time></trkpt><trkpt lat="43.5450068" lon="12.0199877"><ele>358.0</ele><time>2026-05-03T13:43:39.104Z</time></trkpt><trkpt lat="43.5450902" lon="12.0199707"><ele>357.6666666666667</ele><time>2026-05-03T13:43:40.107Z</time></trkpt><trkpt lat="43.5451708" lon="12.0199569"><ele>357.3333333333333</ele><time>2026-05-03T13:43:41.115Z</time></trkpt><trkpt lat="43.5452501" lon="12.0199422"><ele>357.0</ele><time>2026-05-03T13:43:42.091Z</time></trkpt><trkpt lat="43.5453298" lon="12.0199434"><ele>357.6</ele><time>2026-05-03T13:43:43.108Z</time></trkpt><trkpt lat="43.5454133" lon="12.0199637"><ele>358.20000000000005</ele><time>2026-05-03T13:43:44.106Z</time></trkpt><trkpt lat="43.5454961" lon="12.0200363"><ele>358.8</ele><time>2026-05-03T13:43:45.102Z</time></trkpt><trkpt lat="43.5455759" lon="12.0201234"><ele>359.4</ele><time>2026-05-03T13:43:46.119Z</time></trkpt><trkpt lat="43.5456602" lon="12.0202103"><ele>360.0</ele><time>2026-05-03T13:43:47.105Z</time></trkpt><trkpt lat="43.5457519" lon="12.0203009"><ele>358.4</ele><time>2026-05-03T13:43:48.107Z</time></trkpt><trkpt lat="43.5458432" lon="12.0203932"><ele>356.8</ele><time>2026-05-03T13:43:49.113Z</time></trkpt><trkpt lat="43.5459338" lon="12.0204825"><ele>355.20000000000005</ele><time>2026-05-03T13:43:50.123Z</time></trkpt><trkpt lat="43.5460145" lon="12.020569"><ele>353.6</ele><time>2026-05-03T13:43:51.117Z</time></trkpt><trkpt lat="43.5460881" lon="12.0206453"><ele>352.0</ele><time>2026-05-03T13:43:52.11Z</time></trkpt><trkpt lat="43.5461554" lon="12.0207116"><ele>352.3333333333333</ele><time>2026-05-03T13:43:53.117Z</time></trkpt><trkpt lat="43.5462144" lon="12.0207691"><ele>352.66666666666663</ele><time>2026-05-03T13:43:54.103Z</time></trkpt><trkpt lat="43.5462683" lon="12.0208214"><ele>353.0</ele><time>2026-05-03T13:43:55.118Z</time></trkpt><trkpt lat="43.5463478" lon="12.020902"><ele>353.3333333333333</ele><time>2026-05-03T13:43:57.116Z</time></trkpt><trkpt lat="43.5464057" lon="12.0209394"><ele>353.6666666666667</ele><time>2026-05-03T13:44:00.118Z</time></trkpt><trkpt lat="43.5464949" lon="12.0208654"><ele>354.0</ele><time>2026-05-03T13:44:03.119Z</time></trkpt><trkpt lat="43.5465236" lon="12.0207744"><ele>354.0</ele><time>2026-05-03T13:44:04.114Z</time></trkpt><trkpt lat="43.5465597" lon="12.0206419"><ele>354.0</ele><time>2026-05-03T13:44:05.106Z</time></trkpt><trkpt lat="43.5466045" lon="12.0204855"><ele>354.0</ele><time>2026-05-03T13:44:06.117Z</time></trkpt><trkpt lat="43.5466615" lon="12.0202986"><ele>354.0</ele><time>2026-05-03T13:44:07.114Z</time></trkpt><trkpt lat="43.5467312" lon="12.0200798"><ele>353.0</ele><time>2026-05-03T13:44:08.125Z</time></trkpt><trkpt lat="43.546809" lon="12.0198307"><ele>352.0</ele><time>2026-05-03T13:44:09.114Z</time></trkpt><trkpt lat="43.5468918" lon="12.0195569"><ele>351.0</ele><time>2026-05-03T13:44:10.136Z</time></trkpt><trkpt lat="43.5469757" lon="12.0192721"><ele>356.5</ele><time>2026-05-03T13:44:11.111Z</time></trkpt><trkpt lat="43.547067" lon="12.0189693"><ele>362.0</ele><time>2026-05-03T13:44:12.112Z</time></trkpt><trkpt lat="43.5471724" lon="12.0186624"><ele>362.0</ele><time>2026-05-03T13:44:13.114Z</time></trkpt><trkpt lat="43.5472835" lon="12.0183572"><ele>362.0</ele><time>2026-05-03T13:44:14.109Z</time></trkpt><trkpt lat="43.5473895" lon="12.0180859"><ele>360.6666666666667</ele><time>2026-05-03T13:44:15.108Z</time></trkpt><trkpt lat="43.5474958" lon="12.0178447"><ele>359.3333333333333</ele><time>2026-05-03T13:44:16.114Z</time></trkpt><trkpt lat="43.5475908" lon="12.0176225"><ele>358.0</ele><time>2026-05-03T13:44:17.102Z</time></trkpt><trkpt lat="43.5476776" lon="12.0173997"><ele>358.0</ele><time>2026-05-03T13:44:18.118Z</time></trkpt><trkpt lat="43.5477352" lon="12.0171707"><ele>358.0</ele><time>2026-05-03T13:44:19.126Z</time></trkpt><trkpt lat="43.5477708" lon="12.0169377"><ele>358.0</ele><time>2026-05-03T13:44:20.114Z</time></trkpt><trkpt lat="43.547779" lon="12.0167038"><ele>359.0</ele><time>2026-05-03T13:44:21.116Z</time></trkpt><trkpt lat="43.5477697" lon="12.0164676"><ele>360.0</ele><time>2026-05-03T13:44:22.128Z</time></trkpt><trkpt lat="43.5477294" lon="12.0162249"><ele>361.0</ele><time>2026-05-03T13:44:23.116Z</time></trkpt><trkpt lat="43.5476798" lon="12.0159646"><ele>361.3333333333333</ele><time>2026-05-03T13:44:24.119Z</time></trkpt><trkpt lat="43.5476328" lon="12.0156938"><ele>361.6666666666667</ele><time>2026-05-03T13:44:25.116Z</time></trkpt><trkpt lat="43.5475972" lon="12.0154098"><ele>362.0</ele><time>2026-05-03T13:44:26.114Z</time></trkpt><trkpt lat="43.5475678" lon="12.015124"><ele>362.6666666666667</ele><time>2026-05-03T13:44:27.116Z</time></trkpt><trkpt lat="43.5475437" lon="12.0148391"><ele>363.3333333333333</ele><time>2026-05-03T13:44:28.114Z</time></trkpt><trkpt lat="43.5475268" lon="12.0145524"><ele>364.0</ele><time>2026-05-03T13:44:29.11Z</time></trkpt><trkpt lat="43.5475363" lon="12.0142397"><ele>365.0</ele><time>2026-05-03T13:44:30.118Z</time></trkpt><trkpt lat="43.5475568" lon="12.013923"><ele>366.0</ele><time>2026-05-03T13:44:31.112Z</time></trkpt><trkpt lat="43.5475833" lon="12.013596"><ele>366.5</ele><time>2026-05-03T13:44:32.104Z</time></trkpt><trkpt lat="43.5476101" lon="12.0132614"><ele>367.0</ele><time>2026-05-03T13:44:33.11Z</time></trkpt><trkpt lat="43.5476398" lon="12.012926"><ele>367.0</ele><time>2026-05-03T13:44:34.104Z</time></trkpt><trkpt lat="43.5476717" lon="12.0125927"><ele>367.0</ele><time>2026-05-03T13:44:35.105Z</time></trkpt><trkpt lat="43.547709" lon="12.0122731"><ele>367.0</ele><time>2026-05-03T13:44:36.111Z</time></trkpt><trkpt lat="43.5477414" lon="12.0119726"><ele>367.0</ele><time>2026-05-03T13:44:37.112Z</time></trkpt><trkpt lat="43.5477765" lon="12.0116816"><ele>367.0</ele><time>2026-05-03T13:44:38.109Z</time></trkpt><trkpt lat="43.5478184" lon="12.0114018"><ele>367.0</ele><time>2026-05-03T13:44:39.1Z</time></trkpt><trkpt lat="43.5478582" lon="12.0111163"><ele>367.0</ele><time>2026-05-03T13:44:40.104Z</time></trkpt><trkpt lat="43.5479075" lon="12.0108317"><ele>367.0</ele><time>2026-05-03T13:44:41.097Z</time></trkpt><trkpt lat="43.5479731" lon="12.0105638"><ele>369.66666666666663</ele><time>2026-05-03T13:44:42.117Z</time></trkpt><trkpt lat="43.548056" lon="12.010297"><ele>372.3333333333333</ele><time>2026-05-03T13:44:43.121Z</time></trkpt><trkpt lat="43.5481352" lon="12.0100428"><ele>375.0</ele><time>2026-05-03T13:44:44.099Z</time></trkpt><trkpt lat="43.5482048" lon="12.0098053"><ele>375.0</ele><time>2026-05-03T13:44:45.104Z</time></trkpt><trkpt lat="43.5482781" lon="12.0095934"><ele>375.0</ele><time>2026-05-03T13:44:46.108Z</time></trkpt><trkpt lat="43.548344" lon="12.009395"><ele>375.0</ele><time>2026-05-03T13:44:47.116Z</time></trkpt><trkpt lat="43.5483616" lon="12.0091803"><ele>377.3333333333333</ele><time>2026-05-03T13:44:48.109Z</time></trkpt><trkpt lat="43.5483657" lon="12.0089594"><ele>379.66666666666663</ele><time>2026-05-03T13:44:49.104Z</time></trkpt><trkpt lat="43.5483151" lon="12.0087298"><ele>382.0</ele><time>2026-05-03T13:44:50.142Z</time></trkpt><trkpt lat="43.5482471" lon="12.0084829"><ele>388.66666666666663</ele><time>2026-05-03T13:44:51.115Z</time></trkpt><trkpt lat="43.5481522" lon="12.0082301"><ele>395.3333333333333</ele><time>2026-05-03T13:44:52.113Z</time></trkpt><trkpt lat="43.5480307" lon="12.0079787"><ele>402.0</ele><time>2026-05-03T13:44:53.107Z</time></trkpt><trkpt lat="43.5479015" lon="12.0077235"><ele>393.0</ele><time>2026-05-03T13:44:54.109Z</time></trkpt><trkpt lat="43.5477642" lon="12.0074448"><ele>384.0</ele><time>2026-05-03T13:44:55.125Z</time></trkpt><trkpt lat="43.5476409" lon="12.0071425"><ele>384.0</ele><time>2026-05-03T13:44:56.107Z</time></trkpt><trkpt lat="43.5475097" lon="12.006852"><ele>384.0</ele><time>2026-05-03T13:44:57.107Z</time></trkpt><trkpt lat="43.5473841" lon="12.0065718"><ele>382.6666666666667</ele><time>2026-05-03T13:44:58.111Z</time></trkpt><trkpt lat="43.5472588" lon="12.0063106"><ele>381.33333333333337</ele><time>2026-05-03T13:44:59.108Z</time></trkpt><trkpt lat="43.5471345" lon="12.0060689"><ele>380.0</ele><time>2026-05-03T13:45:00.11Z</time></trkpt><trkpt lat="43.5470018" lon="12.0058348"><ele>380.6666666666667</ele><time>2026-05-03T13:45:01.1Z</time></trkpt><trkpt lat="43.5468893" lon="12.0055732"><ele>381.3333333333333</ele><time>2026-05-03T13:45:02.113Z</time></trkpt><trkpt lat="43.5467929" lon="12.0052939"><ele>382.0</ele><time>2026-05-03T13:45:03.124Z</time></trkpt><trkpt lat="43.546699" lon="12.0050011"><ele>387.5</ele><time>2026-05-03T13:45:04.113Z</time></trkpt><trkpt lat="43.5466219" lon="12.0046907"><ele>393.0</ele><time>2026-05-03T13:45:05.103Z</time></trkpt><trkpt lat="43.546549" lon="12.0043751"><ele>399.5</ele><time>2026-05-03T13:45:06.116Z</time></trkpt><trkpt lat="43.5464746" lon="12.0040588"><ele>406.0</ele><time>2026-05-03T13:45:07.108Z</time></trkpt><trkpt lat="43.5463976" lon="12.0037581"><ele>406.0</ele><time>2026-05-03T13:45:08.115Z</time></trkpt><trkpt lat="43.5463254" lon="12.0034789"><ele>406.0</ele><time>2026-05-03T13:45:09.107Z</time></trkpt><trkpt lat="43.5462649" lon="12.0031944"><ele>406.0</ele><time>2026-05-03T13:45:10.105Z</time></trkpt><trkpt lat="43.5461991" lon="12.0028993"><ele>399.6666666666667</ele><time>2026-05-03T13:45:11.109Z</time></trkpt><trkpt lat="43.5461419" lon="12.0026094"><ele>393.33333333333337</ele><time>2026-05-03T13:45:12.102Z</time></trkpt><trkpt lat="43.5461001" lon="12.0023089"><ele>387.0</ele><time>2026-05-03T13:45:13.111Z</time></trkpt><trkpt lat="43.5460821" lon="12.0020213"><ele>387.0</ele><time>2026-05-03T13:45:14.098Z</time></trkpt><trkpt lat="43.5460667" lon="12.0017526"><ele>387.0</ele><time>2026-05-03T13:45:15.099Z</time></trkpt><trkpt lat="43.5460567" lon="12.0015065"><ele>387.0</ele><time>2026-05-03T13:45:16.107Z</time></trkpt><trkpt lat="43.5460588" lon="12.0012547"><ele>387.33333333333337</ele><time>2026-05-03T13:45:17.106Z</time></trkpt><trkpt lat="43.5460807" lon="12.0010182"><ele>387.6666666666667</ele><time>2026-05-03T13:45:18.114Z</time></trkpt><trkpt lat="43.5461501" lon="12.0007792"><ele>388.0</ele><time>2026-05-03T13:45:19.1Z</time></trkpt><trkpt lat="43.5462399" lon="12.00055"><ele>392.6666666666667</ele><time>2026-05-03T13:45:20.107Z</time></trkpt><trkpt lat="43.5463363" lon="12.0003206"><ele>397.33333333333337</ele><time>2026-05-03T13:45:21.107Z</time></trkpt><trkpt lat="43.5464304" lon="12.0000619"><ele>402.0</ele><time>2026-05-03T13:45:22.105Z</time></trkpt><trkpt lat="43.5465142" lon="11.9997844"><ele>402.0</ele><time>2026-05-03T13:45:23.107Z</time></trkpt><trkpt lat="43.5466162" lon="11.9995013"><ele>402.0</ele><time>2026-05-03T13:45:24.1Z</time></trkpt><trkpt lat="43.5467332" lon="11.9991973"><ele>397.0</ele><time>2026-05-03T13:45:25.114Z</time></trkpt><trkpt lat="43.5468302" lon="11.9988963"><ele>392.0</ele><time>2026-05-03T13:45:26.112Z</time></trkpt><trkpt lat="43.546913" lon="11.9985974"><ele>392.66666666666663</ele><time>2026-05-03T13:45:27.116Z</time></trkpt><trkpt lat="43.5469736" lon="11.998309"><ele>393.33333333333337</ele><time>2026-05-03T13:45:28.116Z</time></trkpt><trkpt lat="43.5470187" lon="11.9980587"><ele>394.0</ele><time>2026-05-03T13:45:29.114Z</time></trkpt><trkpt lat="43.547061" lon="11.9978303"><ele>398.0</ele><time>2026-05-03T13:45:30.101Z</time></trkpt><trkpt lat="43.5471172" lon="11.9976296"><ele>402.0</ele><time>2026-05-03T13:45:31.099Z</time></trkpt><trkpt lat="43.5472099" lon="11.9974451"><ele>406.0</ele><time>2026-05-03T13:45:32.112Z</time></trkpt><trkpt lat="43.547325" lon="11.9972973"><ele>406.0</ele><time>2026-05-03T13:45:33.1Z</time></trkpt><trkpt lat="43.547444" lon="11.9971579"><ele>406.0</ele><time>2026-05-03T13:45:34.111Z</time></trkpt><trkpt lat="43.5475918" lon="11.9970322"><ele>406.0</ele><time>2026-05-03T13:45:35.102Z</time></trkpt><trkpt lat="43.5477446" lon="11.9968879"><ele>409.33333333333337</ele><time>2026-05-03T13:45:36.11Z</time></trkpt><trkpt lat="43.5478931" lon="11.9967475"><ele>412.66666666666663</ele><time>2026-05-03T13:45:37.104Z</time></trkpt><trkpt lat="43.5480368" lon="11.9965806"><ele>416.0</ele><time>2026-05-03T13:45:38.108Z</time></trkpt><trkpt lat="43.5481669" lon="11.9963884"><ele>416.0</ele><time>2026-05-03T13:45:39.116Z</time></trkpt><trkpt lat="43.548301" lon="11.9961746"><ele>416.0</ele><time>2026-05-03T13:45:40.109Z</time></trkpt><trkpt lat="43.5484353" lon="11.9959631"><ele>416.0</ele><time>2026-05-03T13:45:41.11Z</time></trkpt><trkpt lat="43.5485797" lon="11.9957526"><ele>422.0</ele><time>2026-05-03T13:45:42.111Z</time></trkpt><trkpt lat="43.5487389" lon="11.9955545"><ele>428.0</ele><time>2026-05-03T13:45:43.108Z</time></trkpt><trkpt lat="43.5488895" lon="11.9953577"><ele>434.0</ele><time>2026-05-03T13:45:44.109Z</time></trkpt><trkpt lat="43.5490452" lon="11.9951702"><ele>426.0</ele><time>2026-05-03T13:45:45.115Z</time></trkpt><trkpt lat="43.549197" lon="11.9949871"><ele>418.0</ele><time>2026-05-03T13:45:46.108Z</time></trkpt><trkpt lat="43.5493418" lon="11.9948062"><ele>410.0</ele><time>2026-05-03T13:45:47.104Z</time></trkpt><trkpt lat="43.5494781" lon="11.9946459"><ele>413.3333333333333</ele><time>2026-05-03T13:45:48.106Z</time></trkpt><trkpt lat="43.5496142" lon="11.9944918"><ele>416.66666666666663</ele><time>2026-05-03T13:45:49.107Z</time></trkpt><trkpt lat="43.5497437" lon="11.994341"><ele>420.0</ele><time>2026-05-03T13:45:50.11Z</time></trkpt><trkpt lat="43.549819" lon="11.9941433"><ele>420.0</ele><time>2026-05-03T13:45:51.109Z</time></trkpt><trkpt lat="43.5498825" lon="11.9939407"><ele>420.0</ele><time>2026-05-03T13:45:52.115Z</time></trkpt><trkpt lat="43.5499343" lon="11.9937203"><ele>420.0</ele><time>2026-05-03T13:45:53.108Z</time></trkpt><trkpt lat="43.5499744" lon="11.9934966"><ele>419.66666666666663</ele><time>2026-05-03T13:45:54.104Z</time></trkpt><trkpt lat="43.5500211" lon="11.9932842"><ele>419.3333333333333</ele><time>2026-05-03T13:45:55.111Z</time></trkpt><trkpt lat="43.5500864" lon="11.9930883"><ele>419.0</ele><time>2026-05-03T13:45:56.105Z</time></trkpt><trkpt lat="43.5501542" lon="11.992921"><ele>419.0</ele><time>2026-05-03T13:45:57.1Z</time></trkpt><trkpt lat="43.5502079" lon="11.9927663"><ele>419.0</ele><time>2026-05-03T13:45:58.103Z</time></trkpt><trkpt lat="43.5502602" lon="11.9926117"><ele>419.0</ele><time>2026-05-03T13:45:59.11Z</time></trkpt><trkpt lat="43.5503058" lon="11.9924524"><ele>419.0</ele><time>2026-05-03T13:46:00.116Z</time></trkpt><trkpt lat="43.550337" lon="11.9922537"><ele>418.66666666666663</ele><time>2026-05-03T13:46:01.103Z</time></trkpt><trkpt lat="43.5503212" lon="11.9920454"><ele>418.33333333333337</ele><time>2026-05-03T13:46:02.107Z</time></trkpt><trkpt lat="43.5502926" lon="11.9918436"><ele>418.0</ele><time>2026-05-03T13:46:03.11Z</time></trkpt><trkpt lat="43.5502563" lon="11.9916374"><ele>418.6666666666667</ele><time>2026-05-03T13:46:04.103Z</time></trkpt><trkpt lat="43.5502119" lon="11.9914229"><ele>419.33333333333337</ele><time>2026-05-03T13:46:05.111Z</time></trkpt><trkpt lat="43.5501693" lon="11.9912156"><ele>420.0</ele><time>2026-05-03T13:46:06.103Z</time></trkpt><trkpt lat="43.5501363" lon="11.9910069"><ele>421.0</ele><time>2026-05-03T13:46:07.107Z</time></trkpt><trkpt lat="43.5501064" lon="11.9908143"><ele>422.0</ele><time>2026-05-03T13:46:08.112Z</time></trkpt><trkpt lat="43.5500916" lon="11.9906296"><ele>423.0</ele><time>2026-05-03T13:46:09.123Z</time></trkpt><trkpt lat="43.5500859" lon="11.9904512"><ele>424.0</ele><time>2026-05-03T13:46:10.11Z</time></trkpt><trkpt lat="43.55007" lon="11.9902612"><ele>424.0</ele><time>2026-05-03T13:46:11.102Z</time></trkpt><trkpt lat="43.5500505" lon="11.9900679"><ele>424.0</ele><time>2026-05-03T13:46:12.107Z</time></trkpt><trkpt lat="43.5500515" lon="11.9898714"><ele>424.0</ele><time>2026-05-03T13:46:13.102Z</time></trkpt><trkpt lat="43.5500767" lon="11.9896693"><ele>424.0</ele><time>2026-05-03T13:46:14.106Z</time></trkpt><trkpt lat="43.5501211" lon="11.9894776"><ele>424.0</ele><time>2026-05-03T13:46:15.121Z</time></trkpt><trkpt lat="43.5501896" lon="11.989278"><ele>424.0</ele><time>2026-05-03T13:46:16.095Z</time></trkpt><trkpt lat="43.5502944" lon="11.9890583"><ele>424.0</ele><time>2026-05-03T13:46:17.107Z</time></trkpt><trkpt lat="43.5503984" lon="11.988824"><ele>424.6666666666667</ele><time>2026-05-03T13:46:18.111Z</time></trkpt><trkpt lat="43.5505183" lon="11.9885917"><ele>425.33333333333337</ele><time>2026-05-03T13:46:19.113Z</time></trkpt><trkpt lat="43.5506377" lon="11.988381"><ele>426.0</ele><time>2026-05-03T13:46:20.112Z</time></trkpt><trkpt lat="43.5507446" lon="11.988191"><ele>426.0</ele><time>2026-05-03T13:46:21.099Z</time></trkpt><trkpt lat="43.5508365" lon="11.9880226"><ele>426.0</ele><time>2026-05-03T13:46:22.105Z</time></trkpt><trkpt lat="43.5509192" lon="11.9878524"><ele>426.0</ele><time>2026-05-03T13:46:23.118Z</time></trkpt><trkpt lat="43.5509892" lon="11.9876716"><ele>424.5</ele><time>2026-05-03T13:46:24.109Z</time></trkpt><trkpt lat="43.5510281" lon="11.9874823"><ele>423.0</ele><time>2026-05-03T13:46:25.109Z</time></trkpt><trkpt lat="43.5510427" lon="11.9872899"><ele>421.5</ele><time>2026-05-03T13:46:26.102Z</time></trkpt><trkpt lat="43.551029" lon="11.9871014"><ele>420.0</ele><time>2026-05-03T13:46:27.12Z</time></trkpt><trkpt lat="43.5509911" lon="11.9869129"><ele>420.0</ele><time>2026-05-03T13:46:28.121Z</time></trkpt><trkpt lat="43.5509306" lon="11.9867248"><ele>420.0</ele><time>2026-05-03T13:46:29.133Z</time></trkpt><trkpt lat="43.550871" lon="11.9865418"><ele>420.0</ele><time>2026-05-03T13:46:30.107Z</time></trkpt><trkpt lat="43.5508026" lon="11.9863812"><ele>420.0</ele><time>2026-05-03T13:46:31.12Z</time></trkpt><trkpt lat="43.5507364" lon="11.9862132"><ele>422.25</ele><time>2026-05-03T13:46:32.099Z</time></trkpt><trkpt lat="43.5506696" lon="11.9860489"><ele>424.5</ele><time>2026-05-03T13:46:33.113Z</time></trkpt><trkpt lat="43.5506079" lon="11.9858598"><ele>426.75</ele><time>2026-05-03T13:46:34.113Z</time></trkpt><trkpt lat="43.5505818" lon="11.9856592"><ele>429.0</ele><time>2026-05-03T13:46:35.108Z</time></trkpt><trkpt lat="43.55056" lon="11.9854416"><ele>430.66666666666663</ele><time>2026-05-03T13:46:36.106Z</time></trkpt><trkpt lat="43.5505588" lon="11.9852266"><ele>432.3333333333333</ele><time>2026-05-03T13:46:37.114Z</time></trkpt><trkpt lat="43.5505434" lon="11.98499"><ele>434.0</ele><time>2026-05-03T13:46:38.106Z</time></trkpt><trkpt lat="43.550534" lon="11.9847322"><ele>434.66666666666663</ele><time>2026-05-03T13:46:39.119Z</time></trkpt><trkpt lat="43.5505468" lon="11.9844452"><ele>435.33333333333337</ele><time>2026-05-03T13:46:40.111Z</time></trkpt><trkpt lat="43.55056" lon="11.9841804"><ele>436.0</ele><time>2026-05-03T13:46:41.114Z</time></trkpt><trkpt lat="43.5505713" lon="11.9839286"><ele>437.0</ele><time>2026-05-03T13:46:42.109Z</time></trkpt><trkpt lat="43.5505704" lon="11.9836821"><ele>438.0</ele><time>2026-05-03T13:46:43.117Z</time></trkpt><trkpt lat="43.5505243" lon="11.9834674"><ele>439.0</ele><time>2026-05-03T13:46:44.14Z</time></trkpt><trkpt lat="43.5504454" lon="11.9832795"><ele>439.0</ele><time>2026-05-03T13:46:45.127Z</time></trkpt><trkpt lat="43.5503683" lon="11.9831068"><ele>439.0</ele><time>2026-05-03T13:46:46.097Z</time></trkpt><trkpt lat="43.5502551" lon="11.982945"><ele>439.0</ele><time>2026-05-03T13:46:47.116Z</time></trkpt><trkpt lat="43.5501425" lon="11.9827822"><ele>439.0</ele><time>2026-05-03T13:46:48.109Z</time></trkpt><trkpt lat="43.5500296" lon="11.982635"><ele>439.0</ele><time>2026-05-03T13:46:49.094Z</time></trkpt><trkpt lat="43.5499252" lon="11.9824721"><ele>439.0</ele><time>2026-05-03T13:46:50.106Z</time></trkpt><trkpt lat="43.5498199" lon="11.9822899"><ele>440.0</ele><time>2026-05-03T13:46:51.129Z</time></trkpt><trkpt lat="43.5497325" lon="11.9820761"><ele>441.0</ele><time>2026-05-03T13:46:52.123Z</time></trkpt><trkpt lat="43.5496324" lon="11.9817903"><ele>442.0</ele><time>2026-05-03T13:46:53.113Z</time></trkpt><trkpt lat="43.54955" lon="11.9815036"><ele>446.0</ele><time>2026-05-03T13:46:54.109Z</time></trkpt><trkpt lat="43.5494701" lon="11.9812081"><ele>450.0</ele><time>2026-05-03T13:46:55.114Z</time></trkpt><trkpt lat="43.5493987" lon="11.9808665"><ele>449.5</ele><time>2026-05-03T13:46:56.103Z</time></trkpt><trkpt lat="43.5493451" lon="11.9805357"><ele>449.0</ele><time>2026-05-03T13:46:57.103Z</time></trkpt><trkpt lat="43.5492813" lon="11.9801895"><ele>449.0</ele><time>2026-05-03T13:46:58.107Z</time></trkpt><trkpt lat="43.5492285" lon="11.9798696"><ele>449.0</ele><time>2026-05-03T13:46:59.121Z</time></trkpt><trkpt lat="43.5491961" lon="11.9795901"><ele>449.0</ele><time>2026-05-03T13:47:00.109Z</time></trkpt><trkpt lat="43.5491629" lon="11.9793349"><ele>449.66666666666663</ele><time>2026-05-03T13:47:01.113Z</time></trkpt><trkpt lat="43.5491134" lon="11.9790982"><ele>450.33333333333337</ele><time>2026-05-03T13:47:02.124Z</time></trkpt><trkpt lat="43.5490393" lon="11.9788771"><ele>451.0</ele><time>2026-05-03T13:47:03.11Z</time></trkpt><trkpt lat="43.5489358" lon="11.978682"><ele>451.0</ele><time>2026-05-03T13:47:04.12Z</time></trkpt><trkpt lat="43.5488109" lon="11.978493"><ele>451.0</ele><time>2026-05-03T13:47:05.115Z</time></trkpt><trkpt lat="43.5486726" lon="11.9782952"><ele>451.0</ele><time>2026-05-03T13:47:06.117Z</time></trkpt><trkpt lat="43.5485431" lon="11.9780597"><ele>451.6666666666667</ele><time>2026-05-03T13:47:07.098Z</time></trkpt><trkpt lat="43.5484297" lon="11.9778065"><ele>452.33333333333337</ele><time>2026-05-03T13:47:08.112Z</time></trkpt><trkpt lat="43.5483089" lon="11.9775553"><ele>453.0</ele><time>2026-05-03T13:47:09.11Z</time></trkpt><trkpt lat="43.5481611" lon="11.9773161"><ele>452.33333333333337</ele><time>2026-05-03T13:47:10.109Z</time></trkpt><trkpt lat="43.5480154" lon="11.9770868"><ele>451.6666666666667</ele><time>2026-05-03T13:47:11.113Z</time></trkpt><trkpt lat="43.5478494" lon="11.976873"><ele>451.0</ele><time>2026-05-03T13:47:12.116Z</time></trkpt><trkpt lat="43.5476855" lon="11.9766617"><ele>455.33333333333337</ele><time>2026-05-03T13:47:13.109Z</time></trkpt><trkpt lat="43.5475066" lon="11.9764494"><ele>459.66666666666663</ele><time>2026-05-03T13:47:14.109Z</time></trkpt><trkpt lat="43.5473482" lon="11.9762671"><ele>464.0</ele><time>2026-05-03T13:47:15.113Z</time></trkpt><trkpt lat="43.547206" lon="11.9761263"><ele>464.0</ele><time>2026-05-03T13:47:16.114Z</time></trkpt><trkpt lat="43.5470705" lon="11.9759869"><ele>464.0</ele><time>2026-05-03T13:47:17.109Z</time></trkpt><trkpt lat="43.5469594" lon="11.9758253"><ele>464.0</ele><time>2026-05-03T13:47:18.111Z</time></trkpt><trkpt lat="43.546879" lon="11.9756731"><ele>464.0</ele><time>2026-05-03T13:47:19.109Z</time></trkpt><trkpt lat="43.5468231" lon="11.9755109"><ele>464.0</ele><time>2026-05-03T13:47:20.12Z</time></trkpt><trkpt lat="43.5468187" lon="11.9753203"><ele>464.0</ele><time>2026-05-03T13:47:21.104Z</time></trkpt><trkpt lat="43.546836" lon="11.9751361"><ele>464.0</ele><time>2026-05-03T13:47:22.095Z</time></trkpt><trkpt lat="43.5467856" lon="11.9749403"><ele>467.66666666666663</ele><time>2026-05-03T13:47:23.109Z</time></trkpt><trkpt lat="43.5467224" lon="11.9747611"><ele>471.33333333333337</ele><time>2026-05-03T13:47:24.102Z</time></trkpt><trkpt lat="43.5466178" lon="11.9746039"><ele>475.0</ele><time>2026-05-03T13:47:25.118Z</time></trkpt><trkpt lat="43.5464929" lon="11.9744476"><ele>475.0</ele><time>2026-05-03T13:47:26.106Z</time></trkpt><trkpt lat="43.5464083" lon="11.9742387"><ele>475.0</ele><time>2026-05-03T13:47:27.109Z</time></trkpt><trkpt lat="43.5463209" lon="11.974011"><ele>475.0</ele><time>2026-05-03T13:47:28.107Z</time></trkpt><trkpt lat="43.5462293" lon="11.9737987"><ele>474.5</ele><time>2026-05-03T13:47:29.104Z</time></trkpt><trkpt lat="43.5461474" lon="11.9736316"><ele>474.0</ele><time>2026-05-03T13:47:30.119Z</time></trkpt><trkpt lat="43.5460653" lon="11.9734743"><ele>473.5</ele><time>2026-05-03T13:47:31.122Z</time></trkpt><trkpt lat="43.5460086" lon="11.9733352"><ele>473.0</ele><time>2026-05-03T13:47:32.113Z</time></trkpt><trkpt lat="43.5459812" lon="11.9731833"><ele>474.79999999999995</ele><time>2026-05-03T13:47:33.113Z</time></trkpt><trkpt lat="43.5459964" lon="11.9730416"><ele>476.59999999999997</ele><time>2026-05-03T13:47:34.112Z</time></trkpt><trkpt lat="43.5460497" lon="11.9729239"><ele>478.40000000000003</ele><time>2026-05-03T13:47:35.115Z</time></trkpt><trkpt lat="43.5461309" lon="11.9728396"><ele>480.20000000000005</ele><time>2026-05-03T13:47:36.119Z</time></trkpt><trkpt lat="43.546222" lon="11.9728179"><ele>482.0</ele><time>2026-05-03T13:47:37.117Z</time></trkpt><trkpt lat="43.5463165" lon="11.9728546"><ele>485.25</ele><time>2026-05-03T13:47:38.11Z</time></trkpt><trkpt lat="43.5464044" lon="11.9729398"><ele>488.5</ele><time>2026-05-03T13:47:39.119Z</time></trkpt><trkpt lat="43.5464885" lon="11.9730553"><ele>491.75</ele><time>2026-05-03T13:47:40.102Z</time></trkpt><trkpt lat="43.546578" lon="11.973187"><ele>495.0</ele><time>2026-05-03T13:47:41.114Z</time></trkpt><trkpt lat="43.5466696" lon="11.9733278"><ele>493.0</ele><time>2026-05-03T13:47:42.105Z</time></trkpt><trkpt lat="43.5467527" lon="11.9734779"><ele>491.0</ele><time>2026-05-03T13:47:43.122Z</time></trkpt><trkpt lat="43.5468088" lon="11.9736263"><ele>489.0</ele><time>2026-05-03T13:47:44.115Z</time></trkpt><trkpt lat="43.5468657" lon="11.9737715"><ele>487.0</ele><time>2026-05-03T13:47:45.117Z</time></trkpt><trkpt lat="43.5469399" lon="11.9738989"><ele>491.0</ele><time>2026-05-03T13:47:46.108Z</time></trkpt><trkpt lat="43.5470563" lon="11.9739929"><ele>495.0</ele><time>2026-05-03T13:47:47.114Z</time></trkpt><trkpt lat="43.5471967" lon="11.974053"><ele>499.0</ele><time>2026-05-03T13:47:48.118Z</time></trkpt><trkpt lat="43.5473399" lon="11.9741078"><ele>503.0</ele><time>2026-05-03T13:47:49.109Z</time></trkpt><trkpt lat="43.5474664" lon="11.9741591"><ele>502.99999999999994</ele><time>2026-05-03T13:47:50.114Z</time></trkpt><trkpt lat="43.5475643" lon="11.9742099"><ele>503.0</ele><time>2026-05-03T13:47:51.103Z</time></trkpt><trkpt lat="43.5476503" lon="11.9742318"><ele>503.0</ele><time>2026-05-03T13:47:52.114Z</time></trkpt><trkpt lat="43.5477345" lon="11.9742189"><ele>503.0</ele><time>2026-05-03T13:47:53.12Z</time></trkpt><trkpt lat="43.5477744" lon="11.9741112"><ele>502.99999999999994</ele><time>2026-05-03T13:47:54.1Z</time></trkpt><trkpt lat="43.5477762" lon="11.9740047"><ele>503.0</ele><time>2026-05-03T13:47:55.106Z</time></trkpt><trkpt lat="43.5477284" lon="11.9739362"><ele>503.0</ele><time>2026-05-03T13:47:56.115Z</time></trkpt><trkpt lat="43.5476554" lon="11.9738984"><ele>502.99999999999994</ele><time>2026-05-03T13:47:57.101Z</time></trkpt><trkpt lat="43.5475689" lon="11.9738681"><ele>502.99999999999994</ele><time>2026-05-03T13:47:58.103Z</time></trkpt><trkpt lat="43.5474802" lon="11.9738294"><ele>503.0</ele><time>2026-05-03T13:47:59.114Z</time></trkpt><trkpt lat="43.5474052" lon="11.9737278"><ele>503.0</ele><time>2026-05-03T13:48:00.125Z</time></trkpt><trkpt lat="43.5473727" lon="11.9735879"><ele>503.0</ele><time>2026-05-03T13:48:01.107Z</time></trkpt><trkpt lat="43.5473874" lon="11.9734516"><ele>503.0</ele><time>2026-05-03T13:48:02.117Z</time></trkpt><trkpt lat="43.5474494" lon="11.9733167"><ele>503.0</ele><time>2026-05-03T13:48:03.097Z</time></trkpt><trkpt lat="43.5475247" lon="11.9731628"><ele>503.0</ele><time>2026-05-03T13:48:04.108Z</time></trkpt><trkpt lat="43.5475748" lon="11.9729799"><ele>504.66666666666663</ele><time>2026-05-03T13:48:05.11Z</time></trkpt><trkpt lat="43.5476133" lon="11.9727738"><ele>506.33333333333337</ele><time>2026-05-03T13:48:06.106Z</time></trkpt><trkpt lat="43.5476452" lon="11.9725458"><ele>508.0</ele><time>2026-05-03T13:48:07.114Z</time></trkpt><trkpt lat="43.54767" lon="11.972315"><ele>509.0</ele><time>2026-05-03T13:48:08.113Z</time></trkpt><trkpt lat="43.5476858" lon="11.972103"><ele>510.0</ele><time>2026-05-03T13:48:09.113Z</time></trkpt><trkpt lat="43.5476866" lon="11.9719144"><ele>511.0</ele><time>2026-05-03T13:48:10.101Z</time></trkpt><trkpt lat="43.5476566" lon="11.9717393"><ele>512.0</ele><time>2026-05-03T13:48:11.109Z</time></trkpt><trkpt lat="43.5475932" lon="11.971579"><ele>514.0</ele><time>2026-05-03T13:48:12.104Z</time></trkpt><trkpt lat="43.5475246" lon="11.9714267"><ele>516.0</ele><time>2026-05-03T13:48:13.111Z</time></trkpt><trkpt lat="43.5474807" lon="11.9712683"><ele>518.0</ele><time>2026-05-03T13:48:14.113Z</time></trkpt><trkpt lat="43.5474559" lon="11.9711002"><ele>520.0</ele><time>2026-05-03T13:48:15.116Z</time></trkpt><trkpt lat="43.5474988" lon="11.9709421"><ele>520.75</ele><time>2026-05-03T13:48:16.115Z</time></trkpt><trkpt lat="43.5475677" lon="11.9708219"><ele>521.5</ele><time>2026-05-03T13:48:17.11Z</time></trkpt><trkpt lat="43.5476662" lon="11.9707016"><ele>522.25</ele><time>2026-05-03T13:48:18.116Z</time></trkpt><trkpt lat="43.5477727" lon="11.9705657"><ele>523.0</ele><time>2026-05-03T13:48:19.123Z</time></trkpt><trkpt lat="43.5478885" lon="11.9704119"><ele>529.0</ele><time>2026-05-03T13:48:20.099Z</time></trkpt><trkpt lat="43.5480086" lon="11.9702358"><ele>535.0</ele><time>2026-05-03T13:48:21.106Z</time></trkpt><trkpt lat="43.5481312" lon="11.9700514"><ele>541.0</ele><time>2026-05-03T13:48:22.114Z</time></trkpt><trkpt lat="43.5482477" lon="11.9698409"><ele>541.0</ele><time>2026-05-03T13:48:23.11Z</time></trkpt><trkpt lat="43.548365" lon="11.9696429"><ele>541.0</ele><time>2026-05-03T13:48:24.116Z</time></trkpt><trkpt lat="43.548492" lon="11.9694293"><ele>541.0</ele><time>2026-05-03T13:48:25.101Z</time></trkpt><trkpt lat="43.5486349" lon="11.9692339"><ele>545.6666666666667</ele><time>2026-05-03T13:48:26.109Z</time></trkpt><trkpt lat="43.5487956" lon="11.9691065"><ele>550.3333333333334</ele><time>2026-05-03T13:48:27.117Z</time></trkpt><trkpt lat="43.5489257" lon="11.9689757"><ele>555.0</ele><time>2026-05-03T13:48:28.111Z</time></trkpt><trkpt lat="43.5490082" lon="11.9688517"><ele>555.0</ele><time>2026-05-03T13:48:29.113Z</time></trkpt><trkpt lat="43.5490843" lon="11.9687241"><ele>555.0</ele><time>2026-05-03T13:48:30.1Z</time></trkpt><trkpt lat="43.5491055" lon="11.968573"><ele>555.0</ele><time>2026-05-03T13:48:31.118Z</time></trkpt><trkpt lat="43.5490836" lon="11.9684141"><ele>555.0</ele><time>2026-05-03T13:48:32.102Z</time></trkpt><trkpt lat="43.5490456" lon="11.9682643"><ele>555.75</ele><time>2026-05-03T13:48:33.115Z</time></trkpt><trkpt lat="43.5489668" lon="11.968135"><ele>556.5</ele><time>2026-05-03T13:48:34.115Z</time></trkpt><trkpt lat="43.5488896" lon="11.9679984"><ele>557.25</ele><time>2026-05-03T13:48:35.103Z</time></trkpt><trkpt lat="43.5488214" lon="11.9678305"><ele>558.0</ele><time>2026-05-03T13:48:36.104Z</time></trkpt><trkpt lat="43.5488007" lon="11.9676284"><ele>562.0</ele><time>2026-05-03T13:48:37.101Z</time></trkpt><trkpt lat="43.5487873" lon="11.9674196"><ele>566.0</ele><time>2026-05-03T13:48:38.108Z</time></trkpt><trkpt lat="43.5487659" lon="11.9672016"><ele>570.0</ele><time>2026-05-03T13:48:39.115Z</time></trkpt><trkpt lat="43.5487523" lon="11.9669858"><ele>570.0</ele><time>2026-05-03T13:48:40.107Z</time></trkpt><trkpt lat="43.548742" lon="11.9667756"><ele>570.0</ele><time>2026-05-03T13:48:41.109Z</time></trkpt><trkpt lat="43.548738" lon="11.966555"><ele>570.0</ele><time>2026-05-03T13:48:42.115Z</time></trkpt><trkpt lat="43.5487669" lon="11.9663181"><ele>568.5</ele><time>2026-05-03T13:48:43.117Z</time></trkpt><trkpt lat="43.5487976" lon="11.9661228"><ele>567.0</ele><time>2026-05-03T13:48:44.117Z</time></trkpt><trkpt lat="43.5487751" lon="11.9659246"><ele>565.5</ele><time>2026-05-03T13:48:45.148Z</time></trkpt><trkpt lat="43.5487236" lon="11.9657276"><ele>564.0</ele><time>2026-05-03T13:48:46.112Z</time></trkpt><trkpt lat="43.5486498" lon="11.9655531"><ele>564.0</ele><time>2026-05-03T13:48:47.108Z</time></trkpt><trkpt lat="43.548585" lon="11.9653836"><ele>564.0</ele><time>2026-05-03T13:48:48.096Z</time></trkpt><trkpt lat="43.5485352" lon="11.9652139"><ele>564.0</ele><time>2026-05-03T13:48:49.113Z</time></trkpt><trkpt lat="43.5484967" lon="11.9650595"><ele>564.0</ele><time>2026-05-03T13:48:50.1Z</time></trkpt><trkpt lat="43.5484666" lon="11.9649343"><ele>566.0</ele><time>2026-05-03T13:48:51.113Z</time></trkpt><trkpt lat="43.5484427" lon="11.9648293"><ele>568.0</ele><time>2026-05-03T13:48:52.116Z</time></trkpt><trkpt lat="43.5484336" lon="11.9647072"><ele>570.0</ele><time>2026-05-03T13:48:54.108Z</time></trkpt><trkpt lat="43.548506" lon="11.9646972"><ele>572.0</ele><time>2026-05-03T13:48:56.107Z</time></trkpt><trkpt lat="43.5486111" lon="11.9647409"><ele>574.0</ele><time>2026-05-03T13:48:58.11Z</time></trkpt><trkpt lat="43.5486734" lon="11.9647887"><ele>576.0</ele><time>2026-05-03T13:48:59.112Z</time></trkpt><trkpt lat="43.5487373" lon="11.9648403"><ele>576.0</ele><time>2026-05-03T13:49:00.115Z</time></trkpt><trkpt lat="43.54881" lon="11.9648969"><ele>576.0</ele><time>2026-05-03T13:49:01.117Z</time></trkpt><trkpt lat="43.548878" lon="11.9650023"><ele>576.0</ele><time>2026-05-03T13:49:02.091Z</time></trkpt><trkpt lat="43.5489383" lon="11.9651438"><ele>576.0</ele><time>2026-05-03T13:49:03.12Z</time></trkpt><trkpt lat="43.5490025" lon="11.9652826"><ele>576.0</ele><time>2026-05-03T13:49:04.113Z</time></trkpt><trkpt lat="43.5490704" lon="11.9654027"><ele>576.8</ele><time>2026-05-03T13:49:05.116Z</time></trkpt><trkpt lat="43.5491546" lon="11.9655264"><ele>577.6</ele><time>2026-05-03T13:49:06.114Z</time></trkpt><trkpt lat="43.5492363" lon="11.965624"><ele>578.4</ele><time>2026-05-03T13:49:07.108Z</time></trkpt><trkpt lat="43.549319" lon="11.9656912"><ele>579.2</ele><time>2026-05-03T13:49:08.114Z</time></trkpt><trkpt lat="43.5494114" lon="11.9657401"><ele>580.0</ele><time>2026-05-03T13:49:09.104Z</time></trkpt><trkpt lat="43.5495108" lon="11.9657762"><ele>580.2</ele><time>2026-05-03T13:49:10.104Z</time></trkpt><trkpt lat="43.5496115" lon="11.9658214"><ele>580.4</ele><time>2026-05-03T13:49:11.114Z</time></trkpt><trkpt lat="43.5497087" lon="11.9658691"><ele>580.6</ele><time>2026-05-03T13:49:12.101Z</time></trkpt><trkpt lat="43.5497954" lon="11.965947"><ele>580.8</ele><time>2026-05-03T13:49:13.11Z</time></trkpt><trkpt lat="43.5498711" lon="11.9660529"><ele>581.0</ele><time>2026-05-03T13:49:14.113Z</time></trkpt><trkpt lat="43.5499408" lon="11.9661622"><ele>583.75</ele><time>2026-05-03T13:49:15.116Z</time></trkpt><trkpt lat="43.5500147" lon="11.9662778"><ele>586.5</ele><time>2026-05-03T13:49:16.119Z</time></trkpt><trkpt lat="43.5500911" lon="11.9663932"><ele>589.25</ele><time>2026-05-03T13:49:17.115Z</time></trkpt><trkpt lat="43.5501798" lon="11.9665103"><ele>592.0</ele><time>2026-05-03T13:49:18.109Z</time></trkpt><trkpt lat="43.5502658" lon="11.9666231"><ele>592.25</ele><time>2026-05-03T13:49:19.111Z</time></trkpt><trkpt lat="43.5503543" lon="11.9667366"><ele>592.5</ele><time>2026-05-03T13:49:20.112Z</time></trkpt><trkpt lat="43.5504484" lon="11.9668652"><ele>592.75</ele><time>2026-05-03T13:49:21.115Z</time></trkpt><trkpt lat="43.550542" lon="11.966995"><ele>593.0</ele><time>2026-05-03T13:49:22.116Z</time></trkpt><trkpt lat="43.5506318" lon="11.9671354"><ele>593.0</ele><time>2026-05-03T13:49:23.107Z</time></trkpt><trkpt lat="43.5507028" lon="11.9672724"><ele>593.0</ele><time>2026-05-03T13:49:24.11Z</time></trkpt><trkpt lat="43.5507776" lon="11.9674069"><ele>593.0</ele><time>2026-05-03T13:49:25.109Z</time></trkpt><trkpt lat="43.5508468" lon="11.9675271"><ele>593.0</ele><time>2026-05-03T13:49:26.108Z</time></trkpt><trkpt lat="43.5509124" lon="11.9676283"><ele>593.1666666666666</ele><time>2026-05-03T13:49:27.106Z</time></trkpt><trkpt lat="43.5509724" lon="11.9677136"><ele>593.3333333333333</ele><time>2026-05-03T13:49:28.11Z</time></trkpt><trkpt lat="43.5510482" lon="11.9677722"><ele>593.5</ele><time>2026-05-03T13:49:29.098Z</time></trkpt><trkpt lat="43.5511379" lon="11.9677736"><ele>593.6666666666666</ele><time>2026-05-03T13:49:30.117Z</time></trkpt><trkpt lat="43.5512309" lon="11.9677355"><ele>593.8333333333334</ele><time>2026-05-03T13:49:31.117Z</time></trkpt><trkpt lat="43.5513093" lon="11.9676846"><ele>594.0</ele><time>2026-05-03T13:49:32.119Z</time></trkpt><trkpt lat="43.5513882" lon="11.9676037"><ele>595.25</ele><time>2026-05-03T13:49:33.107Z</time></trkpt><trkpt lat="43.5514768" lon="11.9674985"><ele>596.5</ele><time>2026-05-03T13:49:34.116Z</time></trkpt><trkpt lat="43.5515723" lon="11.9673527"><ele>597.75</ele><time>2026-05-03T13:49:35.114Z</time></trkpt><trkpt lat="43.5516763" lon="11.9671938"><ele>599.0</ele><time>2026-05-03T13:49:36.115Z</time></trkpt><trkpt lat="43.5517777" lon="11.9670478"><ele>599.0</ele><time>2026-05-03T13:49:37.109Z</time></trkpt><trkpt lat="43.5518583" lon="11.9669124"><ele>599.0</ele><time>2026-05-03T13:49:38.113Z</time></trkpt><trkpt lat="43.5519443" lon="11.9667774"><ele>599.0</ele><time>2026-05-03T13:49:39.102Z</time></trkpt><trkpt lat="43.552034" lon="11.9666693"><ele>599.0</ele><time>2026-05-03T13:49:40.097Z</time></trkpt><trkpt lat="43.5521239" lon="11.9665719"><ele>599.6</ele><time>2026-05-03T13:49:41.104Z</time></trkpt><trkpt lat="43.5522093" lon="11.9664678"><ele>600.2</ele><time>2026-05-03T13:49:42.11Z</time></trkpt><trkpt lat="43.5522898" lon="11.9663672"><ele>600.8000000000001</ele><time>2026-05-03T13:49:43.112Z</time></trkpt><trkpt lat="43.5523705" lon="11.9662783"><ele>601.4</ele><time>2026-05-03T13:49:44.101Z</time></trkpt><trkpt lat="43.5524412" lon="11.966193"><ele>602.0</ele><time>2026-05-03T13:49:45.116Z</time></trkpt><trkpt lat="43.5525078" lon="11.9660972"><ele>602.0</ele><time>2026-05-03T13:49:46.108Z</time></trkpt><trkpt lat="43.5525716" lon="11.9659921"><ele>602.0</ele><time>2026-05-03T13:49:47.104Z</time></trkpt><trkpt lat="43.5526371" lon="11.9658787"><ele>602.0</ele><time>2026-05-03T13:49:48.113Z</time></trkpt><trkpt lat="43.5527003" lon="11.9657451"><ele>602.0</ele><time>2026-05-03T13:49:49.125Z</time></trkpt><trkpt lat="43.5527806" lon="11.9655955"><ele>601.4</ele><time>2026-05-03T13:49:50.108Z</time></trkpt><trkpt lat="43.5528606" lon="11.965449"><ele>600.8000000000001</ele><time>2026-05-03T13:49:51.119Z</time></trkpt><trkpt lat="43.5529345" lon="11.9653309"><ele>600.2</ele><time>2026-05-03T13:49:52.111Z</time></trkpt><trkpt lat="43.5530057" lon="11.965234"><ele>599.6</ele><time>2026-05-03T13:49:53.115Z</time></trkpt><trkpt lat="43.5530772" lon="11.9651568"><ele>599.0</ele><time>2026-05-03T13:49:54.112Z</time></trkpt><trkpt lat="43.553148" lon="11.9651118"><ele>598.8333333333333</ele><time>2026-05-03T13:49:55.108Z</time></trkpt><trkpt lat="43.5532127" lon="11.9650897"><ele>598.6666666666666</ele><time>2026-05-03T13:49:56.114Z</time></trkpt><trkpt lat="43.5532786" lon="11.9650764"><ele>598.5</ele><time>2026-05-03T13:49:57.115Z</time></trkpt><trkpt lat="43.5533452" lon="11.9650865"><ele>598.3333333333334</ele><time>2026-05-03T13:49:58.115Z</time></trkpt><trkpt lat="43.5534269" lon="11.9651179"><ele>598.1666666666667</ele><time>2026-05-03T13:49:59.115Z</time></trkpt><trkpt lat="43.5535101" lon="11.9651554"><ele>598.0</ele><time>2026-05-03T13:50:00.124Z</time></trkpt><trkpt lat="43.5535997" lon="11.965197"><ele>598.0</ele><time>2026-05-03T13:50:01.109Z</time></trkpt><trkpt lat="43.5536957" lon="11.9652524"><ele>598.0</ele><time>2026-05-03T13:50:02.108Z</time></trkpt><trkpt lat="43.5537929" lon="11.9653076"><ele>598.0</ele><time>2026-05-03T13:50:03.115Z</time></trkpt><trkpt lat="43.5538828" lon="11.9653544"><ele>598.0</ele><time>2026-05-03T13:50:04.101Z</time></trkpt><trkpt lat="43.5539645" lon="11.9653917"><ele>598.0</ele><time>2026-05-03T13:50:05.126Z</time></trkpt><trkpt lat="43.554063" lon="11.9654212"><ele>599.1999999999999</ele><time>2026-05-03T13:50:06.117Z</time></trkpt><trkpt lat="43.5541626" lon="11.9654291"><ele>600.4</ele><time>2026-05-03T13:50:07.109Z</time></trkpt><trkpt lat="43.5542621" lon="11.9654283"><ele>601.5999999999999</ele><time>2026-05-03T13:50:08.107Z</time></trkpt><trkpt lat="43.5543634" lon="11.9654165"><ele>602.8</ele><time>2026-05-03T13:50:09.107Z</time></trkpt><trkpt lat="43.5544656" lon="11.9653768"><ele>604.0</ele><time>2026-05-03T13:50:10.112Z</time></trkpt><trkpt lat="43.5545616" lon="11.9653352"><ele>605.0</ele><time>2026-05-03T13:50:11.115Z</time></trkpt><trkpt lat="43.554662" lon="11.9652855"><ele>606.0</ele><time>2026-05-03T13:50:12.115Z</time></trkpt><trkpt lat="43.5547706" lon="11.9652294"><ele>607.0</ele><time>2026-05-03T13:50:13.109Z</time></trkpt><trkpt lat="43.5548833" lon="11.9651914"><ele>608.0</ele><time>2026-05-03T13:50:14.102Z</time></trkpt><trkpt lat="43.5549825" lon="11.9651893"><ele>609.0</ele><time>2026-05-03T13:50:15.121Z</time></trkpt><trkpt lat="43.5550966" lon="11.9652044"><ele>609.0</ele><time>2026-05-03T13:50:16.11Z</time></trkpt><trkpt lat="43.5552062" lon="11.9652215"><ele>609.0</ele><time>2026-05-03T13:50:17.112Z</time></trkpt><trkpt lat="43.555307" lon="11.9652355"><ele>609.0</ele><time>2026-05-03T13:50:18.109Z</time></trkpt><trkpt lat="43.5553885" lon="11.9652354"><ele>609.0</ele><time>2026-05-03T13:50:19.118Z</time></trkpt><trkpt lat="43.5554603" lon="11.9652149"><ele>609.0</ele><time>2026-05-03T13:50:20.115Z</time></trkpt><trkpt lat="43.5555213" lon="11.9651746"><ele>609.0</ele><time>2026-05-03T13:50:21.105Z</time></trkpt><trkpt lat="43.5555784" lon="11.9651362"><ele>612.2</ele><time>2026-05-03T13:50:22.112Z</time></trkpt><trkpt lat="43.555662" lon="11.965104"><ele>615.4</ele><time>2026-05-03T13:50:24.128Z</time></trkpt><trkpt lat="43.5557333" lon="11.9651101"><ele>618.6</ele><time>2026-05-03T13:50:27.118Z</time></trkpt><trkpt lat="43.5558504" lon="11.96513"><ele>621.8</ele><time>2026-05-03T13:51:33.153Z</time></trkpt><trkpt lat="43.5559362" lon="11.9651371"><ele>625.0</ele><time>2026-05-03T13:51:34.113Z</time></trkpt><trkpt lat="43.5560766" lon="11.965156"><ele>627.5</ele><time>2026-05-03T13:51:35.119Z</time></trkpt><trkpt lat="43.5562363" lon="11.9651859"><ele>630.0</ele><time>2026-05-03T13:51:36.112Z</time></trkpt><trkpt lat="43.5563752" lon="11.9652123"><ele>632.5</ele><time>2026-05-03T13:51:37.106Z</time></trkpt><trkpt lat="43.5564811" lon="11.9652382"><ele>635.0</ele><time>2026-05-03T13:51:38.112Z</time></trkpt><trkpt lat="43.5565725" lon="11.9652768"><ele>635.0</ele><time>2026-05-03T13:51:39.117Z</time></trkpt><trkpt lat="43.5566587" lon="11.9653238"><ele>635.0</ele><time>2026-05-03T13:51:40.114Z</time></trkpt><trkpt lat="43.5567364" lon="11.9653941"><ele>635.0</ele><time>2026-05-03T13:51:41.095Z</time></trkpt><trkpt lat="43.5568172" lon="11.9654642"><ele>635.0</ele><time>2026-05-03T13:51:42.101Z</time></trkpt><trkpt lat="43.5568983" lon="11.9655217"><ele>635.0</ele><time>2026-05-03T13:51:43.115Z</time></trkpt><trkpt lat="43.5569856" lon="11.9655649"><ele>636.2</ele><time>2026-05-03T13:51:44.108Z</time></trkpt><trkpt lat="43.5570794" lon="11.9655976"><ele>637.4</ele><time>2026-05-03T13:51:45.108Z</time></trkpt><trkpt lat="43.5571805" lon="11.965616"><ele>638.5999999999999</ele><time>2026-05-03T13:51:46.132Z</time></trkpt><trkpt lat="43.5572886" lon="11.9656232"><ele>639.8</ele><time>2026-05-03T13:51:47.11Z</time></trkpt><trkpt lat="43.5573998" lon="11.9656322"><ele>641.0</ele><time>2026-05-03T13:51:48.102Z</time></trkpt><trkpt lat="43.5574967" lon="11.9656587"><ele>641.0</ele><time>2026-05-03T13:51:49.112Z</time></trkpt><trkpt lat="43.5575881" lon="11.9657064"><ele>641.0</ele><time>2026-05-03T13:51:50.113Z</time></trkpt><trkpt lat="43.5576847" lon="11.9657824"><ele>641.0</ele><time>2026-05-03T13:51:51.106Z</time></trkpt><trkpt lat="43.5577991" lon="11.9658851"><ele>641.0</ele><time>2026-05-03T13:51:52.116Z</time></trkpt><trkpt lat="43.5579194" lon="11.9659929"><ele>640.5999999999999</ele><time>2026-05-03T13:51:53.125Z</time></trkpt><trkpt lat="43.55802" lon="11.9660825"><ele>640.1999999999999</ele><time>2026-05-03T13:51:54.107Z</time></trkpt><trkpt lat="43.5581085" lon="11.9661525"><ele>639.8</ele><time>2026-05-03T13:51:55.113Z</time></trkpt><trkpt lat="43.5581933" lon="11.9661973"><ele>639.4</ele><time>2026-05-03T13:51:56.111Z</time></trkpt><trkpt lat="43.5582835" lon="11.9662165"><ele>639.0</ele><time>2026-05-03T13:51:57.102Z</time></trkpt><trkpt lat="43.5583776" lon="11.9662114"><ele>639.0</ele><time>2026-05-03T13:51:58.118Z</time></trkpt><trkpt lat="43.5584706" lon="11.9661889"><ele>639.0</ele><time>2026-05-03T13:51:59.133Z</time></trkpt><trkpt lat="43.5585612" lon="11.9661664"><ele>639.0</ele><time>2026-05-03T13:52:00.113Z</time></trkpt><trkpt lat="43.558646" lon="11.9661286"><ele>639.0</ele><time>2026-05-03T13:52:01.11Z</time></trkpt><trkpt lat="43.5587262" lon="11.9660884"><ele>639.0</ele><time>2026-05-03T13:52:02.109Z</time></trkpt><trkpt lat="43.5588139" lon="11.9660341"><ele>640.1666666666666</ele><time>2026-05-03T13:52:03.11Z</time></trkpt><trkpt lat="43.5589011" lon="11.9659807"><ele>641.3333333333334</ele><time>2026-05-03T13:52:04.122Z</time></trkpt><trkpt lat="43.5589885" lon="11.9659096"><ele>642.5</ele><time>2026-05-03T13:52:05.115Z</time></trkpt><trkpt lat="43.5590683" lon="11.9658434"><ele>643.6666666666667</ele><time>2026-05-03T13:52:06.117Z</time></trkpt><trkpt lat="43.5591248" lon="11.9657654"><ele>644.8333333333334</ele><time>2026-05-03T13:52:07.11Z</time></trkpt><trkpt lat="43.5591579" lon="11.9656735"><ele>646.0</ele><time>2026-05-03T13:52:08.11Z</time></trkpt><trkpt lat="43.5591909" lon="11.9655736"><ele>649.0</ele><time>2026-05-03T13:52:09.117Z</time></trkpt><trkpt lat="43.5592258" lon="11.965472"><ele>652.0</ele><time>2026-05-03T13:52:10.104Z</time></trkpt><trkpt lat="43.5592791" lon="11.9653877"><ele>655.0</ele><time>2026-05-03T13:52:11.122Z</time></trkpt><trkpt lat="43.5593516" lon="11.9653315"><ele>658.0</ele><time>2026-05-03T13:52:12.124Z</time></trkpt><trkpt lat="43.5594465" lon="11.9652991"><ele>661.0</ele><time>2026-05-03T13:52:13.107Z</time></trkpt><trkpt lat="43.5595652" lon="11.9652496"><ele>663.3333333333334</ele><time>2026-05-03T13:52:14.101Z</time></trkpt><trkpt lat="43.5596997" lon="11.9651789"><ele>665.6666666666666</ele><time>2026-05-03T13:52:15.111Z</time></trkpt><trkpt lat="43.5598375" lon="11.965061"><ele>668.0</ele><time>2026-05-03T13:52:16.1Z</time></trkpt><trkpt lat="43.5599697" lon="11.9649472"><ele>668.0</ele><time>2026-05-03T13:52:17.102Z</time></trkpt><trkpt lat="43.5600878" lon="11.9648474"><ele>668.0</ele><time>2026-05-03T13:52:18.117Z</time></trkpt><trkpt lat="43.5602089" lon="11.9647372"><ele>668.0</ele><time>2026-05-03T13:52:19.107Z</time></trkpt><trkpt lat="43.5603209" lon="11.964641"><ele>668.0</ele><time>2026-05-03T13:52:20.111Z</time></trkpt><trkpt lat="43.5604126" lon="11.9645818"><ele>668.4</ele><time>2026-05-03T13:52:21.104Z</time></trkpt><trkpt lat="43.5604986" lon="11.9645433"><ele>668.8</ele><time>2026-05-03T13:52:22.106Z</time></trkpt><trkpt lat="43.5605733" lon="11.9645176"><ele>669.2</ele><time>2026-05-03T13:52:23.11Z</time></trkpt><trkpt lat="43.5606831" lon="11.9644688"><ele>669.6</ele><time>2026-05-03T13:52:25.11Z</time></trkpt><trkpt lat="43.5607566" lon="11.9644401"><ele>670.0</ele><time>2026-05-03T13:52:26.1Z</time></trkpt><trkpt lat="43.5608541" lon="11.9644223"><ele>670.0</ele><time>2026-05-03T13:52:27.115Z</time></trkpt><trkpt lat="43.5609633" lon="11.9644354"><ele>670.0</ele><time>2026-05-03T13:52:28.102Z</time></trkpt><trkpt lat="43.5610616" lon="11.9644657"><ele>670.0</ele><time>2026-05-03T13:52:29.111Z</time></trkpt><trkpt lat="43.5611409" lon="11.9645187"><ele>670.0</ele><time>2026-05-03T13:52:30.106Z</time></trkpt><trkpt lat="43.5612131" lon="11.9645547"><ele>670.0</ele><time>2026-05-03T13:52:31.117Z</time></trkpt><trkpt lat="43.5612893" lon="11.9645456"><ele>668.6</ele><time>2026-05-03T13:52:32.098Z</time></trkpt><trkpt lat="43.5613772" lon="11.9644969"><ele>667.2</ele><time>2026-05-03T13:52:33.117Z</time></trkpt><trkpt lat="43.5614626" lon="11.9644468"><ele>665.8</ele><time>2026-05-03T13:52:34.116Z</time></trkpt><trkpt lat="43.561562" lon="11.9644113"><ele>664.4</ele><time>2026-05-03T13:52:35.102Z</time></trkpt><trkpt lat="43.5616691" lon="11.9643966"><ele>663.0</ele><time>2026-05-03T13:52:36.119Z</time></trkpt><trkpt lat="43.5617748" lon="11.964385"><ele>663.0</ele><time>2026-05-03T13:52:37.116Z</time></trkpt><trkpt lat="43.561874" lon="11.9643705"><ele>663.0</ele><time>2026-05-03T13:52:38.11Z</time></trkpt><trkpt lat="43.561964" lon="11.9643556"><ele>663.0</ele><time>2026-05-03T13:52:39.1Z</time></trkpt><trkpt lat="43.5620541" lon="11.9643298"><ele>663.0</ele><time>2026-05-03T13:52:40.104Z</time></trkpt><trkpt lat="43.5621426" lon="11.9642871"><ele>663.0</ele><time>2026-05-03T13:52:41.1Z</time></trkpt><trkpt lat="43.5622224" lon="11.9642179"><ele>660.4</ele><time>2026-05-03T13:52:42.106Z</time></trkpt><trkpt lat="43.5623147" lon="11.9641386"><ele>657.8</ele><time>2026-05-03T13:52:43.113Z</time></trkpt><trkpt lat="43.5623893" lon="11.9640393"><ele>655.2</ele><time>2026-05-03T13:52:44.115Z</time></trkpt><trkpt lat="43.5624546" lon="11.9639365"><ele>652.6</ele><time>2026-05-03T13:52:45.105Z</time></trkpt><trkpt lat="43.5625286" lon="11.9638574"><ele>650.0</ele><time>2026-05-03T13:52:46.104Z</time></trkpt><trkpt lat="43.5626106" lon="11.9637801"><ele>650.0</ele><time>2026-05-03T13:52:47.12Z</time></trkpt><trkpt lat="43.5627021" lon="11.9637446"><ele>650.0</ele><time>2026-05-03T13:52:48.102Z</time></trkpt><trkpt lat="43.5627953" lon="11.9637217"><ele>650.0</ele><time>2026-05-03T13:52:49.114Z</time></trkpt><trkpt lat="43.5628632" lon="11.9636638"><ele>650.0</ele><time>2026-05-03T13:52:50.111Z</time></trkpt><trkpt lat="43.5629107" lon="11.9635833"><ele>650.0</ele><time>2026-05-03T13:52:51.114Z</time></trkpt><trkpt lat="43.5629296" lon="11.9634749"><ele>650.0</ele><time>2026-05-03T13:52:52.118Z</time></trkpt><trkpt lat="43.5629474" lon="11.9633522"><ele>652.25</ele><time>2026-05-03T13:52:53.105Z</time></trkpt><trkpt lat="43.5629229" lon="11.9631905"><ele>654.5</ele><time>2026-05-03T13:52:54.104Z</time></trkpt><trkpt lat="43.5629007" lon="11.9630258"><ele>656.75</ele><time>2026-05-03T13:52:55.119Z</time></trkpt><trkpt lat="43.5628908" lon="11.9628787"><ele>659.0</ele><time>2026-05-03T13:52:56.1Z</time></trkpt><trkpt lat="43.5629117" lon="11.9627381"><ele>659.0</ele><time>2026-05-03T13:52:57.116Z</time></trkpt><trkpt lat="43.5629513" lon="11.9625705"><ele>659.0</ele><time>2026-05-03T13:52:58.114Z</time></trkpt><trkpt lat="43.562977" lon="11.9624056"><ele>659.0</ele><time>2026-05-03T13:52:59.115Z</time></trkpt><trkpt lat="43.562988" lon="11.9622768"><ele>659.0</ele><time>2026-05-03T13:53:00.115Z</time></trkpt><trkpt lat="43.5630148" lon="11.9621669"><ele>659.0</ele><time>2026-05-03T13:53:01.118Z</time></trkpt><trkpt lat="43.5630659" lon="11.9620307"><ele>659.0</ele><time>2026-05-03T13:53:02.103Z</time></trkpt><trkpt lat="43.563121" lon="11.961859"><ele>659.0</ele><time>2026-05-03T13:53:03.112Z</time></trkpt><trkpt lat="43.5631748" lon="11.9616988"><ele>659.0</ele><time>2026-05-03T13:53:04.102Z</time></trkpt><trkpt lat="43.5632104" lon="11.9615783"><ele>659.0</ele><time>2026-05-03T13:53:05.112Z</time></trkpt><trkpt lat="43.5632627" lon="11.9614873"><ele>659.0</ele><time>2026-05-03T13:53:06.118Z</time></trkpt><trkpt lat="43.5633414" lon="11.9614106"><ele>658.2</ele><time>2026-05-03T13:53:07.114Z</time></trkpt><trkpt lat="43.563425" lon="11.9613495"><ele>657.4000000000001</ele><time>2026-05-03T13:53:08.114Z</time></trkpt><trkpt lat="43.5635144" lon="11.9613026"><ele>656.6</ele><time>2026-05-03T13:53:09.119Z</time></trkpt><trkpt lat="43.5636271" lon="11.9612624"><ele>655.8</ele><time>2026-05-03T13:53:10.119Z</time></trkpt><trkpt lat="43.5637432" lon="11.9612008"><ele>655.0</ele><time>2026-05-03T13:53:11.097Z</time></trkpt><trkpt lat="43.5638436" lon="11.9611375"><ele>655.0</ele><time>2026-05-03T13:53:12.116Z</time></trkpt><trkpt lat="43.5639324" lon="11.961075"><ele>655.0</ele><time>2026-05-03T13:53:13.109Z</time></trkpt><trkpt lat="43.5640092" lon="11.9610236"><ele>655.0</ele><time>2026-05-03T13:53:14.113Z</time></trkpt><trkpt lat="43.5640783" lon="11.9609948"><ele>655.0</ele><time>2026-05-03T13:53:15.119Z</time></trkpt><trkpt lat="43.5641595" lon="11.9609975"><ele>655.0</ele><time>2026-05-03T13:53:16.116Z</time></trkpt><trkpt lat="43.5642425" lon="11.9610092"><ele>655.0</ele><time>2026-05-03T13:53:17.098Z</time></trkpt><trkpt lat="43.5643327" lon="11.9610322"><ele>655.0</ele><time>2026-05-03T13:53:18.114Z</time></trkpt><trkpt lat="43.5644314" lon="11.9610573"><ele>655.0</ele><time>2026-05-03T13:53:19.112Z</time></trkpt><trkpt lat="43.5645288" lon="11.9610823"><ele>655.0</ele><time>2026-05-03T13:53:20.115Z</time></trkpt><trkpt lat="43.5646236" lon="11.9611035"><ele>655.0</ele><time>2026-05-03T13:53:21.116Z</time></trkpt><trkpt lat="43.5647205" lon="11.9611194"><ele>655.0</ele><time>2026-05-03T13:53:22.113Z</time></trkpt><trkpt lat="43.5648139" lon="11.9611327"><ele>653.3333333333334</ele><time>2026-05-03T13:53:23.118Z</time></trkpt><trkpt lat="43.5648938" lon="11.9611431"><ele>651.6666666666667</ele><time>2026-05-03T13:53:24.133Z</time></trkpt><trkpt lat="43.5649668" lon="11.961153"><ele>650.0</ele><time>2026-05-03T13:53:25.122Z</time></trkpt><trkpt lat="43.5650373" lon="11.9611581"><ele>648.3333333333334</ele><time>2026-05-03T13:53:26.116Z</time></trkpt><trkpt lat="43.5651163" lon="11.9611356"><ele>646.6666666666666</ele><time>2026-05-03T13:53:27.118Z</time></trkpt><trkpt lat="43.565192" lon="11.9610928"><ele>645.0</ele><time>2026-05-03T13:53:28.105Z</time></trkpt><trkpt lat="43.5652633" lon="11.9610478"><ele>645.0</ele><time>2026-05-03T13:53:29.121Z</time></trkpt><trkpt lat="43.5653233" lon="11.961012"><ele>645.0</ele><time>2026-05-03T13:53:30.115Z</time></trkpt><trkpt lat="43.5653819" lon="11.960971"><ele>645.0</ele><time>2026-05-03T13:53:31.11Z</time></trkpt><trkpt lat="43.5654983" lon="11.9608766"><ele>645.0</ele><time>2026-05-03T13:53:33.118Z</time></trkpt><trkpt lat="43.5655708" lon="11.9608105"><ele>645.0</ele><time>2026-05-03T13:53:34.119Z</time></trkpt><trkpt lat="43.5656486" lon="11.9607235"><ele>642.8</ele><time>2026-05-03T13:53:35.115Z</time></trkpt><trkpt lat="43.5657289" lon="11.9606295"><ele>640.6</ele><time>2026-05-03T13:53:36.101Z</time></trkpt><trkpt lat="43.565815" lon="11.9605375"><ele>638.4</ele><time>2026-05-03T13:53:37.109Z</time></trkpt><trkpt lat="43.5659085" lon="11.9604507"><ele>636.2</ele><time>2026-05-03T13:53:38.111Z</time></trkpt><trkpt lat="43.5660077" lon="11.9603673"><ele>634.0</ele><time>2026-05-03T13:53:39.122Z</time></trkpt><trkpt lat="43.5661002" lon="11.9602883"><ele>634.0</ele><time>2026-05-03T13:53:40.112Z</time></trkpt><trkpt lat="43.5661737" lon="11.9602256"><ele>634.0</ele><time>2026-05-03T13:53:41.119Z</time></trkpt><trkpt lat="43.566228" lon="11.9601797"><ele>634.0</ele><time>2026-05-03T13:53:42.107Z</time></trkpt><trkpt lat="43.5662897" lon="11.9600974"><ele>634.0</ele><time>2026-05-03T13:53:44.106Z</time></trkpt><trkpt lat="43.5662648" lon="11.9599252"><ele>634.0</ele><time>2026-05-03T13:53:46.11Z</time></trkpt><trkpt lat="43.5662243" lon="11.9598077"><ele>634.0</ele><time>2026-05-03T13:53:47.113Z</time></trkpt><trkpt lat="43.5661753" lon="11.9596646"><ele>634.0</ele><time>2026-05-03T13:53:48.12Z</time></trkpt><trkpt lat="43.5661391" lon="11.9595297"><ele>634.0</ele><time>2026-05-03T13:53:49.111Z</time></trkpt><trkpt lat="43.5661207" lon="11.9593794"><ele>634.0</ele><time>2026-05-03T13:53:50.114Z</time></trkpt><trkpt lat="43.5661056" lon="11.9592429"><ele>634.0</ele><time>2026-05-03T13:53:51.11Z</time></trkpt><trkpt lat="43.5661092" lon="11.9591265"><ele>634.5</ele><time>2026-05-03T13:53:52.127Z</time></trkpt><trkpt lat="43.5661542" lon="11.9590408"><ele>635.0</ele><time>2026-05-03T13:53:53.116Z</time></trkpt><trkpt lat="43.5662113" lon="11.9589969"><ele>635.5</ele><time>2026-05-03T13:53:54.121Z</time></trkpt><trkpt lat="43.5662795" lon="11.9589881"><ele>636.0</ele><time>2026-05-03T13:53:55.11Z</time></trkpt><trkpt lat="43.5663691" lon="11.9590251"><ele>636.5</ele><time>2026-05-03T13:53:56.104Z</time></trkpt><trkpt lat="43.5664672" lon="11.9590882"><ele>637.0</ele><time>2026-05-03T13:53:57.122Z</time></trkpt><trkpt lat="43.5665618" lon="11.9591731"><ele>638.3333333333334</ele><time>2026-05-03T13:53:58.116Z</time></trkpt><trkpt lat="43.566635" lon="11.9592696"><ele>639.6666666666667</ele><time>2026-05-03T13:53:59.103Z</time></trkpt><trkpt lat="43.5666966" lon="11.959353"><ele>641.0</ele><time>2026-05-03T13:54:00.115Z</time></trkpt><trkpt lat="43.5667577" lon="11.959411"><ele>642.3333333333334</ele><time>2026-05-03T13:54:01.107Z</time></trkpt><trkpt lat="43.5668311" lon="11.9594395"><ele>643.6666666666666</ele><time>2026-05-03T13:54:02.109Z</time></trkpt><trkpt lat="43.5669262" lon="11.9594421"><ele>645.0</ele><time>2026-05-03T13:54:03.117Z</time></trkpt><trkpt lat="43.5670507" lon="11.9594508"><ele>647.25</ele><time>2026-05-03T13:54:04.121Z</time></trkpt><trkpt lat="43.5671908" lon="11.959484"><ele>649.5</ele><time>2026-05-03T13:54:05.113Z</time></trkpt><trkpt lat="43.5673078" lon="11.9595137"><ele>651.75</ele><time>2026-05-03T13:54:06.117Z</time></trkpt><trkpt lat="43.5673898" lon="11.9595372"><ele>654.0</ele><time>2026-05-03T13:54:08.119Z</time></trkpt><trkpt lat="43.5674945" lon="11.9594896"><ele>654.0</ele><time>2026-05-03T13:54:11.108Z</time></trkpt><trkpt lat="43.5675699" lon="11.9594742"><ele>654.0</ele><time>2026-05-03T13:54:12.113Z</time></trkpt><trkpt lat="43.5676766" lon="11.9594689"><ele>654.0</ele><time>2026-05-03T13:54:13.111Z</time></trkpt><trkpt lat="43.5677935" lon="11.959449"><ele>654.0</ele><time>2026-05-03T13:54:14.11Z</time></trkpt><trkpt lat="43.5679144" lon="11.9594125"><ele>654.0</ele><time>2026-05-03T13:54:15.114Z</time></trkpt><trkpt lat="43.5680142" lon="11.9593937"><ele>654.1666666666666</ele><time>2026-05-03T13:54:16.12Z</time></trkpt><trkpt lat="43.5680867" lon="11.9594054"><ele>654.3333333333334</ele><time>2026-05-03T13:54:17.116Z</time></trkpt><trkpt lat="43.5682018" lon="11.9593663"><ele>654.5</ele><time>2026-05-03T13:54:19.106Z</time></trkpt><trkpt lat="43.5682345" lon="11.9592883"><ele>654.6666666666667</ele><time>2026-05-03T13:54:20.111Z</time></trkpt><trkpt lat="43.5682532" lon="11.9591893"><ele>654.8333333333334</ele><time>2026-05-03T13:54:21.101Z</time></trkpt><trkpt lat="43.5682563" lon="11.9590794"><ele>655.0</ele><time>2026-05-03T13:54:22.106Z</time></trkpt><trkpt lat="43.568256" lon="11.9589368"><ele>655.25</ele><time>2026-05-03T13:54:23.101Z</time></trkpt><trkpt lat="43.5682547" lon="11.9587483"><ele>655.5</ele><time>2026-05-03T13:54:24.117Z</time></trkpt><trkpt lat="43.5682448" lon="11.9585712"><ele>655.75</ele><time>2026-05-03T13:54:25.119Z</time></trkpt><trkpt lat="43.5682349" lon="11.9584246"><ele>656.0</ele><time>2026-05-03T13:54:26.118Z</time></trkpt><trkpt lat="43.5682445" lon="11.9582728"><ele>657.1999999999999</ele><time>2026-05-03T13:54:27.124Z</time></trkpt><trkpt lat="43.568263" lon="11.9581166"><ele>658.4</ele><time>2026-05-03T13:54:28.102Z</time></trkpt><trkpt lat="43.5682651" lon="11.9579713"><ele>659.6</ele><time>2026-05-03T13:54:29.112Z</time></trkpt><trkpt lat="43.5682683" lon="11.9578568"><ele>660.8</ele><time>2026-05-03T13:54:30.123Z</time></trkpt><trkpt lat="43.5682777" lon="11.9577676"><ele>662.0</ele><time>2026-05-03T13:54:31.125Z</time></trkpt><trkpt lat="43.5683504" lon="11.9576367"><ele>662.0</ele><time>2026-05-03T13:54:33.118Z</time></trkpt><trkpt lat="43.5684273" lon="11.9575768"><ele>662.0</ele><time>2026-05-03T13:54:34.095Z</time></trkpt><trkpt lat="43.5685123" lon="11.9574989"><ele>662.0</ele><time>2026-05-03T13:54:35.114Z</time></trkpt><trkpt lat="43.5686056" lon="11.9574052"><ele>662.0</ele><time>2026-05-03T13:54:36.099Z</time></trkpt><trkpt lat="43.5687139" lon="11.9573009"><ele>662.0</ele><time>2026-05-03T13:54:37.116Z</time></trkpt><trkpt lat="43.5688061" lon="11.9572111"><ele>665.2</ele><time>2026-05-03T13:54:38.111Z</time></trkpt><trkpt lat="43.5688873" lon="11.9571292"><ele>668.4000000000001</ele><time>2026-05-03T13:54:39.11Z</time></trkpt><trkpt lat="43.5689674" lon="11.9570504"><ele>671.5999999999999</ele><time>2026-05-03T13:54:40.109Z</time></trkpt><trkpt lat="43.5690456" lon="11.956974"><ele>674.8</ele><time>2026-05-03T13:54:41.118Z</time></trkpt><trkpt lat="43.5691096" lon="11.9569038"><ele>678.0</ele><time>2026-05-03T13:54:42.106Z</time></trkpt><trkpt lat="43.5691665" lon="11.956807"><ele>676.2</ele><time>2026-05-03T13:54:43.116Z</time></trkpt><trkpt lat="43.5692242" lon="11.9566979"><ele>674.4</ele><time>2026-05-03T13:54:44.097Z</time></trkpt><trkpt lat="43.5692827" lon="11.9565929"><ele>672.6</ele><time>2026-05-03T13:54:45.112Z</time></trkpt><trkpt lat="43.5693404" lon="11.9564835"><ele>670.8000000000001</ele><time>2026-05-03T13:54:46.112Z</time></trkpt><trkpt lat="43.5693936" lon="11.9563642"><ele>669.0</ele><time>2026-05-03T13:54:47.115Z</time></trkpt><trkpt lat="43.5694342" lon="11.9562712"><ele>669.0</ele><time>2026-05-03T13:54:48.113Z</time></trkpt><trkpt lat="43.5694426" lon="11.9561774"><ele>669.0</ele><time>2026-05-03T13:54:52.111Z</time></trkpt><trkpt lat="43.5693934" lon="11.9560143"><ele>669.0</ele><time>2026-05-03T13:54:54.121Z</time></trkpt><trkpt lat="43.5693493" lon="11.9558655"><ele>669.0</ele><time>2026-05-03T13:54:55.116Z</time></trkpt><trkpt lat="43.5692906" lon="11.9557066"><ele>669.0</ele><time>2026-05-03T13:54:56.117Z</time></trkpt><trkpt lat="43.5692232" lon="11.9555975"><ele>669.0</ele><time>2026-05-03T13:54:57.119Z</time></trkpt><trkpt lat="43.5691466" lon="11.9555129"><ele>669.0</ele><time>2026-05-03T13:54:58.093Z</time></trkpt><trkpt lat="43.5690683" lon="11.9554459"><ele>669.0</ele><time>2026-05-03T13:54:59.116Z</time></trkpt><trkpt lat="43.5689978" lon="11.9553933"><ele>669.0</ele><time>2026-05-03T13:55:00.108Z</time></trkpt><trkpt lat="43.568928" lon="11.9553569"><ele>669.0</ele><time>2026-05-03T13:55:01.114Z</time></trkpt><trkpt lat="43.5688686" lon="11.9553074"><ele>669.0</ele><time>2026-05-03T13:55:02.117Z</time></trkpt><trkpt lat="43.5688249" lon="11.9552337"><ele>669.0</ele><time>2026-05-03T13:55:03.115Z</time></trkpt><trkpt lat="43.5687909" lon="11.9551509"><ele>669.0</ele><time>2026-05-03T13:55:04.114Z</time></trkpt><trkpt lat="43.5687526" lon="11.9550486"><ele>669.0</ele><time>2026-05-03T13:55:05.116Z</time></trkpt><trkpt lat="43.5687025" lon="11.9549446"><ele>669.0</ele><time>2026-05-03T13:55:06.123Z</time></trkpt><trkpt lat="43.5686545" lon="11.9548392"><ele>669.0</ele><time>2026-05-03T13:55:07.109Z</time></trkpt><trkpt lat="43.5686205" lon="11.9547252"><ele>669.0</ele><time>2026-05-03T13:55:08.111Z</time></trkpt><trkpt lat="43.5685939" lon="11.9546157"><ele>668.5</ele><time>2026-05-03T13:55:09.123Z</time></trkpt><trkpt lat="43.5685793" lon="11.9545097"><ele>668.0</ele><time>2026-05-03T13:55:10.11Z</time></trkpt><trkpt lat="43.5685699" lon="11.9543886"><ele>667.5</ele><time>2026-05-03T13:55:11.125Z</time></trkpt><trkpt lat="43.568567" lon="11.9542614"><ele>667.0</ele><time>2026-05-03T13:55:12.109Z</time></trkpt><trkpt lat="43.5685718" lon="11.9541732"><ele>666.5</ele><time>2026-05-03T13:55:13.118Z</time></trkpt><trkpt lat="43.5685977" lon="11.9540828"><ele>666.0</ele><time>2026-05-03T13:55:14.115Z</time></trkpt><trkpt lat="43.568609" lon="11.9539898"><ele>666.0</ele><time>2026-05-03T13:55:15.109Z</time></trkpt><trkpt lat="43.5686004" lon="11.9538792"><ele>666.0</ele><time>2026-05-03T13:55:16.112Z</time></trkpt><trkpt lat="43.5685882" lon="11.9537779"><ele>666.0</ele><time>2026-05-03T13:55:17.109Z</time></trkpt><trkpt lat="43.5685421" lon="11.9536864"><ele>666.0</ele><time>2026-05-03T13:55:18.112Z</time></trkpt><trkpt lat="43.5684661" lon="11.9536092"><ele>666.0</ele><time>2026-05-03T13:55:19.119Z</time></trkpt><trkpt lat="43.5683995" lon="11.9535446"><ele>666.0</ele><time>2026-05-03T13:55:20.101Z</time></trkpt><trkpt lat="43.5683404" lon="11.9534884"><ele>666.0</ele><time>2026-05-03T13:55:21.116Z</time></trkpt><trkpt lat="43.5682793" lon="11.9534247"><ele>666.0</ele><time>2026-05-03T13:55:22.115Z</time></trkpt><trkpt lat="43.5682165" lon="11.9533605"><ele>666.0</ele><time>2026-05-03T13:55:23.115Z</time></trkpt><trkpt lat="43.5681486" lon="11.9533017"><ele>666.0</ele><time>2026-05-03T13:55:24.102Z</time></trkpt><trkpt lat="43.5680755" lon="11.9532513"><ele>666.0</ele><time>2026-05-03T13:55:25.134Z</time></trkpt><trkpt lat="43.5680142" lon="11.9532002"><ele>666.0</ele><time>2026-05-03T13:55:26.113Z</time></trkpt><trkpt lat="43.5679389" lon="11.9530399"><ele>666.5</ele><time>2026-05-03T13:55:28.12Z</time></trkpt><trkpt lat="43.5679154" lon="11.9529406"><ele>667.0</ele><time>2026-05-03T13:55:29.107Z</time></trkpt><trkpt lat="43.5678975" lon="11.9528556"><ele>667.5</ele><time>2026-05-03T13:55:30.122Z</time></trkpt><trkpt lat="43.5678449" lon="11.952706"><ele>668.0</ele><time>2026-05-03T13:55:32.116Z</time></trkpt><trkpt lat="43.567779" lon="11.9526283"><ele>668.5</ele><time>2026-05-03T13:55:33.125Z</time></trkpt><trkpt lat="43.5677135" lon="11.9525602"><ele>669.0</ele><time>2026-05-03T13:55:34.115Z</time></trkpt><trkpt lat="43.5676337" lon="11.9525178"><ele>669.6666666666666</ele><time>2026-05-03T13:55:35.121Z</time></trkpt><trkpt lat="43.5675509" lon="11.9524739"><ele>670.3333333333334</ele><time>2026-05-03T13:55:36.097Z</time></trkpt><trkpt lat="43.5674772" lon="11.9524341"><ele>671.0</ele><time>2026-05-03T13:55:37.12Z</time></trkpt><trkpt lat="43.5674112" lon="11.952406"><ele>671.6666666666667</ele><time>2026-05-03T13:55:38.108Z</time></trkpt><trkpt lat="43.5673486" lon="11.9523836"><ele>672.3333333333334</ele><time>2026-05-03T13:55:39.12Z</time></trkpt><trkpt lat="43.5672473" lon="11.952348"><ele>673.0</ele><time>2026-05-03T13:55:41.104Z</time></trkpt><trkpt lat="43.5671491" lon="11.9522514"><ele>673.0</ele><time>2026-05-03T13:55:43.117Z</time></trkpt><trkpt lat="43.5670599" lon="11.9521679"><ele>673.0</ele><time>2026-05-03T13:55:45.124Z</time></trkpt><trkpt lat="43.5669736" lon="11.9521048"><ele>673.0</ele><time>2026-05-03T13:55:47.105Z</time></trkpt><trkpt lat="43.5668595" lon="11.9521003"><ele>673.0</ele><time>2026-05-03T13:55:49.105Z</time></trkpt><trkpt lat="43.5667662" lon="11.9520355"><ele>673.0</ele><time>2026-05-03T13:55:51.124Z</time></trkpt><trkpt lat="43.5666669" lon="11.951969"><ele>671.0</ele><time>2026-05-03T13:55:53.13Z</time></trkpt><trkpt lat="43.5665928" lon="11.9519013"><ele>669.0</ele><time>2026-05-03T13:55:55.107Z</time></trkpt><trkpt lat="43.5666059" lon="11.9517679"><ele>667.0</ele><time>2026-05-03T13:55:57.118Z</time></trkpt><trkpt lat="43.5666618" lon="11.9516116"><ele>665.0</ele><time>2026-05-03T13:55:59.112Z</time></trkpt><trkpt lat="43.5667092" lon="11.9514987"><ele>663.0</ele><time>2026-05-03T13:56:00.108Z</time></trkpt><trkpt lat="43.5667571" lon="11.9513874"><ele>662.9999999999999</ele><time>2026-05-03T13:56:01.109Z</time></trkpt><trkpt lat="43.5667849" lon="11.9512947"><ele>663.0</ele><time>2026-05-03T13:56:02.119Z</time></trkpt><trkpt lat="43.566812" lon="11.9511947"><ele>663.0</ele><time>2026-05-03T13:56:03.135Z</time></trkpt><trkpt lat="43.5668" lon="11.9510837"><ele>663.0</ele><time>2026-05-03T13:56:04.108Z</time></trkpt><trkpt lat="43.5667891" lon="11.9509701"><ele>663.0</ele><time>2026-05-03T13:56:05.116Z</time></trkpt><trkpt lat="43.5667882" lon="11.9508824"><ele>662.9999999999999</ele><time>2026-05-03T13:56:06.117Z</time></trkpt><trkpt lat="43.5667785" lon="11.9507946"><ele>663.0</ele><time>2026-05-03T13:56:09.125Z</time></trkpt><trkpt lat="43.5667695" lon="11.9507084"><ele>662.1666666666666</ele><time>2026-05-03T13:56:11.104Z</time></trkpt><trkpt lat="43.5667809" lon="11.9505841"><ele>661.3333333333334</ele><time>2026-05-03T13:56:13.106Z</time></trkpt><trkpt lat="43.5668189" lon="11.9504277"><ele>660.5</ele><time>2026-05-03T13:56:15.101Z</time></trkpt><trkpt lat="43.5668401" lon="11.9503205"><ele>659.6666666666667</ele><time>2026-05-03T13:56:16.114Z</time></trkpt><trkpt lat="43.5668559" lon="11.9502238"><ele>658.8333333333334</ele><time>2026-05-03T13:56:17.11Z</time></trkpt><trkpt lat="43.5668683" lon="11.9501248"><ele>658.0</ele><time>2026-05-03T13:56:18.125Z</time></trkpt><trkpt lat="43.5668646" lon="11.9500284"><ele>658.0</ele><time>2026-05-03T13:56:19.119Z</time></trkpt><trkpt lat="43.5668546" lon="11.9499395"><ele>658.0</ele><time>2026-05-03T13:56:20.109Z</time></trkpt><trkpt lat="43.5668334" lon="11.9497624"><ele>658.0</ele><time>2026-05-03T13:56:22.106Z</time></trkpt><trkpt lat="43.5667692" lon="11.9496316"><ele>658.0</ele><time>2026-05-03T13:56:24.109Z</time></trkpt><trkpt lat="43.5667056" lon="11.9495753"><ele>658.0</ele><time>2026-05-03T13:56:25.117Z</time></trkpt><trkpt lat="43.5666403" lon="11.9495006"><ele>658.0</ele><time>2026-05-03T13:56:26.136Z</time></trkpt><trkpt lat="43.5665748" lon="11.9494297"><ele>658.0</ele><time>2026-05-03T13:56:27.119Z</time></trkpt><trkpt lat="43.566512" lon="11.9493857"><ele>658.0</ele><time>2026-05-03T13:56:28.12Z</time></trkpt><trkpt lat="43.5664399" lon="11.9493542"><ele>658.0</ele><time>2026-05-03T13:56:29.108Z</time></trkpt><trkpt lat="43.5663702" lon="11.9492966"><ele>658.0</ele><time>2026-05-03T13:56:30.122Z</time></trkpt><trkpt lat="43.5663142" lon="11.9492326"><ele>658.0</ele><time>2026-05-03T13:56:31.117Z</time></trkpt><trkpt lat="43.5662827" lon="11.9491572"><ele>658.0</ele><time>2026-05-03T13:56:32.113Z</time></trkpt><trkpt lat="43.5662771" lon="11.9489599"><ele>660.3333333333334</ele><time>2026-05-03T13:56:34.131Z</time></trkpt><trkpt lat="43.5663035" lon="11.948831"><ele>662.6666666666667</ele><time>2026-05-03T13:56:35.12Z</time></trkpt><trkpt lat="43.5663409" lon="11.9487176"><ele>665.0</ele><time>2026-05-03T13:56:36.12Z</time></trkpt><trkpt lat="43.5663684" lon="11.948623"><ele>667.3333333333334</ele><time>2026-05-03T13:56:37.12Z</time></trkpt><trkpt lat="43.5663645" lon="11.9485289"><ele>669.6666666666666</ele><time>2026-05-03T13:56:38.128Z</time></trkpt><trkpt lat="43.5663353" lon="11.9484417"><ele>672.0</ele><time>2026-05-03T13:56:39.115Z</time></trkpt><trkpt lat="43.5662764" lon="11.9483709"><ele>668.75</ele><time>2026-05-03T13:56:40.112Z</time></trkpt><trkpt lat="43.5662109" lon="11.9483001"><ele>665.5</ele><time>2026-05-03T13:56:41.105Z</time></trkpt><trkpt lat="43.5661278" lon="11.9482231"><ele>662.25</ele><time>2026-05-03T13:56:42.103Z</time></trkpt><trkpt lat="43.5660125" lon="11.948121"><ele>659.0</ele><time>2026-05-03T13:56:43.114Z</time></trkpt><trkpt lat="43.565899" lon="11.9480177"><ele>659.0</ele><time>2026-05-03T13:56:44.102Z</time></trkpt><trkpt lat="43.5658085" lon="11.9479313"><ele>659.0</ele><time>2026-05-03T13:56:45.105Z</time></trkpt><trkpt lat="43.5657315" lon="11.9478514"><ele>659.0</ele><time>2026-05-03T13:56:46.116Z</time></trkpt><trkpt lat="43.5656554" lon="11.9477629"><ele>659.0</ele><time>2026-05-03T13:56:47.104Z</time></trkpt><trkpt lat="43.5655944" lon="11.9476627"><ele>659.0</ele><time>2026-05-03T13:56:48.099Z</time></trkpt><trkpt lat="43.5655457" lon="11.9475791"><ele>658.6</ele><time>2026-05-03T13:56:49.109Z</time></trkpt><trkpt lat="43.5655041" lon="11.9475124"><ele>658.2</ele><time>2026-05-03T13:56:50.131Z</time></trkpt><trkpt lat="43.5654408" lon="11.9474391"><ele>657.8000000000001</ele><time>2026-05-03T13:56:51.103Z</time></trkpt><trkpt lat="43.565335" lon="11.9473662"><ele>657.4000000000001</ele><time>2026-05-03T13:56:52.09Z</time></trkpt><trkpt lat="43.5651957" lon="11.9472711"><ele>657.0</ele><time>2026-05-03T13:56:53.112Z</time></trkpt><trkpt lat="43.5650533" lon="11.9471727"><ele>657.0</ele><time>2026-05-03T13:56:54.099Z</time></trkpt><trkpt lat="43.5649412" lon="11.9470917"><ele>657.0</ele><time>2026-05-03T13:56:55.109Z</time></trkpt><trkpt lat="43.564847" lon="11.9470228"><ele>657.0</ele><time>2026-05-03T13:56:56.113Z</time></trkpt><trkpt lat="43.5647683" lon="11.9469739"><ele>657.0</ele><time>2026-05-03T13:56:57.11Z</time></trkpt><trkpt lat="43.5646897" lon="11.9469321"><ele>657.0</ele><time>2026-05-03T13:56:58.111Z</time></trkpt><trkpt lat="43.5646124" lon="11.9468951"><ele>657.0</ele><time>2026-05-03T13:56:59.096Z</time></trkpt><trkpt lat="43.5645338" lon="11.9468581"><ele>657.0</ele><time>2026-05-03T13:57:00.104Z</time></trkpt><trkpt lat="43.5644594" lon="11.9468226"><ele>657.0</ele><time>2026-05-03T13:57:01.118Z</time></trkpt><trkpt lat="43.5643914" lon="11.9467914"><ele>657.0</ele><time>2026-05-03T13:57:02.113Z</time></trkpt><trkpt lat="43.5643265" lon="11.9467597"><ele>657.0</ele><time>2026-05-03T13:57:03.111Z</time></trkpt><trkpt lat="43.5642629" lon="11.9467163"><ele>657.0</ele><time>2026-05-03T13:57:04.108Z</time></trkpt><trkpt lat="43.5641952" lon="11.9466503"><ele>657.6</ele><time>2026-05-03T13:57:05.117Z</time></trkpt><trkpt lat="43.5641411" lon="11.946572"><ele>658.2</ele><time>2026-05-03T13:57:06.122Z</time></trkpt><trkpt lat="43.5640964" lon="11.9465022"><ele>658.8</ele><time>2026-05-03T13:57:07.12Z</time></trkpt><trkpt lat="43.5640187" lon="11.9463964"><ele>659.4</ele><time>2026-05-03T13:57:09.115Z</time></trkpt><trkpt lat="43.5639345" lon="11.9462937"><ele>660.0</ele><time>2026-05-03T13:57:11.116Z</time></trkpt><trkpt lat="43.563863" lon="11.9461655"><ele>660.0</ele><time>2026-05-03T13:57:13.114Z</time></trkpt><trkpt lat="43.5638259" lon="11.9460358"><ele>660.0</ele><time>2026-05-03T13:57:15.114Z</time></trkpt><trkpt lat="43.5638302" lon="11.9458563"><ele>660.0</ele><time>2026-05-03T13:57:17.106Z</time></trkpt><trkpt lat="43.5638136" lon="11.9456979"><ele>660.0</ele><time>2026-05-03T13:57:19.118Z</time></trkpt><trkpt lat="43.5637878" lon="11.9455229"><ele>660.3333333333334</ele><time>2026-05-03T13:57:21.109Z</time></trkpt><trkpt lat="43.5637794" lon="11.9454179"><ele>660.6666666666666</ele><time>2026-05-03T13:57:22.096Z</time></trkpt><trkpt lat="43.5637709" lon="11.9453079"><ele>661.0</ele><time>2026-05-03T13:57:23.102Z</time></trkpt><trkpt lat="43.5637663" lon="11.9451868"><ele>661.3333333333333</ele><time>2026-05-03T13:57:24.099Z</time></trkpt><trkpt lat="43.5637624" lon="11.9450675"><ele>661.6666666666666</ele><time>2026-05-03T13:57:25.112Z</time></trkpt><trkpt lat="43.5637616" lon="11.9449473"><ele>662.0</ele><time>2026-05-03T13:57:26.115Z</time></trkpt><trkpt lat="43.5637383" lon="11.944825"><ele>660.6666666666666</ele><time>2026-05-03T13:57:27.103Z</time></trkpt><trkpt lat="43.5637018" lon="11.9447053"><ele>659.3333333333333</ele><time>2026-05-03T13:57:28.112Z</time></trkpt><trkpt lat="43.5636721" lon="11.9445896"><ele>658.0</ele><time>2026-05-03T13:57:29.106Z</time></trkpt><trkpt lat="43.5636501" lon="11.9444797"><ele>656.6666666666666</ele><time>2026-05-03T13:57:30.11Z</time></trkpt><trkpt lat="43.563633" lon="11.9443696"><ele>655.3333333333334</ele><time>2026-05-03T13:57:31.107Z</time></trkpt><trkpt lat="43.5636068" lon="11.9442671"><ele>654.0</ele><time>2026-05-03T13:57:32.108Z</time></trkpt><trkpt lat="43.5635442" lon="11.9441811"><ele>648.2</ele><time>2026-05-03T13:57:33.137Z</time></trkpt><trkpt lat="43.5634752" lon="11.9440934"><ele>642.4000000000001</ele><time>2026-05-03T13:57:34.101Z</time></trkpt><trkpt lat="43.5633961" lon="11.9440019"><ele>636.6</ele><time>2026-05-03T13:57:35.115Z</time></trkpt><trkpt lat="43.563322" lon="11.9439067"><ele>630.8</ele><time>2026-05-03T13:57:36.108Z</time></trkpt><trkpt lat="43.5632526" lon="11.9437981"><ele>625.0</ele><time>2026-05-03T13:57:37.114Z</time></trkpt><trkpt lat="43.5631939" lon="11.9436952"><ele>625.0</ele><time>2026-05-03T13:57:38.108Z</time></trkpt><trkpt lat="43.5631497" lon="11.9435929"><ele>625.0</ele><time>2026-05-03T13:57:39.116Z</time></trkpt><trkpt lat="43.5631104" lon="11.9434968"><ele>625.0</ele><time>2026-05-03T13:57:40.113Z</time></trkpt><trkpt lat="43.5630759" lon="11.9434044"><ele>625.0</ele><time>2026-05-03T13:57:41.102Z</time></trkpt><trkpt lat="43.5630363" lon="11.9433152"><ele>625.0</ele><time>2026-05-03T13:57:42.111Z</time></trkpt><trkpt lat="43.5629949" lon="11.9432142"><ele>625.0</ele><time>2026-05-03T13:57:43.115Z</time></trkpt><trkpt lat="43.5629546" lon="11.9431171"><ele>624.8333333333334</ele><time>2026-05-03T13:57:44.112Z</time></trkpt><trkpt lat="43.5629421" lon="11.9430209"><ele>624.6666666666667</ele><time>2026-05-03T13:57:45.101Z</time></trkpt><trkpt lat="43.5629521" lon="11.9429322"><ele>624.5</ele><time>2026-05-03T13:57:46.109Z</time></trkpt><trkpt lat="43.5630043" lon="11.942781"><ele>624.3333333333334</ele><time>2026-05-03T13:57:48.105Z</time></trkpt><trkpt lat="43.5630094" lon="11.9426911"><ele>624.1666666666666</ele><time>2026-05-03T13:57:49.114Z</time></trkpt><trkpt lat="43.5630128" lon="11.9426005"><ele>624.0</ele><time>2026-05-03T13:57:50.115Z</time></trkpt><trkpt lat="43.5629291" lon="11.9424562"><ele>620.5</ele><time>2026-05-03T13:57:52.107Z</time></trkpt><trkpt lat="43.5628438" lon="11.9424002"><ele>617.0</ele><time>2026-05-03T13:57:53.109Z</time></trkpt><trkpt lat="43.5627689" lon="11.9423527"><ele>613.5</ele><time>2026-05-03T13:57:54.104Z</time></trkpt><trkpt lat="43.562708" lon="11.9423088"><ele>610.0</ele><time>2026-05-03T13:57:55.109Z</time></trkpt><trkpt lat="43.5626534" lon="11.9422112"><ele>606.5</ele><time>2026-05-03T13:57:56.111Z</time></trkpt><trkpt lat="43.5625991" lon="11.9420747"><ele>603.0</ele><time>2026-05-03T13:57:57.098Z</time></trkpt><trkpt lat="43.5625292" lon="11.9419304"><ele>603.0</ele><time>2026-05-03T13:57:58.109Z</time></trkpt><trkpt lat="43.5624421" lon="11.9417946"><ele>603.0</ele><time>2026-05-03T13:57:59.102Z</time></trkpt><trkpt lat="43.5623694" lon="11.9416751"><ele>603.0</ele><time>2026-05-03T13:58:00.112Z</time></trkpt><trkpt lat="43.5623198" lon="11.9415869"><ele>603.0</ele><time>2026-05-03T13:58:01.112Z</time></trkpt><trkpt lat="43.5622469" lon="11.9414525"><ele>603.0</ele><time>2026-05-03T13:58:03.121Z</time></trkpt><trkpt lat="43.5622196" lon="11.9412882"><ele>603.1999999999999</ele><time>2026-05-03T13:58:05.095Z</time></trkpt><trkpt lat="43.5621722" lon="11.9412247"><ele>603.4</ele><time>2026-05-03T13:58:06.111Z</time></trkpt><trkpt lat="43.5620993" lon="11.9411981"><ele>603.5999999999999</ele><time>2026-05-03T13:58:07.109Z</time></trkpt><trkpt lat="43.562002" lon="11.941159"><ele>603.8</ele><time>2026-05-03T13:58:08.096Z</time></trkpt><trkpt lat="43.561828" lon="11.9410629"><ele>604.0</ele><time>2026-05-03T13:58:09.114Z</time></trkpt><trkpt lat="43.5616816" lon="11.9409652"><ele>601.75</ele><time>2026-05-03T13:58:10.119Z</time></trkpt><trkpt lat="43.5615573" lon="11.9408819"><ele>599.5</ele><time>2026-05-03T13:58:11.116Z</time></trkpt><trkpt lat="43.5614549" lon="11.9408102"><ele>597.25</ele><time>2026-05-03T13:58:12.11Z</time></trkpt><trkpt lat="43.5613699" lon="11.9407466"><ele>595.0</ele><time>2026-05-03T13:58:13.108Z</time></trkpt><trkpt lat="43.5612824" lon="11.9406678"><ele>595.0</ele><time>2026-05-03T13:58:14.115Z</time></trkpt><trkpt lat="43.5611998" lon="11.9405869"><ele>595.0</ele><time>2026-05-03T13:58:15.115Z</time></trkpt><trkpt lat="43.561128" lon="11.9405015"><ele>595.0</ele><time>2026-05-03T13:58:16.107Z</time></trkpt><trkpt lat="43.5610651" lon="11.9404104"><ele>595.0</ele><time>2026-05-03T13:58:17.11Z</time></trkpt><trkpt lat="43.5610002" lon="11.9403268"><ele>595.0</ele><time>2026-05-03T13:58:18.117Z</time></trkpt><trkpt lat="43.5609361" lon="11.94026"><ele>594.1666666666667</ele><time>2026-05-03T13:58:19.12Z</time></trkpt><trkpt lat="43.5608693" lon="11.9401924"><ele>593.3333333333334</ele><time>2026-05-03T13:58:20.126Z</time></trkpt><trkpt lat="43.5607996" lon="11.9401344"><ele>592.5</ele><time>2026-05-03T13:58:21.113Z</time></trkpt><trkpt lat="43.5607297" lon="11.9400733"><ele>591.6666666666666</ele><time>2026-05-03T13:58:22.114Z</time></trkpt><trkpt lat="43.5606648" lon="11.9400163"><ele>590.8333333333333</ele><time>2026-05-03T13:58:23.114Z</time></trkpt><trkpt lat="43.560587" lon="11.9399489"><ele>590.0</ele><time>2026-05-03T13:58:24.116Z</time></trkpt><trkpt lat="43.5605152" lon="11.9398755"><ele>590.0</ele><time>2026-05-03T13:58:25.146Z</time></trkpt><trkpt lat="43.5604527" lon="11.9397947"><ele>590.0</ele><time>2026-05-03T13:58:26.107Z</time></trkpt><trkpt lat="43.5603924" lon="11.9397056"><ele>590.0</ele><time>2026-05-03T13:58:27.111Z</time></trkpt><trkpt lat="43.5603306" lon="11.9396132"><ele>590.0</ele><time>2026-05-03T13:58:28.111Z</time></trkpt><trkpt lat="43.5602676" lon="11.9395219"><ele>590.0</ele><time>2026-05-03T13:58:29.114Z</time></trkpt><trkpt lat="43.5602072" lon="11.9394383"><ele>590.0</ele><time>2026-05-03T13:58:30.117Z</time></trkpt><trkpt lat="43.5601499" lon="11.9393563"><ele>589.3333333333333</ele><time>2026-05-03T13:58:31.116Z</time></trkpt><trkpt lat="43.5600954" lon="11.9392776"><ele>588.6666666666666</ele><time>2026-05-03T13:58:32.123Z</time></trkpt><trkpt lat="43.5600415" lon="11.9391942"><ele>588.0</ele><time>2026-05-03T13:58:33.114Z</time></trkpt><trkpt lat="43.559988" lon="11.9391127"><ele>587.3333333333334</ele><time>2026-05-03T13:58:34.115Z</time></trkpt><trkpt lat="43.5599322" lon="11.9390297"><ele>586.6666666666667</ele><time>2026-05-03T13:58:35.115Z</time></trkpt><trkpt lat="43.559872" lon="11.938948"><ele>586.0</ele><time>2026-05-03T13:58:36.113Z</time></trkpt><trkpt lat="43.5598063" lon="11.9388693"><ele>586.0</ele><time>2026-05-03T13:58:37.118Z</time></trkpt><trkpt lat="43.5597365" lon="11.9387998"><ele>586.0</ele><time>2026-05-03T13:58:38.123Z</time></trkpt><trkpt lat="43.5596649" lon="11.9387359"><ele>586.0</ele><time>2026-05-03T13:58:39.118Z</time></trkpt><trkpt lat="43.5595933" lon="11.9386741"><ele>586.0</ele><time>2026-05-03T13:58:40.104Z</time></trkpt><trkpt lat="43.5595221" lon="11.9386146"><ele>586.0</ele><time>2026-05-03T13:58:41.112Z</time></trkpt><trkpt lat="43.5594521" lon="11.9385564"><ele>586.0</ele><time>2026-05-03T13:58:42.116Z</time></trkpt><trkpt lat="43.5593811" lon="11.9384981"><ele>584.1666666666667</ele><time>2026-05-03T13:58:43.11Z</time></trkpt><trkpt lat="43.5593159" lon="11.9384461"><ele>582.3333333333334</ele><time>2026-05-03T13:58:44.113Z</time></trkpt><trkpt lat="43.5592593" lon="11.938399"><ele>580.5</ele><time>2026-05-03T13:58:45.12Z</time></trkpt><trkpt lat="43.5592009" lon="11.9383568"><ele>578.6666666666666</ele><time>2026-05-03T13:58:46.1Z</time></trkpt><trkpt lat="43.559083" lon="11.9383068"><ele>576.8333333333333</ele><time>2026-05-03T13:58:48.144Z</time></trkpt><trkpt lat="43.558967" lon="11.9383324"><ele>575.0</ele><time>2026-05-03T13:58:50.114Z</time></trkpt><trkpt lat="43.5588655" lon="11.9384012"><ele>575.0</ele><time>2026-05-03T13:58:52.096Z</time></trkpt><trkpt lat="43.5587971" lon="11.9384799"><ele>575.0</ele><time>2026-05-03T13:58:54.106Z</time></trkpt><trkpt lat="43.5587294" lon="11.93852"><ele>575.0</ele><time>2026-05-03T13:58:56.114Z</time></trkpt><trkpt lat="43.5586593" lon="11.9384777"><ele>575.0</ele><time>2026-05-03T13:58:58.11Z</time></trkpt><trkpt lat="43.5586102" lon="11.9383591"><ele>575.0</ele><time>2026-05-03T13:59:00.11Z</time></trkpt><trkpt lat="43.5585569" lon="11.9382572"><ele>575.0</ele><time>2026-05-03T13:59:02.107Z</time></trkpt><trkpt lat="43.5585046" lon="11.9381678"><ele>571.2</ele><time>2026-05-03T13:59:04.113Z</time></trkpt><trkpt lat="43.5584334" lon="11.9381598"><ele>567.4</ele><time>2026-05-03T13:59:06.111Z</time></trkpt><trkpt lat="43.558363" lon="11.9382467"><ele>563.6</ele><time>2026-05-03T13:59:08.11Z</time></trkpt><trkpt lat="43.5582896" lon="11.9383448"><ele>559.8</ele><time>2026-05-03T13:59:10.113Z</time></trkpt><trkpt lat="43.5581664" lon="11.9382956"><ele>556.0</ele><time>2026-05-03T13:59:12.1Z</time></trkpt><trkpt lat="43.5581039" lon="11.9382302"><ele>556.0</ele><time>2026-05-03T13:59:13.12Z</time></trkpt><trkpt lat="43.5580605" lon="11.938139"><ele>556.0</ele><time>2026-05-03T13:59:14.121Z</time></trkpt><trkpt lat="43.5580406" lon="11.9380117"><ele>556.0</ele><time>2026-05-03T13:59:15.125Z</time></trkpt><trkpt lat="43.5580505" lon="11.9378969"><ele>556.0</ele><time>2026-05-03T13:59:16.109Z</time></trkpt><trkpt lat="43.5580647" lon="11.9377912"><ele>556.0</ele><time>2026-05-03T13:59:17.114Z</time></trkpt><trkpt lat="43.5580591" lon="11.937698"><ele>556.0</ele><time>2026-05-03T13:59:18.118Z</time></trkpt><trkpt lat="43.5579742" lon="11.9375538"><ele>555.4</ele><time>2026-05-03T13:59:20.118Z</time></trkpt><trkpt lat="43.5579105" lon="11.9374845"><ele>554.8</ele><time>2026-05-03T13:59:21.107Z</time></trkpt><trkpt lat="43.5578106" lon="11.9373977"><ele>554.1999999999999</ele><time>2026-05-03T13:59:22.101Z</time></trkpt><trkpt lat="43.5577027" lon="11.9373092"><ele>553.6</ele><time>2026-05-03T13:59:23.115Z</time></trkpt><trkpt lat="43.5575961" lon="11.9372323"><ele>553.0</ele><time>2026-05-03T13:59:24.124Z</time></trkpt><trkpt lat="43.5574952" lon="11.9371639"><ele>548.8</ele><time>2026-05-03T13:59:25.096Z</time></trkpt><trkpt lat="43.5574009" lon="11.9371005"><ele>544.5999999999999</ele><time>2026-05-03T13:59:26.113Z</time></trkpt><trkpt lat="43.5573199" lon="11.9370437"><ele>540.4000000000001</ele><time>2026-05-03T13:59:27.109Z</time></trkpt><trkpt lat="43.5572444" lon="11.936994"><ele>536.2</ele><time>2026-05-03T13:59:28.122Z</time></trkpt><trkpt lat="43.5571856" lon="11.9369532"><ele>532.0</ele><time>2026-05-03T13:59:29.115Z</time></trkpt><trkpt lat="43.5570815" lon="11.9368591"><ele>528.8333333333334</ele><time>2026-05-03T13:59:31.113Z</time></trkpt><trkpt lat="43.5570287" lon="11.9368019"><ele>525.6666666666667</ele><time>2026-05-03T13:59:32.115Z</time></trkpt><trkpt lat="43.5569688" lon="11.9367583"><ele>522.5</ele><time>2026-05-03T13:59:33.12Z</time></trkpt><trkpt lat="43.5569149" lon="11.9367113"><ele>519.3333333333334</ele><time>2026-05-03T13:59:34.117Z</time></trkpt><trkpt lat="43.5568317" lon="11.9366361"><ele>516.1666666666666</ele><time>2026-05-03T13:59:36.114Z</time></trkpt><trkpt lat="43.5567523" lon="11.9366291"><ele>513.0</ele><time>2026-05-03T13:59:38.109Z</time></trkpt><trkpt lat="43.5567353" lon="11.9367541"><ele>512.3333333333334</ele><time>2026-05-03T13:59:40.115Z</time></trkpt><trkpt lat="43.5567398" lon="11.9369206"><ele>511.66666666666663</ele><time>2026-05-03T13:59:42.105Z</time></trkpt><trkpt lat="43.5567544" lon="11.9370171"><ele>511.0</ele><time>2026-05-03T13:59:43.121Z</time></trkpt><trkpt lat="43.5567914" lon="11.9370998"><ele>510.3333333333333</ele><time>2026-05-03T13:59:44.11Z</time></trkpt><trkpt lat="43.556836" lon="11.9371753"><ele>509.66666666666663</ele><time>2026-05-03T13:59:45.115Z</time></trkpt><trkpt lat="43.5568588" lon="11.9372621"><ele>509.0</ele><time>2026-05-03T13:59:46.109Z</time></trkpt><trkpt lat="43.5568517" lon="11.9373684"><ele>508.99999999999994</ele><time>2026-05-03T13:59:47.114Z</time></trkpt><trkpt lat="43.5568114" lon="11.9374751"><ele>509.0</ele><time>2026-05-03T13:59:48.106Z</time></trkpt><trkpt lat="43.5567502" lon="11.9375706"><ele>509.0</ele><time>2026-05-03T13:59:49.108Z</time></trkpt><trkpt lat="43.5566946" lon="11.9376663"><ele>509.0</ele><time>2026-05-03T13:59:50.109Z</time></trkpt><trkpt lat="43.5566627" lon="11.9377761"><ele>508.99999999999994</ele><time>2026-05-03T13:59:51.113Z</time></trkpt><trkpt lat="43.5566578" lon="11.937892"><ele>509.0</ele><time>2026-05-03T13:59:52.112Z</time></trkpt><trkpt lat="43.5566757" lon="11.9380113"><ele>507.6</ele><time>2026-05-03T13:59:53.109Z</time></trkpt><trkpt lat="43.556692" lon="11.9381343"><ele>506.2</ele><time>2026-05-03T13:59:54.107Z</time></trkpt><trkpt lat="43.5567141" lon="11.9382575"><ele>504.80000000000007</ele><time>2026-05-03T13:59:55.108Z</time></trkpt><trkpt lat="43.5567375" lon="11.9383759"><ele>503.40000000000003</ele><time>2026-05-03T13:59:56.108Z</time></trkpt><trkpt lat="43.5567626" lon="11.9385136"><ele>502.0</ele><time>2026-05-03T13:59:57.096Z</time></trkpt><trkpt lat="43.5567886" lon="11.938645"><ele>503.00000000000006</ele><time>2026-05-03T13:59:58.108Z</time></trkpt><trkpt lat="43.5568145" lon="11.9387614"><ele>504.0</ele><time>2026-05-03T13:59:59.114Z</time></trkpt><trkpt lat="43.5568483" lon="11.9388792"><ele>505.0</ele><time>2026-05-03T14:00:00.115Z</time></trkpt><trkpt lat="43.5568949" lon="11.9389859"><ele>506.0</ele><time>2026-05-03T14:00:01.118Z</time></trkpt><trkpt lat="43.5569507" lon="11.9390823"><ele>507.00000000000006</ele><time>2026-05-03T14:00:02.117Z</time></trkpt><trkpt lat="43.5570074" lon="11.9391694"><ele>508.0</ele><time>2026-05-03T14:00:03.114Z</time></trkpt><trkpt lat="43.5570607" lon="11.9392481"><ele>508.0</ele><time>2026-05-03T14:00:04.111Z</time></trkpt><trkpt lat="43.5571052" lon="11.939319"><ele>507.99999999999994</ele><time>2026-05-03T14:00:05.104Z</time></trkpt><trkpt lat="43.5571695" lon="11.9394461"><ele>507.99999999999994</ele><time>2026-05-03T14:00:07.11Z</time></trkpt><trkpt lat="43.5571398" lon="11.9395715"><ele>508.0</ele><time>2026-05-03T14:00:09.101Z</time></trkpt><trkpt lat="43.5570278" lon="11.9395727"><ele>508.0</ele><time>2026-05-03T14:00:11.113Z</time></trkpt><trkpt lat="43.55697" lon="11.9394867"><ele>504.2</ele><time>2026-05-03T14:00:12.113Z</time></trkpt><trkpt lat="43.5569043" lon="11.9393906"><ele>500.4</ele><time>2026-05-03T14:00:13.116Z</time></trkpt><trkpt lat="43.5568291" lon="11.9392946"><ele>496.59999999999997</ele><time>2026-05-03T14:00:14.114Z</time></trkpt><trkpt lat="43.5567456" lon="11.9392045"><ele>492.79999999999995</ele><time>2026-05-03T14:00:15.112Z</time></trkpt><trkpt lat="43.5566606" lon="11.9391059"><ele>489.0</ele><time>2026-05-03T14:00:16.12Z</time></trkpt><trkpt lat="43.556579" lon="11.9389981"><ele>489.0</ele><time>2026-05-03T14:00:17.108Z</time></trkpt><trkpt lat="43.5564983" lon="11.9388931"><ele>489.0</ele><time>2026-05-03T14:00:18.11Z</time></trkpt><trkpt lat="43.5564223" lon="11.9387852"><ele>489.0</ele><time>2026-05-03T14:00:19.107Z</time></trkpt><trkpt lat="43.556345" lon="11.9386838"><ele>489.0</ele><time>2026-05-03T14:00:20.122Z</time></trkpt><trkpt lat="43.5562698" lon="11.9385795"><ele>489.0</ele><time>2026-05-03T14:00:21.105Z</time></trkpt><trkpt lat="43.5561959" lon="11.93848"><ele>486.0</ele><time>2026-05-03T14:00:22.105Z</time></trkpt><trkpt lat="43.5561339" lon="11.9383699"><ele>483.0</ele><time>2026-05-03T14:00:23.113Z</time></trkpt><trkpt lat="43.5560821" lon="11.9382583"><ele>480.0</ele><time>2026-05-03T14:00:24.116Z</time></trkpt><trkpt lat="43.5560303" lon="11.938147"><ele>477.0</ele><time>2026-05-03T14:00:25.101Z</time></trkpt><trkpt lat="43.5559789" lon="11.9380405"><ele>474.0</ele><time>2026-05-03T14:00:26.104Z</time></trkpt><trkpt lat="43.5559208" lon="11.9379451"><ele>474.0</ele><time>2026-05-03T14:00:27.114Z</time></trkpt><trkpt lat="43.5558394" lon="11.9378753"><ele>474.0</ele><time>2026-05-03T14:00:28.105Z</time></trkpt><trkpt lat="43.5557461" lon="11.9378372"><ele>474.0</ele><time>2026-05-03T14:00:29.11Z</time></trkpt><trkpt lat="43.5556445" lon="11.9378214"><ele>474.0</ele><time>2026-05-03T14:00:30.101Z</time></trkpt><trkpt lat="43.5555412" lon="11.9378136"><ele>474.0</ele><time>2026-05-03T14:00:31.117Z</time></trkpt><trkpt lat="43.5554384" lon="11.937806"><ele>469.6</ele><time>2026-05-03T14:00:32.109Z</time></trkpt><trkpt lat="43.5553428" lon="11.9377792"><ele>465.2</ele><time>2026-05-03T14:00:33.114Z</time></trkpt><trkpt lat="43.555249" lon="11.9377509"><ele>460.80000000000007</ele><time>2026-05-03T14:00:34.108Z</time></trkpt><trkpt lat="43.5551589" lon="11.9377004"><ele>456.40000000000003</ele><time>2026-05-03T14:00:35.119Z</time></trkpt><trkpt lat="43.5550634" lon="11.9376406"><ele>452.0</ele><time>2026-05-03T14:00:36.107Z</time></trkpt><trkpt lat="43.5549603" lon="11.9375567"><ele>449.8</ele><time>2026-05-03T14:00:37.116Z</time></trkpt><trkpt lat="43.5548629" lon="11.9374799"><ele>447.6</ele><time>2026-05-03T14:00:38.11Z</time></trkpt><trkpt lat="43.554774" lon="11.9373936"><ele>445.40000000000003</ele><time>2026-05-03T14:00:39.108Z</time></trkpt><trkpt lat="43.5546892" lon="11.9373026"><ele>443.20000000000005</ele><time>2026-05-03T14:00:40.104Z</time></trkpt><trkpt lat="43.5546118" lon="11.9372113"><ele>441.0</ele><time>2026-05-03T14:00:41.116Z</time></trkpt><trkpt lat="43.5545356" lon="11.9371205"><ele>441.0</ele><time>2026-05-03T14:00:42.108Z</time></trkpt><trkpt lat="43.5544614" lon="11.9370314"><ele>441.0</ele><time>2026-05-03T14:00:43.105Z</time></trkpt><trkpt lat="43.5543914" lon="11.936932"><ele>441.0</ele><time>2026-05-03T14:00:44.107Z</time></trkpt><trkpt lat="43.554324" lon="11.9368252"><ele>441.0</ele><time>2026-05-03T14:00:45.118Z</time></trkpt><trkpt lat="43.5542574" lon="11.9367191"><ele>441.0</ele><time>2026-05-03T14:00:46.116Z</time></trkpt><trkpt lat="43.5541962" lon="11.9365979"><ele>444.20000000000005</ele><time>2026-05-03T14:00:47.123Z</time></trkpt><trkpt lat="43.5541353" lon="11.9364688"><ele>447.40000000000003</ele><time>2026-05-03T14:00:48.116Z</time></trkpt><trkpt lat="43.5540768" lon="11.936352"><ele>450.6</ele><time>2026-05-03T14:00:49.106Z</time></trkpt><trkpt lat="43.5540143" lon="11.9362545"><ele>453.8</ele><time>2026-05-03T14:00:50.12Z</time></trkpt><trkpt lat="43.5539524" lon="11.9361604"><ele>457.0</ele><time>2026-05-03T14:00:51.112Z</time></trkpt><trkpt lat="43.5538625" lon="11.9361068"><ele>457.00000000000006</ele><time>2026-05-03T14:00:52.111Z</time></trkpt><trkpt lat="43.5537665" lon="11.9360662"><ele>457.0</ele><time>2026-05-03T14:00:53.105Z</time></trkpt><trkpt lat="43.5536712" lon="11.9360355"><ele>457.0</ele><time>2026-05-03T14:00:54.122Z</time></trkpt><trkpt lat="43.5535908" lon="11.9360092"><ele>457.0</ele><time>2026-05-03T14:00:55.116Z</time></trkpt><trkpt lat="43.5535231" lon="11.9359664"><ele>457.00000000000006</ele><time>2026-05-03T14:00:56.118Z</time></trkpt><trkpt lat="43.5534734" lon="11.9359108"><ele>457.0</ele><time>2026-05-03T14:00:57.108Z</time></trkpt><trkpt lat="43.5533996" lon="11.9357762"><ele>456.00000000000006</ele><time>2026-05-03T14:00:59.115Z</time></trkpt><trkpt lat="43.5533855" lon="11.9356792"><ele>455.0</ele><time>2026-05-03T14:01:00.116Z</time></trkpt><trkpt lat="43.5533943" lon="11.9355809"><ele>454.0</ele><time>2026-05-03T14:01:01.107Z</time></trkpt><trkpt lat="43.5534232" lon="11.935493"><ele>453.0</ele><time>2026-05-03T14:01:02.115Z</time></trkpt><trkpt lat="43.5534843" lon="11.9354401"><ele>452.00000000000006</ele><time>2026-05-03T14:01:03.113Z</time></trkpt><trkpt lat="43.5535495" lon="11.9353854"><ele>451.0</ele><time>2026-05-03T14:01:04.114Z</time></trkpt><trkpt lat="43.5536378" lon="11.9353476"><ele>453.0</ele><time>2026-05-03T14:01:05.111Z</time></trkpt><trkpt lat="43.5537378" lon="11.9352965"><ele>455.0</ele><time>2026-05-03T14:01:06.105Z</time></trkpt><trkpt lat="43.5538342" lon="11.9352449"><ele>457.0</ele><time>2026-05-03T14:01:07.105Z</time></trkpt><trkpt lat="43.5539282" lon="11.9351932"><ele>459.0</ele><time>2026-05-03T14:01:08.112Z</time></trkpt><trkpt lat="43.5540188" lon="11.9351593"><ele>461.0</ele><time>2026-05-03T14:01:09.117Z</time></trkpt><trkpt lat="43.5541072" lon="11.9351255"><ele>460.99999999999994</ele><time>2026-05-03T14:01:10.127Z</time></trkpt><trkpt lat="43.5541762" lon="11.9351102"><ele>461.0</ele><time>2026-05-03T14:01:11.111Z</time></trkpt><trkpt lat="43.5542498" lon="11.935109"><ele>461.0</ele><time>2026-05-03T14:01:12.101Z</time></trkpt><trkpt lat="43.5543309" lon="11.9351245"><ele>461.0</ele><time>2026-05-03T14:01:13.115Z</time></trkpt><trkpt lat="43.5544067" lon="11.9351763"><ele>460.99999999999994</ele><time>2026-05-03T14:01:14.101Z</time></trkpt><trkpt lat="43.5544961" lon="11.935222"><ele>461.0</ele><time>2026-05-03T14:01:15.116Z</time></trkpt><trkpt lat="43.5545832" lon="11.9352598"><ele>461.16666666666663</ele><time>2026-05-03T14:01:16.123Z</time></trkpt><trkpt lat="43.5546663" lon="11.9352963"><ele>461.3333333333333</ele><time>2026-05-03T14:01:17.111Z</time></trkpt><trkpt lat="43.5547478" lon="11.9353309"><ele>461.5</ele><time>2026-05-03T14:01:18.106Z</time></trkpt><trkpt lat="43.5548194" lon="11.9353659"><ele>461.66666666666663</ele><time>2026-05-03T14:01:19.115Z</time></trkpt><trkpt lat="43.5548834" lon="11.9353626"><ele>461.8333333333333</ele><time>2026-05-03T14:01:20.126Z</time></trkpt><trkpt lat="43.554966" lon="11.9352556"><ele>462.0</ele><time>2026-05-03T14:01:22.111Z</time></trkpt><trkpt lat="43.5549962" lon="11.9351779"><ele>462.0</ele><time>2026-05-03T14:01:23.103Z</time></trkpt><trkpt lat="43.5550023" lon="11.9350644"><ele>462.0</ele><time>2026-05-03T14:01:24.117Z</time></trkpt><trkpt lat="43.5550003" lon="11.9349421"><ele>462.0</ele><time>2026-05-03T14:01:25.103Z</time></trkpt><trkpt lat="43.5549923" lon="11.934815"><ele>462.0</ele><time>2026-05-03T14:01:26.097Z</time></trkpt><trkpt lat="43.5549857" lon="11.9346905"><ele>462.0</ele><time>2026-05-03T14:01:27.112Z</time></trkpt><trkpt lat="43.5549825" lon="11.9345688"><ele>462.0</ele><time>2026-05-03T14:01:28.118Z</time></trkpt><trkpt lat="43.5549948" lon="11.9344527"><ele>458.20000000000005</ele><time>2026-05-03T14:01:29.115Z</time></trkpt><trkpt lat="43.5550276" lon="11.9343314"><ele>454.40000000000003</ele><time>2026-05-03T14:01:30.108Z</time></trkpt><trkpt lat="43.5550849" lon="11.9342174"><ele>450.59999999999997</ele><time>2026-05-03T14:01:31.112Z</time></trkpt><trkpt lat="43.5551457" lon="11.9341241"><ele>446.79999999999995</ele><time>2026-05-03T14:01:32.102Z</time></trkpt><trkpt lat="43.5552308" lon="11.9340765"><ele>443.0</ele><time>2026-05-03T14:01:33.116Z</time></trkpt><trkpt lat="43.5553158" lon="11.9340317"><ele>441.59999999999997</ele><time>2026-05-03T14:01:34.113Z</time></trkpt><trkpt lat="43.5554147" lon="11.9340218"><ele>440.19999999999993</ele><time>2026-05-03T14:01:35.107Z</time></trkpt><trkpt lat="43.5555237" lon="11.9340374"><ele>438.8</ele><time>2026-05-03T14:01:36.12Z</time></trkpt><trkpt lat="43.555635" lon="11.9340502"><ele>437.4</ele><time>2026-05-03T14:01:37.11Z</time></trkpt><trkpt lat="43.5557415" lon="11.9340598"><ele>436.0</ele><time>2026-05-03T14:01:38.105Z</time></trkpt><trkpt lat="43.5558481" lon="11.9340597"><ele>436.00000000000006</ele><time>2026-05-03T14:01:39.111Z</time></trkpt><trkpt lat="43.5559455" lon="11.9340559"><ele>436.0</ele><time>2026-05-03T14:01:40.117Z</time></trkpt><trkpt lat="43.5560235" lon="11.9340396"><ele>436.0</ele><time>2026-05-03T14:01:41.113Z</time></trkpt><trkpt lat="43.5560829" lon="11.9340069"><ele>436.0</ele><time>2026-05-03T14:01:42.111Z</time></trkpt><trkpt lat="43.5561446" lon="11.9338642"><ele>436.00000000000006</ele><time>2026-05-03T14:01:44.107Z</time></trkpt><trkpt lat="43.5561332" lon="11.933769"><ele>436.0</ele><time>2026-05-03T14:01:45.122Z</time></trkpt><trkpt lat="43.5561166" lon="11.9336752"><ele>436.00000000000006</ele><time>2026-05-03T14:01:46.105Z</time></trkpt><trkpt lat="43.5560836" lon="11.9335726"><ele>436.0</ele><time>2026-05-03T14:01:47.104Z</time></trkpt><trkpt lat="43.5560262" lon="11.9334715"><ele>436.0</ele><time>2026-05-03T14:01:48.11Z</time></trkpt><trkpt lat="43.5559784" lon="11.9333954"><ele>436.0</ele><time>2026-05-03T14:01:49.094Z</time></trkpt><trkpt lat="43.5559416" lon="11.9333168"><ele>436.00000000000006</ele><time>2026-05-03T14:01:50.124Z</time></trkpt><trkpt lat="43.555905" lon="11.9332268"><ele>436.0</ele><time>2026-05-03T14:01:51.107Z</time></trkpt><trkpt lat="43.5558734" lon="11.9331272"><ele>432.1666666666667</ele><time>2026-05-03T14:01:52.109Z</time></trkpt><trkpt lat="43.5558377" lon="11.9330243"><ele>428.33333333333337</ele><time>2026-05-03T14:01:53.107Z</time></trkpt><trkpt lat="43.555821" lon="11.9329286"><ele>424.5</ele><time>2026-05-03T14:01:54.11Z</time></trkpt><trkpt lat="43.5558158" lon="11.9327838"><ele>420.66666666666663</ele><time>2026-05-03T14:01:56.102Z</time></trkpt><trkpt lat="43.5557405" lon="11.9328106"><ele>416.8333333333333</ele><time>2026-05-03T14:01:59.114Z</time></trkpt><trkpt lat="43.5557362" lon="11.9329306"><ele>413.0</ele><time>2026-05-03T14:02:00.109Z</time></trkpt><trkpt lat="43.5557371" lon="11.9330592"><ele>412.99999999999994</ele><time>2026-05-03T14:02:01.108Z</time></trkpt><trkpt lat="43.555751" lon="11.9331823"><ele>413.0</ele><time>2026-05-03T14:02:02.115Z</time></trkpt><trkpt lat="43.5557642" lon="11.9332909"><ele>413.0</ele><time>2026-05-03T14:02:03.106Z</time></trkpt><trkpt lat="43.5557802" lon="11.9333886"><ele>413.0</ele><time>2026-05-03T14:02:04.112Z</time></trkpt><trkpt lat="43.5557795" lon="11.9334777"><ele>412.99999999999994</ele><time>2026-05-03T14:02:05.11Z</time></trkpt><trkpt lat="43.5557469" lon="11.9335621"><ele>413.0</ele><time>2026-05-03T14:02:06.117Z</time></trkpt><trkpt lat="43.5556779" lon="11.9336161"><ele>414.4</ele><time>2026-05-03T14:02:07.109Z</time></trkpt><trkpt lat="43.5555979" lon="11.9336419"><ele>415.79999999999995</ele><time>2026-05-03T14:02:08.104Z</time></trkpt><trkpt lat="43.555509" lon="11.9336096"><ele>417.2</ele><time>2026-05-03T14:02:09.116Z</time></trkpt><trkpt lat="43.5554119" lon="11.9335483"><ele>418.6</ele><time>2026-05-03T14:02:10.131Z</time></trkpt><trkpt lat="43.5553048" lon="11.9335036"><ele>420.0</ele><time>2026-05-03T14:02:11.099Z</time></trkpt><trkpt lat="43.5551968" lon="11.933468"><ele>420.0</ele><time>2026-05-03T14:02:12.102Z</time></trkpt><trkpt lat="43.5550919" lon="11.9334506"><ele>420.0</ele><time>2026-05-03T14:02:13.114Z</time></trkpt><trkpt lat="43.5549933" lon="11.9334543"><ele>420.0</ele><time>2026-05-03T14:02:14.097Z</time></trkpt><trkpt lat="43.5548962" lon="11.933483"><ele>420.0</ele><time>2026-05-03T14:02:15.108Z</time></trkpt><trkpt lat="43.5547966" lon="11.9335308"><ele>420.0</ele><time>2026-05-03T14:02:16.108Z</time></trkpt><trkpt lat="43.554694" lon="11.9335814"><ele>420.0</ele><time>2026-05-03T14:02:17.114Z</time></trkpt><trkpt lat="43.5545922" lon="11.933628"><ele>420.0</ele><time>2026-05-03T14:02:18.104Z</time></trkpt><trkpt lat="43.5544892" lon="11.9336446"><ele>420.0</ele><time>2026-05-03T14:02:19.128Z</time></trkpt><trkpt lat="43.5543871" lon="11.9336525"><ele>420.0</ele><time>2026-05-03T14:02:20.105Z</time></trkpt><trkpt lat="43.5542855" lon="11.9335907"><ele>420.0</ele><time>2026-05-03T14:02:21.12Z</time></trkpt><trkpt lat="43.5541953" lon="11.9334894"><ele>417.75</ele><time>2026-05-03T14:02:22.121Z</time></trkpt><trkpt lat="43.5540973" lon="11.9333992"><ele>415.5</ele><time>2026-05-03T14:02:23.105Z</time></trkpt><trkpt lat="43.5539953" lon="11.9333323"><ele>413.25</ele><time>2026-05-03T14:02:24.106Z</time></trkpt><trkpt lat="43.5538937" lon="11.93327"><ele>411.0</ele><time>2026-05-03T14:02:25.111Z</time></trkpt><trkpt lat="43.5537902" lon="11.9332277"><ele>405.4</ele><time>2026-05-03T14:02:26.101Z</time></trkpt><trkpt lat="43.5536928" lon="11.9331868"><ele>399.8</ele><time>2026-05-03T14:02:27.116Z</time></trkpt><trkpt lat="43.5535984" lon="11.9331351"><ele>394.2</ele><time>2026-05-03T14:02:28.105Z</time></trkpt><trkpt lat="43.5535049" lon="11.93308"><ele>388.59999999999997</ele><time>2026-05-03T14:02:29.118Z</time></trkpt><trkpt lat="43.5534218" lon="11.9330107"><ele>383.0</ele><time>2026-05-03T14:02:30.114Z</time></trkpt><trkpt lat="43.5533512" lon="11.9329128"><ele>383.0</ele><time>2026-05-03T14:02:31.116Z</time></trkpt><trkpt lat="43.5532873" lon="11.9328047"><ele>383.0</ele><time>2026-05-03T14:02:32.12Z</time></trkpt><trkpt lat="43.553234" lon="11.932719"><ele>383.0</ele><time>2026-05-03T14:02:33.106Z</time></trkpt><trkpt lat="43.5531773" lon="11.9326494"><ele>383.0</ele><time>2026-05-03T14:02:34.115Z</time></trkpt><trkpt lat="43.5530866" lon="11.9326227"><ele>383.0</ele><time>2026-05-03T14:02:35.124Z</time></trkpt><trkpt lat="43.5529836" lon="11.9326259"><ele>382.79999999999995</ele><time>2026-05-03T14:02:36.114Z</time></trkpt><trkpt lat="43.5528711" lon="11.9326428"><ele>382.6</ele><time>2026-05-03T14:02:37.105Z</time></trkpt><trkpt lat="43.5527584" lon="11.9326629"><ele>382.4</ele><time>2026-05-03T14:02:38.115Z</time></trkpt><trkpt lat="43.552652" lon="11.932681"><ele>382.20000000000005</ele><time>2026-05-03T14:02:39.12Z</time></trkpt><trkpt lat="43.5525534" lon="11.9326919"><ele>382.0</ele><time>2026-05-03T14:02:40.105Z</time></trkpt><trkpt lat="43.552456" lon="11.932686"><ele>382.0</ele><time>2026-05-03T14:02:41.124Z</time></trkpt><trkpt lat="43.5523613" lon="11.9326785"><ele>382.0</ele><time>2026-05-03T14:02:42.11Z</time></trkpt><trkpt lat="43.5522569" lon="11.9326523"><ele>382.0</ele><time>2026-05-03T14:02:43.112Z</time></trkpt><trkpt lat="43.5521481" lon="11.932626"><ele>382.0</ele><time>2026-05-03T14:02:44.112Z</time></trkpt><trkpt lat="43.5520355" lon="11.9326039"><ele>382.0</ele><time>2026-05-03T14:02:45.115Z</time></trkpt><trkpt lat="43.5519173" lon="11.9326"><ele>380.20000000000005</ele><time>2026-05-03T14:02:46.126Z</time></trkpt><trkpt lat="43.5518054" lon="11.9326007"><ele>378.4</ele><time>2026-05-03T14:02:47.104Z</time></trkpt><trkpt lat="43.5517121" lon="11.9326017"><ele>376.6</ele><time>2026-05-03T14:02:48.107Z</time></trkpt><trkpt lat="43.5516238" lon="11.9326017"><ele>374.79999999999995</ele><time>2026-05-03T14:02:49.105Z</time></trkpt><trkpt lat="43.5515226" lon="11.9326074"><ele>373.0</ele><time>2026-05-03T14:02:50.103Z</time></trkpt><trkpt lat="43.5514288" lon="11.9326544"><ele>373.0</ele><time>2026-05-03T14:02:51.112Z</time></trkpt><trkpt lat="43.551341" lon="11.9327092"><ele>373.0</ele><time>2026-05-03T14:02:52.116Z</time></trkpt><trkpt lat="43.5512752" lon="11.9327476"><ele>373.0</ele><time>2026-05-03T14:02:53.114Z</time></trkpt><trkpt lat="43.551169" lon="11.932718"><ele>373.0</ele><time>2026-05-03T14:02:55.114Z</time></trkpt><trkpt lat="43.5511912" lon="11.932558"><ele>373.0</ele><time>2026-05-03T14:02:57.114Z</time></trkpt><trkpt lat="43.5512476" lon="11.9324863"><ele>369.0</ele><time>2026-05-03T14:02:58.111Z</time></trkpt><trkpt lat="43.5513205" lon="11.932387"><ele>365.0</ele><time>2026-05-03T14:02:59.108Z</time></trkpt><trkpt lat="43.5513949" lon="11.932281"><ele>361.0</ele><time>2026-05-03T14:03:00.112Z</time></trkpt><trkpt lat="43.5514684" lon="11.9321805"><ele>357.0</ele><time>2026-05-03T14:03:01.114Z</time></trkpt><trkpt lat="43.5515354" lon="11.9320882"><ele>353.0</ele><time>2026-05-03T14:03:02.103Z</time></trkpt><trkpt lat="43.5515999" lon="11.9320138"><ele>353.0</ele><time>2026-05-03T14:03:03.113Z</time></trkpt><trkpt lat="43.5516923" lon="11.9319618"><ele>353.0</ele><time>2026-05-03T14:03:04.11Z</time></trkpt><trkpt lat="43.5517958" lon="11.9319326"><ele>353.0</ele><time>2026-05-03T14:03:05.115Z</time></trkpt><trkpt lat="43.5518972" lon="11.9319283"><ele>353.0</ele><time>2026-05-03T14:03:06.104Z</time></trkpt><trkpt lat="43.551989" lon="11.9319373"><ele>353.0</ele><time>2026-05-03T14:03:07.117Z</time></trkpt><trkpt lat="43.5520708" lon="11.9319741"><ele>354.1666666666667</ele><time>2026-05-03T14:03:08.104Z</time></trkpt><trkpt lat="43.5521405" lon="11.9320045"><ele>355.33333333333337</ele><time>2026-05-03T14:03:09.117Z</time></trkpt><trkpt lat="43.552254" lon="11.9319473"><ele>356.5</ele><time>2026-05-03T14:03:11.097Z</time></trkpt><trkpt lat="43.5522506" lon="11.9318173"><ele>357.6666666666667</ele><time>2026-05-03T14:03:13.115Z</time></trkpt><trkpt lat="43.5521984" lon="11.9317663"><ele>358.8333333333333</ele><time>2026-05-03T14:03:14.115Z</time></trkpt><trkpt lat="43.5521289" lon="11.93174"><ele>360.0</ele><time>2026-05-03T14:03:15.105Z</time></trkpt><trkpt lat="43.5520374" lon="11.9317009"><ele>354.4</ele><time>2026-05-03T14:03:16.111Z</time></trkpt><trkpt lat="43.5519457" lon="11.9316556"><ele>348.8</ele><time>2026-05-03T14:03:17.114Z</time></trkpt><trkpt lat="43.5518503" lon="11.9316015"><ele>343.20000000000005</ele><time>2026-05-03T14:03:18.1Z</time></trkpt><trkpt lat="43.5517546" lon="11.9315389"><ele>337.6</ele><time>2026-05-03T14:03:19.116Z</time></trkpt><trkpt lat="43.5516607" lon="11.9314771"><ele>332.0</ele><time>2026-05-03T14:03:20.114Z</time></trkpt><trkpt lat="43.5515713" lon="11.931416"><ele>332.0</ele><time>2026-05-03T14:03:21.105Z</time></trkpt><trkpt lat="43.5514851" lon="11.9313602"><ele>332.0</ele><time>2026-05-03T14:03:22.113Z</time></trkpt><trkpt lat="43.5514001" lon="11.9313098"><ele>332.0</ele><time>2026-05-03T14:03:23.11Z</time></trkpt><trkpt lat="43.5513154" lon="11.9312736"><ele>332.0</ele><time>2026-05-03T14:03:24.11Z</time></trkpt><trkpt lat="43.5512342" lon="11.931242"><ele>332.0</ele><time>2026-05-03T14:03:25.125Z</time></trkpt><trkpt lat="43.5511566" lon="11.9312391"><ele>332.0</ele><time>2026-05-03T14:03:26.114Z</time></trkpt><trkpt lat="43.5510898" lon="11.9312412"><ele>330.0</ele><time>2026-05-03T14:03:27.113Z</time></trkpt><trkpt lat="43.5509999" lon="11.9312082"><ele>328.0</ele><time>2026-05-03T14:03:29.114Z</time></trkpt><trkpt lat="43.5509942" lon="11.9310952"><ele>326.0</ele><time>2026-05-03T14:03:31.118Z</time></trkpt><trkpt lat="43.5510577" lon="11.9309203"><ele>324.0</ele><time>2026-05-03T14:03:33.127Z</time></trkpt><trkpt lat="43.5511018" lon="11.9308036"><ele>322.0</ele><time>2026-05-03T14:03:34.118Z</time></trkpt><trkpt lat="43.5511406" lon="11.9306485"><ele>320.0</ele><time>2026-05-03T14:03:35.12Z</time></trkpt><trkpt lat="43.5511838" lon="11.9304665"><ele>318.0</ele><time>2026-05-03T14:03:36.109Z</time></trkpt><trkpt lat="43.5512281" lon="11.9302773"><ele>316.0</ele><time>2026-05-03T14:03:37.11Z</time></trkpt><trkpt lat="43.5512657" lon="11.9300988"><ele>314.0</ele><time>2026-05-03T14:03:38.109Z</time></trkpt><trkpt lat="43.5512987" lon="11.9299368"><ele>314.0</ele><time>2026-05-03T14:03:39.119Z</time></trkpt><trkpt lat="43.5513293" lon="11.9297849"><ele>314.0</ele><time>2026-05-03T14:03:40.1Z</time></trkpt><trkpt lat="43.551349" lon="11.9296536"><ele>314.0</ele><time>2026-05-03T14:03:41.118Z</time></trkpt><trkpt lat="43.5513502" lon="11.9295346"><ele>314.0</ele><time>2026-05-03T14:03:42.116Z</time></trkpt><trkpt lat="43.5513428" lon="11.929427"><ele>314.0</ele><time>2026-05-03T14:03:43.121Z</time></trkpt><trkpt lat="43.5513454" lon="11.9292834"><ele>314.0</ele><time>2026-05-03T14:03:45.105Z</time></trkpt><trkpt lat="43.5513971" lon="11.9292227"><ele>314.0</ele><time>2026-05-03T14:03:47.123Z</time></trkpt><trkpt lat="43.5514612" lon="11.9292094"><ele>314.0</ele><time>2026-05-03T14:03:48.129Z</time></trkpt><trkpt lat="43.5515473" lon="11.9292464"><ele>314.0</ele><time>2026-05-03T14:03:49.103Z</time></trkpt><trkpt lat="43.5516458" lon="11.9293062"><ele>314.0</ele><time>2026-05-03T14:03:50.109Z</time></trkpt><trkpt lat="43.5517614" lon="11.9293548"><ele>314.0</ele><time>2026-05-03T14:03:51.121Z</time></trkpt><trkpt lat="43.5518979" lon="11.9293999"><ele>314.0</ele><time>2026-05-03T14:03:52.113Z</time></trkpt><trkpt lat="43.5520481" lon="11.929427"><ele>314.0</ele><time>2026-05-03T14:03:53.114Z</time></trkpt><trkpt lat="43.5522002" lon="11.9294447"><ele>314.0</ele><time>2026-05-03T14:03:54.119Z</time></trkpt><trkpt lat="43.5523576" lon="11.9294698"><ele>315.33333333333337</ele><time>2026-05-03T14:03:55.117Z</time></trkpt><trkpt lat="43.5525221" lon="11.9294918"><ele>316.6666666666667</ele><time>2026-05-03T14:03:56.111Z</time></trkpt><trkpt lat="43.5526833" lon="11.9295149"><ele>318.0</ele><time>2026-05-03T14:03:57.112Z</time></trkpt><trkpt lat="43.5528318" lon="11.9295293"><ele>318.75</ele><time>2026-05-03T14:03:58.117Z</time></trkpt><trkpt lat="43.5529677" lon="11.9295325"><ele>319.5</ele><time>2026-05-03T14:03:59.118Z</time></trkpt><trkpt lat="43.5530935" lon="11.9295325"><ele>320.25</ele><time>2026-05-03T14:04:00.103Z</time></trkpt><trkpt lat="43.5532132" lon="11.9295341"><ele>321.0</ele><time>2026-05-03T14:04:01.116Z</time></trkpt><trkpt lat="43.5533352" lon="11.9295292"><ele>321.0</ele><time>2026-05-03T14:04:02.098Z</time></trkpt><trkpt lat="43.5534611" lon="11.9295286"><ele>321.0</ele><time>2026-05-03T14:04:03.119Z</time></trkpt><trkpt lat="43.5535903" lon="11.9295293"><ele>321.0</ele><time>2026-05-03T14:04:04.114Z</time></trkpt><trkpt lat="43.5537279" lon="11.9295229"><ele>321.0</ele><time>2026-05-03T14:04:05.108Z</time></trkpt><trkpt lat="43.5538665" lon="11.9295188"><ele>321.25</ele><time>2026-05-03T14:04:06.097Z</time></trkpt><trkpt lat="43.5540108" lon="11.9295201"><ele>321.5</ele><time>2026-05-03T14:04:07.119Z</time></trkpt><trkpt lat="43.5541564" lon="11.9295283"><ele>321.75</ele><time>2026-05-03T14:04:08.118Z</time></trkpt><trkpt lat="43.5543052" lon="11.9295526"><ele>322.0</ele><time>2026-05-03T14:04:09.113Z</time></trkpt><trkpt lat="43.5544473" lon="11.9295841"><ele>322.5</ele><time>2026-05-03T14:04:10.12Z</time></trkpt><trkpt lat="43.554581" lon="11.9296121"><ele>323.0</ele><time>2026-05-03T14:04:11.118Z</time></trkpt><trkpt lat="43.554709" lon="11.9296319"><ele>323.5</ele><time>2026-05-03T14:04:12.11Z</time></trkpt><trkpt lat="43.5548299" lon="11.9296379"><ele>324.0</ele><time>2026-05-03T14:04:13.114Z</time></trkpt><trkpt lat="43.5549472" lon="11.9296139"><ele>324.0</ele><time>2026-05-03T14:04:14.118Z</time></trkpt><trkpt lat="43.5550649" lon="11.9295604"><ele>324.0</ele><time>2026-05-03T14:04:15.109Z</time></trkpt><trkpt lat="43.5551884" lon="11.9294911"><ele>324.0</ele><time>2026-05-03T14:04:16.109Z</time></trkpt><trkpt lat="43.5553186" lon="11.9294177"><ele>324.0</ele><time>2026-05-03T14:04:17.107Z</time></trkpt><trkpt lat="43.5554572" lon="11.9293484"><ele>324.3333333333333</ele><time>2026-05-03T14:04:18.121Z</time></trkpt><trkpt lat="43.5556029" lon="11.9292875"><ele>324.66666666666663</ele><time>2026-05-03T14:04:19.113Z</time></trkpt><trkpt lat="43.5557529" lon="11.9292249"><ele>325.0</ele><time>2026-05-03T14:04:20.108Z</time></trkpt><trkpt lat="43.5559126" lon="11.9291723"><ele>325.0</ele><time>2026-05-03T14:04:21.119Z</time></trkpt><trkpt lat="43.5560745" lon="11.9291281"><ele>325.0</ele><time>2026-05-03T14:04:22.132Z</time></trkpt><trkpt lat="43.5562296" lon="11.9290825"><ele>325.0</ele><time>2026-05-03T14:04:23.118Z</time></trkpt><trkpt lat="43.5563713" lon="11.9290411"><ele>325.5</ele><time>2026-05-03T14:04:24.115Z</time></trkpt><trkpt lat="43.5565013" lon="11.9290017"><ele>326.0</ele><time>2026-05-03T14:04:25.123Z</time></trkpt><trkpt lat="43.5566237" lon="11.9289491"><ele>326.5</ele><time>2026-05-03T14:04:26.119Z</time></trkpt><trkpt lat="43.5567411" lon="11.9288725"><ele>327.0</ele><time>2026-05-03T14:04:27.107Z</time></trkpt><trkpt lat="43.5568545" lon="11.9287779"><ele>327.0</ele><time>2026-05-03T14:04:28.117Z</time></trkpt><trkpt lat="43.556969" lon="11.928676"><ele>327.0</ele><time>2026-05-03T14:04:29.117Z</time></trkpt><trkpt lat="43.5570787" lon="11.9285805"><ele>327.0</ele><time>2026-05-03T14:04:30.11Z</time></trkpt><trkpt lat="43.5571763" lon="11.9284863"><ele>327.0</ele><time>2026-05-03T14:04:31.11Z</time></trkpt><trkpt lat="43.5572731" lon="11.9283977"><ele>330.25</ele><time>2026-05-03T14:04:32.103Z</time></trkpt><trkpt lat="43.5573681" lon="11.9283103"><ele>333.5</ele><time>2026-05-03T14:04:33.113Z</time></trkpt><trkpt lat="43.5574806" lon="11.9282236"><ele>336.75</ele><time>2026-05-03T14:04:34.124Z</time></trkpt><trkpt lat="43.5576284" lon="11.9281481"><ele>340.0</ele><time>2026-05-03T14:04:35.108Z</time></trkpt><trkpt lat="43.5578025" lon="11.92806"><ele>337.66666666666663</ele><time>2026-05-03T14:04:36.098Z</time></trkpt><trkpt lat="43.5579668" lon="11.9279853"><ele>335.3333333333333</ele><time>2026-05-03T14:04:37.117Z</time></trkpt><trkpt lat="43.5581315" lon="11.9279085"><ele>333.0</ele><time>2026-05-03T14:04:38.106Z</time></trkpt><trkpt lat="43.5582909" lon="11.9278478"><ele>333.0</ele><time>2026-05-03T14:04:39.105Z</time></trkpt><trkpt lat="43.5584413" lon="11.9277806"><ele>333.0</ele><time>2026-05-03T14:04:40.118Z</time></trkpt><trkpt lat="43.5585848" lon="11.927712"><ele>333.0</ele><time>2026-05-03T14:04:41.107Z</time></trkpt><trkpt lat="43.5587184" lon="11.9276514"><ele>334.0</ele><time>2026-05-03T14:04:42.156Z</time></trkpt><trkpt lat="43.5588435" lon="11.9276048"><ele>335.0</ele><time>2026-05-03T14:04:43.113Z</time></trkpt><trkpt lat="43.5589504" lon="11.9275572"><ele>336.0</ele><time>2026-05-03T14:04:44.108Z</time></trkpt><trkpt lat="43.5590408" lon="11.9274967"><ele>337.0</ele><time>2026-05-03T14:04:45.113Z</time></trkpt><trkpt lat="43.5591267" lon="11.9274119"><ele>338.0</ele><time>2026-05-03T14:04:46.099Z</time></trkpt><trkpt lat="43.5592151" lon="11.9273259"><ele>338.25</ele><time>2026-05-03T14:04:47.118Z</time></trkpt><trkpt lat="43.5592964" lon="11.9272193"><ele>338.5</ele><time>2026-05-03T14:04:48.103Z</time></trkpt><trkpt lat="43.5593821" lon="11.9271073"><ele>338.75</ele><time>2026-05-03T14:04:49.106Z</time></trkpt><trkpt lat="43.5594762" lon="11.9269907"><ele>339.0</ele><time>2026-05-03T14:04:50.109Z</time></trkpt><trkpt lat="43.5595686" lon="11.9268726"><ele>339.4</ele><time>2026-05-03T14:04:51.116Z</time></trkpt><trkpt lat="43.5596627" lon="11.9267593"><ele>339.79999999999995</ele><time>2026-05-03T14:04:52.108Z</time></trkpt><trkpt lat="43.5597477" lon="11.9266656"><ele>340.20000000000005</ele><time>2026-05-03T14:04:53.117Z</time></trkpt><trkpt lat="43.5598206" lon="11.9265847"><ele>340.6</ele><time>2026-05-03T14:04:54.108Z</time></trkpt><trkpt lat="43.5598846" lon="11.9265441"><ele>341.0</ele><time>2026-05-03T14:04:55.111Z</time></trkpt><trkpt lat="43.5599946" lon="11.926544"><ele>341.0</ele><time>2026-05-03T14:04:57.119Z</time></trkpt><trkpt lat="43.5600691" lon="11.9266898"><ele>341.0</ele><time>2026-05-03T14:04:59.117Z</time></trkpt><trkpt lat="43.5601213" lon="11.9267756"><ele>341.0</ele><time>2026-05-03T14:05:00.109Z</time></trkpt><trkpt lat="43.5601916" lon="11.9268343"><ele>341.0</ele><time>2026-05-03T14:05:01.119Z</time></trkpt><trkpt lat="43.5602709" lon="11.926896"><ele>341.0</ele><time>2026-05-03T14:05:02.108Z</time></trkpt><trkpt lat="43.5603904" lon="11.9269089"><ele>343.33333333333337</ele><time>2026-05-03T14:05:03.114Z</time></trkpt><trkpt lat="43.5605574" lon="11.9269246"><ele>345.6666666666667</ele><time>2026-05-03T14:05:04.112Z</time></trkpt><trkpt lat="43.5607233" lon="11.9269772"><ele>348.0</ele><time>2026-05-03T14:05:05.116Z</time></trkpt><trkpt lat="43.5608795" lon="11.9270255"><ele>348.0</ele><time>2026-05-03T14:05:06.101Z</time></trkpt><trkpt lat="43.5610271" lon="11.9270639"><ele>348.0</ele><time>2026-05-03T14:05:07.112Z</time></trkpt><trkpt lat="43.5611539" lon="11.9271"><ele>348.0</ele><time>2026-05-03T14:05:08.112Z</time></trkpt><trkpt lat="43.561273" lon="11.9271193"><ele>348.0</ele><time>2026-05-03T14:05:09.099Z</time></trkpt><trkpt lat="43.561394" lon="11.9271134"><ele>351.5</ele><time>2026-05-03T14:05:10.099Z</time></trkpt><trkpt lat="43.5615217" lon="11.9270706"><ele>355.0</ele><time>2026-05-03T14:05:11.105Z</time></trkpt><trkpt lat="43.561658" lon="11.9270128"><ele>358.5</ele><time>2026-05-03T14:05:12.112Z</time></trkpt><trkpt lat="43.5618102" lon="11.926932"><ele>362.0</ele><time>2026-05-03T14:05:13.111Z</time></trkpt><trkpt lat="43.5619646" lon="11.9268465"><ele>360.6666666666667</ele><time>2026-05-03T14:05:14.122Z</time></trkpt><trkpt lat="43.5621154" lon="11.9267582"><ele>359.3333333333333</ele><time>2026-05-03T14:05:15.118Z</time></trkpt><trkpt lat="43.5622579" lon="11.9266682"><ele>358.0</ele><time>2026-05-03T14:05:16.114Z</time></trkpt><trkpt lat="43.562391" lon="11.926589"><ele>358.0</ele><time>2026-05-03T14:05:17.114Z</time></trkpt><trkpt lat="43.5625153" lon="11.926508"><ele>358.0</ele><time>2026-05-03T14:05:18.112Z</time></trkpt><trkpt lat="43.5626332" lon="11.9264263"><ele>358.0</ele><time>2026-05-03T14:05:19.116Z</time></trkpt><trkpt lat="43.5627456" lon="11.9263434"><ele>358.0</ele><time>2026-05-03T14:05:20.118Z</time></trkpt><trkpt lat="43.5628621" lon="11.9262721"><ele>360.79999999999995</ele><time>2026-05-03T14:05:21.111Z</time></trkpt><trkpt lat="43.5629768" lon="11.9262043"><ele>363.6</ele><time>2026-05-03T14:05:22.108Z</time></trkpt><trkpt lat="43.5630806" lon="11.9261693"><ele>366.4</ele><time>2026-05-03T14:05:23.116Z</time></trkpt><trkpt lat="43.5631659" lon="11.9261509"><ele>369.20000000000005</ele><time>2026-05-03T14:05:24.119Z</time></trkpt><trkpt lat="43.5632363" lon="11.9261666"><ele>372.0</ele><time>2026-05-03T14:05:25.113Z</time></trkpt><trkpt lat="43.5633195" lon="11.9262053"><ele>372.0</ele><time>2026-05-03T14:05:26.111Z</time></trkpt><trkpt lat="43.5634237" lon="11.9262594"><ele>372.0</ele><time>2026-05-03T14:05:27.108Z</time></trkpt><trkpt lat="43.5635355" lon="11.9263088"><ele>372.0</ele><time>2026-05-03T14:05:28.116Z</time></trkpt><trkpt lat="43.5636391" lon="11.9263482"><ele>372.0</ele><time>2026-05-03T14:05:29.108Z</time></trkpt><trkpt lat="43.5637435" lon="11.9263799"><ele>372.0</ele><time>2026-05-03T14:05:30.114Z</time></trkpt><trkpt lat="43.5638484" lon="11.9263637"><ele>375.0</ele><time>2026-05-03T14:05:31.114Z</time></trkpt><trkpt lat="43.5639322" lon="11.9262984"><ele>378.0</ele><time>2026-05-03T14:05:32.104Z</time></trkpt><trkpt lat="43.5640225" lon="11.926218"><ele>381.0</ele><time>2026-05-03T14:05:33.121Z</time></trkpt><trkpt lat="43.5641125" lon="11.9261275"><ele>384.0</ele><time>2026-05-03T14:05:34.11Z</time></trkpt><trkpt lat="43.5641966" lon="11.9260333"><ele>387.0</ele><time>2026-05-03T14:05:35.109Z</time></trkpt><trkpt lat="43.5642522" lon="11.9259178"><ele>380.0</ele><time>2026-05-03T14:05:36.12Z</time></trkpt><trkpt lat="43.5642959" lon="11.9257634"><ele>373.0</ele><time>2026-05-03T14:05:37.111Z</time></trkpt><trkpt lat="43.5643217" lon="11.9255882"><ele>366.0</ele><time>2026-05-03T14:05:38.109Z</time></trkpt><trkpt lat="43.5643517" lon="11.9254225"><ele>359.0</ele><time>2026-05-03T14:05:39.108Z</time></trkpt><trkpt lat="43.5643817" lon="11.9252925"><ele>359.0</ele><time>2026-05-03T14:05:40.109Z</time></trkpt><trkpt lat="43.5644304" lon="11.9252045"><ele>359.0</ele><time>2026-05-03T14:05:41.104Z</time></trkpt><trkpt lat="43.5644882" lon="11.9251527"><ele>359.0</ele><time>2026-05-03T14:05:42.115Z</time></trkpt><trkpt lat="43.5645623" lon="11.9251238"><ele>359.0</ele><time>2026-05-03T14:05:43.117Z</time></trkpt><trkpt lat="43.564654" lon="11.9251461"><ele>359.0</ele><time>2026-05-03T14:05:44.102Z</time></trkpt><trkpt lat="43.5647787" lon="11.9251765"><ele>359.0</ele><time>2026-05-03T14:05:45.112Z</time></trkpt><trkpt lat="43.5649267" lon="11.9252478"><ele>362.5</ele><time>2026-05-03T14:05:46.104Z</time></trkpt><trkpt lat="43.5650664" lon="11.9253101"><ele>366.0</ele><time>2026-05-03T14:05:47.115Z</time></trkpt><trkpt lat="43.5652003" lon="11.9253431"><ele>369.5</ele><time>2026-05-03T14:05:48.101Z</time></trkpt><trkpt lat="43.5653359" lon="11.9253459"><ele>373.0</ele><time>2026-05-03T14:05:49.099Z</time></trkpt><trkpt lat="43.5654751" lon="11.9253436"><ele>374.5</ele><time>2026-05-03T14:05:50.11Z</time></trkpt><trkpt lat="43.5656106" lon="11.9253365"><ele>376.0</ele><time>2026-05-03T14:05:51.113Z</time></trkpt><trkpt lat="43.5657372" lon="11.9253311"><ele>377.5</ele><time>2026-05-03T14:05:52.103Z</time></trkpt><trkpt lat="43.5658527" lon="11.9253326"><ele>379.0</ele><time>2026-05-03T14:05:53.119Z</time></trkpt><trkpt lat="43.5659609" lon="11.925334"><ele>379.0</ele><time>2026-05-03T14:05:54.123Z</time></trkpt><trkpt lat="43.5660706" lon="11.9253347"><ele>379.0</ele><time>2026-05-03T14:05:55.118Z</time></trkpt><trkpt lat="43.56618" lon="11.9253299"><ele>379.0</ele><time>2026-05-03T14:05:56.109Z</time></trkpt><trkpt lat="43.5662854" lon="11.925311"><ele>379.0</ele><time>2026-05-03T14:05:57.113Z</time></trkpt><trkpt lat="43.5663826" lon="11.9252841"><ele>379.0</ele><time>2026-05-03T14:05:58.125Z</time></trkpt><trkpt lat="43.5664779" lon="11.925237"><ele>378.0</ele><time>2026-05-03T14:05:59.108Z</time></trkpt><trkpt lat="43.5665732" lon="11.9251849"><ele>377.0</ele><time>2026-05-03T14:06:00.108Z</time></trkpt><trkpt lat="43.5666696" lon="11.9251416"><ele>376.0</ele><time>2026-05-03T14:06:01.122Z</time></trkpt><trkpt lat="43.5667601" lon="11.9251044"><ele>375.0</ele><time>2026-05-03T14:06:02.109Z</time></trkpt><trkpt lat="43.5668497" lon="11.9250674"><ele>374.0</ele><time>2026-05-03T14:06:03.121Z</time></trkpt><trkpt lat="43.5669301" lon="11.9250237"><ele>374.0</ele><time>2026-05-03T14:06:04.099Z</time></trkpt><trkpt lat="43.5669987" lon="11.925009"><ele>374.0</ele><time>2026-05-03T14:06:05.116Z</time></trkpt><trkpt lat="43.5670653" lon="11.9249944"><ele>374.0</ele><time>2026-05-03T14:06:06.102Z</time></trkpt><trkpt lat="43.5671281" lon="11.9250046"><ele>374.0</ele><time>2026-05-03T14:06:07.128Z</time></trkpt><trkpt lat="43.5672444" lon="11.9250861"><ele>374.0</ele><time>2026-05-03T14:06:09.118Z</time></trkpt><trkpt lat="43.5673055" lon="11.9251498"><ele>374.0</ele><time>2026-05-03T14:06:10.109Z</time></trkpt><trkpt lat="43.5673691" lon="11.9251978"><ele>374.0</ele><time>2026-05-03T14:06:11.111Z</time></trkpt><trkpt lat="43.5674368" lon="11.9252186"><ele>374.0</ele><time>2026-05-03T14:06:12.11Z</time></trkpt><trkpt lat="43.5675066" lon="11.9252145"><ele>374.0</ele><time>2026-05-03T14:06:13.114Z</time></trkpt><trkpt lat="43.5675828" lon="11.9251821"><ele>374.0</ele><time>2026-05-03T14:06:14.105Z</time></trkpt><trkpt lat="43.5676657" lon="11.9251426"><ele>374.0</ele><time>2026-05-03T14:06:15.105Z</time></trkpt><trkpt lat="43.5677608" lon="11.9250559"><ele>374.0</ele><time>2026-05-03T14:06:16.11Z</time></trkpt><trkpt lat="43.5678555" lon="11.9249581"><ele>376.75</ele><time>2026-05-03T14:06:17.134Z</time></trkpt><trkpt lat="43.5679599" lon="11.9248552"><ele>379.5</ele><time>2026-05-03T14:06:18.108Z</time></trkpt><trkpt lat="43.5680299" lon="11.924711"><ele>382.25</ele><time>2026-05-03T14:06:19.111Z</time></trkpt><trkpt lat="43.5681142" lon="11.9245924"><ele>385.0</ele><time>2026-05-03T14:06:20.147Z</time></trkpt><trkpt lat="43.5682057" lon="11.9244633"><ele>385.0</ele><time>2026-05-03T14:06:21.115Z</time></trkpt><trkpt lat="43.5682675" lon="11.9243477"><ele>385.0</ele><time>2026-05-03T14:06:22.114Z</time></trkpt><trkpt lat="43.5683399" lon="11.9242334"><ele>385.0</ele><time>2026-05-03T14:06:23.119Z</time></trkpt><trkpt lat="43.5684086" lon="11.9241246"><ele>385.0</ele><time>2026-05-03T14:06:24.104Z</time></trkpt><trkpt lat="43.5684713" lon="11.9240017"><ele>385.0</ele><time>2026-05-03T14:06:25.091Z</time></trkpt><trkpt lat="43.5685265" lon="11.9238944"><ele>384.5</ele><time>2026-05-03T14:06:26.114Z</time></trkpt><trkpt lat="43.5685906" lon="11.9237747"><ele>384.0</ele><time>2026-05-03T14:06:27.108Z</time></trkpt><trkpt lat="43.568648" lon="11.92368"><ele>383.5</ele><time>2026-05-03T14:06:28.101Z</time></trkpt><trkpt lat="43.5687003" lon="11.9235942"><ele>383.0</ele><time>2026-05-03T14:06:29.11Z</time></trkpt><trkpt lat="43.5689977" lon="11.9231699"><ele>382.6666666666667</ele><time>2026-05-03T14:06:32.123Z</time></trkpt><trkpt lat="43.5692076" lon="11.9230293"><ele>382.3333333333333</ele><time>2026-05-03T14:06:33.118Z</time></trkpt><trkpt lat="43.5692839" lon="11.9229587"><ele>382.0</ele><time>2026-05-03T14:06:34.116Z</time></trkpt><trkpt lat="43.5694288" lon="11.9229647"><ele>386.0</ele><time>2026-05-03T14:06:36.103Z</time></trkpt><trkpt lat="43.5695642" lon="11.9230635"><ele>390.0</ele><time>2026-05-03T14:06:51.111Z</time></trkpt><trkpt lat="43.569531" lon="11.9232255"><ele>394.0</ele><time>2026-05-03T14:06:53.107Z</time></trkpt><trkpt lat="43.5692936" lon="11.9235313"><ele>394.0</ele><time>2026-05-03T14:06:56.108Z</time></trkpt><trkpt lat="43.5692006" lon="11.9237089"><ele>394.0</ele><time>2026-05-03T14:06:57.126Z</time></trkpt><trkpt lat="43.5691187" lon="11.9238142"><ele>394.0</ele><time>2026-05-03T14:06:58.109Z</time></trkpt><trkpt lat="43.5690575" lon="11.9239023"><ele>394.0</ele><time>2026-05-03T14:06:59.113Z</time></trkpt><trkpt lat="43.5690042" lon="11.9239843"><ele>394.0</ele><time>2026-05-03T14:07:00.11Z</time></trkpt><trkpt lat="43.5689574" lon="11.9240956"><ele>394.0</ele><time>2026-05-03T14:07:01.12Z</time></trkpt><trkpt lat="43.5689265" lon="11.9242217"><ele>394.0</ele><time>2026-05-03T14:07:02.121Z</time></trkpt><trkpt lat="43.5688925" lon="11.9243867"><ele>394.0</ele><time>2026-05-03T14:07:03.109Z</time></trkpt><trkpt lat="43.5688724" lon="11.9245371"><ele>394.0</ele><time>2026-05-03T14:07:04.107Z</time></trkpt><trkpt lat="43.5688715" lon="11.9246663"><ele>394.0</ele><time>2026-05-03T14:07:05.104Z</time></trkpt><trkpt lat="43.5688751" lon="11.9247614"><ele>394.6</ele><time>2026-05-03T14:07:06.116Z</time></trkpt><trkpt lat="43.5689206" lon="11.9248984"><ele>395.2</ele><time>2026-05-03T14:07:08.11Z</time></trkpt><trkpt lat="43.5690385" lon="11.9249707"><ele>395.8</ele><time>2026-05-03T14:07:10.103Z</time></trkpt><trkpt lat="43.5691285" lon="11.9249573"><ele>396.40000000000003</ele><time>2026-05-03T14:07:11.118Z</time></trkpt><trkpt lat="43.5692445" lon="11.9249199"><ele>397.0</ele><time>2026-05-03T14:07:12.11Z</time></trkpt><trkpt lat="43.5693598" lon="11.9248874"><ele>397.00000000000006</ele><time>2026-05-03T14:07:13.093Z</time></trkpt><trkpt lat="43.5694554" lon="11.9248864"><ele>397.0</ele><time>2026-05-03T14:07:14.13Z</time></trkpt><trkpt lat="43.5695308" lon="11.9248754"><ele>397.0</ele><time>2026-05-03T14:07:15.115Z</time></trkpt><trkpt lat="43.5695952" lon="11.9248517"><ele>397.0</ele><time>2026-05-03T14:07:16.101Z</time></trkpt><trkpt lat="43.5696266" lon="11.9247089"><ele>397.00000000000006</ele><time>2026-05-03T14:07:18.094Z</time></trkpt><trkpt lat="43.5695865" lon="11.9246218"><ele>397.0</ele><time>2026-05-03T14:07:19.126Z</time></trkpt><trkpt lat="43.5695185" lon="11.9245559"><ele>397.0</ele><time>2026-05-03T14:07:20.119Z</time></trkpt><trkpt lat="43.5694453" lon="11.9244718"><ele>397.0</ele><time>2026-05-03T14:07:22.118Z</time></trkpt><trkpt lat="43.5694722" lon="11.9243515"><ele>397.0</ele><time>2026-05-03T14:07:24.119Z</time></trkpt><trkpt lat="43.5696203" lon="11.9242875"><ele>397.0</ele><time>2026-05-03T14:07:26.127Z</time></trkpt><trkpt lat="43.569751" lon="11.9242772"><ele>400.33333333333337</ele><time>2026-05-03T14:07:27.115Z</time></trkpt><trkpt lat="43.5699007" lon="11.9242323"><ele>403.66666666666663</ele><time>2026-05-03T14:07:28.114Z</time></trkpt><trkpt lat="43.570049" lon="11.9241671"><ele>407.0</ele><time>2026-05-03T14:07:29.121Z</time></trkpt><trkpt lat="43.5701809" lon="11.924093"><ele>407.40000000000003</ele><time>2026-05-03T14:07:30.112Z</time></trkpt><trkpt lat="43.5703086" lon="11.923985"><ele>407.8</ele><time>2026-05-03T14:07:31.115Z</time></trkpt><trkpt lat="43.5704251" lon="11.9238994"><ele>408.2</ele><time>2026-05-03T14:07:32.114Z</time></trkpt><trkpt lat="43.5705103" lon="11.9238496"><ele>408.6</ele><time>2026-05-03T14:07:33.118Z</time></trkpt><trkpt lat="43.5705822" lon="11.9238216"><ele>409.0</ele><time>2026-05-03T14:07:34.12Z</time></trkpt><trkpt lat="43.5706862" lon="11.9238368"><ele>412.75</ele><time>2026-05-03T14:07:36.12Z</time></trkpt><trkpt lat="43.5707727" lon="11.9239385"><ele>416.5</ele><time>2026-05-03T14:07:38.114Z</time></trkpt><trkpt lat="43.5707903" lon="11.9241428"><ele>420.25</ele><time>2026-05-03T14:07:39.116Z</time></trkpt><trkpt lat="43.5708309" lon="11.9243654"><ele>424.0</ele><time>2026-05-03T14:07:40.113Z</time></trkpt><trkpt lat="43.5708755" lon="11.9245763"><ele>424.0</ele><time>2026-05-03T14:07:41.109Z</time></trkpt><trkpt lat="43.5709152" lon="11.9247532"><ele>424.0</ele><time>2026-05-03T14:07:42.129Z</time></trkpt><trkpt lat="43.570952" lon="11.9248727"><ele>424.0</ele><time>2026-05-03T14:07:43.118Z</time></trkpt><trkpt lat="43.5710024" lon="11.9249477"><ele>424.0</ele><time>2026-05-03T14:07:44.107Z</time></trkpt><trkpt lat="43.5711178" lon="11.9249836"><ele>424.0</ele><time>2026-05-03T14:07:46.12Z</time></trkpt><trkpt lat="43.5711804" lon="11.9249283"><ele>427.79999999999995</ele><time>2026-05-03T14:07:47.106Z</time></trkpt><trkpt lat="43.57125" lon="11.9248607"><ele>431.59999999999997</ele><time>2026-05-03T14:07:48.115Z</time></trkpt><trkpt lat="43.5713147" lon="11.9247835"><ele>435.4</ele><time>2026-05-03T14:07:49.102Z</time></trkpt><trkpt lat="43.5713957" lon="11.9247358"><ele>439.2</ele><time>2026-05-03T14:07:50.113Z</time></trkpt><trkpt lat="43.5715091" lon="11.9245813"><ele>443.0</ele><time>2026-05-03T14:07:52.102Z</time></trkpt><trkpt lat="43.5715814" lon="11.9244664"><ele>443.0</ele><time>2026-05-03T14:07:53.109Z</time></trkpt><trkpt lat="43.5716645" lon="11.9243493"><ele>443.0</ele><time>2026-05-03T14:07:54.118Z</time></trkpt><trkpt lat="43.5717724" lon="11.9242305"><ele>443.0</ele><time>2026-05-03T14:07:55.112Z</time></trkpt><trkpt lat="43.5718805" lon="11.9241026"><ele>443.0</ele><time>2026-05-03T14:07:56.102Z</time></trkpt><trkpt lat="43.5719782" lon="11.9239701"><ele>446.25</ele><time>2026-05-03T14:07:57.11Z</time></trkpt><trkpt lat="43.5720772" lon="11.9238313"><ele>449.5</ele><time>2026-05-03T14:07:58.118Z</time></trkpt><trkpt lat="43.5721673" lon="11.923708"><ele>452.75</ele><time>2026-05-03T14:07:59.115Z</time></trkpt><trkpt lat="43.5722596" lon="11.9236358"><ele>456.0</ele><time>2026-05-03T14:08:00.131Z</time></trkpt><trkpt lat="43.5723643" lon="11.9235842"><ele>456.0</ele><time>2026-05-03T14:08:01.108Z</time></trkpt><trkpt lat="43.5724772" lon="11.9235539"><ele>456.0</ele><time>2026-05-03T14:08:02.111Z</time></trkpt><trkpt lat="43.5725706" lon="11.9235352"><ele>456.0</ele><time>2026-05-03T14:08:03.111Z</time></trkpt><trkpt lat="43.572662" lon="11.9235366"><ele>456.0</ele><time>2026-05-03T14:08:04.12Z</time></trkpt><trkpt lat="43.5727783" lon="11.9235785"><ele>456.0</ele><time>2026-05-03T14:08:05.13Z</time></trkpt><trkpt lat="43.5729177" lon="11.9236456"><ele>459.75</ele><time>2026-05-03T14:08:06.107Z</time></trkpt><trkpt lat="43.5730557" lon="11.9237051"><ele>463.5</ele><time>2026-05-03T14:08:07.114Z</time></trkpt><trkpt lat="43.5731707" lon="11.9237505"><ele>467.25</ele><time>2026-05-03T14:08:08.109Z</time></trkpt><trkpt lat="43.5732921" lon="11.9237727"><ele>471.0</ele><time>2026-05-03T14:08:09.103Z</time></trkpt><trkpt lat="43.5734118" lon="11.9237667"><ele>471.0</ele><time>2026-05-03T14:08:10.099Z</time></trkpt><trkpt lat="43.5735261" lon="11.9237364"><ele>471.0</ele><time>2026-05-03T14:08:11.127Z</time></trkpt><trkpt lat="43.5736266" lon="11.9237137"><ele>471.0</ele><time>2026-05-03T14:08:12.114Z</time></trkpt><trkpt lat="43.5737109" lon="11.9237109"><ele>471.0</ele><time>2026-05-03T14:08:13.131Z</time></trkpt><trkpt lat="43.5737832" lon="11.9237145"><ele>471.0</ele><time>2026-05-03T14:08:14.115Z</time></trkpt><trkpt lat="43.5738505" lon="11.923677"><ele>471.0</ele><time>2026-05-03T14:08:15.106Z</time></trkpt><trkpt lat="43.57391" lon="11.9235743"><ele>471.6666666666667</ele><time>2026-05-03T14:08:16.106Z</time></trkpt><trkpt lat="43.5739458" lon="11.923446"><ele>472.33333333333337</ele><time>2026-05-03T14:08:17.105Z</time></trkpt><trkpt lat="43.5739855" lon="11.9233431"><ele>473.0</ele><time>2026-05-03T14:08:18.11Z</time></trkpt><trkpt lat="43.5740429" lon="11.9232801"><ele>473.6666666666667</ele><time>2026-05-03T14:08:19.118Z</time></trkpt><trkpt lat="43.5741102" lon="11.9232424"><ele>474.33333333333337</ele><time>2026-05-03T14:08:20.114Z</time></trkpt><trkpt lat="43.5741881" lon="11.9232092"><ele>475.0</ele><time>2026-05-03T14:08:21.108Z</time></trkpt><trkpt lat="43.5742832" lon="11.9232149"><ele>475.0</ele><time>2026-05-03T14:08:22.105Z</time></trkpt><trkpt lat="43.5743956" lon="11.9232633"><ele>475.0</ele><time>2026-05-03T14:08:23.106Z</time></trkpt><trkpt lat="43.5744975" lon="11.923326"><ele>475.0</ele><time>2026-05-03T14:08:24.113Z</time></trkpt><trkpt lat="43.5745796" lon="11.9233851"><ele>475.0</ele><time>2026-05-03T14:08:25.108Z</time></trkpt><trkpt lat="43.5746481" lon="11.92342"><ele>475.0</ele><time>2026-05-03T14:08:26.109Z</time></trkpt><trkpt lat="43.574721" lon="11.9234177"><ele>478.8</ele><time>2026-05-03T14:08:27.112Z</time></trkpt><trkpt lat="43.5747759" lon="11.9233522"><ele>482.6</ele><time>2026-05-03T14:08:28.118Z</time></trkpt><trkpt lat="43.5748077" lon="11.923237"><ele>486.4</ele><time>2026-05-03T14:08:29.122Z</time></trkpt><trkpt lat="43.5748163" lon="11.9230733"><ele>490.2</ele><time>2026-05-03T14:08:30.107Z</time></trkpt><trkpt lat="43.5748224" lon="11.9228805"><ele>494.0</ele><time>2026-05-03T14:08:31.112Z</time></trkpt><trkpt lat="43.5748231" lon="11.9226901"><ele>493.0</ele><time>2026-05-03T14:08:32.119Z</time></trkpt><trkpt lat="43.5748504" lon="11.922491"><ele>492.0</ele><time>2026-05-03T14:08:33.11Z</time></trkpt><trkpt lat="43.5748711" lon="11.9223217"><ele>491.0</ele><time>2026-05-03T14:08:34.118Z</time></trkpt><trkpt lat="43.5748952" lon="11.9221922"><ele>490.0</ele><time>2026-05-03T14:08:35.115Z</time></trkpt><trkpt lat="43.5749192" lon="11.9221035"><ele>489.0</ele><time>2026-05-03T14:08:36.104Z</time></trkpt><trkpt lat="43.5749646" lon="11.9220312"><ele>489.0</ele><time>2026-05-03T14:08:37.113Z</time></trkpt><trkpt lat="43.5750318" lon="11.9219635"><ele>489.0</ele><time>2026-05-03T14:08:38.117Z</time></trkpt><trkpt lat="43.5751064" lon="11.921891"><ele>489.0</ele><time>2026-05-03T14:08:39.109Z</time></trkpt><trkpt lat="43.5751866" lon="11.9218022"><ele>489.0</ele><time>2026-05-03T14:08:40.111Z</time></trkpt><trkpt lat="43.575244" lon="11.9216902"><ele>489.0</ele><time>2026-05-03T14:08:41.103Z</time></trkpt><trkpt lat="43.5752862" lon="11.9215738"><ele>488.1666666666667</ele><time>2026-05-03T14:08:42.116Z</time></trkpt><trkpt lat="43.5753209" lon="11.9214679"><ele>487.33333333333337</ele><time>2026-05-03T14:08:43.117Z</time></trkpt><trkpt lat="43.575366" lon="11.9213656"><ele>486.5</ele><time>2026-05-03T14:08:44.124Z</time></trkpt><trkpt lat="43.575419" lon="11.9212717"><ele>485.6666666666667</ele><time>2026-05-03T14:08:45.113Z</time></trkpt><trkpt lat="43.5754725" lon="11.9211756"><ele>484.83333333333337</ele><time>2026-05-03T14:08:46.12Z</time></trkpt><trkpt lat="43.5755227" lon="11.9210817"><ele>484.0</ele><time>2026-05-03T14:08:47.123Z</time></trkpt><trkpt lat="43.5755671" lon="11.9209897"><ele>486.57142857142856</ele><time>2026-05-03T14:08:48.115Z</time></trkpt><trkpt lat="43.575597" lon="11.9208921"><ele>489.1428571428571</ele><time>2026-05-03T14:08:49.106Z</time></trkpt><trkpt lat="43.5756126" lon="11.9207907"><ele>491.71428571428567</ele><time>2026-05-03T14:08:50.109Z</time></trkpt><trkpt lat="43.5756209" lon="11.9206864"><ele>494.2857142857142</ele><time>2026-05-03T14:08:51.11Z</time></trkpt><trkpt lat="43.5756311" lon="11.9205815"><ele>496.85714285714283</ele><time>2026-05-03T14:08:52.115Z</time></trkpt><trkpt lat="43.5756421" lon="11.9204735"><ele>499.42857142857133</ele><time>2026-05-03T14:08:53.119Z</time></trkpt><trkpt lat="43.5756536" lon="11.9203845"><ele>501.99999999999994</ele><time>2026-05-03T14:08:54.116Z</time></trkpt><trkpt lat="43.5756793" lon="11.9202471"><ele>502.0</ele><time>2026-05-03T14:08:56.123Z</time></trkpt><trkpt lat="43.575757" lon="11.9201406"><ele>502.00000000000006</ele><time>2026-05-03T14:08:58.099Z</time></trkpt><trkpt lat="43.5758396" lon="11.9200867"><ele>502.00000000000006</ele><time>2026-05-03T14:09:00.11Z</time></trkpt><trkpt lat="43.5759372" lon="11.9201327"><ele>502.0</ele><time>2026-05-03T14:09:02.118Z</time></trkpt><trkpt lat="43.5760345" lon="11.9202229"><ele>502.0</ele><time>2026-05-03T14:09:04.119Z</time></trkpt><trkpt lat="43.5761378" lon="11.9203106"><ele>503.6666666666667</ele><time>2026-05-03T14:09:06.108Z</time></trkpt><trkpt lat="43.5761885" lon="11.9203634"><ele>505.33333333333337</ele><time>2026-05-03T14:09:07.122Z</time></trkpt><trkpt lat="43.5762377" lon="11.9204268"><ele>507.0</ele><time>2026-05-03T14:09:08.106Z</time></trkpt><trkpt lat="43.5762863" lon="11.9204897"><ele>508.66666666666663</ele><time>2026-05-03T14:09:09.117Z</time></trkpt><trkpt lat="43.5763317" lon="11.9205624"><ele>510.3333333333333</ele><time>2026-05-03T14:09:10.101Z</time></trkpt><trkpt lat="43.5763934" lon="11.9206897"><ele>512.0</ele><time>2026-05-03T14:09:12.12Z</time></trkpt><trkpt lat="43.5764306" lon="11.9207796"><ele>512.0</ele><time>2026-05-03T14:09:14.115Z</time></trkpt><trkpt lat="43.5764675" lon="11.9208878"><ele>512.0</ele><time>2026-05-03T14:09:16.124Z</time></trkpt><trkpt lat="43.5765001" lon="11.9209926"><ele>512.0</ele><time>2026-05-03T14:09:18.108Z</time></trkpt><trkpt lat="43.5765512" lon="11.9210956"><ele>512.0</ele><time>2026-05-03T14:09:20.112Z</time></trkpt><trkpt lat="43.5766157" lon="11.9212281"><ele>512.0</ele><time>2026-05-03T14:09:22.114Z</time></trkpt><trkpt lat="43.5766601" lon="11.9213814"><ele>512.6666666666666</ele><time>2026-05-03T14:09:24.113Z</time></trkpt><trkpt lat="43.5766781" lon="11.921548"><ele>513.3333333333333</ele><time>2026-05-03T14:09:26.107Z</time></trkpt><trkpt lat="43.5766674" lon="11.9216674"><ele>514.0</ele><time>2026-05-03T14:09:28.121Z</time></trkpt><trkpt lat="43.5766741" lon="11.9217629"><ele>514.6666666666666</ele><time>2026-05-03T14:10:04.144Z</time></trkpt><trkpt lat="43.5767033" lon="11.9218632"><ele>515.3333333333334</ele><time>2026-05-03T14:10:06.102Z</time></trkpt><trkpt lat="43.5767693" lon="11.9218713"><ele>516.0</ele><time>2026-05-03T14:10:09.117Z</time></trkpt><trkpt lat="43.5767849" lon="11.9217709"><ele>516.0</ele><time>2026-05-03T14:10:11.119Z</time></trkpt><trkpt lat="43.5767824" lon="11.9216787"><ele>516.0</ele><time>2026-05-03T14:10:13.135Z</time></trkpt><trkpt lat="43.5769076" lon="11.9217075"><ele>516.0</ele><time>2026-05-03T14:10:17.141Z</time></trkpt><trkpt lat="43.5769872" lon="11.9217458"><ele>516.0</ele><time>2026-05-03T14:10:18.125Z</time></trkpt><trkpt lat="43.5770586" lon="11.9217855"><ele>516.0</ele><time>2026-05-03T14:10:19.127Z</time></trkpt><trkpt lat="43.5771262" lon="11.9218176"><ele>516.0</ele><time>2026-05-03T14:10:20.107Z</time></trkpt><trkpt lat="43.5772084" lon="11.9218483"><ele>518.6666666666666</ele><time>2026-05-03T14:10:21.135Z</time></trkpt><trkpt lat="43.5772861" lon="11.9218594"><ele>521.3333333333334</ele><time>2026-05-03T14:10:22.125Z</time></trkpt><trkpt lat="43.5773558" lon="11.9218636"><ele>524.0</ele><time>2026-05-03T14:10:23.104Z</time></trkpt><trkpt lat="43.5774203" lon="11.9218691"><ele>526.6666666666667</ele><time>2026-05-03T14:10:24.106Z</time></trkpt><trkpt lat="43.5775565" lon="11.9218934"><ele>529.3333333333334</ele><time>2026-05-03T14:10:26.128Z</time></trkpt><trkpt lat="43.5776359" lon="11.921939"><ele>532.0</ele><time>2026-05-03T14:10:27.113Z</time></trkpt><trkpt lat="43.5777148" lon="11.9219834"><ele>532.0</ele><time>2026-05-03T14:10:28.101Z</time></trkpt><trkpt lat="43.577783" lon="11.922023"><ele>532.0</ele><time>2026-05-03T14:10:29.125Z</time></trkpt><trkpt lat="43.5778408" lon="11.9220615"><ele>532.0</ele><time>2026-05-03T14:10:30.115Z</time></trkpt><trkpt lat="43.5779089" lon="11.9221228"><ele>532.0</ele><time>2026-05-03T14:10:31.129Z</time></trkpt><trkpt lat="43.5779522" lon="11.9221875"><ele>532.0</ele><time>2026-05-03T14:10:32.115Z</time></trkpt><trkpt lat="43.5780347" lon="11.9222883"><ele>532.0</ele><time>2026-05-03T14:10:34.11Z</time></trkpt><trkpt lat="43.5781058" lon="11.9222782"><ele>530.2</ele><time>2026-05-03T14:10:35.099Z</time></trkpt><trkpt lat="43.5782036" lon="11.9221982"><ele>528.4000000000001</ele><time>2026-05-03T14:10:37.106Z</time></trkpt><trkpt lat="43.5783248" lon="11.922258"><ele>526.5999999999999</ele><time>2026-05-03T14:10:39.12Z</time></trkpt><trkpt lat="43.5783987" lon="11.9223387"><ele>524.8</ele><time>2026-05-03T14:10:40.111Z</time></trkpt><trkpt lat="43.5784809" lon="11.9224049"><ele>523.0</ele><time>2026-05-03T14:10:41.12Z</time></trkpt><trkpt lat="43.5785611" lon="11.9224585"><ele>523.0</ele><time>2026-05-03T14:10:42.118Z</time></trkpt><trkpt lat="43.5786302" lon="11.9224885"><ele>523.0</ele><time>2026-05-03T14:10:43.123Z</time></trkpt><trkpt lat="43.5787425" lon="11.9225563"><ele>523.0</ele><time>2026-05-03T14:10:45.11Z</time></trkpt><trkpt lat="43.5787942" lon="11.9226154"><ele>523.0</ele><time>2026-05-03T14:10:46.116Z</time></trkpt><trkpt lat="43.5788455" lon="11.9226675"><ele>523.0</ele><time>2026-05-03T14:10:47.124Z</time></trkpt><trkpt lat="43.5788972" lon="11.9227192"><ele>523.0</ele><time>2026-05-03T14:10:48.119Z</time></trkpt><trkpt lat="43.5789565" lon="11.9227665"><ele>526.5</ele><time>2026-05-03T14:10:49.115Z</time></trkpt><trkpt lat="43.5790575" lon="11.922829"><ele>530.0</ele><time>2026-05-03T14:10:51.106Z</time></trkpt><trkpt lat="43.5791582" lon="11.9228687"><ele>533.5</ele><time>2026-05-03T14:10:53.113Z</time></trkpt><trkpt lat="43.5792364" lon="11.9228811"><ele>537.0</ele><time>2026-05-03T14:10:54.125Z</time></trkpt><trkpt lat="43.5793098" lon="11.9228791"><ele>540.5</ele><time>2026-05-03T14:10:55.108Z</time></trkpt><trkpt lat="43.5793764" lon="11.9228365"><ele>544.0</ele><time>2026-05-03T14:10:56.117Z</time></trkpt><trkpt lat="43.5794688" lon="11.9227789"><ele>544.0</ele><time>2026-05-03T14:10:58.122Z</time></trkpt><trkpt lat="43.5795101" lon="11.9226664"><ele>544.0</ele><time>2026-05-03T14:11:01.125Z</time></trkpt><trkpt lat="43.5794874" lon="11.9225157"><ele>544.0</ele><time>2026-05-03T14:11:03.122Z</time></trkpt><trkpt lat="43.5794591" lon="11.9224289"><ele>544.0</ele><time>2026-05-03T14:11:04.109Z</time></trkpt><trkpt lat="43.5794315" lon="11.9223175"><ele>544.0</ele><time>2026-05-03T14:11:05.113Z</time></trkpt><trkpt lat="43.5794056" lon="11.9222037"><ele>544.0</ele><time>2026-05-03T14:11:06.114Z</time></trkpt><trkpt lat="43.5793736" lon="11.9221065"><ele>539.8</ele><time>2026-05-03T14:11:07.114Z</time></trkpt><trkpt lat="43.5793295" lon="11.9220179"><ele>535.5999999999999</ele><time>2026-05-03T14:11:08.117Z</time></trkpt><trkpt lat="43.5792745" lon="11.9219052"><ele>531.4</ele><time>2026-05-03T14:11:10.119Z</time></trkpt><trkpt lat="43.5792257" lon="11.9217886"><ele>527.1999999999999</ele><time>2026-05-03T14:11:12.101Z</time></trkpt><trkpt lat="43.579191" lon="11.9216112"><ele>523.0</ele><time>2026-05-03T14:11:14.112Z</time></trkpt><trkpt lat="43.579175" lon="11.9215202"><ele>522.6</ele><time>2026-05-03T14:11:15.093Z</time></trkpt><trkpt lat="43.5791371" lon="11.9213772"><ele>522.1999999999999</ele><time>2026-05-03T14:11:17.113Z</time></trkpt><trkpt lat="43.5791221" lon="11.9212802"><ele>521.8</ele><time>2026-05-03T14:11:18.107Z</time></trkpt><trkpt lat="43.5791007" lon="11.9211489"><ele>521.4</ele><time>2026-05-03T14:11:19.112Z</time></trkpt><trkpt lat="43.5790774" lon="11.9210126"><ele>521.0</ele><time>2026-05-03T14:11:20.116Z</time></trkpt><trkpt lat="43.5790602" lon="11.9209118"><ele>521.3333333333333</ele><time>2026-05-03T14:11:21.11Z</time></trkpt><trkpt lat="43.5790516" lon="11.9208104"><ele>521.6666666666666</ele><time>2026-05-03T14:11:22.11Z</time></trkpt><trkpt lat="43.5790409" lon="11.9207037"><ele>522.0</ele><time>2026-05-03T14:11:23.113Z</time></trkpt><trkpt lat="43.579029" lon="11.920592"><ele>522.3333333333334</ele><time>2026-05-03T14:11:24.11Z</time></trkpt><trkpt lat="43.5790149" lon="11.9204969"><ele>522.6666666666667</ele><time>2026-05-03T14:11:25.112Z</time></trkpt><trkpt lat="43.5790177" lon="11.9203963"><ele>523.0</ele><time>2026-05-03T14:11:26.126Z</time></trkpt><trkpt lat="43.5790388" lon="11.9202937"><ele>523.0</ele><time>2026-05-03T14:11:27.11Z</time></trkpt><trkpt lat="43.5790557" lon="11.9201912"><ele>523.0</ele><time>2026-05-03T14:11:28.111Z</time></trkpt><trkpt lat="43.5790668" lon="11.9200881"><ele>523.0</ele><time>2026-05-03T14:11:29.111Z</time></trkpt><trkpt lat="43.5790797" lon="11.9199876"><ele>523.0</ele><time>2026-05-03T14:11:30.106Z</time></trkpt><trkpt lat="43.5790959" lon="11.9198857"><ele>523.0</ele><time>2026-05-03T14:11:31.112Z</time></trkpt><trkpt lat="43.5791275" lon="11.9197517"><ele>523.0</ele><time>2026-05-03T14:11:32.117Z</time></trkpt><trkpt lat="43.5791592" lon="11.9196352"><ele>522.3333333333334</ele><time>2026-05-03T14:11:33.121Z</time></trkpt><trkpt lat="43.5791891" lon="11.9195534"><ele>521.6666666666667</ele><time>2026-05-03T14:11:34.115Z</time></trkpt><trkpt lat="43.5792387" lon="11.9194634"><ele>521.0</ele><time>2026-05-03T14:11:36.104Z</time></trkpt><trkpt lat="43.5792982" lon="11.9194307"><ele>520.3333333333334</ele><time>2026-05-03T14:11:38.119Z</time></trkpt><trkpt lat="43.5794151" lon="11.9193754"><ele>519.6666666666666</ele><time>2026-05-03T14:11:40.121Z</time></trkpt><trkpt lat="43.5794873" lon="11.9193363"><ele>519.0</ele><time>2026-05-03T14:11:41.102Z</time></trkpt><trkpt lat="43.5795525" lon="11.9192961"><ele>517.5</ele><time>2026-05-03T14:11:42.119Z</time></trkpt><trkpt lat="43.5796215" lon="11.9192587"><ele>516.0</ele><time>2026-05-03T14:11:43.121Z</time></trkpt><trkpt lat="43.5796938" lon="11.9192196"><ele>514.5</ele><time>2026-05-03T14:11:44.14Z</time></trkpt><trkpt lat="43.5798188" lon="11.919177"><ele>513.0</ele><time>2026-05-03T14:11:46.098Z</time></trkpt><trkpt lat="43.5798946" lon="11.9191622"><ele>511.5</ele><time>2026-05-03T14:11:47.114Z</time></trkpt><trkpt lat="43.5799601" lon="11.9191563"><ele>510.0</ele><time>2026-05-03T14:11:48.111Z</time></trkpt><trkpt lat="43.5800289" lon="11.9191591"><ele>510.0</ele><time>2026-05-03T14:11:49.106Z</time></trkpt><trkpt lat="43.5801168" lon="11.9191905"><ele>510.0</ele><time>2026-05-03T14:11:50.104Z</time></trkpt><trkpt lat="43.5802086" lon="11.9192245"><ele>510.0</ele><time>2026-05-03T14:11:51.107Z</time></trkpt><trkpt lat="43.5802869" lon="11.9192371"><ele>510.0</ele><time>2026-05-03T14:11:52.118Z</time></trkpt><trkpt lat="43.5803705" lon="11.9192501"><ele>510.0</ele><time>2026-05-03T14:11:53.115Z</time></trkpt><trkpt lat="43.5804856" lon="11.9192713"><ele>509.5</ele><time>2026-05-03T14:11:54.127Z</time></trkpt><trkpt lat="43.5805744" lon="11.919285"><ele>509.0</ele><time>2026-05-03T14:11:55.123Z</time></trkpt><trkpt lat="43.5806509" lon="11.9192693"><ele>508.5</ele><time>2026-05-03T14:11:56.113Z</time></trkpt><trkpt lat="43.5807101" lon="11.9192289"><ele>508.0</ele><time>2026-05-03T14:11:57.118Z</time></trkpt><trkpt lat="43.580797" lon="11.9191786"><ele>507.5</ele><time>2026-05-03T14:11:59.102Z</time></trkpt><trkpt lat="43.5808724" lon="11.9192369"><ele>507.0</ele><time>2026-05-03T14:12:01.104Z</time></trkpt><trkpt lat="43.5809521" lon="11.9192856"><ele>509.3333333333333</ele><time>2026-05-03T14:12:03.104Z</time></trkpt><trkpt lat="43.5810469" lon="11.9193407"><ele>511.66666666666663</ele><time>2026-05-03T14:12:05.123Z</time></trkpt><trkpt lat="43.5811274" lon="11.9193724"><ele>514.0</ele><time>2026-05-03T14:12:08.107Z</time></trkpt><trkpt lat="43.5811947" lon="11.9193997"><ele>516.3333333333333</ele><time>2026-05-03T14:12:10.107Z</time></trkpt><trkpt lat="43.5812642" lon="11.9194125"><ele>518.6666666666666</ele><time>2026-05-03T14:12:12.113Z</time></trkpt><trkpt lat="43.5813493" lon="11.9193971"><ele>521.0</ele><time>2026-05-03T14:12:14.124Z</time></trkpt><trkpt lat="43.58143" lon="11.9192903"><ele>519.5</ele><time>2026-05-03T14:12:16.127Z</time></trkpt><trkpt lat="43.5814731" lon="11.919214"><ele>518.0</ele><time>2026-05-03T14:12:17.109Z</time></trkpt><trkpt lat="43.5815248" lon="11.9190903"><ele>516.5</ele><time>2026-05-03T14:12:19.126Z</time></trkpt><trkpt lat="43.5815598" lon="11.9189642"><ele>515.0</ele><time>2026-05-03T14:12:22.115Z</time></trkpt><trkpt lat="43.5815738" lon="11.918863"><ele>513.5</ele><time>2026-05-03T14:12:24.107Z</time></trkpt><trkpt lat="43.5816107" lon="11.9187473"><ele>512.0</ele><time>2026-05-03T14:12:27.12Z</time></trkpt><trkpt lat="43.5816202" lon="11.9186423"><ele>511.99999999999994</ele><time>2026-05-03T14:12:29.112Z</time></trkpt><trkpt lat="43.5816001" lon="11.9185033"><ele>512.0</ele><time>2026-05-03T14:12:31.107Z</time></trkpt><trkpt lat="43.5815812" lon="11.9184194"><ele>512.0</ele><time>2026-05-03T14:12:32.107Z</time></trkpt><trkpt lat="43.5815653" lon="11.918329"><ele>512.0</ele><time>2026-05-03T14:12:33.119Z</time></trkpt><trkpt lat="43.5815514" lon="11.9181629"><ele>511.99999999999994</ele><time>2026-05-03T14:12:35.114Z</time></trkpt><trkpt lat="43.5815596" lon="11.9180684"><ele>512.0</ele><time>2026-05-03T14:12:36.108Z</time></trkpt><trkpt lat="43.5815554" lon="11.9179642"><ele>512.4285714285714</ele><time>2026-05-03T14:12:38.122Z</time></trkpt><trkpt lat="43.5815234" lon="11.9178883"><ele>512.8571428571428</ele><time>2026-05-03T14:12:39.127Z</time></trkpt><trkpt lat="43.5814799" lon="11.9178068"><ele>513.2857142857142</ele><time>2026-05-03T14:12:40.106Z</time></trkpt><trkpt lat="43.5814427" lon="11.91771"><ele>513.7142857142857</ele><time>2026-05-03T14:12:41.12Z</time></trkpt><trkpt lat="43.5814118" lon="11.917614"><ele>514.1428571428571</ele><time>2026-05-03T14:12:42.119Z</time></trkpt><trkpt lat="43.5813987" lon="11.9175142"><ele>514.5714285714286</ele><time>2026-05-03T14:12:44.117Z</time></trkpt><trkpt lat="43.5814419" lon="11.9174295"><ele>515.0</ele><time>2026-05-03T14:12:46.109Z</time></trkpt><trkpt lat="43.5815045" lon="11.9173138"><ele>516.8</ele><time>2026-05-03T14:12:48.112Z</time></trkpt><trkpt lat="43.5815085" lon="11.9171958"><ele>518.6</ele><time>2026-05-03T14:12:50.114Z</time></trkpt><trkpt lat="43.581462" lon="11.9170308"><ele>520.4</ele><time>2026-05-03T14:12:52.11Z</time></trkpt><trkpt lat="43.5814324" lon="11.9169127"><ele>522.2</ele><time>2026-05-03T14:12:53.12Z</time></trkpt><trkpt lat="43.5813929" lon="11.9168172"><ele>524.0</ele><time>2026-05-03T14:12:54.11Z</time></trkpt><trkpt lat="43.5813353" lon="11.9167394"><ele>525.6</ele><time>2026-05-03T14:12:55.108Z</time></trkpt><trkpt lat="43.5812748" lon="11.9166821"><ele>527.2</ele><time>2026-05-03T14:12:56.103Z</time></trkpt><trkpt lat="43.5812182" lon="11.9166435"><ele>528.8000000000001</ele><time>2026-05-03T14:12:57.113Z</time></trkpt><trkpt lat="43.5811136" lon="11.9166136"><ele>530.4</ele><time>2026-05-03T14:12:59.109Z</time></trkpt><trkpt lat="43.5810346" lon="11.9165528"><ele>532.0</ele><time>2026-05-03T14:13:01.116Z</time></trkpt><trkpt lat="43.5809935" lon="11.9163905"><ele>529.3333333333334</ele><time>2026-05-03T14:13:03.116Z</time></trkpt><trkpt lat="43.5809872" lon="11.9162555"><ele>526.6666666666667</ele><time>2026-05-03T14:13:04.112Z</time></trkpt><trkpt lat="43.5809848" lon="11.9161242"><ele>524.0</ele><time>2026-05-03T14:13:05.122Z</time></trkpt><trkpt lat="43.5809789" lon="11.9160308"><ele>521.3333333333334</ele><time>2026-05-03T14:13:06.115Z</time></trkpt><trkpt lat="43.5809805" lon="11.9158902"><ele>518.6666666666666</ele><time>2026-05-03T14:13:08.129Z</time></trkpt><trkpt lat="43.5809926" lon="11.9157965"><ele>516.0</ele><time>2026-05-03T14:13:09.114Z</time></trkpt><trkpt lat="43.581011" lon="11.9157017"><ele>516.0</ele><time>2026-05-03T14:13:10.129Z</time></trkpt><trkpt lat="43.5810247" lon="11.9156149"><ele>516.0</ele><time>2026-05-03T14:13:11.101Z</time></trkpt><trkpt lat="43.5810555" lon="11.9155107"><ele>516.0</ele><time>2026-05-03T14:13:13.122Z</time></trkpt><trkpt lat="43.5811166" lon="11.9154441"><ele>516.0</ele><time>2026-05-03T14:13:15.11Z</time></trkpt><trkpt lat="43.5812023" lon="11.9154246"><ele>516.0</ele><time>2026-05-03T14:13:17.119Z</time></trkpt><trkpt lat="43.581274" lon="11.915394"><ele>516.0</ele><time>2026-05-03T14:13:19.115Z</time></trkpt><trkpt lat="43.5813497" lon="11.9153715"><ele>519.1666666666666</ele><time>2026-05-03T14:13:21.118Z</time></trkpt><trkpt lat="43.5814531" lon="11.9154597"><ele>522.3333333333334</ele><time>2026-05-03T14:13:23.109Z</time></trkpt><trkpt lat="43.5815035" lon="11.9155214"><ele>525.5</ele><time>2026-05-03T14:13:24.123Z</time></trkpt><trkpt lat="43.5815544" lon="11.9155853"><ele>528.6666666666667</ele><time>2026-05-03T14:13:25.124Z</time></trkpt><trkpt lat="43.5816281" lon="11.9156552"><ele>531.8333333333334</ele><time>2026-05-03T14:13:27.114Z</time></trkpt><trkpt lat="43.5816948" lon="11.9156003"><ele>535.0</ele><time>2026-05-03T14:13:29.134Z</time></trkpt><trkpt lat="43.5817099" lon="11.9155076"><ele>535.0</ele><time>2026-05-03T14:13:30.114Z</time></trkpt><trkpt lat="43.5817174" lon="11.9153822"><ele>535.0</ele><time>2026-05-03T14:13:31.121Z</time></trkpt><trkpt lat="43.5817329" lon="11.9152708"><ele>535.0</ele><time>2026-05-03T14:13:32.102Z</time></trkpt><trkpt lat="43.5817569" lon="11.9151828"><ele>535.0</ele><time>2026-05-03T14:13:33.109Z</time></trkpt><trkpt lat="43.5818295" lon="11.9150677"><ele>535.0</ele><time>2026-05-03T14:13:35.101Z</time></trkpt><trkpt lat="43.5818879" lon="11.9150033"><ele>535.0</ele><time>2026-05-03T14:13:36.112Z</time></trkpt><trkpt lat="43.5819511" lon="11.9149385"><ele>534.8333333333334</ele><time>2026-05-03T14:13:37.105Z</time></trkpt><trkpt lat="43.5820095" lon="11.9148861"><ele>534.6666666666667</ele><time>2026-05-03T14:13:38.118Z</time></trkpt><trkpt lat="43.5821385" lon="11.9148533"><ele>534.5</ele><time>2026-05-03T14:13:40.104Z</time></trkpt><trkpt lat="43.5822294" lon="11.9148624"><ele>534.3333333333334</ele><time>2026-05-03T14:13:41.101Z</time></trkpt><trkpt lat="43.5823009" lon="11.9148781"><ele>534.1666666666666</ele><time>2026-05-03T14:13:42.107Z</time></trkpt><trkpt lat="43.5823705" lon="11.9149116"><ele>534.0</ele><time>2026-05-03T14:13:43.121Z</time></trkpt><trkpt lat="43.5824378" lon="11.9149636"><ele>534.0</ele><time>2026-05-03T14:13:44.114Z</time></trkpt><trkpt lat="43.5824971" lon="11.9150279"><ele>534.0</ele><time>2026-05-03T14:13:45.117Z</time></trkpt><trkpt lat="43.5825372" lon="11.9151015"><ele>534.0</ele><time>2026-05-03T14:13:46.116Z</time></trkpt><trkpt lat="43.5825719" lon="11.9152123"><ele>534.0</ele><time>2026-05-03T14:13:47.098Z</time></trkpt><trkpt lat="43.5825871" lon="11.915348"><ele>534.0</ele><time>2026-05-03T14:13:48.123Z</time></trkpt><trkpt lat="43.5825812" lon="11.9155011"><ele>534.0</ele><time>2026-05-03T14:13:49.12Z</time></trkpt><trkpt lat="43.5825726" lon="11.9156127"><ele>535.8333333333334</ele><time>2026-05-03T14:13:50.116Z</time></trkpt><trkpt lat="43.5825855" lon="11.9157158"><ele>537.6666666666666</ele><time>2026-05-03T14:13:51.116Z</time></trkpt><trkpt lat="43.5826387" lon="11.915831"><ele>539.5</ele><time>2026-05-03T14:13:52.109Z</time></trkpt><trkpt lat="43.5827112" lon="11.9159239"><ele>541.3333333333333</ele><time>2026-05-03T14:13:53.107Z</time></trkpt><trkpt lat="43.5827699" lon="11.9159992"><ele>543.1666666666666</ele><time>2026-05-03T14:13:54.1Z</time></trkpt><trkpt lat="43.5828176" lon="11.9160592"><ele>545.0</ele><time>2026-05-03T14:13:55.119Z</time></trkpt><trkpt lat="43.5828956" lon="11.9161558"><ele>547.6</ele><time>2026-05-03T14:13:57.118Z</time></trkpt><trkpt lat="43.5830341" lon="11.9161727"><ele>550.2</ele><time>2026-05-03T14:13:59.118Z</time></trkpt><trkpt lat="43.5831358" lon="11.9161539"><ele>552.8</ele><time>2026-05-03T14:14:00.111Z</time></trkpt><trkpt lat="43.5832302" lon="11.9161409"><ele>555.4</ele><time>2026-05-03T14:14:01.099Z</time></trkpt><trkpt lat="43.5833131" lon="11.9161529"><ele>558.0</ele><time>2026-05-03T14:14:03.101Z</time></trkpt><trkpt lat="43.5833884" lon="11.9161334"><ele>558.0</ele><time>2026-05-03T14:14:05.108Z</time></trkpt><trkpt lat="43.5835" lon="11.916101"><ele>558.0</ele><time>2026-05-03T14:14:07.099Z</time></trkpt><trkpt lat="43.5835979" lon="11.9160657"><ele>558.0</ele><time>2026-05-03T14:14:09.13Z</time></trkpt><trkpt lat="43.5836825" lon="11.9160154"><ele>558.0</ele><time>2026-05-03T14:14:11.109Z</time></trkpt><trkpt lat="43.5837463" lon="11.9159631"><ele>558.0</ele><time>2026-05-03T14:14:12.112Z</time></trkpt><trkpt lat="43.583808" lon="11.9159064"><ele>556.1666666666666</ele><time>2026-05-03T14:14:13.104Z</time></trkpt><trkpt lat="43.5838684" lon="11.9158469"><ele>554.3333333333334</ele><time>2026-05-03T14:14:14.118Z</time></trkpt><trkpt lat="43.5839182" lon="11.9157909"><ele>552.5</ele><time>2026-05-03T14:14:15.121Z</time></trkpt><trkpt lat="43.5840067" lon="11.9157053"><ele>550.6666666666667</ele><time>2026-05-03T14:14:17.114Z</time></trkpt><trkpt lat="43.5840816" lon="11.9156352"><ele>548.8333333333334</ele><time>2026-05-03T14:14:19.112Z</time></trkpt><trkpt lat="43.5841461" lon="11.9155775"><ele>547.0</ele><time>2026-05-03T14:14:21.115Z</time></trkpt><trkpt lat="43.5842263" lon="11.9155532"><ele>547.0</ele><time>2026-05-03T14:14:23.101Z</time></trkpt><trkpt lat="43.5842914" lon="11.9155501"><ele>547.0</ele><time>2026-05-03T14:14:24.108Z</time></trkpt><trkpt lat="43.5844182" lon="11.915514"><ele>547.0</ele><time>2026-05-03T14:14:26.11Z</time></trkpt><trkpt lat="43.5844778" lon="11.9154768"><ele>547.0</ele><time>2026-05-03T14:14:27.103Z</time></trkpt><trkpt lat="43.5845903" lon="11.9154155"><ele>547.0</ele><time>2026-05-03T14:14:29.119Z</time></trkpt><trkpt lat="43.5846985" lon="11.9154035"><ele>547.4</ele><time>2026-05-03T14:14:31.101Z</time></trkpt><trkpt lat="43.584773" lon="11.9154344"><ele>547.8000000000001</ele><time>2026-05-03T14:14:32.118Z</time></trkpt><trkpt lat="43.5848435" lon="11.9154562"><ele>548.2</ele><time>2026-05-03T14:14:33.136Z</time></trkpt><trkpt lat="43.5849415" lon="11.9154901"><ele>548.6</ele><time>2026-05-03T14:14:35.123Z</time></trkpt><trkpt lat="43.5850376" lon="11.9155259"><ele>549.0</ele><time>2026-05-03T14:14:37.119Z</time></trkpt><trkpt lat="43.5851431" lon="11.9155727"><ele>549.0</ele><time>2026-05-03T14:14:39.106Z</time></trkpt><trkpt lat="43.5852101" lon="11.9155816"><ele>549.0</ele><time>2026-05-03T14:14:41.113Z</time></trkpt><trkpt lat="43.5852933" lon="11.9155972"><ele>549.0</ele><time>2026-05-03T14:14:43.123Z</time></trkpt><trkpt lat="43.5853781" lon="11.9156161"><ele>549.0</ele><time>2026-05-03T14:14:45.113Z</time></trkpt><trkpt lat="43.5854597" lon="11.9156211"><ele>549.0</ele><time>2026-05-03T14:14:47.115Z</time></trkpt><trkpt lat="43.5855346" lon="11.9156379"><ele>549.0</ele><time>2026-05-03T14:14:49.11Z</time></trkpt><trkpt lat="43.5856167" lon="11.9156306"><ele>549.2</ele><time>2026-05-03T14:14:52.115Z</time></trkpt><trkpt lat="43.5856434" lon="11.9155337"><ele>549.4</ele><time>2026-05-03T14:14:55.111Z</time></trkpt><trkpt lat="43.5856374" lon="11.9153898"><ele>549.6</ele><time>2026-05-03T14:14:57.117Z</time></trkpt><trkpt lat="43.5855614" lon="11.9152484"><ele>549.8</ele><time>2026-05-03T14:14:59.108Z</time></trkpt><trkpt lat="43.585524" lon="11.915154"><ele>550.0</ele><time>2026-05-03T14:15:00.096Z</time></trkpt><trkpt lat="43.5854976" lon="11.9150541"><ele>550.0</ele><time>2026-05-03T14:15:01.114Z</time></trkpt><trkpt lat="43.5854447" lon="11.9149295"><ele>550.0</ele><time>2026-05-03T14:15:03.113Z</time></trkpt><trkpt lat="43.585418" lon="11.9148036"><ele>550.0</ele><time>2026-05-03T14:15:05.137Z</time></trkpt><trkpt lat="43.5854125" lon="11.9147143"><ele>550.0</ele><time>2026-05-03T14:15:06.111Z</time></trkpt><trkpt lat="43.5854188" lon="11.9146152"><ele>550.0</ele><time>2026-05-03T14:15:07.112Z</time></trkpt><trkpt lat="43.5854362" lon="11.9145251"><ele>550.0</ele><time>2026-05-03T14:15:08.115Z</time></trkpt><trkpt lat="43.5854445" lon="11.9144348"><ele>550.0</ele><time>2026-05-03T14:15:09.097Z</time></trkpt><trkpt lat="43.585435" lon="11.914303"><ele>550.0</ele><time>2026-05-03T14:15:10.109Z</time></trkpt><trkpt lat="43.5854241" lon="11.9141698"><ele>550.0</ele><time>2026-05-03T14:15:11.123Z</time></trkpt><trkpt lat="43.5854267" lon="11.9140261"><ele>550.0</ele><time>2026-05-03T14:15:12.112Z</time></trkpt><trkpt lat="43.5854197" lon="11.9138838"><ele>550.0</ele><time>2026-05-03T14:15:13.111Z</time></trkpt><trkpt lat="43.5854052" lon="11.9137624"><ele>551.6</ele><time>2026-05-03T14:15:14.118Z</time></trkpt><trkpt lat="43.5853851" lon="11.9136424"><ele>553.2</ele><time>2026-05-03T14:15:15.114Z</time></trkpt><trkpt lat="43.5853794" lon="11.9135352"><ele>554.8</ele><time>2026-05-03T14:15:16.115Z</time></trkpt><trkpt lat="43.5854343" lon="11.9133749"><ele>556.4</ele><time>2026-05-03T14:15:18.11Z</time></trkpt><trkpt lat="43.5854776" lon="11.9132572"><ele>558.0</ele><time>2026-05-03T14:15:20.107Z</time></trkpt><trkpt lat="43.5854486" lon="11.9131662"><ele>559.5</ele><time>2026-05-03T14:15:23.097Z</time></trkpt><trkpt lat="43.5854102" lon="11.9130882"><ele>561.0</ele><time>2026-05-03T14:15:25.132Z</time></trkpt><trkpt lat="43.5853632" lon="11.9129963"><ele>562.5</ele><time>2026-05-03T14:15:28.128Z</time></trkpt><trkpt lat="43.5852808" lon="11.9128847"><ele>564.0</ele><time>2026-05-03T14:15:31.118Z</time></trkpt><trkpt lat="43.5851858" lon="11.9128021"><ele>565.5</ele><time>2026-05-03T14:15:33.104Z</time></trkpt><trkpt lat="43.5851465" lon="11.9127245"><ele>567.0</ele><time>2026-05-03T14:15:34.107Z</time></trkpt><trkpt lat="43.5851086" lon="11.9126445"><ele>564.8333333333334</ele><time>2026-05-03T14:15:35.115Z</time></trkpt><trkpt lat="43.5850649" lon="11.9125811"><ele>562.6666666666666</ele><time>2026-05-03T14:15:36.111Z</time></trkpt><trkpt lat="43.5850058" lon="11.9125485"><ele>560.5</ele><time>2026-05-03T14:15:37.101Z</time></trkpt><trkpt lat="43.5849384" lon="11.9125338"><ele>558.3333333333333</ele><time>2026-05-03T14:15:38.106Z</time></trkpt><trkpt lat="43.5848512" lon="11.9125307"><ele>556.1666666666666</ele><time>2026-05-03T14:15:39.107Z</time></trkpt><trkpt lat="43.5847625" lon="11.9125482"><ele>554.0</ele><time>2026-05-03T14:15:40.116Z</time></trkpt><trkpt lat="43.58468" lon="11.9125698"><ele>550.4</ele><time>2026-05-03T14:15:41.111Z</time></trkpt><trkpt lat="43.5846002" lon="11.9125847"><ele>546.8</ele><time>2026-05-03T14:15:42.105Z</time></trkpt><trkpt lat="43.5845264" lon="11.9125907"><ele>543.2</ele><time>2026-05-03T14:15:43.118Z</time></trkpt><trkpt lat="43.5844455" lon="11.9125658"><ele>539.6</ele><time>2026-05-03T14:15:44.107Z</time></trkpt><trkpt lat="43.5843535" lon="11.9124913"><ele>536.0</ele><time>2026-05-03T14:15:45.111Z</time></trkpt><trkpt lat="43.5842484" lon="11.912417"><ele>536.0</ele><time>2026-05-03T14:15:46.111Z</time></trkpt><trkpt lat="43.5841749" lon="11.9123853"><ele>536.0</ele><time>2026-05-03T14:15:47.112Z</time></trkpt><trkpt lat="43.5840826" lon="11.9123456"><ele>536.0</ele><time>2026-05-03T14:15:49.118Z</time></trkpt><trkpt lat="43.5840874" lon="11.9122542"><ele>536.0</ele><time>2026-05-03T14:15:51.109Z</time></trkpt><trkpt lat="43.5841569" lon="11.912176"><ele>536.0</ele><time>2026-05-03T14:15:53.123Z</time></trkpt><trkpt lat="43.5842745" lon="11.9121285"><ele>536.0</ele><time>2026-05-03T14:15:55.117Z</time></trkpt><trkpt lat="43.5843591" lon="11.9120871"><ele>536.0</ele><time>2026-05-03T14:15:57.12Z</time></trkpt><trkpt lat="43.5844562" lon="11.9120062"><ele>536.0</ele><time>2026-05-03T14:15:59.109Z</time></trkpt><trkpt lat="43.5845373" lon="11.9119354"><ele>536.0</ele><time>2026-05-03T14:16:00.112Z</time></trkpt><trkpt lat="43.5846371" lon="11.9118568"><ele>536.0</ele><time>2026-05-03T14:16:01.116Z</time></trkpt><trkpt lat="43.5847545" lon="11.9117727"><ele>538.8</ele><time>2026-05-03T14:16:02.121Z</time></trkpt><trkpt lat="43.5848508" lon="11.911693"><ele>541.6</ele><time>2026-05-03T14:16:03.109Z</time></trkpt><trkpt lat="43.5849426" lon="11.9116087"><ele>544.4</ele><time>2026-05-03T14:16:04.116Z</time></trkpt><trkpt lat="43.5850363" lon="11.9115219"><ele>547.2</ele><time>2026-05-03T14:16:05.109Z</time></trkpt><trkpt lat="43.5851264" lon="11.9114493"><ele>550.0</ele><time>2026-05-03T14:16:06.107Z</time></trkpt><trkpt lat="43.5852054" lon="11.9113955"><ele>550.0</ele><time>2026-05-03T14:16:07.116Z</time></trkpt><trkpt lat="43.5852703" lon="11.9113548"><ele>550.0</ele><time>2026-05-03T14:16:08.107Z</time></trkpt><trkpt lat="43.5853365" lon="11.9113221"><ele>550.0</ele><time>2026-05-03T14:16:09.107Z</time></trkpt><trkpt lat="43.5854091" lon="11.9112707"><ele>550.0</ele><time>2026-05-03T14:16:10.117Z</time></trkpt><trkpt lat="43.585504" lon="11.9112186"><ele>550.0</ele><time>2026-05-03T14:16:12.122Z</time></trkpt><trkpt lat="43.5855733" lon="11.9112906"><ele>550.0</ele><time>2026-05-03T14:16:14.108Z</time></trkpt><trkpt lat="43.5855975" lon="11.9114507"><ele>553.5</ele><time>2026-05-03T14:16:16.108Z</time></trkpt><trkpt lat="43.5856267" lon="11.9115574"><ele>557.0</ele><time>2026-05-03T14:16:18.112Z</time></trkpt><trkpt lat="43.5857001" lon="11.911536"><ele>560.5</ele><time>2026-05-03T14:16:21.107Z</time></trkpt><trkpt lat="43.5857255" lon="11.9114169"><ele>564.0</ele><time>2026-05-03T14:16:23.116Z</time></trkpt><trkpt lat="43.5857484" lon="11.9113343"><ele>567.5</ele><time>2026-05-03T14:16:24.116Z</time></trkpt><trkpt lat="43.5857707" lon="11.9112459"><ele>571.0</ele><time>2026-05-03T14:16:25.119Z</time></trkpt><trkpt lat="43.5857972" lon="11.9111446"><ele>571.0</ele><time>2026-05-03T14:16:26.117Z</time></trkpt><trkpt lat="43.5858382" lon="11.9110156"><ele>571.0</ele><time>2026-05-03T14:16:28.116Z</time></trkpt><trkpt lat="43.5858556" lon="11.9109142"><ele>571.0</ele><time>2026-05-03T14:16:31.108Z</time></trkpt><trkpt lat="43.5858416" lon="11.9108206"><ele>571.0</ele><time>2026-05-03T14:16:33.112Z</time></trkpt><trkpt lat="43.5858489" lon="11.9106766"><ele>571.0</ele><time>2026-05-03T14:16:35.113Z</time></trkpt><trkpt lat="43.5858787" lon="11.910507"><ele>569.6666666666667</ele><time>2026-05-03T14:16:37.114Z</time></trkpt><trkpt lat="43.5859" lon="11.9104011"><ele>568.3333333333334</ele><time>2026-05-03T14:16:38.102Z</time></trkpt><trkpt lat="43.5859293" lon="11.9102806"><ele>567.0</ele><time>2026-05-03T14:16:39.111Z</time></trkpt><trkpt lat="43.5859609" lon="11.9101506"><ele>565.6666666666666</ele><time>2026-05-03T14:16:40.111Z</time></trkpt><trkpt lat="43.5859888" lon="11.9100282"><ele>564.3333333333333</ele><time>2026-05-03T14:16:41.106Z</time></trkpt><trkpt lat="43.5860143" lon="11.9099269"><ele>563.0</ele><time>2026-05-03T14:16:42.112Z</time></trkpt><trkpt lat="43.5860573" lon="11.9098008"><ele>565.0</ele><time>2026-05-03T14:16:44.121Z</time></trkpt><trkpt lat="43.5861173" lon="11.9097225"><ele>567.0</ele><time>2026-05-03T14:16:46.111Z</time></trkpt><trkpt lat="43.5862304" lon="11.909674"><ele>569.0</ele><time>2026-05-03T14:16:48.119Z</time></trkpt><trkpt lat="43.586336" lon="11.9096658"><ele>571.0</ele><time>2026-05-03T14:16:50.109Z</time></trkpt><trkpt lat="43.5864246" lon="11.9096486"><ele>573.0</ele><time>2026-05-03T14:16:52.104Z</time></trkpt><trkpt lat="43.5864734" lon="11.9095858"><ele>573.0</ele><time>2026-05-03T14:16:53.097Z</time></trkpt><trkpt lat="43.5865072" lon="11.9094679"><ele>573.0</ele><time>2026-05-03T14:16:54.104Z</time></trkpt><trkpt lat="43.5865343" lon="11.9093674"><ele>573.0</ele><time>2026-05-03T14:16:55.109Z</time></trkpt><trkpt lat="43.5865912" lon="11.9092334"><ele>573.0</ele><time>2026-05-03T14:16:57.113Z</time></trkpt><trkpt lat="43.586695" lon="11.90912"><ele>573.0</ele><time>2026-05-03T14:16:59.115Z</time></trkpt><trkpt lat="43.5868028" lon="11.9090737"><ele>572.5</ele><time>2026-05-03T14:17:01.104Z</time></trkpt><trkpt lat="43.5869059" lon="11.9090241"><ele>572.0</ele><time>2026-05-03T14:17:03.11Z</time></trkpt><trkpt lat="43.5869654" lon="11.9089868"><ele>571.5</ele><time>2026-05-03T14:17:04.116Z</time></trkpt><trkpt lat="43.5870309" lon="11.9089621"><ele>571.0</ele><time>2026-05-03T14:17:05.117Z</time></trkpt><trkpt lat="43.5870935" lon="11.9089431"><ele>570.5</ele><time>2026-05-03T14:17:06.095Z</time></trkpt><trkpt lat="43.5872084" lon="11.9089325"><ele>570.0</ele><time>2026-05-03T14:17:08.109Z</time></trkpt><trkpt lat="43.5873054" lon="11.9089416"><ele>570.0</ele><time>2026-05-03T14:17:10.108Z</time></trkpt><trkpt lat="43.5873485" lon="11.9088323"><ele>570.0</ele><time>2026-05-03T14:17:12.107Z</time></trkpt><trkpt lat="43.5872769" lon="11.9087052"><ele>570.0</ele><time>2026-05-03T14:17:14.126Z</time></trkpt><trkpt lat="43.5872053" lon="11.9085471"><ele>570.0</ele><time>2026-05-03T14:17:16.115Z</time></trkpt><trkpt lat="43.5871727" lon="11.9084711"><ele>570.0</ele><time>2026-05-03T14:17:17.11Z</time></trkpt><trkpt lat="43.5871126" lon="11.9083635"><ele>567.0</ele><time>2026-05-03T14:17:19.113Z</time></trkpt><trkpt lat="43.5871283" lon="11.9082015"><ele>564.0</ele><time>2026-05-03T14:17:21.115Z</time></trkpt><trkpt lat="43.587139" lon="11.9081142"><ele>561.0</ele><time>2026-05-03T14:17:22.112Z</time></trkpt><trkpt lat="43.5871634" lon="11.9080329"><ele>558.0</ele><time>2026-05-03T14:17:23.119Z</time></trkpt><trkpt lat="43.587205" lon="11.9079643"><ele>555.0</ele><time>2026-05-03T14:17:24.104Z</time></trkpt><trkpt lat="43.5872785" lon="11.9078702"><ele>552.0</ele><time>2026-05-03T14:17:25.112Z</time></trkpt><trkpt lat="43.5873941" lon="11.9077344"><ele>552.0</ele><time>2026-05-03T14:17:26.118Z</time></trkpt><trkpt lat="43.5874839" lon="11.9076306"><ele>552.0</ele><time>2026-05-03T14:17:27.109Z</time></trkpt><trkpt lat="43.5875468" lon="11.9075487"><ele>552.0</ele><time>2026-05-03T14:17:28.12Z</time></trkpt><trkpt lat="43.5875998" lon="11.9074799"><ele>552.0</ele><time>2026-05-03T14:17:29.12Z</time></trkpt><trkpt lat="43.5876727" lon="11.9073924"><ele>552.0</ele><time>2026-05-03T14:17:31.119Z</time></trkpt><trkpt lat="43.5877352" lon="11.9073091"><ele>551.8333333333334</ele><time>2026-05-03T14:17:33.117Z</time></trkpt><trkpt lat="43.5878141" lon="11.9073017"><ele>551.6666666666666</ele><time>2026-05-03T14:17:36.113Z</time></trkpt><trkpt lat="43.5878765" lon="11.907236"><ele>551.5</ele><time>2026-05-03T14:17:38.123Z</time></trkpt><trkpt lat="43.5879029" lon="11.9071434"><ele>551.3333333333333</ele><time>2026-05-03T14:17:39.119Z</time></trkpt><trkpt lat="43.5879321" lon="11.9070644"><ele>551.1666666666666</ele><time>2026-05-03T14:17:40.128Z</time></trkpt><trkpt lat="43.5879841" lon="11.9069123"><ele>551.0</ele><time>2026-05-03T14:17:42.116Z</time></trkpt><trkpt lat="43.5880266" lon="11.9068464"><ele>551.0</ele><time>2026-05-03T14:17:43.11Z</time></trkpt><trkpt lat="43.5880789" lon="11.9067962"><ele>551.0</ele><time>2026-05-03T14:17:44.118Z</time></trkpt><trkpt lat="43.5881713" lon="11.9067218"><ele>551.0</ele><time>2026-05-03T14:17:46.124Z</time></trkpt><trkpt lat="43.5882569" lon="11.9066566"><ele>551.0</ele><time>2026-05-03T14:17:48.111Z</time></trkpt><trkpt lat="43.5883568" lon="11.9065661"><ele>551.0</ele><time>2026-05-03T14:17:50.11Z</time></trkpt><trkpt lat="43.5884407" lon="11.9064854"><ele>550.5</ele><time>2026-05-03T14:17:52.111Z</time></trkpt><trkpt lat="43.5885358" lon="11.9064721"><ele>550.0</ele><time>2026-05-03T14:17:54.11Z</time></trkpt><trkpt lat="43.5886358" lon="11.9065103"><ele>549.5</ele><time>2026-05-03T14:17:56.104Z</time></trkpt><trkpt lat="43.5887255" lon="11.9065025"><ele>549.0</ele><time>2026-05-03T14:17:58.112Z</time></trkpt><trkpt lat="43.5888134" lon="11.9065176"><ele>548.5</ele><time>2026-05-03T14:18:00.129Z</time></trkpt><trkpt lat="43.5888826" lon="11.9064921"><ele>548.0</ele><time>2026-05-03T14:18:03.13Z</time></trkpt><trkpt lat="43.58893" lon="11.9064098"><ele>548.0</ele><time>2026-05-03T14:18:05.105Z</time></trkpt><trkpt lat="43.5889351" lon="11.9062934"><ele>548.0</ele><time>2026-05-03T14:18:07.108Z</time></trkpt><trkpt lat="43.5889036" lon="11.9062133"><ele>548.0</ele><time>2026-05-03T14:18:09.114Z</time></trkpt><trkpt lat="43.5888576" lon="11.9061198"><ele>548.0</ele><time>2026-05-03T14:18:12.106Z</time></trkpt><trkpt lat="43.5888223" lon="11.9060223"><ele>548.0</ele><time>2026-05-03T14:18:15.125Z</time></trkpt><trkpt lat="43.588783" lon="11.9059271"><ele>548.0</ele><time>2026-05-03T14:18:18.11Z</time></trkpt><trkpt lat="43.5887401" lon="11.9058362"><ele>547.1666666666666</ele><time>2026-05-03T14:18:20.121Z</time></trkpt><trkpt lat="43.5886994" lon="11.905747"><ele>546.3333333333333</ele><time>2026-05-03T14:18:22.12Z</time></trkpt><trkpt lat="43.5886742" lon="11.9056233"><ele>545.5</ele><time>2026-05-03T14:18:24.116Z</time></trkpt><trkpt lat="43.5886537" lon="11.9055168"><ele>544.6666666666666</ele><time>2026-05-03T14:18:26.114Z</time></trkpt><trkpt lat="43.5886422" lon="11.9053962"><ele>543.8333333333334</ele><time>2026-05-03T14:18:28.113Z</time></trkpt><trkpt lat="43.5886214" lon="11.9052497"><ele>543.0</ele><time>2026-05-03T14:18:30.103Z</time></trkpt><trkpt lat="43.5886109" lon="11.9051187"><ele>543.1999999999999</ele><time>2026-05-03T14:18:32.121Z</time></trkpt><trkpt lat="43.58852" lon="11.9050642"><ele>543.4</ele><time>2026-05-03T14:18:34.114Z</time></trkpt><trkpt lat="43.5884287" lon="11.905034"><ele>543.5999999999999</ele><time>2026-05-03T14:18:35.104Z</time></trkpt><trkpt lat="43.5883271" lon="11.9050006"><ele>543.8</ele><time>2026-05-03T14:18:36.115Z</time></trkpt><trkpt lat="43.5882272" lon="11.9049706"><ele>544.0</ele><time>2026-05-03T14:18:37.104Z</time></trkpt><trkpt lat="43.5881293" lon="11.9049456"><ele>544.0</ele><time>2026-05-03T14:18:38.116Z</time></trkpt><trkpt lat="43.5880418" lon="11.9049344"><ele>544.0</ele><time>2026-05-03T14:18:39.114Z</time></trkpt><trkpt lat="43.5879549" lon="11.9049223"><ele>544.0</ele><time>2026-05-03T14:18:40.099Z</time></trkpt><trkpt lat="43.5878814" lon="11.9049102"><ele>544.0</ele><time>2026-05-03T14:18:41.116Z</time></trkpt><trkpt lat="43.5877588" lon="11.9048829"><ele>544.0</ele><time>2026-05-03T14:18:43.131Z</time></trkpt><trkpt lat="43.5876674" lon="11.9048692"><ele>545.2</ele><time>2026-05-03T14:18:45.113Z</time></trkpt><trkpt lat="43.5875724" lon="11.9048219"><ele>546.4</ele><time>2026-05-03T14:18:47.106Z</time></trkpt><trkpt lat="43.5874704" lon="11.904733"><ele>547.6</ele><time>2026-05-03T14:18:49.115Z</time></trkpt><trkpt lat="43.5874189" lon="11.9046659"><ele>548.8</ele><time>2026-05-03T14:18:50.119Z</time></trkpt><trkpt lat="43.5873684" lon="11.9046076"><ele>550.0</ele><time>2026-05-03T14:18:51.116Z</time></trkpt><trkpt lat="43.587263" lon="11.904543"><ele>550.0</ele><time>2026-05-03T14:18:53.105Z</time></trkpt><trkpt lat="43.5871731" lon="11.9045319"><ele>550.0</ele><time>2026-05-03T14:18:55.123Z</time></trkpt><trkpt lat="43.5871059" lon="11.9045144"><ele>550.0</ele><time>2026-05-03T14:18:57.106Z</time></trkpt><trkpt lat="43.5869474" lon="11.9045063"><ele>550.0</ele><time>2026-05-03T14:18:59.11Z</time></trkpt><trkpt lat="43.5868538" lon="11.904518"><ele>550.0</ele><time>2026-05-03T14:19:00.114Z</time></trkpt><trkpt lat="43.586768" lon="11.9045384"><ele>551.2</ele><time>2026-05-03T14:19:01.12Z</time></trkpt><trkpt lat="43.586676" lon="11.9045715"><ele>552.4</ele><time>2026-05-03T14:19:02.107Z</time></trkpt><trkpt lat="43.5865711" lon="11.9046113"><ele>553.6</ele><time>2026-05-03T14:19:03.118Z</time></trkpt><trkpt lat="43.5864562" lon="11.9046363"><ele>554.8</ele><time>2026-05-03T14:19:04.108Z</time></trkpt><trkpt lat="43.5863362" lon="11.9046348"><ele>556.0</ele><time>2026-05-03T14:19:05.107Z</time></trkpt><trkpt lat="43.5862242" lon="11.9046225"><ele>557.1666666666667</ele><time>2026-05-03T14:19:06.11Z</time></trkpt><trkpt lat="43.5861261" lon="11.9046116"><ele>558.3333333333334</ele><time>2026-05-03T14:19:07.111Z</time></trkpt><trkpt lat="43.5860405" lon="11.9045944"><ele>559.5</ele><time>2026-05-03T14:19:08.122Z</time></trkpt><trkpt lat="43.5859584" lon="11.904577"><ele>560.6666666666666</ele><time>2026-05-03T14:19:09.109Z</time></trkpt><trkpt lat="43.5858861" lon="11.9045298"><ele>561.8333333333333</ele><time>2026-05-03T14:19:10.101Z</time></trkpt><trkpt lat="43.5858261" lon="11.9044431"><ele>563.0</ele><time>2026-05-03T14:19:11.123Z</time></trkpt><trkpt lat="43.5857684" lon="11.9043557"><ele>563.0</ele><time>2026-05-03T14:19:12.114Z</time></trkpt><trkpt lat="43.5857343" lon="11.9042514"><ele>563.0</ele><time>2026-05-03T14:19:13.104Z</time></trkpt><trkpt lat="43.5857421" lon="11.9041331"><ele>563.0</ele><time>2026-05-03T14:19:14.111Z</time></trkpt><trkpt lat="43.5857545" lon="11.9040129"><ele>563.0</ele><time>2026-05-03T14:19:15.118Z</time></trkpt><trkpt lat="43.5857113" lon="11.9039068"><ele>563.0</ele><time>2026-05-03T14:19:16.118Z</time></trkpt><trkpt lat="43.585638" lon="11.9038008"><ele>562.5</ele><time>2026-05-03T14:19:17.11Z</time></trkpt><trkpt lat="43.5855638" lon="11.9036884"><ele>562.0</ele><time>2026-05-03T14:19:18.112Z</time></trkpt><trkpt lat="43.5854569" lon="11.9035871"><ele>561.5</ele><time>2026-05-03T14:19:19.104Z</time></trkpt><trkpt lat="43.5853308" lon="11.9034722"><ele>561.0</ele><time>2026-05-03T14:19:20.11Z</time></trkpt><trkpt lat="43.5851963" lon="11.9033466"><ele>561.0</ele><time>2026-05-03T14:19:21.113Z</time></trkpt><trkpt lat="43.5850678" lon="11.9032222"><ele>561.0</ele><time>2026-05-03T14:19:22.144Z</time></trkpt><trkpt lat="43.584947" lon="11.9030996"><ele>561.0</ele><time>2026-05-03T14:19:23.203Z</time></trkpt><trkpt lat="43.584854" lon="11.9030032"><ele>561.0</ele><time>2026-05-03T14:19:24.211Z</time></trkpt><trkpt lat="43.5847765" lon="11.9029353"><ele>561.0</ele><time>2026-05-03T14:19:25.236Z</time></trkpt><trkpt lat="43.5846752" lon="11.9029089"><ele>561.0</ele><time>2026-05-03T14:19:26.205Z</time></trkpt><trkpt lat="43.5844382" lon="11.9030333"><ele>561.0</ele><time>2026-05-03T14:19:28.13Z</time></trkpt><trkpt lat="43.5843123" lon="11.9031178"><ele>564.6666666666666</ele><time>2026-05-03T14:19:29.235Z</time></trkpt><trkpt lat="43.5841819" lon="11.9032018"><ele>568.3333333333333</ele><time>2026-05-03T14:19:30.164Z</time></trkpt><trkpt lat="43.5840319" lon="11.9032706"><ele>572.0</ele><time>2026-05-03T14:19:31.105Z</time></trkpt><trkpt lat="43.583875" lon="11.9033391"><ele>572.0</ele><time>2026-05-03T14:19:32.116Z</time></trkpt><trkpt lat="43.5837079" lon="11.9033964"><ele>572.0</ele><time>2026-05-03T14:19:33.109Z</time></trkpt><trkpt lat="43.5835295" lon="11.9034471"><ele>572.0</ele><time>2026-05-03T14:19:34.116Z</time></trkpt><trkpt lat="43.5833547" lon="11.90351"><ele>577.3333333333333</ele><time>2026-05-03T14:19:35.101Z</time></trkpt><trkpt lat="43.583185" lon="11.9035879"><ele>582.6666666666666</ele><time>2026-05-03T14:19:36.123Z</time></trkpt><trkpt lat="43.5830201" lon="11.9036868"><ele>588.0</ele><time>2026-05-03T14:19:37.099Z</time></trkpt><trkpt lat="43.58286" lon="11.90379"><ele>586.5</ele><time>2026-05-03T14:19:38.111Z</time></trkpt><trkpt lat="43.5827211" lon="11.9039019"><ele>585.0</ele><time>2026-05-03T14:19:39.112Z</time></trkpt><trkpt lat="43.582597" lon="11.9039964"><ele>583.5</ele><time>2026-05-03T14:19:40.108Z</time></trkpt><trkpt lat="43.5824868" lon="11.9040761"><ele>582.0</ele><time>2026-05-03T14:19:41.108Z</time></trkpt><trkpt lat="43.5823831" lon="11.9041496"><ele>582.0</ele><time>2026-05-03T14:19:42.123Z</time></trkpt><trkpt lat="43.5822781" lon="11.9042175"><ele>582.0</ele><time>2026-05-03T14:19:43.112Z</time></trkpt><trkpt lat="43.5821775" lon="11.9042703"><ele>582.0</ele><time>2026-05-03T14:19:44.211Z</time></trkpt><trkpt lat="43.5820779" lon="11.9042866"><ele>582.0</ele><time>2026-05-03T14:19:45.125Z</time></trkpt><trkpt lat="43.5819807" lon="11.9042689"><ele>582.0</ele><time>2026-05-03T14:19:46.119Z</time></trkpt><trkpt lat="43.5818853" lon="11.9042145"><ele>581.4</ele><time>2026-05-03T14:19:47.111Z</time></trkpt><trkpt lat="43.5817962" lon="11.9041499"><ele>580.8000000000001</ele><time>2026-05-03T14:19:48.107Z</time></trkpt><trkpt lat="43.581708" lon="11.9040829"><ele>580.2</ele><time>2026-05-03T14:19:49.107Z</time></trkpt><trkpt lat="43.5816238" lon="11.9040205"><ele>579.6</ele><time>2026-05-03T14:19:50.115Z</time></trkpt><trkpt lat="43.5815443" lon="11.9039744"><ele>579.0</ele><time>2026-05-03T14:19:51.148Z</time></trkpt><trkpt lat="43.5814697" lon="11.9039499"><ele>579.0</ele><time>2026-05-03T14:19:52.109Z</time></trkpt><trkpt lat="43.5813883" lon="11.9039242"><ele>579.0</ele><time>2026-05-03T14:19:53.111Z</time></trkpt><trkpt lat="43.5813001" lon="11.9038913"><ele>579.0</ele><time>2026-05-03T14:19:54.111Z</time></trkpt><trkpt lat="43.5812168" lon="11.9038547"><ele>579.0</ele><time>2026-05-03T14:19:55.127Z</time></trkpt><trkpt lat="43.5811433" lon="11.9037985"><ele>579.0</ele><time>2026-05-03T14:19:56.113Z</time></trkpt><trkpt lat="43.5810785" lon="11.9037162"><ele>579.0</ele><time>2026-05-03T14:19:57.111Z</time></trkpt><trkpt lat="43.5809988" lon="11.9035913"><ele>579.5</ele><time>2026-05-03T14:19:58.105Z</time></trkpt><trkpt lat="43.5809047" lon="11.9034251"><ele>580.0</ele><time>2026-05-03T14:19:59.11Z</time></trkpt><trkpt lat="43.5808108" lon="11.9032676"><ele>580.5</ele><time>2026-05-03T14:20:00.114Z</time></trkpt><trkpt lat="43.5807372" lon="11.9031766"><ele>581.0</ele><time>2026-05-03T14:20:01.186Z</time></trkpt><trkpt lat="43.5806639" lon="11.9030937"><ele>581.0</ele><time>2026-05-03T14:20:02.171Z</time></trkpt><trkpt lat="43.5805787" lon="11.9030505"><ele>581.0</ele><time>2026-05-03T14:20:03.137Z</time></trkpt><trkpt lat="43.5804633" lon="11.9030194"><ele>581.0</ele><time>2026-05-03T14:20:04.167Z</time></trkpt><trkpt lat="43.5803276" lon="11.9029822"><ele>581.0</ele><time>2026-05-03T14:20:05.173Z</time></trkpt><trkpt lat="43.5802288" lon="11.9029553"><ele>581.0</ele><time>2026-05-03T14:20:06.176Z</time></trkpt><trkpt lat="43.580158" lon="11.9029228"><ele>581.8</ele><time>2026-05-03T14:20:07.138Z</time></trkpt><trkpt lat="43.580088" lon="11.9028111"><ele>582.6</ele><time>2026-05-03T14:20:09.158Z</time></trkpt><trkpt lat="43.5801296" lon="11.9026507"><ele>583.4</ele><time>2026-05-03T14:20:11.186Z</time></trkpt><trkpt lat="43.5801727" lon="11.9025735"><ele>584.2</ele><time>2026-05-03T14:20:12.175Z</time></trkpt><trkpt lat="43.580258" lon="11.9024747"><ele>585.0</ele><time>2026-05-03T14:20:14.203Z</time></trkpt><trkpt lat="43.5802759" lon="11.9023168"><ele>585.6666666666666</ele><time>2026-05-03T14:20:16.115Z</time></trkpt><trkpt lat="43.5802554" lon="11.9022261"><ele>586.3333333333334</ele><time>2026-05-03T14:20:17.115Z</time></trkpt><trkpt lat="43.5802222" lon="11.9021358"><ele>587.0</ele><time>2026-05-03T14:20:18.16Z</time></trkpt><trkpt lat="43.5801777" lon="11.9020296"><ele>587.6666666666667</ele><time>2026-05-03T14:20:19.106Z</time></trkpt><trkpt lat="43.5801517" lon="11.9019135"><ele>588.3333333333334</ele><time>2026-05-03T14:20:20.123Z</time></trkpt><trkpt lat="43.5801325" lon="11.9018045"><ele>589.0</ele><time>2026-05-03T14:20:21.107Z</time></trkpt><trkpt lat="43.5801307" lon="11.9017061"><ele>589.0</ele><time>2026-05-03T14:20:22.108Z</time></trkpt><trkpt lat="43.58014" lon="11.9015376"><ele>589.0</ele><time>2026-05-03T14:20:24.116Z</time></trkpt><trkpt lat="43.580157" lon="11.9014447"><ele>589.0</ele><time>2026-05-03T14:20:25.118Z</time></trkpt><trkpt lat="43.5801678" lon="11.9013522"><ele>589.0</ele><time>2026-05-03T14:20:26.113Z</time></trkpt><trkpt lat="43.580163" lon="11.9011784"><ele>589.0</ele><time>2026-05-03T14:20:28.11Z</time></trkpt><trkpt lat="43.5801457" lon="11.9010884"><ele>589.0</ele><time>2026-05-03T14:20:29.113Z</time></trkpt><trkpt lat="43.5800825" lon="11.9009614"><ele>589.0</ele><time>2026-05-03T14:20:31.116Z</time></trkpt><trkpt lat="43.5800445" lon="11.9008326"><ele>589.0</ele><time>2026-05-03T14:20:33.117Z</time></trkpt><trkpt lat="43.5800845" lon="11.9006933"><ele>589.0</ele><time>2026-05-03T14:20:35.135Z</time></trkpt><trkpt lat="43.5801222" lon="11.9006236"><ele>589.0</ele><time>2026-05-03T14:20:36.116Z</time></trkpt><trkpt lat="43.5801729" lon="11.900563"><ele>587.8333333333334</ele><time>2026-05-03T14:20:37.112Z</time></trkpt><trkpt lat="43.5802443" lon="11.9004839"><ele>586.6666666666667</ele><time>2026-05-03T14:20:38.11Z</time></trkpt><trkpt lat="43.5803217" lon="11.9003987"><ele>585.5</ele><time>2026-05-03T14:20:39.109Z</time></trkpt><trkpt lat="43.580372" lon="11.9003214"><ele>584.3333333333334</ele><time>2026-05-03T14:20:40.116Z</time></trkpt><trkpt lat="43.5804019" lon="11.9002314"><ele>583.1666666666666</ele><time>2026-05-03T14:20:41.116Z</time></trkpt><trkpt lat="43.580415" lon="11.9001204"><ele>582.0</ele><time>2026-05-03T14:20:42.103Z</time></trkpt><trkpt lat="43.5804447" lon="11.9000074"><ele>579.1666666666666</ele><time>2026-05-03T14:20:43.119Z</time></trkpt><trkpt lat="43.5804938" lon="11.8999041"><ele>576.3333333333334</ele><time>2026-05-03T14:20:44.099Z</time></trkpt><trkpt lat="43.5805577" lon="11.8998112"><ele>573.5</ele><time>2026-05-03T14:20:45.107Z</time></trkpt><trkpt lat="43.5806051" lon="11.8997284"><ele>570.6666666666667</ele><time>2026-05-03T14:20:46.114Z</time></trkpt><trkpt lat="43.5806486" lon="11.8996517"><ele>567.8333333333334</ele><time>2026-05-03T14:20:47.12Z</time></trkpt><trkpt lat="43.5806885" lon="11.8995687"><ele>565.0</ele><time>2026-05-03T14:20:48.121Z</time></trkpt><trkpt lat="43.5807227" lon="11.8994729"><ele>565.0</ele><time>2026-05-03T14:20:49.096Z</time></trkpt><trkpt lat="43.5807642" lon="11.8993823"><ele>565.0</ele><time>2026-05-03T14:20:50.102Z</time></trkpt><trkpt lat="43.5807917" lon="11.8992822"><ele>565.0</ele><time>2026-05-03T14:20:51.109Z</time></trkpt><trkpt lat="43.5808203" lon="11.8991854"><ele>565.0</ele><time>2026-05-03T14:20:52.109Z</time></trkpt><trkpt lat="43.5808568" lon="11.899109"><ele>565.0</ele><time>2026-05-03T14:20:53.105Z</time></trkpt><trkpt lat="43.5810232" lon="11.8990396"><ele>564.5</ele><time>2026-05-03T14:20:56.114Z</time></trkpt><trkpt lat="43.5810863" lon="11.8990112"><ele>564.0</ele><time>2026-05-03T14:20:57.185Z</time></trkpt><trkpt lat="43.581186" lon="11.8989071"><ele>563.5</ele><time>2026-05-03T14:20:59.342Z</time></trkpt><trkpt lat="43.5812184" lon="11.8988312"><ele>563.0</ele><time>2026-05-03T14:21:00.264Z</time></trkpt><trkpt lat="43.5812444" lon="11.8987082"><ele>562.5</ele><time>2026-05-03T14:21:02.196Z</time></trkpt><trkpt lat="43.5812015" lon="11.8985881"><ele>562.0</ele><time>2026-05-03T14:21:05.199Z</time></trkpt><trkpt lat="43.5810977" lon="11.8985019"><ele>562.0</ele><time>2026-05-03T14:21:07.204Z</time></trkpt><trkpt lat="43.5810381" lon="11.8984591"><ele>562.0</ele><time>2026-05-03T14:21:08.104Z</time></trkpt><trkpt lat="43.5809846" lon="11.8984086"><ele>562.0</ele><time>2026-05-03T14:21:09.133Z</time></trkpt><trkpt lat="43.5809341" lon="11.89833"><ele>562.0</ele><time>2026-05-03T14:21:10.103Z</time></trkpt><trkpt lat="43.5808844" lon="11.8982351"><ele>562.0</ele><time>2026-05-03T14:21:11.108Z</time></trkpt><trkpt lat="43.5808393" lon="11.8981457"><ele>562.0</ele><time>2026-05-03T14:21:12.116Z</time></trkpt><trkpt lat="43.5807928" lon="11.8980519"><ele>559.2</ele><time>2026-05-03T14:21:13.107Z</time></trkpt><trkpt lat="43.5807452" lon="11.8979471"><ele>556.4000000000001</ele><time>2026-05-03T14:21:14.119Z</time></trkpt><trkpt lat="43.5807152" lon="11.8978455"><ele>553.5999999999999</ele><time>2026-05-03T14:21:15.105Z</time></trkpt><trkpt lat="43.5806657" lon="11.897734"><ele>550.8</ele><time>2026-05-03T14:21:17.293Z</time></trkpt><trkpt lat="43.5805436" lon="11.8976546"><ele>548.0</ele><time>2026-05-03T14:21:19.137Z</time></trkpt><trkpt lat="43.5804835" lon="11.8976186"><ele>548.1999999999999</ele><time>2026-05-03T14:21:20.182Z</time></trkpt><trkpt lat="43.5803846" lon="11.8975122"><ele>548.4</ele><time>2026-05-03T14:21:22.157Z</time></trkpt><trkpt lat="43.5803359" lon="11.8973924"><ele>548.5999999999999</ele><time>2026-05-03T14:21:23.172Z</time></trkpt><trkpt lat="43.5802792" lon="11.8972755"><ele>548.8</ele><time>2026-05-03T14:21:24.153Z</time></trkpt><trkpt lat="43.5802185" lon="11.8971372"><ele>549.0</ele><time>2026-05-03T14:21:25.14Z</time></trkpt><trkpt lat="43.5801841" lon="11.8970381"><ele>549.0</ele><time>2026-05-03T14:21:26.149Z</time></trkpt><trkpt lat="43.5801521" lon="11.8969458"><ele>549.0</ele><time>2026-05-03T14:21:27.177Z</time></trkpt><trkpt lat="43.5800947" lon="11.8968172"><ele>549.0</ele><time>2026-05-03T14:21:29.118Z</time></trkpt><trkpt lat="43.5801221" lon="11.8966783"><ele>549.0</ele><time>2026-05-03T14:21:31.107Z</time></trkpt><trkpt lat="43.5801655" lon="11.8965138"><ele>549.0</ele><time>2026-05-03T14:21:33.122Z</time></trkpt><trkpt lat="43.5801836" lon="11.8964301"><ele>546.6</ele><time>2026-05-03T14:21:34.126Z</time></trkpt><trkpt lat="43.5802085" lon="11.8962844"><ele>544.2</ele><time>2026-05-03T14:21:36.12Z</time></trkpt><trkpt lat="43.5802333" lon="11.8961158"><ele>541.8000000000001</ele><time>2026-05-03T14:21:38.119Z</time></trkpt><trkpt lat="43.5802418" lon="11.8960293"><ele>539.4</ele><time>2026-05-03T14:21:39.12Z</time></trkpt><trkpt lat="43.5802358" lon="11.8959248"><ele>537.0</ele><time>2026-05-03T14:21:40.12Z</time></trkpt><trkpt lat="43.5802123" lon="11.8958081"><ele>535.6666666666666</ele><time>2026-05-03T14:21:41.112Z</time></trkpt><trkpt lat="43.5801788" lon="11.8956865"><ele>534.3333333333334</ele><time>2026-05-03T14:21:42.116Z</time></trkpt><trkpt lat="43.5801434" lon="11.8955554"><ele>533.0</ele><time>2026-05-03T14:21:43.12Z</time></trkpt><trkpt lat="43.5801096" lon="11.8954434"><ele>531.6666666666667</ele><time>2026-05-03T14:21:44.124Z</time></trkpt><trkpt lat="43.5800725" lon="11.8953349"><ele>530.3333333333334</ele><time>2026-05-03T14:21:45.107Z</time></trkpt><trkpt lat="43.5800441" lon="11.8952434"><ele>529.0</ele><time>2026-05-03T14:21:46.124Z</time></trkpt><trkpt lat="43.580007" lon="11.8951045"><ele>527.5</ele><time>2026-05-03T14:21:48.106Z</time></trkpt><trkpt lat="43.5800372" lon="11.8950089"><ele>526.0</ele><time>2026-05-03T14:21:50.12Z</time></trkpt><trkpt lat="43.5800577" lon="11.8949061"><ele>524.5</ele><time>2026-05-03T14:21:52.11Z</time></trkpt><trkpt lat="43.5800397" lon="11.8947806"><ele>523.0</ele><time>2026-05-03T14:21:54.266Z</time></trkpt><trkpt lat="43.5800304" lon="11.8946416"><ele>521.5</ele><time>2026-05-03T14:21:56.122Z</time></trkpt><trkpt lat="43.5800213" lon="11.8945469"><ele>520.0</ele><time>2026-05-03T14:21:58.126Z</time></trkpt><trkpt lat="43.5799798" lon="11.8944699"><ele>520.0</ele><time>2026-05-03T14:22:00.111Z</time></trkpt><trkpt lat="43.5799052" lon="11.8944292"><ele>520.0</ele><time>2026-05-03T14:22:02.119Z</time></trkpt><trkpt lat="43.5798151" lon="11.8943506"><ele>520.0</ele><time>2026-05-03T14:22:04.175Z</time></trkpt><trkpt lat="43.5797019" lon="11.8942747"><ele>520.0</ele><time>2026-05-03T14:22:06.11Z</time></trkpt><trkpt lat="43.5796409" lon="11.8942477"><ele>520.0</ele><time>2026-05-03T14:22:07.118Z</time></trkpt><trkpt lat="43.5795111" lon="11.8942029"><ele>521.0</ele><time>2026-05-03T14:22:09.115Z</time></trkpt><trkpt lat="43.5794307" lon="11.8942082"><ele>522.0</ele><time>2026-05-03T14:22:10.131Z</time></trkpt><trkpt lat="43.5793497" lon="11.8942387"><ele>523.0</ele><time>2026-05-03T14:22:11.1Z</time></trkpt><trkpt lat="43.5792726" lon="11.8942994"><ele>524.0</ele><time>2026-05-03T14:22:12.117Z</time></trkpt><trkpt lat="43.5792073" lon="11.8943634"><ele>525.0</ele><time>2026-05-03T14:22:13.113Z</time></trkpt><trkpt lat="43.5791407" lon="11.8944141"><ele>526.0</ele><time>2026-05-03T14:22:14.211Z</time></trkpt><trkpt lat="43.5790744" lon="11.8944627"><ele>526.0</ele><time>2026-05-03T14:22:15.178Z</time></trkpt><trkpt lat="43.5790109" lon="11.8945023"><ele>526.0</ele><time>2026-05-03T14:22:16.11Z</time></trkpt><trkpt lat="43.5789122" lon="11.8945388"><ele>526.0</ele><time>2026-05-03T14:22:18.193Z</time></trkpt><trkpt lat="43.5788213" lon="11.894477"><ele>526.0</ele><time>2026-05-03T14:22:20.276Z</time></trkpt><trkpt lat="43.5787292" lon="11.894398"><ele>526.0</ele><time>2026-05-03T14:22:22.156Z</time></trkpt><trkpt lat="43.5787637" lon="11.894324"><ele>526.0</ele><time>2026-05-03T14:22:26.184Z</time></trkpt><trkpt lat="43.5788259" lon="11.8942974"><ele>522.2</ele><time>2026-05-03T14:22:27.191Z</time></trkpt><trkpt lat="43.5789077" lon="11.8942379"><ele>518.4000000000001</ele><time>2026-05-03T14:22:28.221Z</time></trkpt><trkpt lat="43.5789802" lon="11.8941419"><ele>514.6</ele><time>2026-05-03T14:22:29.232Z</time></trkpt><trkpt lat="43.5790356" lon="11.8939946"><ele>510.8</ele><time>2026-05-03T14:22:30.185Z</time></trkpt><trkpt lat="43.5790775" lon="11.8938401"><ele>507.0</ele><time>2026-05-03T14:22:31.179Z</time></trkpt><trkpt lat="43.579112" lon="11.8936953"><ele>507.0</ele><time>2026-05-03T14:22:32.173Z</time></trkpt><trkpt lat="43.57915" lon="11.8935698"><ele>507.00000000000006</ele><time>2026-05-03T14:22:33.152Z</time></trkpt><trkpt lat="43.5791896" lon="11.8934488"><ele>507.00000000000006</ele><time>2026-05-03T14:22:34.172Z</time></trkpt><trkpt lat="43.5792451" lon="11.8933518"><ele>507.0</ele><time>2026-05-03T14:22:35.179Z</time></trkpt><trkpt lat="43.5793257" lon="11.8932848"><ele>507.0</ele><time>2026-05-03T14:22:36.198Z</time></trkpt><trkpt lat="43.5794087" lon="11.893216"><ele>504.5</ele><time>2026-05-03T14:22:37.158Z</time></trkpt><trkpt lat="43.5795125" lon="11.8931709"><ele>502.0</ele><time>2026-05-03T14:22:38.229Z</time></trkpt><trkpt lat="43.5796212" lon="11.8931214"><ele>499.5</ele><time>2026-05-03T14:22:39.167Z</time></trkpt><trkpt lat="43.5797313" lon="11.8930719"><ele>497.0</ele><time>2026-05-03T14:22:40.205Z</time></trkpt><trkpt lat="43.579844" lon="11.8930212"><ele>497.0</ele><time>2026-05-03T14:22:41.158Z</time></trkpt><trkpt lat="43.5799514" lon="11.8929676"><ele>497.0</ele><time>2026-05-03T14:22:42.173Z</time></trkpt><trkpt lat="43.5800573" lon="11.8929088"><ele>497.0</ele><time>2026-05-03T14:22:43.194Z</time></trkpt><trkpt lat="43.5801633" lon="11.8928468"><ele>497.0</ele><time>2026-05-03T14:22:44.19Z</time></trkpt><trkpt lat="43.5802508" lon="11.8927479"><ele>497.0</ele><time>2026-05-03T14:22:45.16Z</time></trkpt><trkpt lat="43.5803226" lon="11.8926335"><ele>497.0</ele><time>2026-05-03T14:22:46.178Z</time></trkpt><trkpt lat="43.5803952" lon="11.8925055"><ele>497.0</ele><time>2026-05-03T14:22:47.184Z</time></trkpt><trkpt lat="43.5804426" lon="11.8923376"><ele>497.0</ele><time>2026-05-03T14:22:48.235Z</time></trkpt><trkpt lat="43.5804857" lon="11.8921587"><ele>494.0</ele><time>2026-05-03T14:22:49.178Z</time></trkpt><trkpt lat="43.5805295" lon="11.8919884"><ele>491.0</ele><time>2026-05-03T14:22:50.184Z</time></trkpt><trkpt lat="43.580571" lon="11.8918286"><ele>488.0</ele><time>2026-05-03T14:22:51.17Z</time></trkpt><trkpt lat="43.5806046" lon="11.891691"><ele>485.0</ele><time>2026-05-03T14:22:52.16Z</time></trkpt><trkpt lat="43.5806266" lon="11.891565"><ele>483.6</ele><time>2026-05-03T14:22:53.163Z</time></trkpt><trkpt lat="43.5806316" lon="11.8914415"><ele>482.2</ele><time>2026-05-03T14:22:54.181Z</time></trkpt><trkpt lat="43.5806121" lon="11.8913211"><ele>480.79999999999995</ele><time>2026-05-03T14:22:55.129Z</time></trkpt><trkpt lat="43.5805682" lon="11.8912065"><ele>479.4</ele><time>2026-05-03T14:22:56.123Z</time></trkpt><trkpt lat="43.5805029" lon="11.8910896"><ele>478.0</ele><time>2026-05-03T14:22:57.12Z</time></trkpt><trkpt lat="43.5804338" lon="11.8909673"><ele>475.25</ele><time>2026-05-03T14:22:58.119Z</time></trkpt><trkpt lat="43.5803419" lon="11.890847"><ele>472.5</ele><time>2026-05-03T14:22:59.097Z</time></trkpt><trkpt lat="43.5802371" lon="11.8907078"><ele>469.75</ele><time>2026-05-03T14:23:00.121Z</time></trkpt><trkpt lat="43.5801192" lon="11.8905615"><ele>467.0</ele><time>2026-05-03T14:23:01.128Z</time></trkpt><trkpt lat="43.5799961" lon="11.8904013"><ele>467.0</ele><time>2026-05-03T14:23:02.11Z</time></trkpt><trkpt lat="43.5798782" lon="11.8902499"><ele>467.0</ele><time>2026-05-03T14:23:03.14Z</time></trkpt><trkpt lat="43.5797675" lon="11.8901052"><ele>467.0</ele><time>2026-05-03T14:23:04.209Z</time></trkpt><trkpt lat="43.5796581" lon="11.8899621"><ele>468.5</ele><time>2026-05-03T14:23:05.153Z</time></trkpt><trkpt lat="43.5795521" lon="11.8898239"><ele>470.0</ele><time>2026-05-03T14:23:06.163Z</time></trkpt><trkpt lat="43.5794518" lon="11.8896935"><ele>471.5</ele><time>2026-05-03T14:23:07.168Z</time></trkpt><trkpt lat="43.5793533" lon="11.8895602"><ele>473.0</ele><time>2026-05-03T14:23:08.175Z</time></trkpt><trkpt lat="43.5792645" lon="11.889424"><ele>468.5</ele><time>2026-05-03T14:23:09.163Z</time></trkpt><trkpt lat="43.5791857" lon="11.8892811"><ele>464.0</ele><time>2026-05-03T14:23:10.15Z</time></trkpt><trkpt lat="43.579111" lon="11.8891292"><ele>459.5</ele><time>2026-05-03T14:23:11.161Z</time></trkpt><trkpt lat="43.5790367" lon="11.8889694"><ele>455.0</ele><time>2026-05-03T14:23:12.156Z</time></trkpt><trkpt lat="43.578964" lon="11.8888059"><ele>455.0</ele><time>2026-05-03T14:23:13.173Z</time></trkpt><trkpt lat="43.5788934" lon="11.8886453"><ele>455.0</ele><time>2026-05-03T14:23:14.15Z</time></trkpt><trkpt lat="43.5788302" lon="11.8884912"><ele>455.0</ele><time>2026-05-03T14:23:15.159Z</time></trkpt><trkpt lat="43.5787811" lon="11.8883394"><ele>455.0</ele><time>2026-05-03T14:23:16.177Z</time></trkpt><trkpt lat="43.5787493" lon="11.8881888"><ele>455.0</ele><time>2026-05-03T14:23:17.175Z</time></trkpt><trkpt lat="43.5787363" lon="11.8880385"><ele>455.0</ele><time>2026-05-03T14:23:18.157Z</time></trkpt><trkpt lat="43.5787364" lon="11.88789"><ele>455.0</ele><time>2026-05-03T14:23:19.189Z</time></trkpt><trkpt lat="43.5787474" lon="11.8877433"><ele>455.0</ele><time>2026-05-03T14:23:20.167Z</time></trkpt><trkpt lat="43.5787659" lon="11.8875982"><ele>455.0</ele><time>2026-05-03T14:23:21.167Z</time></trkpt><trkpt lat="43.5787873" lon="11.8874552"><ele>455.0</ele><time>2026-05-03T14:23:22.152Z</time></trkpt><trkpt lat="43.5788128" lon="11.8873164"><ele>455.0</ele><time>2026-05-03T14:23:23.191Z</time></trkpt><trkpt lat="43.5788472" lon="11.8871738"><ele>455.0</ele><time>2026-05-03T14:23:24.154Z</time></trkpt><trkpt lat="43.5788859" lon="11.8870207"><ele>455.0</ele><time>2026-05-03T14:23:25.254Z</time></trkpt><trkpt lat="43.578921" lon="11.8868595"><ele>454.0</ele><time>2026-05-03T14:23:26.228Z</time></trkpt><trkpt lat="43.5789464" lon="11.8866947"><ele>453.0</ele><time>2026-05-03T14:23:27.185Z</time></trkpt><trkpt lat="43.5789577" lon="11.8865298"><ele>452.0</ele><time>2026-05-03T14:23:28.188Z</time></trkpt><trkpt lat="43.5789678" lon="11.8863723"><ele>451.0</ele><time>2026-05-03T14:23:29.176Z</time></trkpt><trkpt lat="43.5789609" lon="11.8862185"><ele>451.0</ele><time>2026-05-03T14:23:30.184Z</time></trkpt><trkpt lat="43.578909" lon="11.8860729"><ele>451.0</ele><time>2026-05-03T14:23:31.148Z</time></trkpt><trkpt lat="43.5788558" lon="11.885927"><ele>451.0</ele><time>2026-05-03T14:23:32.174Z</time></trkpt><trkpt lat="43.5787692" lon="11.8858101"><ele>451.0</ele><time>2026-05-03T14:23:33.192Z</time></trkpt><trkpt lat="43.5786825" lon="11.8856894"><ele>443.75</ele><time>2026-05-03T14:23:34.164Z</time></trkpt><trkpt lat="43.5786299" lon="11.885558"><ele>436.5</ele><time>2026-05-03T14:23:35.174Z</time></trkpt><trkpt lat="43.5785842" lon="11.8854288"><ele>429.25</ele><time>2026-05-03T14:23:36.181Z</time></trkpt><trkpt lat="43.5785761" lon="11.8852717"><ele>422.0</ele><time>2026-05-03T14:23:37.15Z</time></trkpt><trkpt lat="43.5785755" lon="11.8850769"><ele>421.3333333333333</ele><time>2026-05-03T14:23:38.173Z</time></trkpt><trkpt lat="43.5785733" lon="11.8848547"><ele>420.66666666666663</ele><time>2026-05-03T14:23:39.17Z</time></trkpt><trkpt lat="43.5785689" lon="11.8846229"><ele>420.0</ele><time>2026-05-03T14:23:40.17Z</time></trkpt><trkpt lat="43.5785604" lon="11.8843937"><ele>418.5</ele><time>2026-05-03T14:23:41.184Z</time></trkpt><trkpt lat="43.5785521" lon="11.8841738"><ele>417.0</ele><time>2026-05-03T14:23:42.165Z</time></trkpt><trkpt lat="43.5785434" lon="11.8839698"><ele>415.5</ele><time>2026-05-03T14:23:43.165Z</time></trkpt><trkpt lat="43.5785294" lon="11.8837888"><ele>414.0</ele><time>2026-05-03T14:23:44.165Z</time></trkpt><trkpt lat="43.5785182" lon="11.8836292"><ele>414.0</ele><time>2026-05-03T14:23:45.16Z</time></trkpt><trkpt lat="43.5785092" lon="11.8834824"><ele>414.0</ele><time>2026-05-03T14:23:46.171Z</time></trkpt><trkpt lat="43.5785472" lon="11.8833361"><ele>414.0</ele><time>2026-05-03T14:23:47.167Z</time></trkpt><trkpt lat="43.5785904" lon="11.8831992"><ele>414.0</ele><time>2026-05-03T14:23:48.168Z</time></trkpt><trkpt lat="43.5786617" lon="11.8831005"><ele>414.0</ele><time>2026-05-03T14:23:49.156Z</time></trkpt><trkpt lat="43.5787459" lon="11.8830201"><ele>414.75</ele><time>2026-05-03T14:23:50.192Z</time></trkpt><trkpt lat="43.5788447" lon="11.8829525"><ele>415.5</ele><time>2026-05-03T14:23:51.165Z</time></trkpt><trkpt lat="43.5789573" lon="11.8828858"><ele>416.25</ele><time>2026-05-03T14:23:52.213Z</time></trkpt><trkpt lat="43.579072" lon="11.8828198"><ele>417.0</ele><time>2026-05-03T14:23:53.181Z</time></trkpt><trkpt lat="43.5791859" lon="11.8827735"><ele>417.0</ele><time>2026-05-03T14:23:54.171Z</time></trkpt><trkpt lat="43.5792964" lon="11.88273"><ele>417.0</ele><time>2026-05-03T14:23:55.158Z</time></trkpt><trkpt lat="43.5794013" lon="11.8827152"><ele>417.0</ele><time>2026-05-03T14:23:56.173Z</time></trkpt><trkpt lat="43.5795082" lon="11.8827462"><ele>417.0</ele><time>2026-05-03T14:23:57.168Z</time></trkpt><trkpt lat="43.579613" lon="11.8827975"><ele>417.0</ele><time>2026-05-03T14:23:58.258Z</time></trkpt><trkpt lat="43.5797078" lon="11.8828759"><ele>412.75</ele><time>2026-05-03T14:23:59.255Z</time></trkpt><trkpt lat="43.5798025" lon="11.8829564"><ele>408.5</ele><time>2026-05-03T14:24:00.192Z</time></trkpt><trkpt lat="43.5798753" lon="11.8830714"><ele>404.25</ele><time>2026-05-03T14:24:01.16Z</time></trkpt><trkpt lat="43.5799414" lon="11.8832067"><ele>400.0</ele><time>2026-05-03T14:24:02.192Z</time></trkpt><trkpt lat="43.5799934" lon="11.8833776"><ele>402.25</ele><time>2026-05-03T14:24:03.158Z</time></trkpt><trkpt lat="43.5800403" lon="11.8835447"><ele>404.5</ele><time>2026-05-03T14:24:04.187Z</time></trkpt><trkpt lat="43.5800874" lon="11.8837091"><ele>406.75</ele><time>2026-05-03T14:24:05.142Z</time></trkpt><trkpt lat="43.580139" lon="11.8838654"><ele>409.0</ele><time>2026-05-03T14:24:06.202Z</time></trkpt><trkpt lat="43.5801913" lon="11.8840032"><ele>409.0</ele><time>2026-05-03T14:24:07.189Z</time></trkpt><trkpt lat="43.5802395" lon="11.88414"><ele>409.0</ele><time>2026-05-03T14:24:08.185Z</time></trkpt><trkpt lat="43.5802823" lon="11.8842537"><ele>409.0</ele><time>2026-05-03T14:24:09.208Z</time></trkpt><trkpt lat="43.5803341" lon="11.8843331"><ele>409.0</ele><time>2026-05-03T14:24:10.19Z</time></trkpt><trkpt lat="43.5803793" lon="11.884394"><ele>409.0</ele><time>2026-05-03T14:24:11.191Z</time></trkpt><trkpt lat="43.5804867" lon="11.884338"><ele>407.4</ele><time>2026-05-03T14:24:13.16Z</time></trkpt><trkpt lat="43.5805382" lon="11.8842737"><ele>405.79999999999995</ele><time>2026-05-03T14:24:14.158Z</time></trkpt><trkpt lat="43.580542" lon="11.8841446"><ele>404.20000000000005</ele><time>2026-05-03T14:24:15.208Z</time></trkpt><trkpt lat="43.5805176" lon="11.8840114"><ele>402.6</ele><time>2026-05-03T14:24:16.15Z</time></trkpt><trkpt lat="43.5804888" lon="11.883874"><ele>401.0</ele><time>2026-05-03T14:24:17.153Z</time></trkpt><trkpt lat="43.5804368" lon="11.8837382"><ele>400.8</ele><time>2026-05-03T14:24:18.181Z</time></trkpt><trkpt lat="43.5803925" lon="11.8835919"><ele>400.6</ele><time>2026-05-03T14:24:19.212Z</time></trkpt><trkpt lat="43.5803476" lon="11.883457"><ele>400.4</ele><time>2026-05-03T14:24:20.157Z</time></trkpt><trkpt lat="43.5803115" lon="11.8833381"><ele>400.2</ele><time>2026-05-03T14:24:21.159Z</time></trkpt><trkpt lat="43.5802862" lon="11.8832413"><ele>400.0</ele><time>2026-05-03T14:24:22.182Z</time></trkpt><trkpt lat="43.5802837" lon="11.883149"><ele>400.00000000000006</ele><time>2026-05-03T14:24:23.179Z</time></trkpt><trkpt lat="43.5803158" lon="11.8830686"><ele>400.0</ele><time>2026-05-03T14:24:24.153Z</time></trkpt><trkpt lat="43.5803852" lon="11.8830237"><ele>400.0</ele><time>2026-05-03T14:24:25.167Z</time></trkpt><trkpt lat="43.5804611" lon="11.8830157"><ele>400.0</ele><time>2026-05-03T14:24:26.215Z</time></trkpt><trkpt lat="43.5805369" lon="11.8830542"><ele>400.00000000000006</ele><time>2026-05-03T14:24:27.287Z</time></trkpt><trkpt lat="43.5805914" lon="11.8831636"><ele>400.0</ele><time>2026-05-03T14:24:28.233Z</time></trkpt><trkpt lat="43.580646" lon="11.883278"><ele>397.25</ele><time>2026-05-03T14:24:29.191Z</time></trkpt><trkpt lat="43.5807062" lon="11.8834117"><ele>394.5</ele><time>2026-05-03T14:24:30.313Z</time></trkpt><trkpt lat="43.5807698" lon="11.8835643"><ele>391.75</ele><time>2026-05-03T14:24:31.23Z</time></trkpt><trkpt lat="43.5808341" lon="11.8836987"><ele>389.0</ele><time>2026-05-03T14:24:32.221Z</time></trkpt><trkpt lat="43.5808891" lon="11.8838144"><ele>388.99999999999994</ele><time>2026-05-03T14:24:33.242Z</time></trkpt><trkpt lat="43.5809446" lon="11.8838962"><ele>389.0</ele><time>2026-05-03T14:24:34.187Z</time></trkpt><trkpt lat="43.5810181" lon="11.8839328"><ele>389.0</ele><time>2026-05-03T14:24:35.106Z</time></trkpt><trkpt lat="43.581099" lon="11.8839247"><ele>389.0</ele><time>2026-05-03T14:24:36.123Z</time></trkpt><trkpt lat="43.5811713" lon="11.8838813"><ele>388.99999999999994</ele><time>2026-05-03T14:24:37.118Z</time></trkpt><trkpt lat="43.5812569" lon="11.8838147"><ele>389.0</ele><time>2026-05-03T14:24:38.12Z</time></trkpt><trkpt lat="43.5813549" lon="11.8837531"><ele>387.5</ele><time>2026-05-03T14:24:39.119Z</time></trkpt><trkpt lat="43.5814467" lon="11.8836982"><ele>386.0</ele><time>2026-05-03T14:24:40.119Z</time></trkpt><trkpt lat="43.5815284" lon="11.8836006"><ele>384.5</ele><time>2026-05-03T14:24:41.123Z</time></trkpt><trkpt lat="43.5816053" lon="11.883461"><ele>383.0</ele><time>2026-05-03T14:24:42.12Z</time></trkpt><trkpt lat="43.5816944" lon="11.8832862"><ele>381.75</ele><time>2026-05-03T14:24:43.118Z</time></trkpt><trkpt lat="43.5817767" lon="11.8831167"><ele>380.5</ele><time>2026-05-03T14:24:44.12Z</time></trkpt><trkpt lat="43.5818554" lon="11.8829649"><ele>379.25</ele><time>2026-05-03T14:24:45.128Z</time></trkpt><trkpt lat="43.5819324" lon="11.8828369"><ele>378.0</ele><time>2026-05-03T14:24:46.117Z</time></trkpt><trkpt lat="43.5820184" lon="11.8827385"><ele>378.0</ele><time>2026-05-03T14:24:47.123Z</time></trkpt><trkpt lat="43.5821046" lon="11.8826409"><ele>378.0</ele><time>2026-05-03T14:24:48.122Z</time></trkpt><trkpt lat="43.5822091" lon="11.8825895"><ele>378.0</ele><time>2026-05-03T14:24:49.128Z</time></trkpt><trkpt lat="43.5823097" lon="11.8825379"><ele>378.0</ele><time>2026-05-03T14:24:50.121Z</time></trkpt><trkpt lat="43.5823791" lon="11.8824601"><ele>378.0</ele><time>2026-05-03T14:24:51.124Z</time></trkpt><trkpt lat="43.5824295" lon="11.882341"><ele>374.75</ele><time>2026-05-03T14:24:52.159Z</time></trkpt><trkpt lat="43.5824491" lon="11.8821837"><ele>371.5</ele><time>2026-05-03T14:24:53.19Z</time></trkpt><trkpt lat="43.5824486" lon="11.8820005"><ele>368.25</ele><time>2026-05-03T14:24:54.164Z</time></trkpt><trkpt lat="43.5824343" lon="11.8817868"><ele>365.0</ele><time>2026-05-03T14:24:55.127Z</time></trkpt><trkpt lat="43.5824126" lon="11.881577"><ele>363.0</ele><time>2026-05-03T14:24:56.133Z</time></trkpt><trkpt lat="43.5823914" lon="11.881382"><ele>361.0</ele><time>2026-05-03T14:24:57.188Z</time></trkpt><trkpt lat="43.5823726" lon="11.8812112"><ele>359.0</ele><time>2026-05-03T14:24:58.183Z</time></trkpt><trkpt lat="43.582353" lon="11.8810635"><ele>357.0</ele><time>2026-05-03T14:24:59.177Z</time></trkpt><trkpt lat="43.58232" lon="11.88093"><ele>355.40000000000003</ele><time>2026-05-03T14:25:00.129Z</time></trkpt><trkpt lat="43.5822638" lon="11.8808104"><ele>353.8</ele><time>2026-05-03T14:25:01.12Z</time></trkpt><trkpt lat="43.582188" lon="11.8807071"><ele>352.2</ele><time>2026-05-03T14:25:02.115Z</time></trkpt><trkpt lat="43.5821103" lon="11.8806237"><ele>350.6</ele><time>2026-05-03T14:25:03.161Z</time></trkpt><trkpt lat="43.5820436" lon="11.880544"><ele>349.0</ele><time>2026-05-03T14:25:04.176Z</time></trkpt><trkpt lat="43.5819958" lon="11.8804503"><ele>346.4</ele><time>2026-05-03T14:25:05.182Z</time></trkpt><trkpt lat="43.5819514" lon="11.8803588"><ele>343.79999999999995</ele><time>2026-05-03T14:25:06.171Z</time></trkpt><trkpt lat="43.5819476" lon="11.8802422"><ele>341.20000000000005</ele><time>2026-05-03T14:25:07.127Z</time></trkpt><trkpt lat="43.5819852" lon="11.8801307"><ele>338.6</ele><time>2026-05-03T14:25:08.122Z</time></trkpt><trkpt lat="43.5820563" lon="11.8800442"><ele>336.0</ele><time>2026-05-03T14:25:09.121Z</time></trkpt><trkpt lat="43.5821551" lon="11.880003"><ele>336.0</ele><time>2026-05-03T14:25:10.164Z</time></trkpt><trkpt lat="43.5822577" lon="11.8799841"><ele>336.0</ele><time>2026-05-03T14:25:11.149Z</time></trkpt><trkpt lat="43.5823525" lon="11.8799471"><ele>336.0</ele><time>2026-05-03T14:25:12.168Z</time></trkpt><trkpt lat="43.5824128" lon="11.8798644"><ele>336.0</ele><time>2026-05-03T14:25:13.148Z</time></trkpt><trkpt lat="43.5824431" lon="11.8797555"><ele>336.0</ele><time>2026-05-03T14:25:14.166Z</time></trkpt><trkpt lat="43.5824273" lon="11.8796429"><ele>336.0</ele><time>2026-05-03T14:25:15.116Z</time></trkpt><trkpt lat="43.5823815" lon="11.87953"><ele>336.0</ele><time>2026-05-03T14:25:16.111Z</time></trkpt><trkpt lat="43.5823371" lon="11.8794099"><ele>336.0</ele><time>2026-05-03T14:25:17.147Z</time></trkpt><trkpt lat="43.5823001" lon="11.8792995"><ele>336.0</ele><time>2026-05-03T14:25:18.152Z</time></trkpt><trkpt lat="43.5822987" lon="11.8791782"><ele>336.0</ele><time>2026-05-03T14:25:19.192Z</time></trkpt><trkpt lat="43.5823625" lon="11.8790677"><ele>334.0</ele><time>2026-05-03T14:25:20.152Z</time></trkpt><trkpt lat="43.5824495" lon="11.8789705"><ele>332.0</ele><time>2026-05-03T14:25:21.155Z</time></trkpt><trkpt lat="43.5825702" lon="11.8788807"><ele>330.0</ele><time>2026-05-03T14:25:22.148Z</time></trkpt><trkpt lat="43.5826896" lon="11.8788017"><ele>328.0</ele><time>2026-05-03T14:25:23.206Z</time></trkpt><trkpt lat="43.5827936" lon="11.8787189"><ele>325.79999999999995</ele><time>2026-05-03T14:25:24.153Z</time></trkpt><trkpt lat="43.5828882" lon="11.8786386"><ele>323.59999999999997</ele><time>2026-05-03T14:25:25.18Z</time></trkpt><trkpt lat="43.5829641" lon="11.8785473"><ele>321.4</ele><time>2026-05-03T14:25:26.168Z</time></trkpt><trkpt lat="43.5830066" lon="11.87845"><ele>319.2</ele><time>2026-05-03T14:25:27.218Z</time></trkpt><trkpt lat="43.5830106" lon="11.8783379"><ele>317.0</ele><time>2026-05-03T14:25:28.149Z</time></trkpt><trkpt lat="43.5829753" lon="11.8782433"><ele>316.6</ele><time>2026-05-03T14:25:29.18Z</time></trkpt><trkpt lat="43.5829165" lon="11.8781712"><ele>316.2</ele><time>2026-05-03T14:25:30.167Z</time></trkpt><trkpt lat="43.5828454" lon="11.8781334"><ele>315.8</ele><time>2026-05-03T14:25:31.225Z</time></trkpt><trkpt lat="43.5827598" lon="11.878124"><ele>315.4</ele><time>2026-05-03T14:25:32.158Z</time></trkpt><trkpt lat="43.5826561" lon="11.8781239"><ele>315.0</ele><time>2026-05-03T14:25:33.12Z</time></trkpt><trkpt lat="43.5825407" lon="11.8781248"><ele>320.0</ele><time>2026-05-03T14:25:34.127Z</time></trkpt><trkpt lat="43.5824105" lon="11.8781309"><ele>320.0</ele><time>2026-05-03T14:25:35.114Z</time></trkpt></trkseg></trk></gpx>